Wetterdaten: Freitag, 11.05.2018
Datum Zeit Temp. A. Pool Temp. Feuchte A. Luftdruck Regen Wind Richtung Richtung Sonnenschein ET UV Solar Taupunkt Windchill Windben Empfang
11.05.2018 00:00 14,6 C 19,4 C 85 % 1015,2 hPa 0,0 l/m 12,5 km/h (3 Bft) W-SW 245 0 min 0,000 mm 0,0 UV-I 0 W/m 12,1 C 11,6 C 19,3 km/h (3 Bft) 100,00 %
11.05.2018 00:01 14,6 C 19,4 C 86 % 1015,3 hPa 0,0 l/m 15,9 km/h (3 Bft) W-SW 251 0 min 0,000 mm 0,0 UV-I 0 W/m 12,3 C 10,4 C 24,1 km/h (4 Bft) 100,00 %
11.05.2018 00:02 14,6 C 19,4 C 86 % 1015,3 hPa 0,0 l/m 18,2 km/h (3 Bft) W-SW 248 0 min 0,000 mm 0,0 UV-I 0 W/m 12,3 C 9,7 C 24,1 km/h (4 Bft) 100,00 %
11.05.2018 00:03 14,6 C 19,4 C 86 % 1015,3 hPa 0,0 l/m 15,6 km/h (3 Bft) SW 232 0 min 0,000 mm 0,0 UV-I 0 W/m 12,3 C 10,5 C 25,7 km/h (4 Bft) 100,00 %
11.05.2018 00:04 14,6 C 19,4 C 86 % 1015,3 hPa 0,0 l/m 15,9 km/h (3 Bft) W-SW 238 0 min 0,000 mm 0,0 UV-I 0 W/m 12,3 C 10,4 C 24,1 km/h (4 Bft) 100,00 %
11.05.2018 00:05 14,6 C 19,4 C 86 % 1015,3 hPa 0,0 l/m 12,5 km/h (3 Bft) W-SW 237 0 min 0,000 mm 0,0 UV-I 0 W/m 12,3 C 11,6 C 17,7 km/h (3 Bft) 95,65 %
11.05.2018 00:06 14,6 C 19,4 C 86 % 1015,4 hPa 0,0 l/m 17,1 km/h (3 Bft) W-SW 257 0 min 0,000 mm 0,0 UV-I 0 W/m 12,3 C 10,0 C 20,9 km/h (4 Bft) 100,00 %
11.05.2018 00:07 14,6 C 19,4 C 86 % 1015,4 hPa 0,0 l/m 14,6 km/h (3 Bft) W-SW 247 0 min 0,000 mm 0,0 UV-I 0 W/m 12,3 C 10,8 C 19,3 km/h (3 Bft) 100,00 %
11.05.2018 00:09 14,6 C 19,4 C 86 % 1015,3 hPa 0,0 l/m 14,6 km/h (3 Bft) W-SW 245 0 min 0,000 mm 0,0 UV-I 0 W/m 12,3 C 10,8 C 20,9 km/h (4 Bft) 98,36 %
11.05.2018 00:10 14,6 C 19,4 C 86 % 1015,3 hPa 0,0 l/m 14,0 km/h (3 Bft) W-SW 246 0 min 0,000 mm 0,0 UV-I 0 W/m 12,3 C 11,1 C 17,7 km/h (3 Bft) 100,00 %
11.05.2018 00:11 14,6 C 19,4 C 86 % 1015,3 hPa 0,0 l/m 15,5 km/h (3 Bft) SW 231 0 min 0,000 mm 0,0 UV-I 0 W/m 12,3 C 10,5 C 19,3 km/h (3 Bft) 99,13 %
11.05.2018 00:12 14,6 C 19,4 C 86 % 1015,3 hPa 0,0 l/m 15,2 km/h (3 Bft) W 263 0 min 0,000 mm 0,0 UV-I 0 W/m 12,3 C 10,6 C 20,9 km/h (4 Bft) 100,00 %
11.05.2018 00:13 14,5 C 19,4 C 86 % 1015,3 hPa 0,0 l/m 13,1 km/h (3 Bft) SW 235 0 min 0,000 mm 0,0 UV-I 0 W/m 12,2 C 11,3 C 17,7 km/h (3 Bft) 95,83 %
11.05.2018 00:14 14,5 C 19,4 C 86 % 1015,3 hPa 0,0 l/m 12,9 km/h (3 Bft) W 262 0 min 0,000 mm 0,0 UV-I 0 W/m 12,2 C 11,3 C 19,3 km/h (3 Bft) 100,00 %
11.05.2018 00:15 14,5 C 19,4 C 86 % 1015,3 hPa 0,0 l/m 14,6 km/h (3 Bft) W-SW 246 0 min 0,000 mm 0,0 UV-I 0 W/m 12,2 C 10,7 C 17,7 km/h (3 Bft) 100,00 %
11.05.2018 00:16 14,5 C 19,4 C 86 % 1015,4 hPa 0,0 l/m 13,2 km/h (3 Bft) SW 236 0 min 0,000 mm 0,0 UV-I 0 W/m 12,2 C 11,2 C 19,3 km/h (3 Bft) 92,31 %
11.05.2018 00:17 14,5 C 19,4 C 86 % 1015,4 hPa 0,0 l/m 13,7 km/h (3 Bft) W-SW 240 0 min 0,000 mm 0,0 UV-I 0 W/m 12,2 C 11,0 C 19,3 km/h (3 Bft) 100,00 %
11.05.2018 00:18 14,5 C 19,4 C 86 % 1015,3 hPa 0,0 l/m 13,6 km/h (3 Bft) W-SW 244 0 min 0,000 mm 0,0 UV-I 0 W/m 12,2 C 11,1 C 19,3 km/h (3 Bft) 95,65 %
11.05.2018 00:19 14,5 C 19,4 C 86 % 1015,4 hPa 0,0 l/m 12,9 km/h (3 Bft) W 261 0 min 0,000 mm 0,0 UV-I 0 W/m 12,2 C 11,3 C 19,3 km/h (3 Bft) 100,00 %
11.05.2018 00:20 14,5 C 19,4 C 86 % 1015,4 hPa 0,0 l/m 12,2 km/h (2 Bft) W-SW 244 0 min 0,000 mm 0,0 UV-I 0 W/m 12,2 C 11,6 C 14,5 km/h (3 Bft) 95,65 %
11.05.2018 00:21 14,5 C 19,4 C 86 % 1015,4 hPa 0,0 l/m 13,5 km/h (3 Bft) W-SW 249 0 min 0,000 mm 0,0 UV-I 0 W/m 12,2 C 11,1 C 19,3 km/h (3 Bft) 100,00 %
11.05.2018 00:22 14,5 C 19,4 C 86 % 1015,4 hPa 0,0 l/m 17,2 km/h (3 Bft) SW 214 0 min 0,000 mm 0,0 UV-I 0 W/m 12,2 C 9,9 C 22,5 km/h (4 Bft) 100,00 %
11.05.2018 00:23 14,5 C 19,4 C 86 % 1015,4 hPa 0,0 l/m 12,9 km/h (3 Bft) W-SW 249 0 min 0,000 mm 0,0 UV-I 0 W/m 12,2 C 11,3 C 17,7 km/h (3 Bft) 100,00 %
11.05.2018 00:24 14,5 C 19,4 C 86 % 1015,4 hPa 0,0 l/m 16,2 km/h (3 Bft) SW 218 0 min 0,000 mm 0,0 UV-I 0 W/m 12,2 C 10,2 C 22,5 km/h (4 Bft) 100,00 %
11.05.2018 00:25 14,5 C 19,4 C 86 % 1015,4 hPa 0,0 l/m 15,8 km/h (3 Bft) W-SW 245 0 min 0,000 mm 0,0 UV-I 0 W/m 12,2 C 10,3 C 20,9 km/h (4 Bft) 100,00 %
11.05.2018 00:26 14,5 C 19,4 C 86 % 1015,5 hPa 0,0 l/m 14,3 km/h (3 Bft) S-SW 204 0 min 0,000 mm 0,0 UV-I 0 W/m 12,2 C 10,8 C 20,9 km/h (4 Bft) 100,00 %
11.05.2018 00:27 14,5 C 19,4 C 86 % 1015,4 hPa 0,0 l/m 14,4 km/h (3 Bft) W-SW 246 0 min 0,000 mm 0,0 UV-I 0 W/m 12,2 C 10,8 C 19,3 km/h (3 Bft) 95,83 %
11.05.2018 00:28 14,5 C 19,4 C 86 % 1015,5 hPa 0,0 l/m 14,4 km/h (3 Bft) S-SW 212 0 min 0,000 mm 0,0 UV-I 0 W/m 12,2 C 10,8 C 19,3 km/h (3 Bft) 100,00 %
11.05.2018 00:29 14,5 C 19,4 C 86 % 1015,5 hPa 0,0 l/m 17,4 km/h (3 Bft) W-SW 253 0 min 0,000 mm 0,0 UV-I 0 W/m 12,2 C 9,8 C 22,5 km/h (4 Bft) 100,00 %
11.05.2018 00:30 14,5 C 19,4 C 86 % 1015,5 hPa 0,0 l/m 15,6 km/h (3 Bft) W-SW 257 0 min 0,000 mm 0,0 UV-I 0 W/m 12,2 C 10,4 C 19,3 km/h (3 Bft) 100,00 %
11.05.2018 00:31 14,5 C 19,4 C 86 % 1015,5 hPa 0,0 l/m 15,0 km/h (3 Bft) SW 229 0 min 0,000 mm 0,0 UV-I 0 W/m 12,2 C 10,6 C 19,3 km/h (3 Bft) 100,00 %
11.05.2018 00:32 14,5 C 19,4 C 86 % 1015,5 hPa 0,0 l/m 15,2 km/h (3 Bft) SW 231 0 min 0,000 mm 0,0 UV-I 0 W/m 12,2 C 10,5 C 17,7 km/h (3 Bft) 100,00 %
11.05.2018 00:33 14,5 C 19,4 C 86 % 1015,5 hPa 0,0 l/m 15,1 km/h (3 Bft) S-SW 213 0 min 0,000 mm 0,0 UV-I 0 W/m 12,2 C 10,6 C 20,9 km/h (4 Bft) 100,00 %
11.05.2018 00:34 14,4 C 19,4 C 86 % 1015,6 hPa 0,0 l/m 13,7 km/h (3 Bft) SW 231 0 min 0,000 mm 0,0 UV-I 0 W/m 12,1 C 10,9 C 22,5 km/h (4 Bft) 100,00 %
11.05.2018 00:35 14,5 C 19,4 C 86 % 1015,6 hPa 0,0 l/m 13,1 km/h (3 Bft) SW 230 0 min 0,000 mm 0,0 UV-I 0 W/m 12,2 C 11,3 C 17,7 km/h (3 Bft) 100,00 %
11.05.2018 00:36 14,5 C 19,4 C 86 % 1015,6 hPa 0,0 l/m 13,7 km/h (3 Bft) S-SW 212 0 min 0,000 mm 0,0 UV-I 0 W/m 12,2 C 11,0 C 17,7 km/h (3 Bft) 100,00 %
11.05.2018 00:37 14,4 C 19,4 C 86 % 1015,6 hPa 0,0 l/m 10,3 km/h (2 Bft) W-SW 248 0 min 0,000 mm 0,0 UV-I 0 W/m 12,1 C 12,3 C 12,9 km/h (3 Bft) 100,00 %
11.05.2018 00:38 14,4 C 19,4 C 86 % 1015,5 hPa 0,0 l/m 9,4 km/h (2 Bft) SW 224 0 min 0,000 mm 0,0 UV-I 0 W/m 12,1 C 12,7 C 11,3 km/h (2 Bft) 95,83 %
11.05.2018 00:39 14,4 C 19,4 C 86 % 1015,6 hPa 0,0 l/m 10,4 km/h (2 Bft) S-SW 209 0 min 0,000 mm 0,0 UV-I 0 W/m 12,1 C 12,3 C 14,5 km/h (3 Bft) 100,00 %
11.05.2018 00:40 14,4 C 19,4 C 86 % 1015,6 hPa 0,0 l/m 12,0 km/h (2 Bft) SW 226 0 min 0,000 mm 0,0 UV-I 0 W/m 12,1 C 11,6 C 17,7 km/h (3 Bft) 100,00 %
11.05.2018 00:41 14,4 C 19,4 C 86 % 1015,6 hPa 0,0 l/m 12,0 km/h (2 Bft) SW 223 0 min 0,000 mm 0,0 UV-I 0 W/m 12,1 C 11,6 C 16,1 km/h (3 Bft) 100,00 %
11.05.2018 00:42 14,4 C 19,4 C 86 % 1015,5 hPa 0,0 l/m 9,8 km/h (2 Bft) SW 236 0 min 0,000 mm 0,0 UV-I 0 W/m 12,1 C 12,5 C 14,5 km/h (3 Bft) 100,00 %
11.05.2018 00:43 14,4 C 19,4 C 87 % 1015,5 hPa 0,0 l/m 9,0 km/h (2 Bft) W-SW 247 0 min 0,000 mm 0,0 UV-I 0 W/m 12,3 C 12,9 C 11,3 km/h (2 Bft) 100,00 %
11.05.2018 00:44 14,3 C 19,4 C 87 % 1015,6 hPa 0,0 l/m 11,4 km/h (2 Bft) W-SW 253 0 min 0,000 mm 0,0 UV-I 0 W/m 12,2 C 11,7 C 16,1 km/h (3 Bft) 100,00 %
11.05.2018 00:45 14,3 C 19,4 C 87 % 1015,6 hPa 0,0 l/m 9,5 km/h (2 Bft) W 273 0 min 0,000 mm 0,0 UV-I 0 W/m 12,2 C 12,6 C 12,9 km/h (3 Bft) 95,65 %
11.05.2018 00:46 14,3 C 19,4 C 87 % 1015,6 hPa 0,0 l/m 11,7 km/h (2 Bft) W-SW 238 0 min 0,000 mm 0,0 UV-I 0 W/m 12,2 C 11,6 C 16,1 km/h (3 Bft) 100,00 %
11.05.2018 00:47 14,3 C 19,4 C 87 % 1015,5 hPa 0,0 l/m 10,8 km/h (2 Bft) SW 229 0 min 0,000 mm 0,0 UV-I 0 W/m 12,2 C 12,0 C 16,1 km/h (3 Bft) 100,00 %
11.05.2018 00:48 14,3 C 19,4 C 87 % 1015,6 hPa 0,0 l/m 9,7 km/h (2 Bft) W-SW 253 0 min 0,000 mm 0,0 UV-I 0 W/m 12,2 C 12,5 C 11,3 km/h (2 Bft) 100,00 %
11.05.2018 00:49 14,3 C 19,4 C 87 % 1015,6 hPa 0,0 l/m 10,5 km/h (2 Bft) S-SW 212 0 min 0,000 mm 0,0 UV-I 0 W/m 12,2 C 12,1 C 14,5 km/h (3 Bft) 100,00 %
11.05.2018 00:50 14,3 C 19,4 C 87 % 1015,6 hPa 0,0 l/m 13,5 km/h (3 Bft) W-SW 243 0 min 0,000 mm 0,0 UV-I 0 W/m 12,2 C 10,9 C 17,7 km/h (3 Bft) 100,00 %
11.05.2018 00:51 14,3 C 19,4 C 87 % 1015,6 hPa 0,0 l/m 12,5 km/h (3 Bft) SW 234 0 min 0,000 mm 0,0 UV-I 0 W/m 12,2 C 11,3 C 17,7 km/h (3 Bft) 100,00 %
11.05.2018 00:52 14,3 C 19,4 C 87 % 1015,6 hPa 0,0 l/m 13,0 km/h (3 Bft) W-SW 251 0 min 0,000 mm 0,0 UV-I 0 W/m 12,2 C 11,1 C 20,9 km/h (4 Bft) 100,00 %
11.05.2018 00:53 14,3 C 19,4 C 87 % 1015,6 hPa 0,0 l/m 12,3 km/h (3 Bft) W-SW 242 0 min 0,000 mm 0,0 UV-I 0 W/m 12,2 C 11,3 C 20,9 km/h (4 Bft) 100,00 %
11.05.2018 00:54 14,3 C 19,4 C 87 % 1015,6 hPa 0,0 l/m 15,8 km/h (3 Bft) W-SW 241 0 min 0,000 mm 0,0 UV-I 0 W/m 12,2 C 10,1 C 19,3 km/h (3 Bft) 100,00 %
11.05.2018 00:55 14,3 C 19,4 C 87 % 1015,6 hPa 0,0 l/m 13,3 km/h (3 Bft) W-SW 240 0 min 0,000 mm 0,0 UV-I 0 W/m 12,2 C 11,0 C 19,3 km/h (3 Bft) 100,00 %
11.05.2018 00:56 14,3 C 19,4 C 87 % 1015,6 hPa 0,0 l/m 14,1 km/h (3 Bft) W-SW 237 0 min 0,000 mm 0,0 UV-I 0 W/m 12,2 C 10,7 C 20,9 km/h (4 Bft) 95,65 %
11.05.2018 00:57 14,3 C 19,4 C 87 % 1015,6 hPa 0,0 l/m 13,8 km/h (3 Bft) W-SW 256 0 min 0,000 mm 0,0 UV-I 0 W/m 12,2 C 10,8 C 19,3 km/h (3 Bft) 100,00 %
11.05.2018 00:58 14,3 C 19,4 C 87 % 1015,6 hPa 0,0 l/m 11,6 km/h (2 Bft) W-SW 253 0 min 0,000 mm 0,0 UV-I 0 W/m 12,2 C 11,6 C 19,3 km/h (3 Bft) 95,65 %
11.05.2018 00:59 14,3 C 19,4 C 88 % 1015,6 hPa 0,0 l/m 10,9 km/h (2 Bft) W-SW 241 0 min 0,000 mm 0,0 UV-I 0 W/m 12,3 C 11,9 C 16,1 km/h (3 Bft) 100,00 %
11.05.2018 01:00 14,2 C 19,4 C 88 % 1015,6 hPa 0,0 l/m 18,3 km/h (3 Bft) W 260 0 min 0,000 mm 0,0 UV-I 0 W/m 12,2 C 9,2 C 22,5 km/h (4 Bft) 95,65 %
11.05.2018 01:01 14,3 C 19,4 C 88 % 1015,6 hPa 0,0 l/m 11,2 km/h (2 Bft) SW 224 0 min 0,025 mm 0,0 UV-I 0 W/m 12,3 C 11,8 C 17,7 km/h (3 Bft) 100,00 %
11.05.2018 01:02 14,2 C 19,4 C 87 % 1015,6 hPa 0,0 l/m 13,6 km/h (3 Bft) SW 232 0 min 0,000 mm 0,0 UV-I 0 W/m 12,1 C 10,7 C 22,5 km/h (4 Bft) 91,30 %
11.05.2018 01:03 14,3 C 19,4 C 87 % 1015,6 hPa 0,0 l/m 12,7 km/h (3 Bft) W 269 0 min 0,000 mm 0,0 UV-I 0 W/m 12,2 C 11,2 C 17,7 km/h (3 Bft) 100,00 %
11.05.2018 01:04 14,3 C 19,4 C 87 % 1015,6 hPa 0,0 l/m 14,2 km/h (3 Bft) W-SW 250 0 min 0,000 mm 0,0 UV-I 0 W/m 12,2 C 10,6 C 22,5 km/h (4 Bft) 100,00 %
11.05.2018 01:05 14,3 C 19,4 C 87 % 1015,5 hPa 0,0 l/m 16,2 km/h (3 Bft) W-SW 244 0 min 0,000 mm 0,0 UV-I 0 W/m 12,2 C 9,9 C 20,9 km/h (4 Bft) 100,00 %
11.05.2018 01:06 14,3 C 19,4 C 87 % 1015,5 hPa 0,0 l/m 15,0 km/h (3 Bft) W-SW 255 0 min 0,000 mm 0,0 UV-I 0 W/m 12,2 C 10,3 C 20,9 km/h (4 Bft) 100,00 %
11.05.2018 01:07 14,3 C 19,4 C 87 % 1015,5 hPa 0,0 l/m 16,3 km/h (3 Bft) W-SW 238 0 min 0,000 mm 0,0 UV-I 0 W/m 12,2 C 9,9 C 20,9 km/h (4 Bft) 100,00 %
11.05.2018 01:08 14,3 C 19,4 C 87 % 1015,5 hPa 0,0 l/m 14,1 km/h (3 Bft) W-SW 242 0 min 0,000 mm 0,0 UV-I 0 W/m 12,2 C 10,7 C 19,3 km/h (3 Bft) 91,30 %
11.05.2018 01:09 14,3 C 19,4 C 87 % 1015,5 hPa 0,0 l/m 11,9 km/h (2 Bft) W-SW 257 0 min 0,000 mm 0,0 UV-I 0 W/m 12,2 C 11,5 C 16,1 km/h (3 Bft) 95,83 %
11.05.2018 01:10 14,3 C 19,4 C 87 % 1015,5 hPa 0,0 l/m 14,7 km/h (3 Bft) W-SW 252 0 min 0,000 mm 0,0 UV-I 0 W/m 12,2 C 10,4 C 19,3 km/h (3 Bft) 100,00 %
11.05.2018 01:11 14,3 C 19,4 C 87 % 1015,5 hPa 0,0 l/m 15,2 km/h (3 Bft) W 264 0 min 0,000 mm 0,0 UV-I 0 W/m 12,2 C 10,3 C 20,9 km/h (4 Bft) 93,33 %
11.05.2018 01:12 14,3 C 19,4 C 87 % 1015,5 hPa 0,0 l/m 12,3 km/h (3 Bft) SW 232 0 min 0,000 mm 0,0 UV-I 0 W/m 12,2 C 11,3 C 17,7 km/h (3 Bft) 100,00 %
11.05.2018 01:13 14,3 C 19,4 C 87 % 1015,5 hPa 0,0 l/m 14,1 km/h (3 Bft) W-SW 244 0 min 0,000 mm 0,0 UV-I 0 W/m 12,2 C 10,7 C 19,3 km/h (3 Bft) 96,15 %
11.05.2018 01:14 14,3 C 19,4 C 87 % 1015,5 hPa 0,0 l/m 14,1 km/h (3 Bft) W-SW 249 0 min 0,000 mm 0,0 UV-I 0 W/m 12,2 C 10,7 C 17,7 km/h (3 Bft) 95,65 %
11.05.2018 01:15 14,3 C 19,4 C 87 % 1015,5 hPa 0,0 l/m 14,1 km/h (3 Bft) W-SW 239 0 min 0,000 mm 0,0 UV-I 0 W/m 12,2 C 10,7 C 17,7 km/h (3 Bft) 95,83 %
11.05.2018 01:16 14,3 C 19,4 C 87 % 1015,5 hPa 0,0 l/m 14,1 km/h (3 Bft) W-SW 242 0 min 0,000 mm 0,0 UV-I 0 W/m 12,2 C 10,7 C 19,3 km/h (3 Bft) 91,67 %
11.05.2018 01:17 14,3 C 19,4 C 87 % 1015,6 hPa 0,0 l/m 13,2 km/h (3 Bft) W-SW 246 0 min 0,000 mm 0,0 UV-I 0 W/m 12,2 C 11,0 C 19,3 km/h (3 Bft) 95,65 %
11.05.2018 01:18 14,3 C 19,4 C 87 % 1015,6 hPa 0,0 l/m 10,9 km/h (2 Bft) W 259 0 min 0,000 mm 0,0 UV-I 0 W/m 12,2 C 11,9 C 16,1 km/h (3 Bft) 95,83 %
11.05.2018 01:19 14,3 C 19,4 C 87 % 1015,6 hPa 0,0 l/m 12,6 km/h (3 Bft) W 261 0 min 0,000 mm 0,0 UV-I 0 W/m 12,2 C 11,2 C 16,1 km/h (3 Bft) 100,00 %
11.05.2018 01:20 14,3 C 19,4 C 87 % 1015,6 hPa 0,0 l/m 12,9 km/h (3 Bft) W-SW 250 0 min 0,000 mm 0,0 UV-I 0 W/m 12,2 C 11,1 C 20,9 km/h (4 Bft) 95,83 %
11.05.2018 01:21 14,3 C 19,4 C 87 % 1015,6 hPa 0,0 l/m 12,4 km/h (3 Bft) W 265 0 min 0,000 mm 0,0 UV-I 0 W/m 12,2 C 11,3 C 16,1 km/h (3 Bft) 95,65 %
11.05.2018 01:22 14,3 C 19,4 C 87 % 1015,6 hPa 0,0 l/m 11,3 km/h (2 Bft) W-SW 254 0 min 0,000 mm 0,0 UV-I 0 W/m 12,2 C 11,8 C 14,5 km/h (3 Bft) 100,00 %
11.05.2018 01:23 14,3 C 19,4 C 87 % 1015,6 hPa 0,0 l/m 14,8 km/h (3 Bft) W-SW 240 0 min 0,000 mm 0,0 UV-I 0 W/m 12,2 C 10,4 C 20,9 km/h (4 Bft) 91,30 %
11.05.2018 01:24 14,3 C 19,4 C 87 % 1015,6 hPa 0,0 l/m 16,2 km/h (3 Bft) W 261 0 min 0,000 mm 0,0 UV-I 0 W/m 12,2 C 9,9 C 22,5 km/h (4 Bft) 95,83 %
11.05.2018 01:25 14,3 C 19,4 C 87 % 1015,6 hPa 0,0 l/m 11,7 km/h (2 Bft) SW 217 0 min 0,000 mm 0,0 UV-I 0 W/m 12,2 C 11,6 C 19,3 km/h (3 Bft) 95,65 %
11.05.2018 01:26 14,3 C 19,4 C 86 % 1015,6 hPa 0,0 l/m 13,3 km/h (3 Bft) W-SW 238 0 min 0,000 mm 0,0 UV-I 0 W/m 12,0 C 11,0 C 17,7 km/h (3 Bft) 100,00 %
11.05.2018 01:27 14,3 C 19,4 C 86 % 1015,6 hPa 0,0 l/m 15,2 km/h (3 Bft) W-SW 253 0 min 0,000 mm 0,0 UV-I 0 W/m 12,0 C 10,3 C 25,7 km/h (4 Bft) 91,30 %
11.05.2018 01:28 14,3 C 19,4 C 86 % 1015,6 hPa 0,0 l/m 12,6 km/h (3 Bft) W-SW 256 0 min 0,000 mm 0,0 UV-I 0 W/m 12,0 C 11,2 C 19,3 km/h (3 Bft) 100,00 %
11.05.2018 01:29 14,4 C 19,4 C 86 % 1015,6 hPa 0,0 l/m 14,6 km/h (3 Bft) W 259 0 min 0,000 mm 0,0 UV-I 0 W/m 12,1 C 10,6 C 19,3 km/h (3 Bft) 91,30 %
11.05.2018 01:30 14,4 C 19,4 C 86 % 1015,6 hPa 0,0 l/m 13,4 km/h (3 Bft) W-SW 245 0 min 0,000 mm 0,0 UV-I 0 W/m 12,1 C 11,0 C 19,3 km/h (3 Bft) 95,83 %
11.05.2018 01:31 14,4 C 19,4 C 86 % 1015,6 hPa 0,0 l/m 15,2 km/h (3 Bft) W-SW 252 0 min 0,000 mm 0,0 UV-I 0 W/m 12,1 C 10,4 C 22,5 km/h (4 Bft) 95,65 %
11.05.2018 01:32 14,4 C 19,4 C 86 % 1015,6 hPa 0,0 l/m 16,2 km/h (3 Bft) W-SW 237 0 min 0,000 mm 0,0 UV-I 0 W/m 12,1 C 10,1 C 24,1 km/h (4 Bft) 96,30 %
11.05.2018 01:33 14,4 C 19,4 C 86 % 1015,7 hPa 0,0 l/m 12,3 km/h (3 Bft) SW 221 0 min 0,000 mm 0,0 UV-I 0 W/m 12,1 C 11,5 C 17,7 km/h (3 Bft) 100,00 %
11.05.2018 01:34 14,4 C 19,4 C 86 % 1015,6 hPa 0,0 l/m 15,7 km/h (3 Bft) W-SW 243 0 min 0,000 mm 0,0 UV-I 0 W/m 12,1 C 10,2 C 22,5 km/h (4 Bft) 95,83 %
11.05.2018 01:35 14,4 C 19,4 C 86 % 1015,7 hPa 0,0 l/m 13,0 km/h (3 Bft) W-SW 238 0 min 0,000 mm 0,0 UV-I 0 W/m 12,1 C 11,2 C 16,1 km/h (3 Bft) 100,00 %
11.05.2018 01:36 14,4 C 19,4 C 86 % 1015,7 hPa 0,0 l/m 9,9 km/h (2 Bft) W-SW 254 0 min 0,000 mm 0,0 UV-I 0 W/m 12,1 C 12,5 C 14,5 km/h (3 Bft) 96,15 %
11.05.2018 01:37 14,4 C 19,4 C 86 % 1015,7 hPa 0,0 l/m 10,7 km/h (2 Bft) SW 223 0 min 0,000 mm 0,0 UV-I 0 W/m 12,1 C 12,1 C 16,1 km/h (3 Bft) 100,00 %
11.05.2018 01:38 14,4 C 19,4 C 86 % 1015,7 hPa 0,0 l/m 12,8 km/h (3 Bft) W-SW 246 0 min 0,000 mm 0,0 UV-I 0 W/m 12,1 C 11,3 C 22,5 km/h (4 Bft) 100,00 %
11.05.2018 01:39 14,4 C 19,4 C 86 % 1015,7 hPa 0,0 l/m 11,3 km/h (2 Bft) W-SW 244 0 min 0,000 mm 0,0 UV-I 0 W/m 12,1 C 11,9 C 14,5 km/h (3 Bft) 100,00 %
11.05.2018 01:40 14,4 C 19,4 C 86 % 1015,7 hPa 0,0 l/m 13,0 km/h (3 Bft) W-SW 240 0 min 0,000 mm 0,0 UV-I 0 W/m 12,1 C 11,2 C 17,7 km/h (3 Bft) 96,15 %
11.05.2018 01:41 14,4 C 19,4 C 86 % 1015,7 hPa 0,0 l/m 15,8 km/h (3 Bft) W 266 0 min 0,000 mm 0,0 UV-I 0 W/m 12,1 C 10,2 C 19,3 km/h (3 Bft) 91,67 %
11.05.2018 01:42 14,4 C 19,4 C 86 % 1015,7 hPa 0,0 l/m 13,0 km/h (3 Bft) W 262 0 min 0,000 mm 0,0 UV-I 0 W/m 12,1 C 11,2 C 17,7 km/h (3 Bft) 100,00 %
11.05.2018 01:43 14,4 C 19,4 C 86 % 1015,7 hPa 0,0 l/m 10,7 km/h (2 Bft) SW 228 0 min 0,000 mm 0,0 UV-I 0 W/m 12,1 C 12,1 C 12,9 km/h (3 Bft) 100,00 %
11.05.2018 01:44 14,4 C 19,4 C 86 % 1015,7 hPa 0,0 l/m 9,7 km/h (2 Bft) W-SW 242 0 min 0,000 mm 0,0 UV-I 0 W/m 12,1 C 12,6 C 14,5 km/h (3 Bft) 100,00 %
11.05.2018 01:45 14,4 C 19,4 C 86 % 1015,7 hPa 0,0 l/m 11,3 km/h (2 Bft) SW 227 0 min 0,000 mm 0,0 UV-I 0 W/m 12,1 C 11,9 C 17,7 km/h (3 Bft) 100,00 %
11.05.2018 01:46 14,4 C 19,4 C 86 % 1015,7 hPa 0,0 l/m 8,9 km/h (2 Bft) W-SW 247 0 min 0,000 mm 0,0 UV-I 0 W/m 12,1 C 13,0 C 14,5 km/h (3 Bft) 100,00 %
11.05.2018 01:47 14,4 C 19,4 C 86 % 1015,7 hPa 0,0 l/m 11,5 km/h (2 Bft) W-SW 257 0 min 0,000 mm 0,0 UV-I 0 W/m 12,1 C 11,8 C 17,7 km/h (3 Bft) 100,00 %
11.05.2018 01:48 14,4 C 19,4 C 86 % 1015,7 hPa 0,0 l/m 13,9 km/h (3 Bft) W-SW 247 0 min 0,000 mm 0,0 UV-I 0 W/m 12,1 C 10,9 C 19,3 km/h (3 Bft) 100,00 %
11.05.2018 01:49 14,4 C 19,4 C 86 % 1015,7 hPa 0,0 l/m 9,7 km/h (2 Bft) SW 234 0 min 0,000 mm 0,0 UV-I 0 W/m 12,1 C 12,6 C 14,5 km/h (3 Bft) 100,00 %
11.05.2018 01:50 14,4 C 19,4 C 86 % 1015,7 hPa 0,0 l/m 15,5 km/h (3 Bft) W-SW 238 0 min 0,000 mm 0,0 UV-I 0 W/m 12,1 C 10,3 C 20,9 km/h (4 Bft) 100,00 %
11.05.2018 01:51 14,4 C 19,4 C 86 % 1015,7 hPa 0,0 l/m 13,8 km/h (3 Bft) SW 232 0 min 0,000 mm 0,0 UV-I 0 W/m 12,1 C 10,9 C 20,9 km/h (4 Bft) 100,00 %
11.05.2018 01:52 14,4 C 19,4 C 85 % 1015,7 hPa 0,0 l/m 13,4 km/h (3 Bft) W-SW 244 0 min 0,000 mm 0,0 UV-I 0 W/m 11,9 C 11,0 C 19,3 km/h (3 Bft) 100,00 %
11.05.2018 01:53 14,5 C 19,4 C 85 % 1015,6 hPa 0,0 l/m 9,9 km/h (2 Bft) W-SW 245 0 min 0,000 mm 0,0 UV-I 0 W/m 12,0 C 12,6 C 16,1 km/h (3 Bft) 100,00 %
11.05.2018 01:54 14,5 C 19,4 C 85 % 1015,6 hPa 0,0 l/m 11,5 km/h (2 Bft) W 265 0 min 0,000 mm 0,0 UV-I 0 W/m 12,0 C 11,9 C 17,7 km/h (3 Bft) 95,83 %
11.05.2018 01:55 14,5 C 19,4 C 85 % 1015,6 hPa 0,0 l/m 13,1 km/h (3 Bft) W-SW 243 0 min 0,000 mm 0,0 UV-I 0 W/m 12,0 C 11,3 C 17,7 km/h (3 Bft) 100,00 %
11.05.2018 01:56 14,5 C 19,4 C 85 % 1015,7 hPa 0,0 l/m 9,6 km/h (2 Bft) W 269 0 min 0,000 mm 0,0 UV-I 0 W/m 12,0 C 12,8 C 12,9 km/h (3 Bft) 100,00 %
11.05.2018 01:57 14,5 C 19,4 C 85 % 1015,7 hPa 0,0 l/m 11,5 km/h (2 Bft) W-SW 250 0 min 0,000 mm 0,0 UV-I 0 W/m 12,0 C 11,9 C 16,1 km/h (3 Bft) 95,65 %
11.05.2018 01:58 14,5 C 19,4 C 85 % 1015,7 hPa 0,0 l/m 9,6 km/h (2 Bft) W-SW 241 0 min 0,000 mm 0,0 UV-I 0 W/m 12,0 C 12,8 C 14,5 km/h (3 Bft) 100,00 %
11.05.2018 01:59 14,5 C 19,4 C 85 % 1015,6 hPa 0,0 l/m 11,9 km/h (2 Bft) SW 230 0 min 0,000 mm 0,0 UV-I 0 W/m 12,0 C 11,7 C 19,3 km/h (3 Bft) 100,00 %
11.05.2018 02:00 14,5 C 19,4 C 85 % 1015,6 hPa 0,0 l/m 12,6 km/h (3 Bft) SW 236 0 min 0,026 mm 0,0 UV-I 0 W/m 12,0 C 11,5 C 16,1 km/h (3 Bft) 100,00 %
11.05.2018 02:01 14,5 C 19,4 C 85 % 1015,7 hPa 0,0 l/m 11,3 km/h (2 Bft) W-SW 252 0 min 0,000 mm 0,0 UV-I 0 W/m 12,0 C 12,0 C 16,1 km/h (3 Bft) 100,00 %
11.05.2018 02:02 14,5 C 19,4 C 85 % 1015,7 hPa 0,0 l/m 10,8 km/h (2 Bft) W-SW 245 0 min 0,000 mm 0,0 UV-I 0 W/m 12,0 C 12,2 C 19,3 km/h (3 Bft) 100,00 %
11.05.2018 02:03 14,5 C 19,4 C 85 % 1015,8 hPa 0,0 l/m 11,6 km/h (2 Bft) SW 231 0 min 0,000 mm 0,0 UV-I 0 W/m 12,0 C 11,9 C 19,3 km/h (3 Bft) 100,00 %
11.05.2018 02:04 14,5 C 19,4 C 85 % 1015,8 hPa 0,0 l/m 12,5 km/h (3 Bft) SW 227 0 min 0,000 mm 0,0 UV-I 0 W/m 12,0 C 11,5 C 17,7 km/h (3 Bft) 100,00 %
11.05.2018 02:05 14,5 C 19,4 C 85 % 1015,7 hPa 0,0 l/m 10,8 km/h (2 Bft) W-SW 239 0 min 0,000 mm 0,0 UV-I 0 W/m 12,0 C 12,2 C 12,9 km/h (3 Bft) 95,83 %
11.05.2018 02:06 14,5 C 19,4 C 85 % 1015,7 hPa 0,0 l/m 10,2 km/h (2 Bft) W-SW 257 0 min 0,000 mm 0,0 UV-I 0 W/m 12,0 C 12,5 C 12,9 km/h (3 Bft) 100,00 %
11.05.2018 02:07 14,4 C 19,4 C 85 % 1015,7 hPa 0,0 l/m 13,3 km/h (3 Bft) SW 230 0 min 0,000 mm 0,0 UV-I 0 W/m 11,9 C 11,1 C 16,1 km/h (3 Bft) 100,00 %
11.05.2018 02:08 14,5 C 19,4 C 85 % 1015,8 hPa 0,0 l/m 11,6 km/h (2 Bft) W-SW 240 0 min 0,000 mm 0,0 UV-I 0 W/m 12,0 C 11,9 C 16,1 km/h (3 Bft) 100,00 %
11.05.2018 02:09 14,4 C 19,4 C 86 % 1015,8 hPa 0,0 l/m 12,6 km/h (3 Bft) W-SW 238 0 min 0,000 mm 0,0 UV-I 0 W/m 12,1 C 11,3 C 17,7 km/h (3 Bft) 100,00 %
11.05.2018 02:10 14,4 C 19,4 C 86 % 1015,8 hPa 0,0 l/m 14,8 km/h (3 Bft) SW 229 0 min 0,000 mm 0,0 UV-I 0 W/m 12,1 C 10,5 C 17,7 km/h (3 Bft) 100,00 %
11.05.2018 02:11 14,4 C 19,4 C 86 % 1015,8 hPa 0,0 l/m 11,8 km/h (2 Bft) W-SW 238 0 min 0,000 mm 0,0 UV-I 0 W/m 12,1 C 11,7 C 17,7 km/h (3 Bft) 100,00 %
11.05.2018 02:12 14,4 C 19,4 C 86 % 1015,8 hPa 0,0 l/m 15,1 km/h (3 Bft) W-SW 241 0 min 0,000 mm 0,0 UV-I 0 W/m 12,1 C 10,4 C 20,9 km/h (4 Bft) 100,00 %
11.05.2018 02:13 14,4 C 19,4 C 86 % 1015,8 hPa 0,0 l/m 12,8 km/h (3 Bft) W-SW 254 0 min 0,000 mm 0,0 UV-I 0 W/m 12,1 C 11,3 C 17,7 km/h (3 Bft) 95,65 %
11.05.2018 02:14 14,4 C 19,4 C 86 % 1015,8 hPa 0,0 l/m 11,4 km/h (2 Bft) W-SW 238 0 min 0,000 mm 0,0 UV-I 0 W/m 12,1 C 11,8 C 16,1 km/h (3 Bft) 100,00 %
11.05.2018 02:15 14,4 C 19,4 C 86 % 1015,8 hPa 0,0 l/m 13,0 km/h (3 Bft) W-SW 245 0 min 0,000 mm 0,0 UV-I 0 W/m 12,1 C 11,2 C 17,7 km/h (3 Bft) 100,00 %
11.05.2018 02:16 14,4 C 19,4 C 86 % 1015,8 hPa 0,0 l/m 16,1 km/h (3 Bft) SW 229 0 min 0,000 mm 0,0 UV-I 0 W/m 12,1 C 10,1 C 19,3 km/h (3 Bft) 100,00 %
11.05.2018 02:17 14,4 C 19,4 C 86 % 1015,9 hPa 0,0 l/m 13,7 km/h (3 Bft) W-SW 254 0 min 0,000 mm 0,0 UV-I 0 W/m 12,1 C 10,9 C 19,3 km/h (3 Bft) 100,00 %
11.05.2018 02:18 14,4 C 19,4 C 86 % 1015,8 hPa 0,0 l/m 9,5 km/h (2 Bft) W-SW 250 0 min 0,000 mm 0,0 UV-I 0 W/m 12,1 C 12,7 C 12,9 km/h (3 Bft) 100,00 %
11.05.2018 02:19 14,4 C 19,4 C 86 % 1015,8 hPa 0,0 l/m 15,0 km/h (3 Bft) W-SW 255 0 min 0,000 mm 0,0 UV-I 0 W/m 12,1 C 10,5 C 20,9 km/h (4 Bft) 100,00 %
11.05.2018 02:20 14,4 C 19,4 C 86 % 1015,8 hPa 0,0 l/m 13,7 km/h (3 Bft) W-SW 240 0 min 0,000 mm 0,0 UV-I 0 W/m 12,1 C 10,9 C 22,5 km/h (4 Bft) 96,15 %
11.05.2018 02:21 14,4 C 19,4 C 86 % 1015,9 hPa 0,0 l/m 16,8 km/h (3 Bft) SW 234 0 min 0,000 mm 0,0 UV-I 0 W/m 12,1 C 9,9 C 24,1 km/h (4 Bft) 100,00 %
11.05.2018 02:22 14,4 C 19,4 C 86 % 1015,8 hPa 0,0 l/m 20,3 km/h (4 Bft) W-SW 244 0 min 0,000 mm 0,0 UV-I 0 W/m 12,1 C 8,9 C 24,1 km/h (4 Bft) 100,00 %
11.05.2018 02:23 14,4 C 19,4 C 86 % 1015,8 hPa 0,0 l/m 14,2 km/h (3 Bft) W-SW 240 0 min 0,000 mm 0,0 UV-I 0 W/m 12,1 C 10,7 C 19,3 km/h (3 Bft) 100,00 %
11.05.2018 02:24 14,4 C 19,4 C 86 % 1015,8 hPa 0,0 l/m 15,2 km/h (3 Bft) SW 216 0 min 0,000 mm 0,0 UV-I 0 W/m 12,1 C 10,4 C 20,9 km/h (4 Bft) 100,00 %
11.05.2018 02:25 14,4 C 19,4 C 86 % 1015,9 hPa 0,0 l/m 14,6 km/h (3 Bft) W-SW 244 0 min 0,000 mm 0,0 UV-I 0 W/m 12,1 C 10,6 C 17,7 km/h (3 Bft) 100,00 %
11.05.2018 02:26 14,4 C 19,4 C 86 % 1015,9 hPa 0,0 l/m 13,2 km/h (3 Bft) SW 231 0 min 0,000 mm 0,0 UV-I 0 W/m 12,1 C 11,1 C 17,7 km/h (3 Bft) 91,30 %
11.05.2018 02:27 14,4 C 19,4 C 86 % 1015,9 hPa 0,0 l/m 14,1 km/h (3 Bft) W-SW 249 0 min 0,000 mm 0,0 UV-I 0 W/m 12,1 C 10,8 C 19,3 km/h (3 Bft) 100,00 %
11.05.2018 02:28 14,4 C 19,4 C 86 % 1015,9 hPa 0,0 l/m 15,7 km/h (3 Bft) W-SW 242 0 min 0,000 mm 0,0 UV-I 0 W/m 12,1 C 10,2 C 20,9 km/h (4 Bft) 100,00 %
11.05.2018 02:29 14,4 C 19,4 C 86 % 1016,0 hPa 0,0 l/m 14,1 km/h (3 Bft) W-SW 254 0 min 0,000 mm 0,0 UV-I 0 W/m 12,1 C 10,8 C 19,3 km/h (3 Bft) 100,00 %
11.05.2018 02:30 14,4 C 19,4 C 86 % 1016,0 hPa 0,0 l/m 11,3 km/h (2 Bft) W-SW 254 0 min 0,000 mm 0,0 UV-I 0 W/m 12,1 C 11,9 C 17,7 km/h (3 Bft) 100,00 %
11.05.2018 02:31 14,4 C 19,4 C 86 % 1016,0 hPa 0,0 l/m 11,8 km/h (2 Bft) W 259 0 min 0,000 mm 0,0 UV-I 0 W/m 12,1 C 11,7 C 17,7 km/h (3 Bft) 100,00 %
11.05.2018 02:32 14,4 C 19,4 C 86 % 1016,0 hPa 0,0 l/m 17,0 km/h (3 Bft) SW 234 0 min 0,000 mm 0,0 UV-I 0 W/m 12,1 C 9,8 C 24,1 km/h (4 Bft) 100,00 %
11.05.2018 02:33 14,4 C 19,4 C 86 % 1016,0 hPa 0,0 l/m 11,3 km/h (2 Bft) W-SW 252 0 min 0,000 mm 0,0 UV-I 0 W/m 12,1 C 11,9 C 17,7 km/h (3 Bft) 100,00 %
11.05.2018 02:34 14,4 C 19,4 C 86 % 1016,0 hPa 0,0 l/m 9,2 km/h (2 Bft) W-SW 241 0 min 0,000 mm 0,0 UV-I 0 W/m 12,1 C 12,8 C 17,7 km/h (3 Bft) 100,00 %
11.05.2018 02:35 14,4 C 19,4 C 86 % 1016,0 hPa 0,0 l/m 15,9 km/h (3 Bft) SW 234 0 min 0,000 mm 0,0 UV-I 0 W/m 12,1 C 10,2 C 20,9 km/h (4 Bft) 96,15 %
11.05.2018 02:36 14,4 C 19,4 C 86 % 1016,1 hPa 0,0 l/m 13,7 km/h (3 Bft) W-SW 240 0 min 0,000 mm 0,0 UV-I 0 W/m 12,1 C 10,9 C 19,3 km/h (3 Bft) 95,83 %
11.05.2018 02:37 14,4 C 19,4 C 86 % 1016,0 hPa 0,0 l/m 11,2 km/h (2 Bft) S-SW 213 0 min 0,000 mm 0,0 UV-I 0 W/m 12,1 C 11,9 C 16,1 km/h (3 Bft) 95,65 %
11.05.2018 02:38 14,4 C 19,4 C 86 % 1016,1 hPa 0,0 l/m 14,9 km/h (3 Bft) W 277 0 min 0,000 mm 0,0 UV-I 0 W/m 12,1 C 10,5 C 17,7 km/h (3 Bft) 100,00 %
11.05.2018 02:39 14,5 C 18,9 C 86 % 1016,1 hPa 0,0 l/m 11,9 km/h (2 Bft) SW 236 0 min 0,000 mm 0,0 UV-I 0 W/m 12,2 C 11,7 C 16,1 km/h (3 Bft) 95,65 %
11.05.2018 02:40 14,5 C 18,9 C 86 % 1016,1 hPa 0,0 l/m 9,9 km/h (2 Bft) W-SW 251 0 min 0,000 mm 0,0 UV-I 0 W/m 12,2 C 12,6 C 14,5 km/h (3 Bft) 95,83 %
11.05.2018 02:41 14,5 C 18,9 C 86 % 1016,1 hPa 0,0 l/m 9,7 km/h (2 Bft) W-SW 240 0 min 0,000 mm 0,0 UV-I 0 W/m 12,2 C 12,7 C 16,1 km/h (3 Bft) 92,31 %
11.05.2018 02:42 14,4 C 18,9 C 86 % 1016,1 hPa 0,0 l/m 12,6 km/h (3 Bft) W-SW 258 0 min 0,000 mm 0,0 UV-I 0 W/m 12,1 C 11,3 C 17,7 km/h (3 Bft) 100,00 %
11.05.2018 02:43 14,4 C 18,9 C 86 % 1016,2 hPa 0,0 l/m 10,4 km/h (2 Bft) W-SW 242 0 min 0,000 mm 0,0 UV-I 0 W/m 12,1 C 12,3 C 14,5 km/h (3 Bft) 96,15 %
11.05.2018 02:44 14,4 C 18,9 C 86 % 1016,2 hPa 0,0 l/m 11,3 km/h (2 Bft) W-SW 249 0 min 0,000 mm 0,0 UV-I 0 W/m 12,1 C 11,9 C 17,7 km/h (3 Bft) 95,83 %
11.05.2018 02:45 14,5 C 18,9 C 86 % 1016,2 hPa 0,0 l/m 14,3 km/h (3 Bft) W-SW 250 0 min 0,000 mm 0,0 UV-I 0 W/m 12,2 C 10,8 C 19,3 km/h (3 Bft) 100,00 %
11.05.2018 02:46 14,5 C 18,9 C 86 % 1016,3 hPa 0,0 l/m 10,3 km/h (2 Bft) SW 233 0 min 0,000 mm 0,0 UV-I 0 W/m 12,2 C 12,4 C 17,7 km/h (3 Bft) 95,83 %
11.05.2018 02:47 14,5 C 18,9 C 86 % 1016,3 hPa 0,0 l/m 13,8 km/h (3 Bft) W 274 0 min 0,000 mm 0,0 UV-I 0 W/m 12,2 C 11,0 C 19,3 km/h (3 Bft) 100,00 %
11.05.2018 02:48 14,5 C 18,9 C 86 % 1016,3 hPa 0,0 l/m 14,3 km/h (3 Bft) W-SW 246 0 min 0,000 mm 0,0 UV-I 0 W/m 12,2 C 10,8 C 19,3 km/h (3 Bft) 95,65 %
11.05.2018 02:49 14,5 C 18,9 C 86 % 1016,3 hPa 0,0 l/m 14,1 km/h (3 Bft) W-SW 254 0 min 0,000 mm 0,0 UV-I 0 W/m 12,2 C 10,9 C 17,7 km/h (3 Bft) 100,00 %
11.05.2018 02:50 14,5 C 18,9 C 86 % 1016,3 hPa 0,0 l/m 13,5 km/h (3 Bft) W-SW 255 0 min 0,000 mm 0,0 UV-I 0 W/m 12,2 C 11,1 C 17,7 km/h (3 Bft) 95,83 %
11.05.2018 02:51 14,5 C 18,9 C 86 % 1016,3 hPa 0,0 l/m 12,7 km/h (3 Bft) W 277 0 min 0,000 mm 0,0 UV-I 0 W/m 12,2 C 11,4 C 17,7 km/h (3 Bft) 100,00 %
11.05.2018 02:52 14,5 C 18,9 C 86 % 1016,3 hPa 0,0 l/m 13,0 km/h (3 Bft) W 261 0 min 0,000 mm 0,0 UV-I 0 W/m 12,2 C 11,3 C 19,3 km/h (3 Bft) 95,65 %
11.05.2018 02:53 14,6 C 18,9 C 86 % 1016,3 hPa 0,0 l/m 9,9 km/h (2 Bft) W 259 0 min 0,000 mm 0,0 UV-I 0 W/m 12,3 C 12,7 C 12,9 km/h (3 Bft) 100,00 %
11.05.2018 02:54 14,6 C 18,9 C 86 % 1016,3 hPa 0,0 l/m 10,1 km/h (2 Bft) W-SW 246 0 min 0,000 mm 0,0 UV-I 0 W/m 12,3 C 12,6 C 14,5 km/h (3 Bft) 95,65 %
11.05.2018 02:55 14,6 C 18,9 C 86 % 1016,3 hPa 0,0 l/m 12,1 km/h (2 Bft) S-SW 210 0 min 0,000 mm 0,0 UV-I 0 W/m 12,3 C 11,8 C 14,5 km/h (3 Bft) 95,83 %
11.05.2018 02:56 14,6 C 18,9 C 86 % 1016,4 hPa 0,0 l/m 11,0 km/h (2 Bft) SW 233 0 min 0,000 mm 0,0 UV-I 0 W/m 12,3 C 12,2 C 14,5 km/h (3 Bft) 100,00 %
11.05.2018 02:57 14,5 C 18,9 C 86 % 1016,4 hPa 0,0 l/m 14,1 km/h (3 Bft) W-SW 254 0 min 0,000 mm 0,0 UV-I 0 W/m 12,2 C 10,9 C 19,3 km/h (3 Bft) 95,83 %
11.05.2018 02:58 14,5 C 18,9 C 86 % 1016,4 hPa 0,0 l/m 11,1 km/h (2 Bft) W-SW 239 0 min 0,000 mm 0,0 UV-I 0 W/m 12,2 C 12,1 C 16,1 km/h (3 Bft) 100,00 %
11.05.2018 02:59 14,6 C 18,9 C 86 % 1016,4 hPa 0,0 l/m 9,1 km/h (2 Bft) W 265 0 min 0,000 mm 0,0 UV-I 0 W/m 12,3 C 13,1 C 14,5 km/h (3 Bft) 95,83 %
11.05.2018 03:00 14,6 C 18,9 C 86 % 1016,4 hPa 0,0 l/m 8,2 km/h (2 Bft) W-SW 237 0 min 0,025 mm 0,0 UV-I 0 W/m 12,3 C 13,6 C 14,5 km/h (3 Bft) 95,65 %
11.05.2018 03:01 14,6 C 18,9 C 86 % 1016,4 hPa 0,0 l/m 12,0 km/h (2 Bft) SW 219 0 min 0,000 mm 0,0 UV-I 0 W/m 12,3 C 11,8 C 17,7 km/h (3 Bft) 95,83 %
11.05.2018 03:02 14,6 C 18,9 C 86 % 1016,4 hPa 0,0 l/m 12,5 km/h (3 Bft) W-SW 247 0 min 0,000 mm 0,0 UV-I 0 W/m 12,3 C 11,6 C 16,1 km/h (3 Bft) 100,00 %
11.05.2018 03:03 14,6 C 18,9 C 86 % 1016,4 hPa 0,0 l/m 10,2 km/h (2 Bft) W-NW 292 0 min 0,000 mm 0,0 UV-I 0 W/m 12,3 C 12,6 C 14,5 km/h (3 Bft) 95,83 %
11.05.2018 03:04 14,6 C 18,9 C 86 % 1016,4 hPa 0,0 l/m 12,3 km/h (3 Bft) W 269 0 min 0,000 mm 0,0 UV-I 0 W/m 12,3 C 11,7 C 16,1 km/h (3 Bft) 92,31 %
11.05.2018 03:05 14,5 C 18,9 C 86 % 1016,4 hPa 0,0 l/m 8,6 km/h (2 Bft) W 263 0 min 0,000 mm 0,0 UV-I 0 W/m 12,2 C 13,3 C 12,9 km/h (3 Bft) 95,83 %
11.05.2018 03:06 14,5 C 18,9 C 86 % 1016,4 hPa 0,0 l/m 8,2 km/h (2 Bft) W 275 0 min 0,000 mm 0,0 UV-I 0 W/m 12,2 C 13,5 C 11,3 km/h (2 Bft) 91,30 %
11.05.2018 03:07 14,5 C 18,9 C 86 % 1016,5 hPa 0,0 l/m 8,4 km/h (2 Bft) W 259 0 min 0,000 mm 0,0 UV-I 0 W/m 12,2 C 13,4 C 12,9 km/h (3 Bft) 100,00 %
11.05.2018 03:08 14,5 C 18,9 C 86 % 1016,5 hPa 0,0 l/m 9,5 km/h (2 Bft) W 261 0 min 0,000 mm 0,0 UV-I 0 W/m 12,2 C 12,8 C 12,9 km/h (3 Bft) 91,67 %
11.05.2018 03:09 14,5 C 18,9 C 86 % 1016,5 hPa 0,0 l/m 11,0 km/h (2 Bft) W 261 0 min 0,000 mm 0,0 UV-I 0 W/m 12,2 C 12,1 C 14,5 km/h (3 Bft) 100,00 %
11.05.2018 03:10 14,5 C 18,9 C 86 % 1016,5 hPa 0,0 l/m 11,3 km/h (2 Bft) W-SW 253 0 min 0,000 mm 0,0 UV-I 0 W/m 12,2 C 12,0 C 14,5 km/h (3 Bft) 95,83 %
11.05.2018 03:11 14,5 C 18,9 C 86 % 1016,5 hPa 0,0 l/m 7,7 km/h (2 Bft) W 265 0 min 0,000 mm 0,0 UV-I 0 W/m 12,2 C 13,7 C 11,3 km/h (2 Bft) 95,65 %
11.05.2018 03:12 14,5 C 18,9 C 86 % 1016,5 hPa 0,0 l/m 8,8 km/h (2 Bft) W-SW 249 0 min 0,000 mm 0,0 UV-I 0 W/m 12,2 C 13,2 C 12,9 km/h (3 Bft) 95,83 %
11.05.2018 03:13 14,5 C 18,9 C 86 % 1016,5 hPa 0,0 l/m 10,0 km/h (2 Bft) W 265 0 min 0,000 mm 0,0 UV-I 0 W/m 12,2 C 12,6 C 16,1 km/h (3 Bft) 91,30 %
11.05.2018 03:14 14,5 C 18,9 C 86 % 1016,6 hPa 0,0 l/m 10,7 km/h (2 Bft) W 263 0 min 0,000 mm 0,0 UV-I 0 W/m 12,2 C 12,2 C 14,5 km/h (3 Bft) 91,67 %
11.05.2018 03:15 14,5 C 18,9 C 86 % 1016,6 hPa 0,0 l/m 11,3 km/h (2 Bft) S-SW 212 0 min 0,000 mm 0,0 UV-I 0 W/m 12,2 C 12,0 C 14,5 km/h (3 Bft) 95,65 %
11.05.2018 03:16 14,5 C 18,9 C 86 % 1016,6 hPa 0,0 l/m 11,5 km/h (2 Bft) W-SW 242 0 min 0,000 mm 0,0 UV-I 0 W/m 12,2 C 11,9 C 14,5 km/h (3 Bft) 91,67 %
11.05.2018 03:17 14,5 C 18,9 C 86 % 1016,6 hPa 0,0 l/m 8,2 km/h (2 Bft) W-SW 253 0 min 0,000 mm 0,0 UV-I 0 W/m 12,2 C 13,5 C 12,9 km/h (3 Bft) 95,65 %
11.05.2018 03:18 14,5 C 18,9 C 86 % 1016,6 hPa 0,0 l/m 11,9 km/h (2 Bft) W-SW 252 0 min 0,000 mm 0,0 UV-I 0 W/m 12,2 C 11,7 C 16,1 km/h (3 Bft) 91,67 %
11.05.2018 03:19 14,5 C 18,9 C 86 % 1016,6 hPa 0,0 l/m 13,8 km/h (3 Bft) W 267 0 min 0,000 mm 0,0 UV-I 0 W/m 12,2 C 11,0 C 19,3 km/h (3 Bft) 89,47 %
11.05.2018 03:20 14,4 C 18,9 C 86 % 1016,6 hPa 0,0 l/m 12,4 km/h (3 Bft) W-SW 240 0 min 0,000 mm 0,0 UV-I 0 W/m 12,1 C 11,4 C 17,7 km/h (3 Bft) 95,83 %
11.05.2018 03:21 14,4 C 18,9 C 86 % 1016,6 hPa 0,0 l/m 14,7 km/h (3 Bft) W-SW 245 0 min 0,000 mm 0,0 UV-I 0 W/m 12,1 C 10,6 C 19,3 km/h (3 Bft) 88,46 %
11.05.2018 03:22 14,4 C 18,9 C 86 % 1016,7 hPa 0,0 l/m 14,1 km/h (3 Bft) W-SW 251 0 min 0,000 mm 0,0 UV-I 0 W/m 12,1 C 10,8 C 19,3 km/h (3 Bft) 100,00 %
11.05.2018 03:23 14,4 C 18,9 C 86 % 1016,6 hPa 0,0 l/m 11,4 km/h (2 Bft) W-SW 254 0 min 0,000 mm 0,0 UV-I 0 W/m 12,1 C 11,8 C 19,3 km/h (3 Bft) 92,86 %
11.05.2018 03:24 14,4 C 18,9 C 86 % 1016,7 hPa 0,0 l/m 12,0 km/h (2 Bft) W-SW 246 0 min 0,000 mm 0,0 UV-I 0 W/m 12,1 C 11,6 C 17,7 km/h (3 Bft) 95,83 %
11.05.2018 03:25 14,4 C 18,9 C 86 % 1016,7 hPa 0,0 l/m 10,9 km/h (2 Bft) W-SW 256 0 min 0,000 mm 0,0 UV-I 0 W/m 12,1 C 12,0 C 16,1 km/h (3 Bft) 91,30 %
11.05.2018 03:26 14,4 C 18,9 C 86 % 1016,7 hPa 0,0 l/m 13,9 km/h (3 Bft) W 275 0 min 0,000 mm 0,0 UV-I 0 W/m 12,1 C 10,9 C 22,5 km/h (4 Bft) 100,00 %
11.05.2018 03:27 14,3 C 18,9 C 86 % 1016,7 hPa 0,0 l/m 14,9 km/h (3 Bft) W-SW 254 0 min 0,000 mm 0,0 UV-I 0 W/m 12,0 C 10,4 C 17,7 km/h (3 Bft) 91,30 %
11.05.2018 03:28 14,3 C 18,9 C 86 % 1016,7 hPa 0,0 l/m 17,2 km/h (3 Bft) W-NW 298 0 min 0,000 mm 0,0 UV-I 0 W/m 12,0 C 9,6 C 22,5 km/h (4 Bft) 95,83 %
11.05.2018 03:29 14,3 C 18,9 C 87 % 1016,7 hPa 0,0 l/m 16,0 km/h (3 Bft) SW 227 0 min 0,000 mm 0,0 UV-I 0 W/m 12,2 C 10,0 C 24,1 km/h (4 Bft) 91,67 %
11.05.2018 03:30 14,2 C 18,9 C 87 % 1016,8 hPa 0,0 l/m 13,3 km/h (3 Bft) SW 229 0 min 0,000 mm 0,0 UV-I 0 W/m 12,1 C 10,8 C 20,9 km/h (4 Bft) 91,30 %
11.05.2018 03:31 14,2 C 18,9 C 87 % 1016,8 hPa 0,0 l/m 17,8 km/h (3 Bft) SW 224 0 min 0,000 mm 0,0 UV-I 0 W/m 12,1 C 9,3 C 24,1 km/h (4 Bft) 91,67 %
11.05.2018 03:32 14,1 C 18,9 C 86 % 1016,7 hPa 0,0 l/m 23,5 km/h (4 Bft) W-SW 243 0 min 0,000 mm 0,0 UV-I 0 W/m 11,8 C 7,7 C 32,2 km/h (5 Bft) 95,65 %
11.05.2018 03:33 14,1 C 18,9 C 86 % 1016,7 hPa 0,0 l/m 19,0 km/h (3 Bft) W-SW 239 0 min 0,000 mm 0,0 UV-I 0 W/m 11,8 C 8,9 C 25,7 km/h (4 Bft) 95,83 %
11.05.2018 03:34 14,0 C 18,9 C 86 % 1016,8 hPa 0,0 l/m 18,6 km/h (3 Bft) W-SW 258 0 min 0,000 mm 0,0 UV-I 0 W/m 11,7 C 8,8 C 25,7 km/h (4 Bft) 88,46 %
11.05.2018 03:35 13,9 C 18,9 C 86 % 1016,8 hPa 0,0 l/m 22,8 km/h (4 Bft) W-SW 246 0 min 0,000 mm 0,0 UV-I 0 W/m 11,6 C 7,6 C 30,6 km/h (5 Bft) 100,00 %
11.05.2018 03:36 13,8 C 18,9 C 86 % 1016,8 hPa 0,0 l/m 21,8 km/h (4 Bft) W-SW 242 0 min 0,000 mm 0,0 UV-I 0 W/m 11,5 C 7,7 C 29,0 km/h (5 Bft) 91,30 %
11.05.2018 03:37 13,8 C 18,9 C 86 % 1016,8 hPa 0,0 l/m 18,4 km/h (3 Bft) W-SW 246 0 min 0,000 mm 0,0 UV-I 0 W/m 11,5 C 8,6 C 24,1 km/h (4 Bft) 100,00 %
11.05.2018 03:38 13,7 C 18,9 C 86 % 1016,8 hPa 0,0 l/m 18,0 km/h (3 Bft) W-SW 243 0 min 0,000 mm 0,0 UV-I 0 W/m 11,4 C 8,6 C 22,5 km/h (4 Bft) 86,96 %
11.05.2018 03:39 13,7 C 18,9 C 86 % 1016,8 hPa 0,0 l/m 14,8 km/h (3 Bft) W-NW 282 0 min 0,000 mm 0,0 UV-I 0 W/m 11,4 C 9,7 C 19,3 km/h (3 Bft) 95,83 %
11.05.2018 03:40 13,7 C 18,9 C 86 % 1016,8 hPa 0,0 l/m 13,1 km/h (3 Bft) W 279 0 min 0,000 mm 0,0 UV-I 0 W/m 11,4 C 10,3 C 17,7 km/h (3 Bft) 91,30 %
11.05.2018 03:41 13,7 C 18,9 C 86 % 1016,8 hPa 0,0 l/m 13,5 km/h (3 Bft) W-NW 291 0 min 0,000 mm 0,0 UV-I 0 W/m 11,4 C 10,2 C 20,9 km/h (4 Bft) 91,67 %
11.05.2018 03:42 13,7 C 18,9 C 86 % 1016,8 hPa 0,0 l/m 20,5 km/h (4 Bft) W-SW 254 0 min 0,000 mm 0,0 UV-I 0 W/m 11,4 C 7,9 C 29,0 km/h (5 Bft) 100,00 %
11.05.2018 03:43 13,6 C 18,9 C 86 % 1016,9 hPa 0,0 l/m 16,0 km/h (3 Bft) W-SW 254 0 min 0,000 mm 0,0 UV-I 0 W/m 11,3 C 9,2 C 25,7 km/h (4 Bft) 100,00 %
11.05.2018 03:44 13,6 C 18,9 C 86 % 1016,9 hPa 0,0 l/m 14,1 km/h (3 Bft) W 259 0 min 0,000 mm 0,0 UV-I 0 W/m 11,3 C 9,8 C 24,1 km/h (4 Bft) 100,00 %
11.05.2018 03:45 13,6 C 18,9 C 86 % 1016,9 hPa 0,0 l/m 14,8 km/h (3 Bft) W 262 0 min 0,000 mm 0,0 UV-I 0 W/m 11,3 C 9,6 C 20,9 km/h (4 Bft) 100,00 %
11.05.2018 03:46 13,6 C 18,9 C 86 % 1016,9 hPa 0,0 l/m 11,3 km/h (2 Bft) W-SW 256 0 min 0,000 mm 0,0 UV-I 0 W/m 11,3 C 11,0 C 17,7 km/h (3 Bft) 100,00 %
11.05.2018 03:47 13,5 C 18,9 C 86 % 1016,9 hPa 0,0 l/m 15,6 km/h (3 Bft) W 269 0 min 0,000 mm 0,0 UV-I 0 W/m 11,2 C 9,2 C 24,1 km/h (4 Bft) 100,00 %
11.05.2018 03:48 13,5 C 18,9 C 86 % 1016,9 hPa 0,0 l/m 20,5 km/h (4 Bft) W 278 0 min 0,000 mm 0,0 UV-I 0 W/m 11,2 C 7,7 C 27,4 km/h (4 Bft) 100,00 %
11.05.2018 03:49 13,4 C 18,9 C 87 % 1016,9 hPa 0,0 l/m 18,0 km/h (3 Bft) SW 229 0 min 0,000 mm 0,0 UV-I 0 W/m 11,3 C 8,3 C 25,7 km/h (4 Bft) 100,00 %
11.05.2018 03:50 13,4 C 18,9 C 86 % 1017,0 hPa 0,0 l/m 16,9 km/h (3 Bft) W 275 0 min 0,000 mm 0,0 UV-I 0 W/m 11,1 C 8,6 C 24,1 km/h (4 Bft) 100,00 %
11.05.2018 03:51 13,4 C 18,9 C 86 % 1016,9 hPa 0,0 l/m 20,7 km/h (4 Bft) W 271 0 min 0,000 mm 0,0 UV-I 0 W/m 11,1 C 7,5 C 29,0 km/h (5 Bft) 91,30 %
11.05.2018 03:52 13,4 C 18,9 C 86 % 1016,9 hPa 0,0 l/m 19,3 km/h (3 Bft) W-NW 290 0 min 0,000 mm 0,0 UV-I 0 W/m 11,1 C 7,9 C 24,1 km/h (4 Bft) 96,30 %
11.05.2018 03:53 13,3 C 18,9 C 86 % 1017,0 hPa 0,0 l/m 19,6 km/h (3 Bft) W-SW 251 0 min 0,000 mm 0,0 UV-I 0 W/m 11,0 C 7,7 C 27,4 km/h (4 Bft) 96,15 %
11.05.2018 03:54 13,3 C 18,9 C 86 % 1017,0 hPa 0,0 l/m 19,4 km/h (3 Bft) W-SW 246 0 min 0,000 mm 0,0 UV-I 0 W/m 11,0 C 7,7 C 29,0 km/h (5 Bft) 100,00 %
11.05.2018 03:55 13,3 C 18,9 C 86 % 1017,0 hPa 0,0 l/m 18,9 km/h (3 Bft) W 260 0 min 0,000 mm 0,0 UV-I 0 W/m 11,0 C 7,9 C 25,7 km/h (4 Bft) 100,00 %
11.05.2018 03:56 13,3 C 18,9 C 86 % 1017,0 hPa 0,0 l/m 20,6 km/h (4 Bft) W 276 0 min 0,000 mm 0,0 UV-I 0 W/m 11,0 C 7,4 C 27,4 km/h (4 Bft) 100,00 %
11.05.2018 03:57 13,3 C 18,9 C 86 % 1017,1 hPa 0,0 l/m 15,9 km/h (3 Bft) W 280 0 min 0,000 mm 0,0 UV-I 0 W/m 11,0 C 8,8 C 22,5 km/h (4 Bft) 100,00 %
11.05.2018 03:58 13,3 C 18,9 C 86 % 1017,1 hPa 0,0 l/m 20,9 km/h (4 Bft) W-SW 258 0 min 0,000 mm 0,0 UV-I 0 W/m 11,0 C 7,3 C 29,0 km/h (5 Bft) 100,00 %
11.05.2018 03:59 13,3 C 18,9 C 86 % 1017,1 hPa 0,0 l/m 18,8 km/h (3 Bft) W 261 0 min 0,000 mm 0,0 UV-I 0 W/m 11,0 C 7,9 C 29,0 km/h (5 Bft) 100,00 %
11.05.2018 04:00 13,2 C 18,9 C 86 % 1017,1 hPa 0,0 l/m 17,8 km/h (3 Bft) W-NW 286 0 min 0,000 mm 0,0 UV-I 0 W/m 10,9 C 8,1 C 22,5 km/h (4 Bft) 100,00 %
11.05.2018 04:02 13,2 C 18,9 C 86 % 1017,1 hPa 0,0 l/m 20,7 km/h (4 Bft) W 271 0 min 0,026 mm 0,0 UV-I 0 W/m 10,9 C 7,2 C 29,0 km/h (5 Bft) 100,00 %
11.05.2018 04:03 13,2 C 18,9 C 86 % 1017,1 hPa 0,0 l/m 16,7 km/h (3 Bft) W-SW 258 0 min 0,000 mm 0,0 UV-I 0 W/m 10,9 C 8,4 C 20,9 km/h (4 Bft) 95,65 %
11.05.2018 04:04 13,2 C 18,9 C 86 % 1017,1 hPa 0,0 l/m 17,2 km/h (3 Bft) W-SW 248 0 min 0,000 mm 0,0 UV-I 0 W/m 10,9 C 8,3 C 24,1 km/h (4 Bft) 91,67 %
11.05.2018 04:05 13,2 C 18,9 C 86 % 1017,1 hPa 0,0 l/m 14,9 km/h (3 Bft) W-SW 242 0 min 0,000 mm 0,0 UV-I 0 W/m 10,9 C 9,0 C 19,3 km/h (3 Bft) 100,00 %
11.05.2018 04:06 13,2 C 18,9 C 86 % 1017,1 hPa 0,0 l/m 19,2 km/h (3 Bft) W 271 0 min 0,000 mm 0,0 UV-I 0 W/m 10,9 C 7,6 C 24,1 km/h (4 Bft) 100,00 %
11.05.2018 04:07 13,2 C 18,9 C 86 % 1017,1 hPa 0,0 l/m 19,1 km/h (3 Bft) SW 230 0 min 0,000 mm 0,0 UV-I 0 W/m 10,9 C 7,7 C 22,5 km/h (4 Bft) 100,00 %
11.05.2018 04:08 13,1 C 18,9 C 86 % 1017,1 hPa 0,0 l/m 13,9 km/h (3 Bft) W 265 0 min 0,000 mm 0,0 UV-I 0 W/m 10,8 C 9,3 C 17,7 km/h (3 Bft) 100,00 %
11.05.2018 04:09 13,2 C 18,9 C 86 % 1017,1 hPa 0,0 l/m 13,8 km/h (3 Bft) W 259 0 min 0,000 mm 0,0 UV-I 0 W/m 10,9 C 9,5 C 20,9 km/h (4 Bft) 100,00 %
11.05.2018 04:10 13,1 C 18,9 C 86 % 1017,1 hPa 0,0 l/m 14,8 km/h (3 Bft) W-SW 239 0 min 0,000 mm 0,0 UV-I 0 W/m 10,8 C 9,0 C 19,3 km/h (3 Bft) 100,00 %
11.05.2018 04:11 13,1 C 18,9 C 86 % 1017,1 hPa 0,0 l/m 14,9 km/h (3 Bft) W-SW 240 0 min 0,000 mm 0,0 UV-I 0 W/m 10,8 C 8,9 C 17,7 km/h (3 Bft) 100,00 %
11.05.2018 04:12 13,1 C 18,9 C 86 % 1017,1 hPa 0,0 l/m 15,7 km/h (3 Bft) W 269 0 min 0,000 mm 0,0 UV-I 0 W/m 10,8 C 8,6 C 20,9 km/h (4 Bft) 95,65 %
11.05.2018 04:13 13,1 C 18,9 C 86 % 1017,1 hPa 0,0 l/m 17,7 km/h (3 Bft) W-SW 247 0 min 0,000 mm 0,0 UV-I 0 W/m 10,8 C 8,0 C 24,1 km/h (4 Bft) 100,00 %
11.05.2018 04:14 13,1 C 18,9 C 86 % 1017,1 hPa 0,0 l/m 15,6 km/h (3 Bft) W 265 0 min 0,000 mm 0,0 UV-I 0 W/m 10,8 C 8,7 C 22,5 km/h (4 Bft) 100,00 %
11.05.2018 04:15 13,1 C 18,9 C 86 % 1017,1 hPa 0,0 l/m 11,9 km/h (2 Bft) W 280 0 min 0,000 mm 0,0 UV-I 0 W/m 10,8 C 10,1 C 16,1 km/h (3 Bft) 100,00 %
11.05.2018 04:16 13,0 C 18,9 C 87 % 1017,1 hPa 0,0 l/m 11,7 km/h (2 Bft) W 264 0 min 0,000 mm 0,0 UV-I 0 W/m 10,9 C 10,1 C 17,7 km/h (3 Bft) 100,00 %
11.05.2018 04:17 13,0 C 18,9 C 87 % 1017,1 hPa 0,0 l/m 14,2 km/h (3 Bft) W 260 0 min 0,000 mm 0,0 UV-I 0 W/m 10,9 C 9,1 C 17,7 km/h (3 Bft) 100,00 %
11.05.2018 04:18 13,0 C 18,9 C 87 % 1017,1 hPa 0,0 l/m 15,2 km/h (3 Bft) W 277 0 min 0,000 mm 0,0 UV-I 0 W/m 10,9 C 8,7 C 19,3 km/h (3 Bft) 100,00 %
11.05.2018 04:19 13,0 C 18,9 C 87 % 1017,1 hPa 0,0 l/m 13,9 km/h (3 Bft) W 271 0 min 0,000 mm 0,0 UV-I 0 W/m 10,9 C 9,2 C 17,7 km/h (3 Bft) 100,00 %
11.05.2018 04:20 12,9 C 18,9 C 87 % 1017,1 hPa 0,0 l/m 15,5 km/h (3 Bft) W 271 0 min 0,000 mm 0,0 UV-I 0 W/m 10,8 C 8,5 C 20,9 km/h (4 Bft) 100,00 %
11.05.2018 04:21 12,9 C 18,9 C 87 % 1017,2 hPa 0,0 l/m 17,6 km/h (3 Bft) W 264 0 min 0,000 mm 0,0 UV-I 0 W/m 10,8 C 7,8 C 20,9 km/h (4 Bft) 100,00 %
11.05.2018 04:22 12,9 C 18,9 C 87 % 1017,2 hPa 0,0 l/m 9,9 km/h (2 Bft) W 263 0 min 0,000 mm 0,0 UV-I 0 W/m 10,8 C 10,8 C 12,9 km/h (3 Bft) 100,00 %
11.05.2018 04:23 12,9 C 18,9 C 87 % 1017,1 hPa 0,0 l/m 9,6 km/h (2 Bft) W-SW 254 0 min 0,000 mm 0,0 UV-I 0 W/m 10,8 C 11,0 C 14,5 km/h (3 Bft) 95,83 %
11.05.2018 04:24 12,9 C 18,9 C 87 % 1017,2 hPa 0,0 l/m 10,7 km/h (2 Bft) W-SW 250 0 min 0,000 mm 0,0 UV-I 0 W/m 10,8 C 10,5 C 17,7 km/h (3 Bft) 95,65 %
11.05.2018 04:25 12,8 C 18,9 C 87 % 1017,2 hPa 0,0 l/m 8,4 km/h (2 Bft) W-SW 248 0 min 0,000 mm 0,0 UV-I 0 W/m 10,7 C 11,6 C 12,9 km/h (3 Bft) 95,83 %
11.05.2018 04:26 12,8 C 18,9 C 87 % 1017,2 hPa 0,0 l/m 9,9 km/h (2 Bft) W 261 0 min 0,000 mm 0,0 UV-I 0 W/m 10,7 C 10,7 C 16,1 km/h (3 Bft) 100,00 %
11.05.2018 04:27 12,8 C 18,9 C 87 % 1017,3 hPa 0,0 l/m 15,3 km/h (3 Bft) W-SW 250 0 min 0,000 mm 0,0 UV-I 0 W/m 10,7 C 8,4 C 30,6 km/h (5 Bft) 100,00 %
11.05.2018 04:28 12,8 C 18,9 C 86 % 1017,3 hPa 0,0 l/m 17,3 km/h (3 Bft) W 269 0 min 0,000 mm 0,0 UV-I 0 W/m 10,5 C 7,7 C 25,7 km/h (4 Bft) 95,83 %
11.05.2018 04:29 12,8 C 18,9 C 86 % 1017,3 hPa 0,0 l/m 10,5 km/h (2 Bft) W 268 0 min 0,000 mm 0,0 UV-I 0 W/m 10,5 C 10,4 C 12,9 km/h (3 Bft) 100,00 %
11.05.2018 04:30 12,7 C 18,9 C 86 % 1017,3 hPa 0,0 l/m 11,0 km/h (2 Bft) W-SW 243 0 min 0,000 mm 0,0 UV-I 0 W/m 10,4 C 10,1 C 16,1 km/h (3 Bft) 100,00 %
11.05.2018 04:31 12,7 C 18,9 C 86 % 1017,3 hPa 0,0 l/m 16,5 km/h (3 Bft) SW 233 0 min 0,000 mm 0,0 UV-I 0 W/m 10,4 C 7,9 C 22,5 km/h (4 Bft) 100,00 %
11.05.2018 04:32 12,7 C 18,9 C 86 % 1017,3 hPa 0,0 l/m 19,4 km/h (3 Bft) W 277 0 min 0,000 mm 0,0 UV-I 0 W/m 10,4 C 6,9 C 29,0 km/h (5 Bft) 95,83 %
11.05.2018 04:33 12,6 C 18,9 C 85 % 1017,3 hPa 0,0 l/m 14,1 km/h (3 Bft) W 265 0 min 0,000 mm 0,0 UV-I 0 W/m 10,1 C 8,6 C 24,1 km/h (4 Bft) 100,00 %
11.05.2018 04:34 12,6 C 18,9 C 85 % 1017,3 hPa 0,0 l/m 21,0 km/h (4 Bft) W 274 0 min 0,000 mm 0,0 UV-I 0 W/m 10,1 C 6,4 C 32,2 km/h (5 Bft) 100,00 %
11.05.2018 04:35 12,6 C 18,9 C 85 % 1017,2 hPa 0,0 l/m 15,2 km/h (3 Bft) W 260 0 min 0,000 mm 0,0 UV-I 0 W/m 10,1 C 8,2 C 20,9 km/h (4 Bft) 100,00 %
11.05.2018 04:36 12,5 C 18,9 C 85 % 1017,3 hPa 0,0 l/m 12,7 km/h (3 Bft) W 263 0 min 0,000 mm 0,0 UV-I 0 W/m 10,0 C 9,1 C 20,9 km/h (4 Bft) 100,00 %
11.05.2018 04:37 12,5 C 18,9 C 85 % 1017,3 hPa 0,0 l/m 15,2 km/h (3 Bft) W 279 0 min 0,000 mm 0,0 UV-I 0 W/m 10,0 C 8,1 C 20,9 km/h (4 Bft) 95,65 %
11.05.2018 04:38 12,5 C 18,9 C 85 % 1017,3 hPa 0,0 l/m 12,7 km/h (3 Bft) W 271 0 min 0,000 mm 0,0 UV-I 0 W/m 10,0 C 9,1 C 19,3 km/h (3 Bft) 100,00 %
11.05.2018 04:39 12,4 C 18,9 C 85 % 1017,3 hPa 0,0 l/m 12,1 km/h (2 Bft) W-NW 290 0 min 0,000 mm 0,0 UV-I 0 W/m 9,9 C 9,2 C 19,3 km/h (3 Bft) 100,00 %
11.05.2018 04:40 12,4 C 18,9 C 85 % 1017,3 hPa 0,0 l/m 15,4 km/h (3 Bft) W 265 0 min 0,000 mm 0,0 UV-I 0 W/m 9,9 C 7,9 C 24,1 km/h (4 Bft) 100,00 %
11.05.2018 04:41 12,4 C 18,9 C 85 % 1017,3 hPa 0,0 l/m 12,5 km/h (3 Bft) W 262 0 min 0,000 mm 0,0 UV-I 0 W/m 9,9 C 9,1 C 16,1 km/h (3 Bft) 100,00 %
11.05.2018 04:42 12,4 C 18,9 C 86 % 1017,3 hPa 0,0 l/m 11,5 km/h (2 Bft) W-SW 244 0 min 0,000 mm 0,0 UV-I 0 W/m 10,1 C 9,5 C 14,5 km/h (3 Bft) 100,00 %
11.05.2018 04:43 12,4 C 18,9 C 86 % 1017,4 hPa 0,0 l/m 11,1 km/h (2 Bft) W 272 0 min 0,000 mm 0,0 UV-I 0 W/m 10,1 C 9,7 C 14,5 km/h (3 Bft) 95,65 %
11.05.2018 04:44 12,4 C 18,9 C 86 % 1017,3 hPa 0,0 l/m 7,7 km/h (2 Bft) W-SW 258 0 min 0,000 mm 0,0 UV-I 0 W/m 10,1 C 11,6 C 11,3 km/h (2 Bft) 100,00 %
11.05.2018 04:45 12,4 C 18,9 C 86 % 1017,3 hPa 0,0 l/m 9,7 km/h (2 Bft) W 266 0 min 0,000 mm 0,0 UV-I 0 W/m 10,1 C 10,4 C 12,9 km/h (3 Bft) 100,00 %
11.05.2018 04:46 12,4 C 18,9 C 86 % 1017,3 hPa 0,0 l/m 12,1 km/h (2 Bft) W-NW 282 0 min 0,000 mm 0,0 UV-I 0 W/m 10,1 C 9,2 C 17,7 km/h (3 Bft) 95,83 %
11.05.2018 04:47 12,4 C 18,9 C 86 % 1017,4 hPa 0,0 l/m 12,9 km/h (3 Bft) W-NW 286 0 min 0,000 mm 0,0 UV-I 0 W/m 10,1 C 8,9 C 19,3 km/h (3 Bft) 100,00 %
11.05.2018 04:48 12,4 C 18,9 C 86 % 1017,3 hPa 0,0 l/m 11,2 km/h (2 Bft) W 262 0 min 0,000 mm 0,0 UV-I 0 W/m 10,1 C 9,6 C 14,5 km/h (3 Bft) 100,00 %
11.05.2018 04:49 12,4 C 18,9 C 86 % 1017,3 hPa 0,0 l/m 8,0 km/h (2 Bft) W-NW 288 0 min 0,000 mm 0,0 UV-I 0 W/m 10,1 C 11,4 C 16,1 km/h (3 Bft) 100,00 %
11.05.2018 04:50 12,3 C 18,9 C 86 % 1017,3 hPa 0,0 l/m 10,2 km/h (2 Bft) W-SW 247 0 min 0,000 mm 0,0 UV-I 0 W/m 10,0 C 10,0 C 16,1 km/h (3 Bft) 95,65 %
11.05.2018 04:51 12,3 C 18,9 C 85 % 1017,3 hPa 0,0 l/m 11,6 km/h (2 Bft) W-SW 254 0 min 0,000 mm 0,0 UV-I 0 W/m 9,9 C 9,3 C 19,3 km/h (3 Bft) 100,00 %
11.05.2018 04:52 12,3 C 18,9 C 85 % 1017,3 hPa 0,0 l/m 8,8 km/h (2 Bft) W 261 0 min 0,000 mm 0,0 UV-I 0 W/m 9,9 C 10,8 C 11,3 km/h (2 Bft) 100,00 %
11.05.2018 04:53 12,3 C 18,9 C 85 % 1017,4 hPa 0,0 l/m 10,3 km/h (2 Bft) W 273 0 min 0,000 mm 0,0 UV-I 0 W/m 9,9 C 10,0 C 17,7 km/h (3 Bft) 100,00 %
11.05.2018 04:54 12,3 C 18,9 C 86 % 1017,4 hPa 0,0 l/m 9,9 km/h (2 Bft) W-SW 247 0 min 0,000 mm 0,0 UV-I 0 W/m 10,0 C 10,2 C 12,9 km/h (3 Bft) 100,00 %
11.05.2018 04:55 12,3 C 18,9 C 86 % 1017,4 hPa 0,0 l/m 7,0 km/h (2 Bft) W 273 0 min 0,000 mm 0,0 UV-I 0 W/m 10,0 C 11,9 C 11,3 km/h (2 Bft) 100,00 %
11.05.2018 04:56 12,3 C 18,9 C 86 % 1017,4 hPa 0,0 l/m 8,0 km/h (2 Bft) W-SW 248 0 min 0,000 mm 0,0 UV-I 0 W/m 10,0 C 11,3 C 11,3 km/h (2 Bft) 100,00 %
11.05.2018 04:57 12,3 C 18,9 C 86 % 1017,4 hPa 0,0 l/m 15,0 km/h (3 Bft) W-SW 253 0 min 0,000 mm 0,0 UV-I 0 W/m 10,0 C 7,9 C 22,5 km/h (4 Bft) 100,00 %
11.05.2018 04:58 12,3 C 18,9 C 85 % 1017,5 hPa 0,0 l/m 9,2 km/h (2 Bft) W 278 0 min 0,000 mm 0,0 UV-I 0 W/m 9,9 C 10,6 C 14,5 km/h (3 Bft) 100,00 %
11.05.2018 04:59 12,3 C 18,9 C 85 % 1017,5 hPa 0,0 l/m 10,8 km/h (2 Bft) W-NW 296 0 min 0,000 mm 0,0 UV-I 0 W/m 9,9 C 9,7 C 17,7 km/h (3 Bft) 100,00 %
11.05.2018 05:00 12,3 C 18,9 C 85 % 1017,5 hPa 0,0 l/m 7,8 km/h (2 Bft) W 269 0 min 0,025 mm 0,0 UV-I 0 W/m 9,9 C 11,4 C 12,9 km/h (3 Bft) 100,00 %
11.05.2018 05:01 12,3 C 18,9 C 85 % 1017,5 hPa 0,0 l/m 9,2 km/h (2 Bft) W 274 0 min 0,000 mm 0,0 UV-I 0 W/m 9,9 C 10,6 C 14,5 km/h (3 Bft) 95,65 %
11.05.2018 05:02 12,3 C 18,9 C 86 % 1017,5 hPa 0,0 l/m 11,6 km/h (2 Bft) W-SW 257 0 min 0,000 mm 0,0 UV-I 0 W/m 10,0 C 9,3 C 17,7 km/h (3 Bft) 96,15 %
11.05.2018 05:03 12,3 C 18,9 C 86 % 1017,5 hPa 0,0 l/m 9,8 km/h (2 Bft) SW 227 0 min 0,000 mm 0,0 UV-I 0 W/m 10,0 C 10,2 C 14,5 km/h (3 Bft) 95,83 %
11.05.2018 05:04 12,3 C 18,9 C 86 % 1017,5 hPa 0,0 l/m 6,0 km/h (2 Bft) W 259 0 min 0,000 mm 0,0 UV-I 0 W/m 10,0 C 12,3 C 9,7 km/h (2 Bft) 100,00 %
11.05.2018 05:05 12,3 C 18,9 C 86 % 1017,5 hPa 0,0 l/m 6,9 km/h (2 Bft) W 272 0 min 0,000 mm 0,0 UV-I 0 W/m 10,0 C 12,0 C 12,9 km/h (3 Bft) 100,00 %
11.05.2018 05:06 12,3 C 18,9 C 86 % 1017,5 hPa 0,0 l/m 15,4 km/h (3 Bft) W-SW 252 0 min 0,000 mm 0,0 UV-I 0 W/m 10,0 C 7,8 C 19,3 km/h (3 Bft) 96,30 %
11.05.2018 05:07 12,3 C 18,9 C 86 % 1017,5 hPa 0,0 l/m 6,1 km/h (2 Bft) W 270 0 min 0,000 mm 0,0 UV-I 0 W/m 10,0 C 12,3 C 11,3 km/h (2 Bft) 100,00 %
11.05.2018 05:08 12,3 C 18,9 C 86 % 1017,6 hPa 0,0 l/m 6,7 km/h (2 Bft) W 268 0 min 0,000 mm 0,0 UV-I 0 W/m 10,0 C 12,1 C 11,3 km/h (2 Bft) 100,00 %
11.05.2018 05:09 12,3 C 18,9 C 86 % 1017,5 hPa 0,0 l/m 10,3 km/h (2 Bft) W 272 0 min 0,000 mm 0,0 UV-I 0 W/m 10,0 C 10,0 C 14,5 km/h (3 Bft) 95,65 %
11.05.2018 05:10 12,3 C 18,9 C 86 % 1017,6 hPa 0,0 l/m 9,2 km/h (2 Bft) W-SW 257 0 min 0,000 mm 0,0 UV-I 0 W/m 10,0 C 10,6 C 12,9 km/h (3 Bft) 100,00 %
11.05.2018 05:11 12,3 C 18,9 C 86 % 1017,5 hPa 0,0 l/m 8,2 km/h (2 Bft) W 261 0 min 0,000 mm 0,0 UV-I 0 W/m 10,0 C 11,1 C 11,3 km/h (2 Bft) 100,00 %
11.05.2018 05:12 12,3 C 18,9 C 86 % 1017,6 hPa 0,0 l/m 5,8 km/h (2 Bft) W-SW 241 0 min 0,000 mm 0,0 UV-I 0 W/m 10,0 C 12,3 C 11,3 km/h (2 Bft) 100,00 %
11.05.2018 05:13 12,3 C 18,9 C 86 % 1017,6 hPa 0,0 l/m 7,2 km/h (2 Bft) W-SW 246 0 min 0,000 mm 0,0 UV-I 0 W/m 10,0 C 11,8 C 9,7 km/h (2 Bft) 91,30 %
11.05.2018 05:14 12,3 C 18,9 C 86 % 1017,6 hPa 0,0 l/m 12,1 km/h (2 Bft) W 262 0 min 0,000 mm 0,0 UV-I 0 W/m 10,0 C 9,1 C 14,5 km/h (3 Bft) 100,00 %
11.05.2018 05:15 12,3 C 18,9 C 86 % 1017,6 hPa 0,0 l/m 8,7 km/h (2 Bft) SW 229 0 min 0,000 mm 0,0 UV-I 0 W/m 10,0 C 10,8 C 12,9 km/h (3 Bft) 95,65 %
11.05.2018 05:16 12,3 C 18,9 C 86 % 1017,6 hPa 0,0 l/m 10,6 km/h (2 Bft) W 263 0 min 0,000 mm 0,0 UV-I 0 W/m 10,0 C 9,8 C 14,5 km/h (3 Bft) 100,00 %
11.05.2018 05:17 12,3 C 18,9 C 86 % 1017,6 hPa 0,0 l/m 10,5 km/h (2 Bft) W-SW 244 0 min 0,000 mm 0,0 UV-I 0 W/m 10,0 C 9,9 C 16,1 km/h (3 Bft) 95,65 %
11.05.2018 05:18 12,3 C 18,9 C 86 % 1017,6 hPa 0,0 l/m 9,4 km/h (2 Bft) W 259 0 min 0,000 mm 0,0 UV-I 0 W/m 10,0 C 10,5 C 14,5 km/h (3 Bft) 95,83 %
11.05.2018 05:19 12,3 C 18,9 C 86 % 1017,6 hPa 0,0 l/m 7,8 km/h (2 Bft) W-SW 249 0 min 0,000 mm 0,0 UV-I 0 W/m 10,0 C 11,4 C 9,7 km/h (2 Bft) 95,83 %
11.05.2018 05:20 12,3 C 18,9 C 86 % 1017,6 hPa 0,0 l/m 8,3 km/h (2 Bft) W-SW 246 0 min 0,000 mm 0,0 UV-I 0 W/m 10,0 C 11,1 C 11,3 km/h (2 Bft) 92,31 %
11.05.2018 05:21 12,3 C 18,9 C 86 % 1017,6 hPa 0,0 l/m 13,6 km/h (3 Bft) W 269 0 min 0,000 mm 0,0 UV-I 0 W/m 10,0 C 8,5 C 16,1 km/h (3 Bft) 100,00 %
11.05.2018 05:22 12,3 C 18,9 C 86 % 1017,6 hPa 0,0 l/m 11,2 km/h (2 Bft) W-SW 252 0 min 0,000 mm 0,0 UV-I 0 W/m 10,0 C 9,5 C 17,7 km/h (3 Bft) 95,83 %
11.05.2018 05:23 12,3 C 18,9 C 86 % 1017,6 hPa 0,0 l/m 11,3 km/h (2 Bft) W-SW 244 0 min 0,000 mm 0,0 UV-I 0 W/m 10,0 C 9,5 C 12,9 km/h (3 Bft) 100,00 %
11.05.2018 05:24 12,3 C 18,9 C 86 % 1017,6 hPa 0,0 l/m 11,6 km/h (2 Bft) W 260 0 min 0,000 mm 0,0 UV-I 0 W/m 10,0 C 9,3 C 16,1 km/h (3 Bft) 92,31 %
11.05.2018 05:25 12,3 C 18,9 C 86 % 1017,6 hPa 0,0 l/m 11,7 km/h (2 Bft) W 269 0 min 0,000 mm 0,0 UV-I 0 W/m 10,0 C 9,3 C 16,1 km/h (3 Bft) 96,30 %
11.05.2018 05:26 12,3 C 18,9 C 86 % 1017,6 hPa 0,0 l/m 13,5 km/h (3 Bft) W 264 0 min 0,000 mm 0,0 UV-I 0 W/m 10,0 C 8,5 C 17,7 km/h (3 Bft) 100,00 %
11.05.2018 05:27 12,3 C 18,9 C 86 % 1017,6 hPa 0,0 l/m 13,2 km/h (3 Bft) W 273 0 min 0,000 mm 0,0 UV-I 0 W/m 10,0 C 8,6 C 14,5 km/h (3 Bft) 95,83 %
11.05.2018 05:28 12,3 C 18,9 C 86 % 1017,7 hPa 0,0 l/m 11,1 km/h (2 Bft) W-SW 239 0 min 0,000 mm 0,0 UV-I 0 W/m 10,0 C 9,6 C 14,5 km/h (3 Bft) 100,00 %
11.05.2018 05:29 12,3 C 18,9 C 86 % 1017,7 hPa 0,0 l/m 12,5 km/h (3 Bft) W-SW 246 0 min 0,000 mm 0,0 UV-I 0 W/m 10,0 C 8,9 C 17,7 km/h (3 Bft) 95,83 %
11.05.2018 05:30 12,3 C 18,9 C 86 % 1017,7 hPa 0,0 l/m 14,6 km/h (3 Bft) W-SW 238 0 min 0,000 mm 0,0 UV-I 0 W/m 10,0 C 8,1 C 17,7 km/h (3 Bft) 100,00 %
11.05.2018 05:31 12,3 C 18,9 C 86 % 1017,7 hPa 0,0 l/m 14,7 km/h (3 Bft) W-SW 249 0 min 0,000 mm 0,0 UV-I 0 W/m 10,0 C 8,0 C 22,5 km/h (4 Bft) 95,83 %
11.05.2018 05:32 12,3 C 18,9 C 85 % 1017,7 hPa 0,0 l/m 14,8 km/h (3 Bft) W 277 0 min 0,000 mm 0,0 UV-I 0 W/m 9,9 C 8,0 C 19,3 km/h (3 Bft) 95,65 %
11.05.2018 05:33 12,3 C 18,9 C 85 % 1017,8 hPa 0,0 l/m 13,6 km/h (3 Bft) W 263 0 min 0,000 mm 0,0 UV-I 0 W/m 9,9 C 8,5 C 17,7 km/h (3 Bft) 100,00 %
11.05.2018 05:34 12,3 C 18,9 C 85 % 1017,8 hPa 0,0 l/m 11,5 km/h (2 Bft) W 259 0 min 0,000 mm 0,0 UV-I 0 W/m 9,9 C 9,4 C 16,1 km/h (3 Bft) 95,65 %
11.05.2018 05:35 12,3 C 18,9 C 86 % 1017,7 hPa 0,0 l/m 14,3 km/h (3 Bft) W-SW 258 0 min 0,000 mm 0,0 UV-I 0 W/m 10,0 C 8,2 C 24,1 km/h (4 Bft) 100,00 %
11.05.2018 05:36 12,3 C 18,9 C 85 % 1017,8 hPa 0,0 l/m 17,8 km/h (3 Bft) W-SW 243 0 min 0,000 mm 0,0 UV-I 3 W/m 9,9 C 6,9 C 24,1 km/h (4 Bft) 95,65 %
11.05.2018 05:37 12,3 C 18,9 C 85 % 1017,7 hPa 0,0 l/m 14,5 km/h (3 Bft) W 269 0 min 0,000 mm 0,0 UV-I 5 W/m 9,9 C 8,1 C 17,7 km/h (3 Bft) 100,00 %
11.05.2018 05:38 12,3 C 18,9 C 85 % 1017,7 hPa 0,0 l/m 12,1 km/h (2 Bft) W-SW 257 0 min 0,000 mm 0,0 UV-I 5 W/m 9,9 C 9,1 C 16,1 km/h (3 Bft) 95,65 %
11.05.2018 05:39 12,3 C 18,9 C 85 % 1017,7 hPa 0,0 l/m 10,6 km/h (2 Bft) W 260 0 min 0,000 mm 0,0 UV-I 5 W/m 9,9 C 9,8 C 14,5 km/h (3 Bft) 95,83 %
11.05.2018 05:40 12,3 C 18,9 C 85 % 1017,8 hPa 0,0 l/m 8,6 km/h (2 Bft) W 267 0 min 0,000 mm 0,0 UV-I 5 W/m 9,9 C 10,9 C 12,9 km/h (3 Bft) 100,00 %
11.05.2018 05:41 12,3 C 18,9 C 85 % 1017,8 hPa 0,0 l/m 9,9 km/h (2 Bft) W 269 0 min 0,000 mm 0,0 UV-I 5 W/m 9,9 C 10,2 C 12,9 km/h (3 Bft) 95,83 %
11.05.2018 05:42 12,3 C 18,9 C 85 % 1017,8 hPa 0,0 l/m 8,5 km/h (2 Bft) W 279 0 min 0,000 mm 0,0 UV-I 5 W/m 9,9 C 11,0 C 11,3 km/h (2 Bft) 100,00 %
11.05.2018 05:43 12,3 C 18,9 C 85 % 1017,8 hPa 0,0 l/m 13,6 km/h (3 Bft) W 269 0 min 0,000 mm 0,0 UV-I 5 W/m 9,9 C 8,5 C 16,1 km/h (3 Bft) 100,00 %
11.05.2018 05:44 12,3 C 18,9 C 85 % 1017,8 hPa 0,0 l/m 11,8 km/h (2 Bft) W-NW 285 0 min 0,000 mm 0,0 UV-I 5 W/m 9,9 C 9,3 C 14,5 km/h (3 Bft) 100,00 %
11.05.2018 05:45 12,3 C 18,9 C 86 % 1017,8 hPa 0,0 l/m 9,6 km/h (2 Bft) W 270 0 min 0,000 mm 0,0 UV-I 5 W/m 10,0 C 10,3 C 17,7 km/h (3 Bft) 100,00 %
11.05.2018 05:46 12,3 C 18,9 C 85 % 1017,8 hPa 0,0 l/m 13,9 km/h (3 Bft) W-SW 257 0 min 0,000 mm 0,0 UV-I 5 W/m 9,9 C 8,4 C 17,7 km/h (3 Bft) 100,00 %
11.05.2018 05:47 12,3 C 18,9 C 85 % 1017,8 hPa 0,0 l/m 15,2 km/h (3 Bft) W-SW 245 0 min 0,000 mm 0,0 UV-I 5 W/m 9,9 C 7,8 C 20,9 km/h (4 Bft) 96,00 %
11.05.2018 05:48 12,3 C 18,9 C 85 % 1017,9 hPa 0,0 l/m 15,2 km/h (3 Bft) SW 235 0 min 0,000 mm 0,0 UV-I 5 W/m 9,9 C 7,8 C 24,1 km/h (4 Bft) 100,00 %
11.05.2018 05:49 12,3 C 18,9 C 85 % 1017,9 hPa 0,0 l/m 13,2 km/h (3 Bft) W 275 0 min 0,000 mm 0,0 UV-I 5 W/m 9,9 C 8,6 C 17,7 km/h (3 Bft) 100,00 %
11.05.2018 05:50 12,3 C 18,9 C 85 % 1017,8 hPa 0,0 l/m 12,5 km/h (3 Bft) W 265 0 min 0,000 mm 0,0 UV-I 5 W/m 9,9 C 8,9 C 16,1 km/h (3 Bft) 100,00 %
11.05.2018 05:51 12,3 C 18,9 C 85 % 1017,8 hPa 0,0 l/m 12,9 km/h (3 Bft) W 281 0 min 0,000 mm 0,0 UV-I 5 W/m 9,9 C 8,8 C 17,7 km/h (3 Bft) 100,00 %
11.05.2018 05:52 12,3 C 18,9 C 85 % 1017,8 hPa 0,0 l/m 13,1 km/h (3 Bft) W 260 0 min 0,000 mm 0,0 UV-I 6 W/m 9,9 C 8,7 C 16,1 km/h (3 Bft) 95,83 %
11.05.2018 05:53 12,3 C 18,9 C 85 % 1017,8 hPa 0,0 l/m 11,6 km/h (2 Bft) W-SW 242 0 min 0,000 mm 0,0 UV-I 7 W/m 9,9 C 9,3 C 17,7 km/h (3 Bft) 100,00 %
11.05.2018 05:54 12,3 C 18,9 C 85 % 1017,8 hPa 0,0 l/m 10,8 km/h (2 Bft) W-SW 253 0 min 0,000 mm 0,0 UV-I 7 W/m 9,9 C 9,7 C 19,3 km/h (3 Bft) 100,00 %
11.05.2018 05:55 12,3 C 18,9 C 85 % 1017,8 hPa 0,0 l/m 14,0 km/h (3 Bft) SW 228 0 min 0,000 mm 0,0 UV-I 7 W/m 9,9 C 8,3 C 19,3 km/h (3 Bft) 100,00 %
11.05.2018 05:56 12,3 C 18,9 C 85 % 1017,8 hPa 0,0 l/m 11,3 km/h (2 Bft) W-SW 248 0 min 0,000 mm 0,0 UV-I 9 W/m 9,9 C 9,5 C 14,5 km/h (3 Bft) 100,00 %
11.05.2018 05:57 12,3 C 18,9 C 85 % 1017,8 hPa 0,0 l/m 10,8 km/h (2 Bft) W 271 0 min 0,000 mm 0,0 UV-I 9 W/m 9,9 C 9,7 C 14,5 km/h (3 Bft) 100,00 %
11.05.2018 05:58 12,3 C 18,9 C 85 % 1017,8 hPa 0,0 l/m 10,3 km/h (2 Bft) W 267 0 min 0,000 mm 0,0 UV-I 9 W/m 9,9 C 10,0 C 14,5 km/h (3 Bft) 100,00 %
11.05.2018 05:59 12,2 C 18,9 C 85 % 1017,8 hPa 0,0 l/m 10,0 km/h (2 Bft) W 259 0 min 0,000 mm 0,0 UV-I 9 W/m 9,8 C 10,0 C 16,1 km/h (3 Bft) 95,83 %
11.05.2018 06:00 12,2 C 18,9 C 85 % 1017,8 hPa 0,0 l/m 13,6 km/h (3 Bft) W 273 0 min 0,025 mm 0,0 UV-I 9 W/m 9,8 C 8,4 C 19,3 km/h (3 Bft) 95,65 %
11.05.2018 06:01 12,2 C 18,9 C 85 % 1017,8 hPa 0,0 l/m 12,3 km/h (3 Bft) W 265 0 min 0,000 mm 0,0 UV-I 9 W/m 9,8 C 8,9 C 17,7 km/h (3 Bft) 100,00 %
11.05.2018 06:02 12,2 C 18,9 C 85 % 1017,8 hPa 0,0 l/m 9,9 km/h (2 Bft) W-SW 255 0 min 0,000 mm 0,0 UV-I 9 W/m 9,8 C 10,1 C 12,9 km/h (3 Bft) 96,15 %
11.05.2018 06:03 12,2 C 18,9 C 85 % 1017,8 hPa 0,0 l/m 9,7 km/h (2 Bft) W 269 0 min 0,000 mm 0,0 UV-I 11 W/m 9,8 C 10,2 C 12,9 km/h (3 Bft) 100,00 %
11.05.2018 06:04 12,2 C 18,9 C 85 % 1017,8 hPa 0,0 l/m 12,8 km/h (3 Bft) W 264 0 min 0,000 mm 0,0 UV-I 11 W/m 9,8 C 8,7 C 19,3 km/h (3 Bft) 100,00 %
11.05.2018 06:05 12,2 C 18,9 C 85 % 1017,8 hPa 0,0 l/m 15,8 km/h (3 Bft) W-SW 250 0 min 0,000 mm 0,0 UV-I 11 W/m 9,8 C 7,5 C 22,5 km/h (4 Bft) 100,00 %
11.05.2018 06:06 12,2 C 18,9 C 85 % 1017,8 hPa 0,0 l/m 11,5 km/h (2 Bft) W-SW 240 0 min 0,000 mm 0,0 UV-I 11 W/m 9,8 C 9,3 C 14,5 km/h (3 Bft) 100,00 %
11.05.2018 06:07 12,2 C 18,9 C 85 % 1017,8 hPa 0,0 l/m 14,3 km/h (3 Bft) W-NW 288 0 min 0,000 mm 0,0 UV-I 11 W/m 9,8 C 8,1 C 19,3 km/h (3 Bft) 100,00 %
11.05.2018 06:08 12,2 C 18,9 C 85 % 1017,7 hPa 0,0 l/m 13,9 km/h (3 Bft) W-SW 248 0 min 0,000 mm 0,0 UV-I 11 W/m 9,8 C 8,2 C 17,7 km/h (3 Bft) 100,00 %
11.05.2018 06:09 12,2 C 18,9 C 85 % 1017,8 hPa 0,0 l/m 14,2 km/h (3 Bft) W-SW 254 0 min 0,000 mm 0,0 UV-I 11 W/m 9,8 C 8,1 C 17,7 km/h (3 Bft) 100,00 %
11.05.2018 06:10 12,2 C 18,9 C 85 % 1017,8 hPa 0,0 l/m 15,4 km/h (3 Bft) W-SW 257 0 min 0,000 mm 0,0 UV-I 12 W/m 9,8 C 7,6 C 20,9 km/h (4 Bft) 100,00 %
11.05.2018 06:11 12,2 C 18,9 C 85 % 1017,8 hPa 0,0 l/m 13,7 km/h (3 Bft) W 260 0 min 0,000 mm 0,0 UV-I 12 W/m 9,8 C 8,3 C 19,3 km/h (3 Bft) 100,00 %
11.05.2018 06:12 12,2 C 18,9 C 85 % 1017,8 hPa 0,0 l/m 14,9 km/h (3 Bft) W-SW 254 0 min 0,000 mm 0,0 UV-I 12 W/m 9,8 C 7,8 C 20,9 km/h (4 Bft) 100,00 %
11.05.2018 06:13 12,2 C 18,9 C 85 % 1017,8 hPa 0,0 l/m 11,5 km/h (2 Bft) W 263 0 min 0,000 mm 0,0 UV-I 12 W/m 9,8 C 9,3 C 14,5 km/h (3 Bft) 100,00 %
11.05.2018 06:14 12,2 C 18,9 C 85 % 1017,8 hPa 0,0 l/m 9,3 km/h (2 Bft) W 262 0 min 0,000 mm 0,0 UV-I 12 W/m 9,8 C 10,4 C 12,9 km/h (3 Bft) 100,00 %
11.05.2018 06:15 12,2 C 18,9 C 85 % 1017,8 hPa 0,0 l/m 14,3 km/h (3 Bft) W-SW 256 0 min 0,000 mm 0,0 UV-I 12 W/m 9,8 C 8,1 C 19,3 km/h (3 Bft) 100,00 %
11.05.2018 06:16 12,2 C 18,9 C 85 % 1017,8 hPa 0,0 l/m 10,3 km/h (2 Bft) W 265 0 min 0,000 mm 0,0 UV-I 14 W/m 9,8 C 9,9 C 14,5 km/h (3 Bft) 100,00 %
11.05.2018 06:17 12,2 C 18,9 C 85 % 1017,8 hPa 0,0 l/m 10,4 km/h (2 Bft) W 272 0 min 0,000 mm 0,0 UV-I 14 W/m 9,8 C 9,8 C 16,1 km/h (3 Bft) 100,00 %
11.05.2018 06:19 12,2 C 18,9 C 85 % 1017,8 hPa 0,0 l/m 11,9 km/h (2 Bft) W 270 0 min 0,000 mm 0,0 UV-I 15 W/m 9,8 C 9,1 C 17,7 km/h (3 Bft) 100,00 %
11.05.2018 06:20 12,2 C 18,9 C 86 % 1017,8 hPa 0,0 l/m 12,3 km/h (3 Bft) W-SW 246 0 min 0,000 mm 0,0 UV-I 16 W/m 9,9 C 8,9 C 17,7 km/h (3 Bft) 96,30 %
11.05.2018 06:21 12,2 C 18,9 C 86 % 1017,9 hPa 0,0 l/m 8,0 km/h (2 Bft) W-SW 244 0 min 0,000 mm 0,0 UV-I 18 W/m 9,9 C 11,2 C 14,5 km/h (3 Bft) 100,00 %
11.05.2018 06:22 12,2 C 18,9 C 86 % 1017,9 hPa 0,0 l/m 11,3 km/h (2 Bft) W-NW 282 0 min 0,000 mm 0,0 UV-I 18 W/m 9,9 C 9,4 C 16,1 km/h (3 Bft) 100,00 %
11.05.2018 06:23 12,2 C 18,9 C 86 % 1017,9 hPa 0,0 l/m 8,0 km/h (2 Bft) W-SW 246 0 min 0,000 mm 0,0 UV-I 19 W/m 9,9 C 11,2 C 14,5 km/h (3 Bft) 100,00 %
11.05.2018 06:24 12,2 C 18,9 C 86 % 1017,9 hPa 0,0 l/m 10,6 km/h (2 Bft) W 267 0 min 0,000 mm 0,0 UV-I 19 W/m 9,9 C 9,7 C 14,5 km/h (3 Bft) 100,00 %
11.05.2018 06:25 12,2 C 18,9 C 86 % 1017,9 hPa 0,0 l/m 13,0 km/h (3 Bft) W 266 0 min 0,000 mm 0,0 UV-I 21 W/m 9,9 C 8,6 C 19,3 km/h (3 Bft) 100,00 %
11.05.2018 06:26 12,2 C 18,9 C 86 % 1017,9 hPa 0,0 l/m 10,7 km/h (2 Bft) W 265 0 min 0,000 mm 0,0 UV-I 21 W/m 9,9 C 9,7 C 17,7 km/h (3 Bft) 100,00 %
11.05.2018 06:27 12,2 C 18,9 C 86 % 1018,0 hPa 0,0 l/m 13,1 km/h (3 Bft) W 266 0 min 0,000 mm 0,0 UV-I 21 W/m 9,9 C 8,6 C 16,1 km/h (3 Bft) 100,00 %
11.05.2018 06:28 12,2 C 18,9 C 86 % 1018,0 hPa 0,0 l/m 14,0 km/h (3 Bft) W-SW 250 0 min 0,000 mm 0,0 UV-I 21 W/m 9,9 C 8,2 C 20,9 km/h (4 Bft) 100,00 %
11.05.2018 06:29 12,1 C 18,9 C 85 % 1018,0 hPa 0,0 l/m 15,2 km/h (3 Bft) W 262 0 min 0,000 mm 0,0 UV-I 21 W/m 9,7 C 7,6 C 19,3 km/h (3 Bft) 86,96 %
11.05.2018 06:30 12,1 C 18,9 C 85 % 1018,0 hPa 0,0 l/m 12,9 km/h (3 Bft) NW 311 0 min 0,000 mm 0,0 UV-I 22 W/m 9,7 C 8,5 C 17,7 km/h (3 Bft) 100,00 %
11.05.2018 06:31 12,1 C 18,9 C 85 % 1018,0 hPa 0,0 l/m 10,9 km/h (2 Bft) W-SW 257 0 min 0,000 mm 0,0 UV-I 23 W/m 9,7 C 9,5 C 16,1 km/h (3 Bft) 91,67 %
11.05.2018 06:32 12,1 C 18,9 C 85 % 1018,0 hPa 0,0 l/m 7,2 km/h (2 Bft) W-SW 238 0 min 0,000 mm 0,0 UV-I 25 W/m 9,7 C 11,6 C 9,7 km/h (2 Bft) 100,00 %
11.05.2018 06:33 12,1 C 18,9 C 85 % 1018,0 hPa 0,0 l/m 7,4 km/h (2 Bft) W 274 0 min 0,000 mm 0,0 UV-I 27 W/m 9,7 C 11,4 C 9,7 km/h (2 Bft) 96,55 %
11.05.2018 06:34 12,1 C 18,9 C 85 % 1018,0 hPa 0,0 l/m 11,7 km/h (2 Bft) W-SW 251 0 min 0,000 mm 0,0 UV-I 30 W/m 9,7 C 9,1 C 16,1 km/h (3 Bft) 100,00 %
11.05.2018 06:35 12,1 C 18,9 C 85 % 1018,1 hPa 0,0 l/m 7,6 km/h (2 Bft) SW 219 0 min 0,000 mm 0,0 UV-I 34 W/m 9,7 C 11,3 C 11,3 km/h (2 Bft) 91,30 %
11.05.2018 06:36 12,1 C 18,9 C 85 % 1018,0 hPa 0,0 l/m 6,3 km/h (2 Bft) W-SW 254 0 min 0,000 mm 0,0 UV-I 38 W/m 9,7 C 12,1 C 8,0 km/h (2 Bft) 100,00 %
11.05.2018 06:37 12,1 C 18,9 C 85 % 1018,1 hPa 0,0 l/m 11,9 km/h (2 Bft) W 260 0 min 0,000 mm 0,0 UV-I 44 W/m 9,7 C 9,0 C 14,5 km/h (3 Bft) 95,83 %
11.05.2018 06:38 12,1 C 18,9 C 85 % 1018,1 hPa 0,0 l/m 11,4 km/h (2 Bft) W 269 0 min 0,000 mm 0,0 UV-I 47 W/m 9,7 C 9,2 C 14,5 km/h (3 Bft) 100,00 %
11.05.2018 06:39 12,2 C 18,9 C 85 % 1018,1 hPa 0,0 l/m 9,0 km/h (2 Bft) W-SW 254 0 min 0,000 mm 0,0 UV-I 50 W/m 9,8 C 10,6 C 11,3 km/h (2 Bft) 95,83 %
11.05.2018 06:40 12,2 C 18,9 C 85 % 1018,1 hPa 0,0 l/m 5,4 km/h (1 Bft) W-NW 284 0 min 0,000 mm 0,0 UV-I 54 W/m 9,8 C 12,2 C 9,7 km/h (2 Bft) 95,65 %
11.05.2018 06:41 12,2 C 18,9 C 85 % 1018,1 hPa 0,0 l/m 8,8 km/h (2 Bft) W-SW 255 0 min 0,000 mm 0,0 UV-I 55 W/m 9,8 C 10,7 C 12,9 km/h (3 Bft) 100,00 %
11.05.2018 06:42 12,2 C 18,9 C 85 % 1018,1 hPa 0,0 l/m 6,6 km/h (2 Bft) W 266 0 min 0,000 mm 0,0 UV-I 54 W/m 9,8 C 12,1 C 9,7 km/h (2 Bft) 95,65 %
11.05.2018 06:43 12,2 C 18,9 C 85 % 1018,1 hPa 0,0 l/m 10,0 km/h (2 Bft) W 273 0 min 0,000 mm 0,0 UV-I 53 W/m 9,8 C 10,0 C 12,9 km/h (3 Bft) 100,00 %
11.05.2018 06:44 12,2 C 18,9 C 85 % 1018,1 hPa 0,0 l/m 9,9 km/h (2 Bft) W 261 0 min 0,000 mm 0,0 UV-I 53 W/m 9,8 C 10,1 C 12,9 km/h (3 Bft) 95,65 %
11.05.2018 06:45 12,2 C 18,9 C 85 % 1018,1 hPa 0,0 l/m 7,0 km/h (2 Bft) W 266 0 min 0,000 mm 0,0 UV-I 50 W/m 9,8 C 11,8 C 11,3 km/h (2 Bft) 100,00 %
11.05.2018 06:46 12,2 C 18,9 C 85 % 1018,2 hPa 0,0 l/m 6,9 km/h (2 Bft) W-SW 256 0 min 0,000 mm 0,0 UV-I 49 W/m 9,8 C 11,9 C 11,3 km/h (2 Bft) 95,65 %
11.05.2018 06:47 12,2 C 18,9 C 85 % 1018,2 hPa 0,0 l/m 11,6 km/h (2 Bft) W-SW 257 0 min 0,000 mm 0,0 UV-I 49 W/m 9,8 C 9,2 C 12,9 km/h (3 Bft) 100,00 %
11.05.2018 06:48 12,2 C 18,9 C 85 % 1018,2 hPa 0,0 l/m 9,9 km/h (2 Bft) W 266 0 min 0,000 mm 0,0 UV-I 49 W/m 9,8 C 10,1 C 12,9 km/h (3 Bft) 92,31 %
11.05.2018 06:49 12,2 C 18,9 C 85 % 1018,2 hPa 0,0 l/m 11,3 km/h (2 Bft) W 264 0 min 0,000 mm 0,0 UV-I 49 W/m 9,8 C 9,4 C 16,1 km/h (3 Bft) 95,83 %
11.05.2018 06:50 12,2 C 18,9 C 85 % 1018,2 hPa 0,0 l/m 10,2 km/h (2 Bft) W 273 0 min 0,000 mm 0,0 UV-I 45 W/m 9,8 C 9,9 C 12,9 km/h (3 Bft) 95,65 %
11.05.2018 06:51 12,2 C 18,9 C 85 % 1018,2 hPa 0,0 l/m 8,5 km/h (2 Bft) W-SW 253 0 min 0,000 mm 0,0 UV-I 41 W/m 9,8 C 10,9 C 11,3 km/h (2 Bft) 95,83 %
11.05.2018 06:52 12,2 C 18,9 C 85 % 1018,2 hPa 0,0 l/m 9,1 km/h (2 Bft) W 263 0 min 0,000 mm 0,0 UV-I 38 W/m 9,8 C 10,5 C 12,9 km/h (3 Bft) 100,00 %
11.05.2018 06:53 12,2 C 18,9 C 85 % 1018,2 hPa 0,0 l/m 9,1 km/h (2 Bft) W-SW 250 0 min 0,000 mm 0,0 UV-I 34 W/m 9,8 C 10,5 C 12,9 km/h (3 Bft) 95,83 %
11.05.2018 06:54 12,2 C 18,9 C 85 % 1018,2 hPa 0,0 l/m 11,3 km/h (2 Bft) W-SW 256 0 min 0,000 mm 0,0 UV-I 31 W/m 9,8 C 9,4 C 14,5 km/h (3 Bft) 100,00 %
11.05.2018 06:55 12,2 C 18,9 C 85 % 1018,2 hPa 0,0 l/m 10,9 km/h (2 Bft) W 259 0 min 0,000 mm 0,0 UV-I 28 W/m 9,8 C 9,6 C 16,1 km/h (3 Bft) 96,15 %
11.05.2018 06:56 12,2 C 18,9 C 85 % 1018,2 hPa 0,0 l/m 7,8 km/h (2 Bft) W 273 0 min 0,000 mm 0,0 UV-I 26 W/m 9,8 C 11,3 C 12,9 km/h (3 Bft) 100,00 %
11.05.2018 06:57 12,2 C 18,9 C 85 % 1018,3 hPa 0,0 l/m 6,0 km/h (2 Bft) W 278 0 min 0,000 mm 0,0 UV-I 24 W/m 9,8 C 12,2 C 6,4 km/h (2 Bft) 91,30 %
11.05.2018 06:58 12,2 C 18,9 C 85 % 1018,3 hPa 0,0 l/m 5,6 km/h (1 Bft) W 259 0 min 0,000 mm 0,0 UV-I 23 W/m 9,8 C 12,2 C 6,4 km/h (2 Bft) 100,00 %
11.05.2018 06:59 12,2 C 18,9 C 85 % 1018,3 hPa 0,0 l/m 7,4 km/h (2 Bft) W 279 0 min 0,000 mm 0,0 UV-I 23 W/m 9,8 C 11,5 C 12,9 km/h (3 Bft) 96,15 %
11.05.2018 07:00 12,2 C 18,9 C 85 % 1018,3 hPa 0,0 l/m 8,1 km/h (2 Bft) W-SW 252 0 min 0,000 mm 0,0 UV-I 23 W/m 9,8 C 11,1 C 11,3 km/h (2 Bft) 100,00 %
11.05.2018 07:01 12,2 C 18,9 C 85 % 1018,3 hPa 0,0 l/m 11,1 km/h (2 Bft) W 274 0 min 0,026 mm 0,0 UV-I 25 W/m 9,8 C 9,5 C 14,5 km/h (3 Bft) 91,30 %
11.05.2018 07:02 12,2 C 18,9 C 85 % 1018,3 hPa 0,0 l/m 11,3 km/h (2 Bft) W 259 0 min 0,000 mm 0,0 UV-I 28 W/m 9,8 C 9,4 C 14,5 km/h (3 Bft) 91,67 %
11.05.2018 07:03 12,2 C 18,9 C 85 % 1018,3 hPa 0,0 l/m 11,9 km/h (2 Bft) W 278 0 min 0,000 mm 0,0 UV-I 33 W/m 9,8 C 9,1 C 14,5 km/h (3 Bft) 100,00 %
11.05.2018 07:04 12,2 C 18,9 C 85 % 1018,3 hPa 0,0 l/m 11,3 km/h (2 Bft) W 267 0 min 0,000 mm 0,0 UV-I 37 W/m 9,8 C 9,4 C 16,1 km/h (3 Bft) 96,30 %
11.05.2018 07:05 12,2 C 18,9 C 85 % 1018,3 hPa 0,0 l/m 9,0 km/h (2 Bft) W-SW 256 0 min 0,000 mm 0,0 UV-I 45 W/m 9,8 C 10,6 C 11,3 km/h (2 Bft) 85,71 %
11.05.2018 07:06 12,2 C 18,9 C 85 % 1018,3 hPa 0,0 l/m 9,0 km/h (2 Bft) W-SW 240 0 min 0,000 mm 0,0 UV-I 47 W/m 9,8 C 10,6 C 12,9 km/h (3 Bft) 96,00 %
11.05.2018 07:07 12,2 C 18,9 C 85 % 1018,3 hPa 0,0 l/m 9,5 km/h (2 Bft) W-SW 242 0 min 0,000 mm 0,0 UV-I 43 W/m 9,8 C 10,3 C 14,5 km/h (3 Bft) 95,65 %
11.05.2018 07:08 12,2 C 18,9 C 86 % 1018,3 hPa 0,0 l/m 10,7 km/h (2 Bft) W-SW 243 0 min 0,000 mm 0,0 UV-I 39 W/m 9,9 C 9,7 C 16,1 km/h (3 Bft) 95,83 %
11.05.2018 07:09 12,2 C 18,9 C 86 % 1018,3 hPa 0,0 l/m 9,2 km/h (2 Bft) W 265 0 min 0,000 mm 0,0 UV-I 37 W/m 9,9 C 10,5 C 12,9 km/h (3 Bft) 95,65 %
11.05.2018 07:10 12,2 C 18,9 C 86 % 1018,4 hPa 0,0 l/m 10,4 km/h (2 Bft) W-SW 248 0 min 0,000 mm 0,0 UV-I 38 W/m 9,9 C 9,8 C 14,5 km/h (3 Bft) 91,67 %
11.05.2018 07:11 12,1 C 18,9 C 86 % 1018,4 hPa 0,0 l/m 7,6 km/h (2 Bft) SW 229 0 min 0,000 mm 0,0 UV-I 37 W/m 9,8 C 11,3 C 12,9 km/h (3 Bft) 95,65 %
11.05.2018 07:12 12,1 C 18,9 C 86 % 1018,4 hPa 0,0 l/m 8,2 km/h (2 Bft) S-SW 198 0 min 0,000 mm 0,0 UV-I 37 W/m 9,8 C 10,9 C 12,9 km/h (3 Bft) 95,83 %
11.05.2018 07:13 12,1 C 18,9 C 86 % 1018,4 hPa 0,0 l/m 9,3 km/h (2 Bft) W-SW 238 0 min 0,000 mm 0,0 UV-I 35 W/m 9,8 C 10,3 C 14,5 km/h (3 Bft) 95,83 %
11.05.2018 07:14 12,1 C 18,9 C 86 % 1018,4 hPa 0,0 l/m 9,1 km/h (2 Bft) SW 224 0 min 0,000 mm 0,0 UV-I 36 W/m 9,8 C 10,4 C 14,5 km/h (3 Bft) 91,30 %
11.05.2018 07:15 12,0 C 18,9 C 86 % 1018,4 hPa 0,0 l/m 10,1 km/h (2 Bft) SW 229 0 min 0,000 mm 0,0 UV-I 37 W/m 9,7 C 9,8 C 14,5 km/h (3 Bft) 91,67 %
11.05.2018 07:16 12,0 C 18,9 C 87 % 1018,4 hPa 0,0 l/m 11,8 km/h (2 Bft) W-SW 245 0 min 0,000 mm 0,0 UV-I 38 W/m 9,9 C 8,9 C 17,7 km/h (3 Bft) 100,00 %
11.05.2018 07:17 11,9 C 18,9 C 87 % 1018,4 hPa 0,0 l/m 11,1 km/h (2 Bft) W-SW 248 0 min 0,000 mm 0,0 UV-I 40 W/m 9,8 C 9,1 C 16,1 km/h (3 Bft) 91,67 %
11.05.2018 07:18 11,9 C 18,9 C 87 % 1018,4 hPa 0,0 l/m 12,8 km/h (3 Bft) W 267 0 min 0,000 mm 0,0 UV-I 40 W/m 9,8 C 8,3 C 16,1 km/h (3 Bft) 96,15 %
11.05.2018 07:19 12,0 C 18,9 C 87 % 1018,5 hPa 0,0 l/m 9,9 km/h (2 Bft) S 191 0 min 0,000 mm 0,0 UV-I 42 W/m 9,9 C 9,9 C 14,5 km/h (3 Bft) 95,83 %
11.05.2018 07:20 11,9 C 18,9 C 87 % 1018,5 hPa 0,0 l/m 13,5 km/h (3 Bft) SW 231 0 min 0,000 mm 0,0 UV-I 42 W/m 9,8 C 8,0 C 17,7 km/h (3 Bft) 95,65 %
11.05.2018 07:21 11,9 C 18,9 C 87 % 1018,5 hPa 0,0 l/m 13,5 km/h (3 Bft) W-SW 242 0 min 0,000 mm 0,0 UV-I 43 W/m 9,8 C 8,0 C 17,7 km/h (3 Bft) 95,83 %
11.05.2018 07:22 11,9 C 18,9 C 87 % 1018,5 hPa 0,0 l/m 13,5 km/h (3 Bft) W-SW 246 0 min 0,000 mm 0,0 UV-I 44 W/m 9,8 C 8,0 C 19,3 km/h (3 Bft) 91,30 %
11.05.2018 07:23 11,9 C 18,9 C 87 % 1018,5 hPa 0,0 l/m 14,8 km/h (3 Bft) W-SW 240 0 min 0,000 mm 0,0 UV-I 44 W/m 9,8 C 7,5 C 19,3 km/h (3 Bft) 100,00 %
11.05.2018 07:24 11,9 C 18,9 C 87 % 1018,5 hPa 0,0 l/m 12,5 km/h (3 Bft) W-SW 247 0 min 0,000 mm 0,0 UV-I 46 W/m 9,8 C 8,5 C 19,3 km/h (3 Bft) 86,96 %
11.05.2018 07:25 11,9 C 18,9 C 87 % 1018,5 hPa 0,0 l/m 10,3 km/h (2 Bft) W-SW 240 0 min 0,000 mm 0,0 UV-I 46 W/m 9,8 C 9,5 C 14,5 km/h (3 Bft) 95,83 %
11.05.2018 07:26 11,9 C 18,9 C 87 % 1018,6 hPa 0,0 l/m 11,0 km/h (2 Bft) W-SW 249 0 min 0,000 mm 0,0 UV-I 47 W/m 9,8 C 9,2 C 16,1 km/h (3 Bft) 100,00 %
11.05.2018 07:27 11,9 C 18,9 C 87 % 1018,6 hPa 0,0 l/m 12,9 km/h (3 Bft) W-SW 243 0 min 0,000 mm 0,0 UV-I 44 W/m 9,8 C 8,3 C 17,7 km/h (3 Bft) 91,67 %
11.05.2018 07:28 11,9 C 18,9 C 87 % 1018,6 hPa 0,0 l/m 11,3 km/h (2 Bft) W-SW 239 0 min 0,000 mm 0,0 UV-I 42 W/m 9,8 C 9,0 C 16,1 km/h (3 Bft) 87,50 %
11.05.2018 07:29 11,9 C 18,9 C 87 % 1018,5 hPa 0,0 l/m 13,1 km/h (3 Bft) SW 226 0 min 0,000 mm 0,0 UV-I 36 W/m 9,8 C 8,2 C 16,1 km/h (3 Bft) 95,65 %
11.05.2018 07:30 11,9 C 18,9 C 87 % 1018,6 hPa 0,0 l/m 11,5 km/h (2 Bft) W-SW 247 0 min 0,000 mm 0,0 UV-I 32 W/m 9,8 C 8,9 C 17,7 km/h (3 Bft) 95,83 %
11.05.2018 07:31 11,9 C 18,9 C 87 % 1018,6 hPa 0,0 l/m 9,8 km/h (2 Bft) W 265 0 min 0,000 mm 0,0 UV-I 30 W/m 9,8 C 9,8 C 14,5 km/h (3 Bft) 95,65 %
11.05.2018 07:32 11,9 C 18,9 C 87 % 1018,6 hPa 0,0 l/m 6,7 km/h (2 Bft) W-SW 243 0 min 0,000 mm 0,0 UV-I 30 W/m 9,8 C 11,7 C 12,9 km/h (3 Bft) 95,83 %
11.05.2018 07:33 11,9 C 18,9 C 87 % 1018,6 hPa 0,0 l/m 9,4 km/h (2 Bft) W 265 0 min 0,000 mm 0,0 UV-I 30 W/m 9,8 C 10,0 C 16,1 km/h (3 Bft) 96,15 %
11.05.2018 07:34 11,9 C 18,9 C 87 % 1018,6 hPa 0,0 l/m 11,7 km/h (2 Bft) S-SW 209 0 min 0,000 mm 0,0 UV-I 29 W/m 9,8 C 8,8 C 17,7 km/h (3 Bft) 91,67 %
11.05.2018 07:35 11,9 C 18,9 C 87 % 1018,6 hPa 0,0 l/m 11,2 km/h (2 Bft) W-SW 244 0 min 0,000 mm 0,0 UV-I 30 W/m 9,8 C 9,1 C 14,5 km/h (3 Bft) 96,15 %
11.05.2018 07:36 11,9 C 18,9 C 87 % 1018,6 hPa 0,0 l/m 11,7 km/h (2 Bft) SW 234 0 min 0,000 mm 0,0 UV-I 32 W/m 9,8 C 8,8 C 16,1 km/h (3 Bft) 95,83 %
11.05.2018 07:37 11,9 C 18,9 C 87 % 1018,6 hPa 0,0 l/m 8,4 km/h (2 Bft) W 260 0 min 0,000 mm 0,0 UV-I 34 W/m 9,8 C 10,6 C 11,3 km/h (2 Bft) 96,15 %
11.05.2018 07:38 11,9 C 18,9 C 87 % 1018,6 hPa 0,0 l/m 7,6 km/h (2 Bft) SW 232 0 min 0,000 mm 0,0 UV-I 36 W/m 9,8 C 11,1 C 12,9 km/h (3 Bft) 95,83 %
11.05.2018 07:39 11,9 C 18,9 C 87 % 1018,6 hPa 0,0 l/m 11,1 km/h (2 Bft) SW 236 0 min 0,000 mm 0,0 UV-I 38 W/m 9,8 C 9,1 C 16,1 km/h (3 Bft) 100,00 %
11.05.2018 07:40 11,9 C 18,9 C 87 % 1018,6 hPa 0,0 l/m 8,4 km/h (2 Bft) W-SW 258 0 min 0,000 mm 0,0 UV-I 40 W/m 9,8 C 10,6 C 14,5 km/h (3 Bft) 95,83 %
11.05.2018 07:41 11,9 C 18,9 C 87 % 1018,6 hPa 0,0 l/m 9,3 km/h (2 Bft) W 269 0 min 0,000 mm 0,0 UV-I 44 W/m 9,8 C 10,1 C 12,9 km/h (3 Bft) 95,65 %
11.05.2018 07:42 11,9 C 18,9 C 87 % 1018,6 hPa 0,0 l/m 5,2 km/h (1 Bft) W-SW 258 0 min 0,000 mm 0,0 UV-I 46 W/m 9,8 C 11,9 C 9,7 km/h (2 Bft) 100,00 %
11.05.2018 07:43 11,9 C 18,9 C 87 % 1018,6 hPa 0,0 l/m 7,5 km/h (2 Bft) SW 236 0 min 0,000 mm 0,0 UV-I 50 W/m 9,8 C 11,2 C 11,3 km/h (2 Bft) 100,00 %
11.05.2018 07:44 11,9 C 18,9 C 87 % 1018,6 hPa 0,0 l/m 6,7 km/h (2 Bft) W-SW 248 0 min 0,000 mm 0,0 UV-I 52 W/m 9,8 C 11,7 C 9,7 km/h (2 Bft) 95,83 %
11.05.2018 07:45 11,9 C 18,9 C 87 % 1018,6 hPa 0,0 l/m 9,6 km/h (2 Bft) W 271 0 min 0,000 mm 0,0 UV-I 55 W/m 9,8 C 9,9 C 16,1 km/h (3 Bft) 100,00 %
11.05.2018 07:46 11,9 C 18,9 C 87 % 1018,6 hPa 0,0 l/m 10,5 km/h (2 Bft) W 272 0 min 0,000 mm 0,0 UV-I 57 W/m 9,8 C 9,4 C 14,5 km/h (3 Bft) 100,00 %
11.05.2018 07:47 11,9 C 18,9 C 87 % 1018,6 hPa 0,0 l/m 7,0 km/h (2 Bft) W-SW 249 0 min 0,000 mm 0,0 UV-I 60 W/m 9,8 C 11,5 C 14,5 km/h (3 Bft) 100,00 %
11.05.2018 07:48 12,0 C 18,9 C 87 % 1018,6 hPa 0,0 l/m 9,4 km/h (2 Bft) W 276 0 min 0,000 mm 0,0 UV-I 62 W/m 9,9 C 10,1 C 14,5 km/h (3 Bft) 100,00 %
11.05.2018 07:49 12,0 C 18,9 C 87 % 1018,7 hPa 0,0 l/m 8,1 km/h (2 Bft) W 263 0 min 0,000 mm 0,0 UV-I 64 W/m 9,9 C 10,9 C 12,9 km/h (3 Bft) 100,00 %
11.05.2018 07:50 12,0 C 18,9 C 87 % 1018,7 hPa 0,0 l/m 9,7 km/h (2 Bft) W-SW 241 0 min 0,000 mm 0,0 UV-I 66 W/m 9,9 C 10,0 C 12,9 km/h (3 Bft) 100,00 %
11.05.2018 07:51 12,0 C 18,9 C 87 % 1018,7 hPa 0,0 l/m 10,9 km/h (2 Bft) W 265 0 min 0,000 mm 0,0 UV-I 67 W/m 9,9 C 9,3 C 14,5 km/h (3 Bft) 100,00 %
11.05.2018 07:52 12,0 C 18,9 C 86 % 1018,7 hPa 0,0 l/m 9,0 km/h (2 Bft) W-SW 246 0 min 0,000 mm 0,0 UV-I 67 W/m 9,7 C 10,4 C 12,9 km/h (3 Bft) 91,30 %
11.05.2018 07:53 12,0 C 18,9 C 86 % 1018,8 hPa 0,0 l/m 7,5 km/h (2 Bft) W-SW 255 0 min 0,000 mm 0,0 UV-I 67 W/m 9,7 C 11,3 C 11,3 km/h (2 Bft) 100,00 %
11.05.2018 07:54 12,0 C 18,9 C 86 % 1018,8 hPa 0,0 l/m 9,4 km/h (2 Bft) W-SW 247 0 min 0,000 mm 0,0 UV-I 70 W/m 9,7 C 10,1 C 12,9 km/h (3 Bft) 100,00 %
11.05.2018 07:55 12,1 C 18,9 C 86 % 1018,8 hPa 0,0 l/m 9,2 km/h (2 Bft) W 271 0 min 0,000 mm 0,0 UV-I 73 W/m 9,8 C 10,3 C 12,9 km/h (3 Bft) 100,00 %
11.05.2018 07:56 12,1 C 18,9 C 86 % 1018,8 hPa 0,0 l/m 6,2 km/h (2 Bft) W 261 0 min 0,000 mm 0,0 UV-I 75 W/m 9,8 C 12,1 C 9,7 km/h (2 Bft) 100,00 %
11.05.2018 07:57 12,1 C 18,9 C 86 % 1018,8 hPa 0,0 l/m 9,1 km/h (2 Bft) W-SW 246 0 min 0,000 mm 0,0 UV-I 76 W/m 9,8 C 10,4 C 12,9 km/h (3 Bft) 100,00 %
11.05.2018 07:58 12,1 C 18,9 C 86 % 1018,8 hPa 0,0 l/m 8,9 km/h (2 Bft) SW 221 0 min 0,000 mm 0,0 UV-I 75 W/m 9,8 C 10,5 C 12,9 km/h (3 Bft) 100,00 %
11.05.2018 07:59 12,1 C 18,9 C 86 % 1018,8 hPa 0,0 l/m 7,8 km/h (2 Bft) W 269 0 min 0,000 mm 0,0 UV-I 72 W/m 9,8 C 11,2 C 11,3 km/h (2 Bft) 100,00 %
11.05.2018 08:00 12,1 C 18,9 C 86 % 1018,8 hPa 0,0 l/m 11,5 km/h (2 Bft) W 269 0 min 0,000 mm 0,0 UV-I 70 W/m 9,8 C 9,2 C 16,1 km/h (3 Bft) 100,00 %
11.05.2018 08:01 12,1 C 18,9 C 86 % 1018,8 hPa 0,0 l/m 9,1 km/h (2 Bft) W-SW 240 0 min 0,051 mm 0,0 UV-I 70 W/m 9,8 C 10,4 C 12,9 km/h (3 Bft) 96,30 %
11.05.2018 08:02 12,1 C 18,9 C 86 % 1018,8 hPa 0,0 l/m 9,1 km/h (2 Bft) W-SW 246 0 min 0,000 mm 0,0 UV-I 71 W/m 9,8 C 10,4 C 14,5 km/h (3 Bft) 100,00 %
11.05.2018 08:03 12,1 C 18,9 C 86 % 1018,8 hPa 0,0 l/m 12,8 km/h (3 Bft) W-SW 250 0 min 0,000 mm 0,0 UV-I 74 W/m 9,8 C 8,6 C 16,1 km/h (3 Bft) 100,00 %
11.05.2018 08:04 12,1 C 18,9 C 86 % 1018,8 hPa 0,0 l/m 9,3 km/h (2 Bft) W 259 0 min 0,000 mm 0,0 UV-I 77 W/m 9,8 C 10,3 C 14,5 km/h (3 Bft) 100,00 %
11.05.2018 08:05 12,1 C 18,9 C 86 % 1018,8 hPa 0,0 l/m 6,2 km/h (2 Bft) W-SW 252 0 min 0,000 mm 0,0 UV-I 79 W/m 9,8 C 12,1 C 11,3 km/h (2 Bft) 100,00 %
11.05.2018 08:06 12,1 C 18,9 C 86 % 1018,8 hPa 0,0 l/m 7,3 km/h (2 Bft) W-SW 251 0 min 0,000 mm 0,0 UV-I 80 W/m 9,8 C 11,5 C 11,3 km/h (2 Bft) 91,67 %
11.05.2018 08:07 12,1 C 18,9 C 86 % 1018,8 hPa 0,0 l/m 7,2 km/h (2 Bft) W-SW 238 0 min 0,000 mm 0,0 UV-I 83 W/m 9,8 C 11,6 C 11,3 km/h (2 Bft) 100,00 %
11.05.2018 08:08 12,1 C 18,9 C 86 % 1018,8 hPa 0,0 l/m 9,3 km/h (2 Bft) W-NW 289 0 min 0,000 mm 0,0 UV-I 86 W/m 9,8 C 10,3 C 12,9 km/h (3 Bft) 100,00 %
11.05.2018 08:09 12,1 C 18,9 C 86 % 1018,8 hPa 0,0 l/m 10,5 km/h (2 Bft) W-SW 246 0 min 0,000 mm 0,0 UV-I 90 W/m 9,8 C 9,7 C 14,5 km/h (3 Bft) 100,00 %
11.05.2018 08:10 12,1 C 18,9 C 86 % 1018,8 hPa 0,0 l/m 11,1 km/h (2 Bft) W 267 0 min 0,000 mm 0,0 UV-I 96 W/m 9,8 C 9,4 C 16,1 km/h (3 Bft) 100,00 %
11.05.2018 08:11 12,1 C 18,9 C 86 % 1018,8 hPa 0,0 l/m 9,2 km/h (2 Bft) SW 234 0 min 0,000 mm 0,0 UV-I 100 W/m 9,8 C 10,3 C 12,9 km/h (3 Bft) 100,00 %
11.05.2018 08:12 12,1 C 18,9 C 86 % 1018,8 hPa 0,0 l/m 9,3 km/h (2 Bft) W-SW 241 0 min 0,000 mm 0,0 UV-I 107 W/m 9,8 C 10,3 C 11,3 km/h (2 Bft) 100,00 %
11.05.2018 08:13 12,1 C 18,9 C 86 % 1018,8 hPa 0,0 l/m 8,6 km/h (2 Bft) W-SW 257 0 min 0,000 mm 0,0 UV-I 116 W/m 9,8 C 10,7 C 12,9 km/h (3 Bft) 100,00 %
11.05.2018 08:14 12,1 C 18,9 C 86 % 1018,8 hPa 0,0 l/m 10,2 km/h (2 Bft) W 261 0 min 0,000 mm 0,0 UV-I 123 W/m 9,8 C 9,8 C 12,9 km/h (3 Bft) 100,00 %
11.05.2018 08:15 12,2 C 18,9 C 86 % 1018,8 hPa 0,0 l/m 8,2 km/h (2 Bft) W 275 0 min 0,000 mm 0,0 UV-I 127 W/m 9,9 C 11,0 C 11,3 km/h (2 Bft) 100,00 %
11.05.2018 08:16 12,2 C 18,9 C 86 % 1018,8 hPa 0,0 l/m 11,3 km/h (2 Bft) SW 229 0 min 0,000 mm 0,0 UV-I 133 W/m 9,9 C 9,4 C 17,7 km/h (3 Bft) 100,00 %
11.05.2018 08:17 12,2 C 18,9 C 86 % 1018,8 hPa 0,0 l/m 10,3 km/h (2 Bft) W-SW 256 0 min 0,000 mm 0,0 UV-I 140 W/m 9,9 C 9,9 C 14,5 km/h (3 Bft) 95,65 %
11.05.2018 08:18 12,3 C 18,9 C 86 % 1018,8 hPa 0,0 l/m 11,2 km/h (2 Bft) W 263 0 min 0,000 mm 0,0 UV-I 144 W/m 10,0 C 9,5 C 14,5 km/h (3 Bft) 100,00 %
11.05.2018 08:19 12,3 C 18,9 C 86 % 1018,8 hPa 0,0 l/m 12,4 km/h (3 Bft) SW 230 0 min 0,000 mm 0,0 UV-I 142 W/m 10,0 C 9,0 C 16,1 km/h (3 Bft) 100,00 %
11.05.2018 08:20 12,3 C 18,9 C 85 % 1018,8 hPa 0,0 l/m 10,8 km/h (2 Bft) SW 223 0 min 0,000 mm 0,0 UV-I 137 W/m 9,9 C 9,7 C 14,5 km/h (3 Bft) 100,00 %
11.05.2018 08:21 12,3 C 18,9 C 85 % 1018,8 hPa 0,0 l/m 9,1 km/h (2 Bft) W-SW 239 0 min 0,000 mm 0,0 UV-I 127 W/m 9,9 C 10,6 C 14,5 km/h (3 Bft) 100,00 %
11.05.2018 08:22 12,2 C 18,9 C 85 % 1018,8 hPa 0,0 l/m 12,9 km/h (3 Bft) SW 230 0 min 0,000 mm 0,0 UV-I 117 W/m 9,8 C 8,6 C 17,7 km/h (3 Bft) 97,37 %
11.05.2018 08:23 12,2 C 18,9 C 85 % 1018,8 hPa 0,0 l/m 10,7 km/h (2 Bft) W-SW 249 0 min 0,000 mm 0,0 UV-I 110 W/m 9,8 C 9,7 C 14,5 km/h (3 Bft) 95,65 %
11.05.2018 08:24 12,2 C 18,9 C 86 % 1018,8 hPa 0,0 l/m 10,7 km/h (2 Bft) W 267 0 min 0,000 mm 0,0 UV-I 105 W/m 9,9 C 9,7 C 14,5 km/h (3 Bft) 100,00 %
11.05.2018 08:25 12,2 C 18,9 C 85 % 1018,8 hPa 0,0 l/m 11,6 km/h (2 Bft) SW 232 0 min 0,000 mm 0,0 UV-I 103 W/m 9,8 C 9,2 C 17,7 km/h (3 Bft) 100,00 %
11.05.2018 08:26 12,3 C 18,9 C 85 % 1018,8 hPa 0,0 l/m 11,1 km/h (2 Bft) W-SW 249 0 min 0,000 mm 0,0 UV-I 103 W/m 9,9 C 9,6 C 16,1 km/h (3 Bft) 100,00 %
11.05.2018 08:27 12,3 C 18,9 C 85 % 1018,8 hPa 0,0 l/m 8,1 km/h (2 Bft) SW 227 0 min 0,000 mm 0,0 UV-I 106 W/m 9,9 C 11,2 C 11,3 km/h (2 Bft) 100,00 %
11.05.2018 08:28 12,3 C 18,9 C 86 % 1018,8 hPa 0,0 l/m 8,8 km/h (2 Bft) SW 231 0 min 0,000 mm 0,0 UV-I 110 W/m 10,0 C 10,8 C 19,3 km/h (3 Bft) 100,00 %
11.05.2018 08:29 12,3 C 18,9 C 85 % 1018,8 hPa 0,0 l/m 13,7 km/h (3 Bft) SW 232 0 min 0,000 mm 0,0 UV-I 117 W/m 9,9 C 8,4 C 17,7 km/h (3 Bft) 100,00 %
11.05.2018 08:30 12,3 C 18,9 C 85 % 1018,8 hPa 0,0 l/m 12,1 km/h (2 Bft) W-SW 248 0 min 0,000 mm 0,5 UV-I 122 W/m 9,9 C 9,1 C 19,3 km/h (3 Bft) 100,00 %
11.05.2018 08:31 12,3 C 18,9 C 85 % 1018,8 hPa 0,0 l/m 10,6 km/h (2 Bft) SW 223 0 min 0,000 mm 0,5 UV-I 126 W/m 9,9 C 9,8 C 16,1 km/h (3 Bft) 100,00 %
11.05.2018 08:32 12,3 C 18,9 C 85 % 1018,8 hPa 0,0 l/m 12,9 km/h (3 Bft) S-SW 207 0 min 0,000 mm 0,5 UV-I 128 W/m 9,9 C 8,8 C 17,7 km/h (3 Bft) 100,00 %
11.05.2018 08:33 12,3 C 18,9 C 85 % 1018,9 hPa 0,0 l/m 10,5 km/h (2 Bft) W-SW 237 0 min 0,000 mm 0,5 UV-I 128 W/m 9,9 C 9,9 C 12,9 km/h (3 Bft) 100,00 %
11.05.2018 08:34 12,3 C 18,9 C 85 % 1018,8 hPa 0,0 l/m 13,4 km/h (3 Bft) W 273 0 min 0,000 mm 0,5 UV-I 127 W/m 9,9 C 8,6 C 17,7 km/h (3 Bft) 97,37 %
11.05.2018 08:35 12,3 C 18,9 C 85 % 1018,9 hPa 0,0 l/m 13,1 km/h (3 Bft) W 274 0 min 0,000 mm 0,5 UV-I 127 W/m 9,9 C 8,7 C 17,7 km/h (3 Bft) 100,00 %
11.05.2018 08:36 12,3 C 18,9 C 85 % 1018,9 hPa 0,0 l/m 11,3 km/h (2 Bft) W 263 0 min 0,000 mm 0,5 UV-I 126 W/m 9,9 C 9,5 C 17,7 km/h (3 Bft) 100,00 %
11.05.2018 08:37 12,4 C 18,9 C 85 % 1018,9 hPa 0,0 l/m 12,1 km/h (2 Bft) W 273 0 min 0,000 mm 0,5 UV-I 122 W/m 9,9 C 9,2 C 16,1 km/h (3 Bft) 100,00 %
11.05.2018 08:38 12,4 C 18,9 C 85 % 1018,9 hPa 0,0 l/m 9,1 km/h (2 Bft) SW 220 0 min 0,000 mm 0,5 UV-I 119 W/m 9,9 C 10,7 C 11,3 km/h (2 Bft) 95,65 %
11.05.2018 08:39 12,4 C 18,9 C 85 % 1019,0 hPa 0,0 l/m 13,3 km/h (3 Bft) W-SW 242 0 min 0,000 mm 0,2 UV-I 114 W/m 9,9 C 8,7 C 17,7 km/h (3 Bft) 100,00 %
11.05.2018 08:40 12,4 C 18,9 C 85 % 1019,0 hPa 0,0 l/m 12,7 km/h (3 Bft) SW 214 0 min 0,000 mm 0,0 UV-I 107 W/m 9,9 C 9,0 C 17,7 km/h (3 Bft) 95,65 %
11.05.2018 08:41 12,4 C 18,9 C 84 % 1019,0 hPa 0,0 l/m 12,9 km/h (3 Bft) W-SW 244 0 min 0,000 mm 0,0 UV-I 99 W/m 9,8 C 8,9 C 17,7 km/h (3 Bft) 100,00 %
11.05.2018 08:42 12,4 C 18,9 C 84 % 1019,0 hPa 0,0 l/m 7,3 km/h (2 Bft) W-SW 252 0 min 0,000 mm 0,0 UV-I 93 W/m 9,8 C 11,8 C 14,5 km/h (3 Bft) 100,00 %
11.05.2018 08:43 12,4 C 18,9 C 84 % 1019,0 hPa 0,0 l/m 6,6 km/h (2 Bft) SW 236 0 min 0,000 mm 0,0 UV-I 87 W/m 9,8 C 12,3 C 9,7 km/h (2 Bft) 100,00 %
11.05.2018 08:44 12,4 C 18,9 C 85 % 1019,0 hPa 0,0 l/m 8,4 km/h (2 Bft) S-SW 204 0 min 0,000 mm 0,0 UV-I 81 W/m 9,9 C 11,1 C 14,5 km/h (3 Bft) 100,00 %
11.05.2018 08:45 12,4 C 18,9 C 85 % 1019,0 hPa 0,0 l/m 6,2 km/h (2 Bft) SW 222 0 min 0,000 mm 0,0 UV-I 79 W/m 9,9 C 12,4 C 8,0 km/h (2 Bft) 95,65 %
11.05.2018 08:46 12,4 C 18,9 C 84 % 1019,0 hPa 0,0 l/m 9,1 km/h (2 Bft) W-SW 240 0 min 0,000 mm 0,0 UV-I 79 W/m 9,8 C 10,7 C 11,3 km/h (2 Bft) 100,00 %
11.05.2018 08:47 12,4 C 18,9 C 84 % 1019,0 hPa 0,0 l/m 7,0 km/h (2 Bft) SW 236 0 min 0,000 mm 0,0 UV-I 82 W/m 9,8 C 12,0 C 9,7 km/h (2 Bft) 100,00 %
11.05.2018 08:48 12,4 C 18,9 C 84 % 1019,0 hPa 0,0 l/m 9,6 km/h (2 Bft) S-SW 205 0 min 0,000 mm 0,0 UV-I 86 W/m 9,8 C 10,5 C 12,9 km/h (3 Bft) 100,00 %
11.05.2018 08:49 12,4 C 18,9 C 85 % 1019,0 hPa 0,0 l/m 9,3 km/h (2 Bft) W-SW 254 0 min 0,000 mm 0,0 UV-I 90 W/m 9,9 C 10,6 C 14,5 km/h (3 Bft) 98,06 %
11.05.2018 08:50 12,4 C 18,9 C 84 % 1019,0 hPa 0,0 l/m 7,9 km/h (2 Bft) SW 217 0 min 0,000 mm 0,0 UV-I 96 W/m 9,8 C 11,4 C 11,3 km/h (2 Bft) 100,00 %
11.05.2018 08:51 12,4 C 18,9 C 84 % 1019,0 hPa 0,0 l/m 7,8 km/h (2 Bft) SW 232 0 min 0,000 mm 0,0 UV-I 105 W/m 9,8 C 11,5 C 12,9 km/h (3 Bft) 95,65 %
11.05.2018 08:52 12,4 C 18,9 C 84 % 1019,0 hPa 0,0 l/m 7,6 km/h (2 Bft) W-SW 243 0 min 0,000 mm 0,4 UV-I 115 W/m 9,8 C 11,6 C 16,1 km/h (3 Bft) 100,00 %
11.05.2018 08:53 12,4 C 18,9 C 84 % 1018,9 hPa 0,0 l/m 10,6 km/h (2 Bft) W-SW 244 0 min 0,000 mm 0,5 UV-I 128 W/m 9,8 C 9,9 C 14,5 km/h (3 Bft) 100,00 %
11.05.2018 08:54 12,4 C 18,9 C 84 % 1018,9 hPa 0,0 l/m 9,7 km/h (2 Bft) W 259 0 min 0,000 mm 0,5 UV-I 140 W/m 9,8 C 10,4 C 12,9 km/h (3 Bft) 95,83 %
11.05.2018 08:55 12,5 C 18,9 C 84 % 1018,9 hPa 0,0 l/m 7,2 km/h (2 Bft) W-SW 245 0 min 0,000 mm 0,6 UV-I 155 W/m 9,9 C 12,0 C 11,3 km/h (2 Bft) 95,65 %
11.05.2018 08:56 12,6 C 18,9 C 84 % 1018,9 hPa 0,0 l/m 9,0 km/h (2 Bft) W 261 0 min 0,000 mm 0,7 UV-I 168 W/m 10,0 C 11,0 C 14,5 km/h (3 Bft) 100,00 %
11.05.2018 08:57 12,6 C 18,9 C 84 % 1018,9 hPa 0,0 l/m 10,3 km/h (2 Bft) W-SW 258 0 min 0,000 mm 0,7 UV-I 178 W/m 10,0 C 10,3 C 12,9 km/h (3 Bft) 91,30 %
11.05.2018 08:58 12,7 C 18,9 C 83 % 1018,9 hPa 0,0 l/m 10,2 km/h (2 Bft) W-SW 247 0 min 0,000 mm 0,7 UV-I 185 W/m 9,9 C 10,5 C 12,9 km/h (3 Bft) 100,00 %
11.05.2018 08:59 12,7 C 18,9 C 83 % 1018,9 hPa 0,0 l/m 8,6 km/h (2 Bft) SW 230 0 min 0,000 mm 0,7 UV-I 191 W/m 9,9 C 11,3 C 12,9 km/h (3 Bft) 100,00 %
11.05.2018 09:00 12,7 C 18,9 C 84 % 1018,9 hPa 0,0 l/m 6,8 km/h (2 Bft) W-SW 254 0 min 0,076 mm 0,8 UV-I 198 W/m 10,1 C 12,5 C 11,3 km/h (2 Bft) 100,00 %
11.05.2018 09:01 12,7 C 18,9 C 84 % 1018,9 hPa 0,0 l/m 9,8 km/h (2 Bft) W 271 0 min 0,000 mm 0,8 UV-I 207 W/m 10,1 C 10,7 C 12,9 km/h (3 Bft) 100,00 %
11.05.2018 09:02 12,7 C 18,9 C 84 % 1018,9 hPa 0,0 l/m 12,1 km/h (2 Bft) W 265 0 min 0,000 mm 0,8 UV-I 218 W/m 10,1 C 9,6 C 14,5 km/h (3 Bft) 100,00 %
11.05.2018 09:03 12,7 C 18,9 C 84 % 1018,8 hPa 0,0 l/m 9,6 km/h (2 Bft) W 267 0 min 0,000 mm 0,9 UV-I 232 W/m 10,1 C 10,8 C 12,9 km/h (3 Bft) 100,00 %
11.05.2018 09:04 12,8 C 18,9 C 83 % 1018,8 hPa 0,0 l/m 9,9 km/h (2 Bft) W 272 0 min 0,000 mm 0,9 UV-I 248 W/m 10,0 C 10,7 C 12,9 km/h (3 Bft) 100,00 %
11.05.2018 09:05 12,8 C 18,9 C 83 % 1018,8 hPa 0,0 l/m 13,5 km/h (3 Bft) W 263 0 min 0,000 mm 1,0 UV-I 269 W/m 10,0 C 9,1 C 17,7 km/h (3 Bft) 100,00 %
11.05.2018 09:06 12,8 C 18,9 C 83 % 1018,8 hPa 0,0 l/m 10,9 km/h (2 Bft) S-SW 211 0 min 0,000 mm 1,0 UV-I 292 W/m 10,0 C 10,2 C 12,9 km/h (3 Bft) 95,83 %
11.05.2018 09:07 12,8 C 18,9 C 83 % 1018,8 hPa 0,0 l/m 5,8 km/h (2 Bft) SW 235 1 min 0,000 mm 1,0 UV-I 316 W/m 10,0 C 12,8 C 9,7 km/h (2 Bft) 100,00 %
11.05.2018 09:08 12,9 C 18,9 C 82 % 1018,8 hPa 0,0 l/m 7,2 km/h (2 Bft) S-SW 209 1 min 0,000 mm 1,1 UV-I 338 W/m 9,9 C 12,4 C 12,9 km/h (3 Bft) 96,15 %
11.05.2018 09:09 12,9 C 18,9 C 82 % 1018,8 hPa 0,0 l/m 8,5 km/h (2 Bft) SW 223 1 min 0,000 mm 1,1 UV-I 351 W/m 9,9 C 11,6 C 14,5 km/h (3 Bft) 95,65 %
11.05.2018 09:10 13,1 C 18,9 C 82 % 1018,8 hPa 0,0 l/m 12,0 km/h (2 Bft) W-SW 250 1 min 0,000 mm 1,1 UV-I 355 W/m 10,1 C 10,1 C 16,1 km/h (3 Bft) 100,00 %
11.05.2018 09:11 13,1 C 18,9 C 82 % 1018,8 hPa 0,0 l/m 10,6 km/h (2 Bft) SW 232 1 min 0,000 mm 1,2 UV-I 361 W/m 10,1 C 10,7 C 14,5 km/h (3 Bft) 96,30 %
11.05.2018 09:12 13,1 C 18,9 C 82 % 1018,8 hPa 0,0 l/m 11,4 km/h (2 Bft) W-SW 256 1 min 0,000 mm 1,2 UV-I 371 W/m 10,1 C 10,4 C 16,1 km/h (3 Bft) 95,65 %
11.05.2018 09:13 13,1 C 18,9 C 82 % 1018,8 hPa 0,0 l/m 8,3 km/h (2 Bft) W-SW 248 1 min 0,000 mm 1,2 UV-I 383 W/m 10,1 C 11,9 C 11,3 km/h (2 Bft) 91,67 %
11.05.2018 09:14 13,2 C 18,9 C 82 % 1018,8 hPa 0,0 l/m 6,0 km/h (2 Bft) W-NW 296 1 min 0,000 mm 1,3 UV-I 397 W/m 10,2 C 13,2 C 11,3 km/h (2 Bft) 100,00 %
11.05.2018 09:15 13,3 C 18,9 C 83 % 1018,8 hPa 0,0 l/m 4,2 km/h (1 Bft) S 185 1 min 0,000 mm 1,3 UV-I 402 W/m 10,5 C 13,3 C 6,4 km/h (2 Bft) 96,30 %
11.05.2018 09:16 13,4 C 18,9 C 82 % 1018,7 hPa 0,0 l/m 6,0 km/h (2 Bft) SW 225 1 min 0,000 mm 1,3 UV-I 414 W/m 10,4 C 13,4 C 9,7 km/h (2 Bft) 100,00 %
11.05.2018 09:17 13,5 C 18,9 C 82 % 1018,7 hPa 0,0 l/m 10,6 km/h (2 Bft) S-SW 213 1 min 0,000 mm 1,4 UV-I 405 W/m 10,5 C 11,2 C 14,5 km/h (3 Bft) 95,83 %
11.05.2018 09:18 13,6 C 18,9 C 82 % 1018,7 hPa 0,0 l/m 9,3 km/h (2 Bft) W 259 1 min 0,000 mm 1,4 UV-I 403 W/m 10,6 C 11,9 C 12,9 km/h (3 Bft) 95,65 %
11.05.2018 09:19 13,6 C 18,9 C 81 % 1018,7 hPa 0,0 l/m 6,8 km/h (2 Bft) W-SW 246 1 min 0,000 mm 1,4 UV-I 395 W/m 10,4 C 13,4 C 9,7 km/h (2 Bft) 100,00 %
11.05.2018 09:20 13,6 C 18,9 C 81 % 1018,6 hPa 0,0 l/m 7,9 km/h (2 Bft) W 280 1 min 0,000 mm 1,4 UV-I 396 W/m 10,4 C 12,7 C 12,9 km/h (3 Bft) 95,65 %
11.05.2018 09:21 13,7 C 18,9 C 81 % 1018,6 hPa 0,0 l/m 10,5 km/h (2 Bft) SW 236 1 min 0,000 mm 1,5 UV-I 453 W/m 10,5 C 11,4 C 14,5 km/h (3 Bft) 100,00 %
11.05.2018 09:22 13,7 C 18,9 C 81 % 1018,6 hPa 0,0 l/m 8,3 km/h (2 Bft) W-SW 244 1 min 0,000 mm 1,5 UV-I 462 W/m 10,5 C 12,6 C 14,5 km/h (3 Bft) 95,65 %
11.05.2018 09:23 13,7 C 18,9 C 81 % 1018,6 hPa 0,0 l/m 7,9 km/h (2 Bft) S-SW 209 1 min 0,000 mm 1,5 UV-I 450 W/m 10,5 C 12,8 C 12,9 km/h (3 Bft) 100,00 %
11.05.2018 09:24 13,7 C 18,9 C 80 % 1018,6 hPa 0,0 l/m 9,8 km/h (2 Bft) W-SW 247 1 min 0,000 mm 1,5 UV-I 451 W/m 10,3 C 11,8 C 16,1 km/h (3 Bft) 91,30 %
11.05.2018 09:25 13,7 C 18,9 C 80 % 1018,6 hPa 0,0 l/m 7,7 km/h (2 Bft) SW 225 1 min 0,000 mm 1,6 UV-I 451 W/m 10,3 C 12,9 C 11,3 km/h (2 Bft) 96,30 %
11.05.2018 09:26 13,7 C 18,9 C 81 % 1018,6 hPa 0,0 l/m 8,6 km/h (2 Bft) S-SW 209 1 min 0,000 mm 1,6 UV-I 440 W/m 10,5 C 12,4 C 16,1 km/h (3 Bft) 100,00 %
11.05.2018 09:27 13,8 C 18,9 C 81 % 1018,6 hPa 0,0 l/m 11,3 km/h (2 Bft) W-SW 248 1 min 0,000 mm 1,5 UV-I 413 W/m 10,6 C 11,2 C 19,3 km/h (3 Bft) 95,83 %
11.05.2018 09:28 13,7 C 18,9 C 80 % 1018,6 hPa 0,0 l/m 10,9 km/h (2 Bft) SW 225 1 min 0,000 mm 1,5 UV-I 414 W/m 10,3 C 11,3 C 16,1 km/h (3 Bft) 100,00 %
11.05.2018 09:29 13,7 C 18,9 C 80 % 1018,6 hPa 0,0 l/m 11,3 km/h (2 Bft) SW 217 1 min 0,000 mm 1,6 UV-I 446 W/m 10,3 C 11,1 C 14,5 km/h (3 Bft) 95,65 %
11.05.2018 09:30 13,7 C 18,9 C 80 % 1018,6 hPa 0,0 l/m 8,0 km/h (2 Bft) S-SW 213 1 min 0,000 mm 1,6 UV-I 433 W/m 10,3 C 12,7 C 12,9 km/h (3 Bft) 100,00 %
11.05.2018 09:31 13,7 C 18,9 C 80 % 1018,6 hPa 0,0 l/m 8,4 km/h (2 Bft) W-SW 242 1 min 0,000 mm 1,5 UV-I 402 W/m 10,3 C 12,5 C 14,5 km/h (3 Bft) 96,15 %
11.05.2018 09:32 13,8 C 18,9 C 81 % 1018,6 hPa 0,0 l/m 6,5 km/h (2 Bft) W-SW 244 1 min 0,000 mm 1,5 UV-I 386 W/m 10,6 C 13,8 C 9,7 km/h (2 Bft) 100,00 %
11.05.2018 09:33 13,8 C 18,9 C 80 % 1018,6 hPa 0,0 l/m 6,4 km/h (2 Bft) SW 214 1 min 0,000 mm 1,4 UV-I 383 W/m 10,4 C 13,8 C 9,7 km/h (2 Bft) 95,65 %
11.05.2018 09:34 13,8 C 18,9 C 80 % 1018,6 hPa 0,0 l/m 10,6 km/h (2 Bft) W-SW 240 1 min 0,000 mm 1,4 UV-I 370 W/m 10,4 C 11,5 C 16,1 km/h (3 Bft) 95,83 %
11.05.2018 09:35 13,8 C 18,9 C 80 % 1018,7 hPa 0,0 l/m 10,2 km/h (2 Bft) SW 219 1 min 0,000 mm 1,4 UV-I 377 W/m 10,4 C 11,7 C 14,5 km/h (3 Bft) 100,00 %
11.05.2018 09:36 13,8 C 18,9 C 81 % 1018,7 hPa 0,0 l/m 9,8 km/h (2 Bft) SW 229 1 min 0,000 mm 1,3 UV-I 377 W/m 10,6 C 11,9 C 14,5 km/h (3 Bft) 100,00 %
11.05.2018 09:37 13,8 C 18,9 C 80 % 1018,6 hPa 0,0 l/m 8,8 km/h (2 Bft) SW 232 1 min 0,000 mm 1,3 UV-I 391 W/m 10,4 C 12,4 C 12,9 km/h (3 Bft) 100,00 %
11.05.2018 09:38 13,8 C 18,9 C 79 % 1018,6 hPa 0,0 l/m 6,8 km/h (2 Bft) SW 219 1 min 0,000 mm 1,4 UV-I 406 W/m 10,2 C 13,6 C 11,3 km/h (2 Bft) 100,00 %
11.05.2018 09:39 13,8 C 18,9 C 80 % 1018,7 hPa 0,0 l/m 11,7 km/h (2 Bft) SW 227 1 min 0,000 mm 1,4 UV-I 377 W/m 10,4 C 11,0 C 16,1 km/h (3 Bft) 96,15 %
11.05.2018 09:40 13,8 C 18,9 C 80 % 1018,7 hPa 0,0 l/m 9,7 km/h (2 Bft) S-SW 211 1 min 0,000 mm 1,4 UV-I 351 W/m 10,4 C 11,9 C 14,5 km/h (3 Bft) 95,83 %
11.05.2018 09:41 13,8 C 18,9 C 80 % 1018,6 hPa 0,0 l/m 12,7 km/h (3 Bft) W 271 0 min 0,000 mm 1,4 UV-I 326 W/m 10,4 C 10,6 C 16,1 km/h (3 Bft) 100,00 %
11.05.2018 09:42 13,8 C 18,9 C 80 % 1018,6 hPa 0,0 l/m 6,4 km/h (2 Bft) SW 225 0 min 0,000 mm 1,4 UV-I 313 W/m 10,4 C 13,8 C 11,3 km/h (2 Bft) 100,00 %
11.05.2018 09:43 13,8 C 18,9 C 80 % 1018,7 hPa 0,0 l/m 7,4 km/h (2 Bft) W 261 0 min 0,000 mm 1,3 UV-I 294 W/m 10,4 C 13,2 C 12,9 km/h (3 Bft) 100,00 %
11.05.2018 09:44 13,8 C 18,9 C 80 % 1018,6 hPa 0,0 l/m 8,7 km/h (2 Bft) W 264 0 min 0,000 mm 1,3 UV-I 278 W/m 10,4 C 12,5 C 12,9 km/h (3 Bft) 100,00 %
11.05.2018 09:45 13,8 C 18,9 C 80 % 1018,6 hPa 0,0 l/m 8,9 km/h (2 Bft) W-SW 258 0 min 0,000 mm 1,2 UV-I 267 W/m 10,4 C 12,3 C 11,3 km/h (2 Bft) 100,00 %
11.05.2018 09:46 13,8 C 18,9 C 80 % 1018,7 hPa 0,0 l/m 4,5 km/h (1 Bft) S-SW 205 0 min 0,000 mm 1,2 UV-I 264 W/m 10,4 C 13,8 C 8,0 km/h (2 Bft) 100,00 %
11.05.2018 09:47 13,8 C 18,9 C 80 % 1018,6 hPa 0,0 l/m 4,9 km/h (1 Bft) SW 225 0 min 0,000 mm 1,2 UV-I 263 W/m 10,4 C 13,8 C 6,4 km/h (2 Bft) 100,00 %
11.05.2018 09:48 13,7 C 18,9 C 80 % 1018,6 hPa 0,0 l/m 2,7 km/h (1 Bft) SW 225 0 min 0,000 mm 1,2 UV-I 253 W/m 10,3 C 13,7 C 4,8 km/h (1 Bft) 100,00 %
11.05.2018 09:49 13,8 C 18,9 C 81 % 1018,6 hPa 0,0 l/m 8,0 km/h (2 Bft) W-SW 256 0 min 0,000 mm 1,1 UV-I 240 W/m 10,6 C 12,8 C 11,3 km/h (2 Bft) 100,00 %
11.05.2018 09:50 13,8 C 18,9 C 81 % 1018,6 hPa 0,0 l/m 4,8 km/h (1 Bft) W 259 0 min 0,000 mm 1,1 UV-I 231 W/m 10,6 C 13,8 C 6,4 km/h (2 Bft) 95,65 %
11.05.2018 09:51 13,9 C 18,9 C 81 % 1018,6 hPa 0,0 l/m 7,7 km/h (2 Bft) W-SW 244 0 min 0,000 mm 1,1 UV-I 230 W/m 10,7 C 13,1 C 11,3 km/h (2 Bft) 95,83 %
11.05.2018 09:52 13,9 C 18,9 C 80 % 1018,6 hPa 0,0 l/m 6,6 km/h (2 Bft) SW 221 0 min 0,000 mm 1,1 UV-I 234 W/m 10,5 C 13,8 C 12,9 km/h (3 Bft) 100,00 %
11.05.2018 09:53 13,9 C 18,9 C 81 % 1018,6 hPa 0,0 l/m 12,1 km/h (2 Bft) W 265 0 min 0,000 mm 1,1 UV-I 241 W/m 10,7 C 11,0 C 14,5 km/h (3 Bft) 100,00 %
11.05.2018 09:54 13,9 C 18,9 C 79 % 1018,6 hPa 0,0 l/m 11,2 km/h (2 Bft) W 277 0 min 0,000 mm 1,2 UV-I 251 W/m 10,3 C 11,3 C 14,5 km/h (3 Bft) 100,00 %
11.05.2018 09:55 13,8 C 18,9 C 79 % 1018,6 hPa 0,0 l/m 11,5 km/h (2 Bft) W 264 0 min 0,000 mm 1,3 UV-I 264 W/m 10,2 C 11,1 C 16,1 km/h (3 Bft) 100,00 %
11.05.2018 09:56 13,7 C 18,9 C 80 % 1018,6 hPa 0,0 l/m 11,0 km/h (2 Bft) W-NW 284 0 min 0,000 mm 1,3 UV-I 273 W/m 10,3 C 11,2 C 12,9 km/h (3 Bft) 91,30 %
11.05.2018 09:57 13,7 C 18,9 C 80 % 1018,6 hPa 0,0 l/m 7,0 km/h (2 Bft) W-SW 251 0 min 0,000 mm 1,3 UV-I 273 W/m 10,3 C 13,3 C 9,7 km/h (2 Bft) 100,00 %
11.05.2018 09:58 13,7 C 18,9 C 81 % 1018,6 hPa 0,0 l/m 4,4 km/h (1 Bft) W 263 0 min 0,000 mm 1,2 UV-I 265 W/m 10,5 C 13,7 C 6,4 km/h (2 Bft) 100,00 %
11.05.2018 09:59 13,7 C 18,9 C 81 % 1018,6 hPa 0,0 l/m 10,3 km/h (2 Bft) W-SW 254 0 min 0,000 mm 1,2 UV-I 262 W/m 10,5 C 11,5 C 12,9 km/h (3 Bft) 100,00 %
11.05.2018 10:00 13,7 C 18,9 C 81 % 1018,6 hPa 0,0 l/m 5,8 km/h (2 Bft) W-NW 288 0 min 0,000 mm 1,2 UV-I 265 W/m 10,5 C 13,7 C 11,3 km/h (2 Bft) 95,65 %
11.05.2018 10:01 13,7 C 18,9 C 81 % 1018,6 hPa 0,0 l/m 5,2 km/h (1 Bft) W-SW 240 0 min 0,178 mm 1,3 UV-I 272 W/m 10,5 C 13,7 C 8,0 km/h (2 Bft) 100,00 %
11.05.2018 10:02 13,6 C 18,9 C 80 % 1018,6 hPa 0,0 l/m 4,6 km/h (1 Bft) NW 321 0 min 0,000 mm 1,3 UV-I 276 W/m 10,2 C 13,6 C 8,0 km/h (2 Bft) 95,65 %
11.05.2018 10:03 13,6 C 18,9 C 81 % 1018,6 hPa 0,0 l/m 6,4 km/h (2 Bft) NW 324 0 min 0,000 mm 1,3 UV-I 274 W/m 10,4 C 13,6 C 9,7 km/h (2 Bft) 100,00 %
11.05.2018 10:04 13,6 C 18,9 C 81 % 1018,6 hPa 0,0 l/m 5,3 km/h (1 Bft) N 11 0 min 0,000 mm 1,3 UV-I 270 W/m 10,4 C 13,6 C 8,0 km/h (2 Bft) 100,00 %
11.05.2018 10:05 13,7 C 18,9 C 81 % 1018,6 hPa 0,0 l/m 5,8 km/h (2 Bft) W-NW 285 0 min 0,000 mm 1,2 UV-I 264 W/m 10,5 C 13,7 C 8,0 km/h (2 Bft) 95,83 %
11.05.2018 10:06 13,7 C 18,9 C 81 % 1018,6 hPa 0,0 l/m 2,5 km/h (1 Bft) W-NW 285 0 min 0,000 mm 1,2 UV-I 262 W/m 10,5 C 13,7 C 4,8 km/h (1 Bft) 95,83 %
11.05.2018 10:07 13,7 C 18,9 C 81 % 1018,6 hPa 0,0 l/m 4,0 km/h (1 Bft) W 279 0 min 0,000 mm 1,2 UV-I 260 W/m 10,5 C 13,7 C 6,4 km/h (2 Bft) 100,00 %
11.05.2018 10:08 13,8 C 18,9 C 81 % 1018,6 hPa 0,0 l/m 4,5 km/h (1 Bft) SW 234 0 min 0,000 mm 1,3 UV-I 265 W/m 10,6 C 13,8 C 8,0 km/h (2 Bft) 100,00 %
11.05.2018 10:09 13,8 C 18,9 C 81 % 1018,6 hPa 0,0 l/m 6,4 km/h (2 Bft) W-SW 240 0 min 0,000 mm 1,3 UV-I 273 W/m 10,6 C 13,8 C 9,7 km/h (2 Bft) 100,00 %
11.05.2018 10:10 13,8 C 18,9 C 80 % 1018,6 hPa 0,0 l/m 4,9 km/h (1 Bft) SW 233 0 min 0,000 mm 1,3 UV-I 280 W/m 10,4 C 13,8 C 11,3 km/h (2 Bft) 100,00 %
11.05.2018 10:11 13,8 C 18,9 C 80 % 1018,5 hPa 0,0 l/m 5,2 km/h (1 Bft) SW 230 0 min 0,000 mm 1,3 UV-I 283 W/m 10,4 C 13,8 C 8,0 km/h (2 Bft) 100,00 %
11.05.2018 10:12 13,7 C 18,9 C 80 % 1018,6 hPa 0,0 l/m 3,2 km/h (1 Bft) SW 221 0 min 0,000 mm 1,3 UV-I 282 W/m 10,3 C 13,7 C 6,4 km/h (2 Bft) 100,00 %
11.05.2018 10:13 13,7 C 18,9 C 80 % 1018,6 hPa 0,0 l/m 4,1 km/h (1 Bft) SW 222 0 min 0,000 mm 1,3 UV-I 275 W/m 10,3 C 13,7 C 6,4 km/h (2 Bft) 100,00 %
11.05.2018 10:14 13,7 C 18,9 C 80 % 1018,6 hPa 0,0 l/m 3,1 km/h (1 Bft) W-SW 240 0 min 0,000 mm 1,2 UV-I 264 W/m 10,3 C 13,7 C 4,8 km/h (1 Bft) 100,00 %
11.05.2018 10:15 13,7 C 18,9 C 81 % 1018,6 hPa 0,0 l/m 3,1 km/h (1 Bft) W-SW 240 0 min 0,000 mm 1,2 UV-I 252 W/m 10,5 C 13,7 C 4,8 km/h (1 Bft) 100,00 %
11.05.2018 10:16 13,8 C 18,9 C 82 % 1018,6 hPa 0,0 l/m 2,9 km/h (1 Bft) W 277 0 min 0,000 mm 1,1 UV-I 236 W/m 10,8 C 13,8 C 4,8 km/h (1 Bft) 100,00 %
11.05.2018 10:17 13,8 C 18,9 C 81 % 1018,6 hPa 0,0 l/m 5,1 km/h (1 Bft) W-SW 243 0 min 0,000 mm 1,0 UV-I 222 W/m 10,6 C 13,8 C 6,4 km/h (2 Bft) 100,00 %
11.05.2018 10:18 13,8 C 18,9 C 81 % 1018,6 hPa 0,0 l/m 6,0 km/h (2 Bft) W-SW 243 0 min 0,000 mm 1,0 UV-I 213 W/m 10,6 C 13,8 C 9,7 km/h (2 Bft) 95,83 %
11.05.2018 10:19 13,8 C 18,9 C 81 % 1018,6 hPa 0,0 l/m 2,2 km/h (1 Bft) W-SW 243 0 min 0,000 mm 1,0 UV-I 209 W/m 10,6 C 13,8 C 4,8 km/h (1 Bft) 100,00 %
11.05.2018 10:20 13,8 C 18,9 C 81 % 1018,6 hPa 0,0 l/m 0,1 km/h (0 Bft) W-SW 243 0 min 0,000 mm 1,0 UV-I 207 W/m 10,6 C 13,8 C 1,6 km/h (1 Bft) 95,65 %
11.05.2018 10:21 13,9 C 18,9 C 81 % 1018,6 hPa 0,0 l/m 0,0 km/h (0 Bft) W-SW 243 0 min 0,000 mm 1,0 UV-I 210 W/m 10,7 C 13,9 C 0,0 km/h (0 Bft) 100,00 %
11.05.2018 10:22 13,9 C 18,9 C 81 % 1018,5 hPa 0,0 l/m 0,2 km/h (0 Bft) W-SW 243 0 min 0,000 mm 1,0 UV-I 212 W/m 10,7 C 13,9 C 1,6 km/h (1 Bft) 95,65 %
11.05.2018 10:23 13,9 C 18,9 C 80 % 1018,6 hPa 0,0 l/m 4,8 km/h (1 Bft) SW 224 0 min 0,000 mm 1,0 UV-I 215 W/m 10,5 C 13,9 C 6,4 km/h (2 Bft) 95,83 %
11.05.2018 10:24 13,9 C 18,9 C 82 % 1018,5 hPa 0,0 l/m 5,6 km/h (1 Bft) SW 235 0 min 0,000 mm 1,1 UV-I 216 W/m 10,9 C 13,9 C 6,4 km/h (2 Bft) 100,00 %
11.05.2018 10:25 14,0 C 18,9 C 81 % 1018,5 hPa 0,0 l/m 5,1 km/h (1 Bft) W-SW 238 0 min 0,000 mm 1,1 UV-I 218 W/m 10,8 C 14,0 C 6,4 km/h (2 Bft) 100,00 %
11.05.2018 10:26 14,1 C 18,9 C 81 % 1018,5 hPa 0,0 l/m 4,1 km/h (1 Bft) W-SW 252 0 min 0,000 mm 1,1 UV-I 220 W/m 10,9 C 14,1 C 4,8 km/h (1 Bft) 100,00 %
11.05.2018 10:27 14,1 C 18,9 C 80 % 1018,5 hPa 0,0 l/m 3,2 km/h (1 Bft) W-SW 252 0 min 0,000 mm 1,1 UV-I 225 W/m 10,7 C 14,1 C 4,8 km/h (1 Bft) 100,00 %
11.05.2018 10:28 14,0 C 18,9 C 80 % 1018,5 hPa 0,0 l/m 3,2 km/h (1 Bft) W-SW 257 0 min 0,000 mm 1,1 UV-I 234 W/m 10,6 C 14,0 C 4,8 km/h (1 Bft) 100,00 %
11.05.2018 10:29 13,9 C 18,9 C 80 % 1018,5 hPa 0,0 l/m 1,2 km/h (1 Bft) W-SW 257 0 min 0,000 mm 1,2 UV-I 245 W/m 10,5 C 13,9 C 3,2 km/h (1 Bft) 100,00 %
11.05.2018 10:30 14,0 C 18,9 C 80 % 1018,4 hPa 0,0 l/m 1,9 km/h (1 Bft) N-NO 12 0 min 0,000 mm 1,3 UV-I 258 W/m 10,6 C 14,0 C 4,8 km/h (1 Bft) 100,00 %
11.05.2018 10:31 14,0 C 18,9 C 81 % 1018,4 hPa 0,0 l/m 5,0 km/h (1 Bft) N-NW 348 0 min 0,000 mm 1,3 UV-I 273 W/m 10,8 C 14,0 C 8,0 km/h (2 Bft) 95,83 %
11.05.2018 10:32 14,0 C 18,9 C 81 % 1018,4 hPa 0,0 l/m 4,0 km/h (1 Bft) N 355 0 min 0,000 mm 1,4 UV-I 287 W/m 10,8 C 14,0 C 4,8 km/h (1 Bft) 95,65 %
11.05.2018 10:33 14,0 C 18,9 C 80 % 1018,4 hPa 0,0 l/m 3,8 km/h (1 Bft) N 355 0 min 0,000 mm 1,4 UV-I 298 W/m 10,6 C 14,0 C 4,8 km/h (1 Bft) 95,83 %
11.05.2018 10:34 14,1 C 18,9 C 81 % 1018,4 hPa 0,0 l/m 4,0 km/h (1 Bft) NW 319 0 min 0,000 mm 1,5 UV-I 311 W/m 10,9 C 14,1 C 4,8 km/h (1 Bft) 100,00 %
11.05.2018 10:35 14,0 C 18,9 C 81 % 1018,4 hPa 0,0 l/m 3,9 km/h (1 Bft) NW 306 0 min 0,000 mm 1,6 UV-I 323 W/m 10,8 C 14,0 C 6,4 km/h (2 Bft) 100,00 %
11.05.2018 10:36 14,0 C 18,9 C 80 % 1018,3 hPa 0,0 l/m 5,4 km/h (1 Bft) NW 312 0 min 0,000 mm 1,6 UV-I 335 W/m 10,6 C 14,0 C 8,0 km/h (2 Bft) 91,30 %
11.05.2018 10:37 13,9 C 18,9 C 80 % 1018,3 hPa 0,0 l/m 4,0 km/h (1 Bft) NW 317 0 min 0,000 mm 1,7 UV-I 345 W/m 10,5 C 13,9 C 6,4 km/h (2 Bft) 100,00 %
11.05.2018 10:38 13,9 C 18,9 C 80 % 1018,3 hPa 0,0 l/m 2,5 km/h (1 Bft) NW 317 0 min 0,000 mm 1,7 UV-I 356 W/m 10,5 C 13,9 C 3,2 km/h (1 Bft) 95,65 %
11.05.2018 10:39 14,1 C 18,9 C 82 % 1018,3 hPa 0,0 l/m 1,8 km/h (1 Bft) NW 317 0 min 0,000 mm 1,8 UV-I 364 W/m 11,1 C 14,1 C 3,2 km/h (1 Bft) 95,83 %
11.05.2018 10:40 14,1 C 18,9 C 81 % 1018,3 hPa 0,0 l/m 2,3 km/h (1 Bft) NW 317 0 min 0,000 mm 1,8 UV-I 370 W/m 10,9 C 14,1 C 4,8 km/h (1 Bft) 96,15 %
11.05.2018 10:41 14,1 C 18,9 C 81 % 1018,4 hPa 0,0 l/m 4,1 km/h (1 Bft) NW 317 0 min 0,000 mm 1,8 UV-I 373 W/m 10,9 C 14,1 C 6,4 km/h (2 Bft) 100,00 %
11.05.2018 10:42 14,1 C 18,9 C 80 % 1018,3 hPa 0,0 l/m 4,0 km/h (1 Bft) W 270 0 min 0,000 mm 1,8 UV-I 370 W/m 10,7 C 14,1 C 6,4 km/h (2 Bft) 91,30 %
11.05.2018 10:43 14,1 C 18,9 C 80 % 1018,4 hPa 0,0 l/m 2,7 km/h (1 Bft) NW 316 0 min 0,000 mm 1,8 UV-I 364 W/m 10,7 C 14,1 C 3,2 km/h (1 Bft) 100,00 %
11.05.2018 10:44 14,2 C 18,9 C 81 % 1018,4 hPa 0,0 l/m 3,0 km/h (1 Bft) NW 316 0 min 0,000 mm 1,8 UV-I 368 W/m 11,0 C 14,2 C 4,8 km/h (1 Bft) 95,65 %
11.05.2018 10:45 14,2 C 18,9 C 79 % 1018,3 hPa 0,0 l/m 4,8 km/h (1 Bft) W-SW 242 0 min 0,000 mm 1,8 UV-I 372 W/m 10,6 C 14,2 C 6,4 km/h (2 Bft) 95,83 %
11.05.2018 10:46 14,2 C 18,9 C 79 % 1018,4 hPa 0,0 l/m 3,9 km/h (1 Bft) W-SW 242 0 min 0,000 mm 1,8 UV-I 375 W/m 10,6 C 14,2 C 4,8 km/h (1 Bft) 95,83 %
11.05.2018 10:47 14,2 C 18,9 C 79 % 1018,4 hPa 0,0 l/m 2,9 km/h (1 Bft) W-SW 241 0 min 0,000 mm 1,9 UV-I 376 W/m 10,6 C 14,2 C 4,8 km/h (1 Bft) 91,30 %
11.05.2018 10:48 14,2 C 18,9 C 80 % 1018,3 hPa 0,0 l/m 2,1 km/h (1 Bft) W-SW 241 0 min 0,000 mm 1,8 UV-I 370 W/m 10,8 C 14,2 C 3,2 km/h (1 Bft) 100,00 %
11.05.2018 10:49 14,2 C 18,9 C 80 % 1018,4 hPa 0,0 l/m 3,4 km/h (1 Bft) N 355 0 min 0,000 mm 1,8 UV-I 360 W/m 10,8 C 14,2 C 4,8 km/h (1 Bft) 100,00 %
11.05.2018 10:50 14,3 C 18,9 C 81 % 1018,4 hPa 0,0 l/m 3,1 km/h (1 Bft) N-NW 331 0 min 0,000 mm 1,8 UV-I 351 W/m 11,1 C 14,3 C 4,8 km/h (1 Bft) 96,43 %
11.05.2018 10:51 14,4 C 18,9 C 81 % 1018,4 hPa 0,0 l/m 4,8 km/h (1 Bft) N-NW 341 0 min 0,000 mm 1,8 UV-I 349 W/m 11,2 C 14,4 C 6,4 km/h (2 Bft) 86,96 %
11.05.2018 10:52 14,4 C 18,9 C 81 % 1018,3 hPa 0,0 l/m 2,3 km/h (1 Bft) N-NW 341 0 min 0,000 mm 1,8 UV-I 349 W/m 11,2 C 14,4 C 3,2 km/h (1 Bft) 100,00 %
11.05.2018 10:53 14,4 C 18,9 C 80 % 1018,3 hPa 0,0 l/m 1,5 km/h (1 Bft) N-NW 341 0 min 0,000 mm 1,8 UV-I 348 W/m 11,0 C 14,4 C 3,2 km/h (1 Bft) 91,30 %
11.05.2018 10:54 14,4 C 18,9 C 80 % 1018,4 hPa 0,0 l/m 2,6 km/h (1 Bft) N-NW 342 0 min 0,000 mm 1,9 UV-I 354 W/m 11,0 C 14,4 C 3,2 km/h (1 Bft) 100,00 %
11.05.2018 10:55 14,4 C 18,9 C 80 % 1018,3 hPa 0,0 l/m 3,7 km/h (1 Bft) N-NW 342 0 min 0,000 mm 1,9 UV-I 359 W/m 11,0 C 14,4 C 4,8 km/h (1 Bft) 96,15 %
11.05.2018 10:56 14,4 C 18,9 C 81 % 1018,3 hPa 0,0 l/m 2,8 km/h (1 Bft) N-NO 25 0 min 0,000 mm 2,0 UV-I 365 W/m 11,2 C 14,4 C 6,4 km/h (2 Bft) 100,00 %
11.05.2018 10:57 14,4 C 18,9 C 80 % 1018,3 hPa 0,0 l/m 5,4 km/h (1 Bft) N-NO 17 0 min 0,000 mm 2,0 UV-I 373 W/m 11,0 C 14,4 C 6,4 km/h (2 Bft) 96,15 %
11.05.2018 10:58 14,4 C 18,9 C 79 % 1018,3 hPa 0,0 l/m 3,2 km/h (1 Bft) N-NO 17 0 min 0,000 mm 2,1 UV-I 383 W/m 10,8 C 14,4 C 6,4 km/h (2 Bft) 100,00 %
11.05.2018 10:59 14,4 C 18,9 C 78 % 1018,3 hPa 0,0 l/m 1,9 km/h (1 Bft) N-NO 17 0 min 0,000 mm 2,2 UV-I 393 W/m 10,6 C 14,4 C 3,2 km/h (1 Bft) 91,67 %
11.05.2018 11:00 14,3 C 18,9 C 79 % 1018,3 hPa 0,0 l/m 3,9 km/h (1 Bft) NO 34 0 min 0,000 mm 2,2 UV-I 404 W/m 10,7 C 14,3 C 6,4 km/h (2 Bft) 96,15 %
11.05.2018 11:01 14,3 C 18,9 C 80 % 1018,3 hPa 0,0 l/m 3,5 km/h (1 Bft) NO 34 0 min 0,152 mm 2,2 UV-I 417 W/m 10,9 C 14,3 C 4,8 km/h (1 Bft) 95,83 %
11.05.2018 11:02 14,3 C 18,9 C 81 % 1018,3 hPa 0,0 l/m 1,5 km/h (1 Bft) NO 34 0 min 0,000 mm 2,2 UV-I 410 W/m 11,1 C 14,3 C 3,2 km/h (1 Bft) 86,96 %
11.05.2018 11:03 14,4 C 18,9 C 80 % 1018,3 hPa 0,0 l/m 1,6 km/h (1 Bft) NO 36 0 min 0,000 mm 2,2 UV-I 386 W/m 11,0 C 14,4 C 3,2 km/h (1 Bft) 100,00 %
11.05.2018 11:04 14,4 C 18,9 C 80 % 1018,3 hPa 0,0 l/m 0,9 km/h (0 Bft) NO 36 0 min 0,000 mm 2,1 UV-I 374 W/m 11,0 C 14,4 C 1,6 km/h (1 Bft) 91,30 %
11.05.2018 11:05 14,6 C 18,9 C 81 % 1018,2 hPa 0,0 l/m 1,9 km/h (1 Bft) NO 35 0 min 0,000 mm 2,1 UV-I 363 W/m 11,4 C 14,6 C 3,2 km/h (1 Bft) 100,00 %
11.05.2018 11:06 14,6 C 18,9 C 80 % 1018,2 hPa 0,0 l/m 1,8 km/h (1 Bft) NO 35 0 min 0,000 mm 2,1 UV-I 348 W/m 11,2 C 14,6 C 3,2 km/h (1 Bft) 91,30 %
11.05.2018 11:07 14,5 C 18,9 C 79 % 1018,3 hPa 0,0 l/m 0,6 km/h (0 Bft) NO 35 0 min 0,000 mm 2,1 UV-I 338 W/m 10,9 C 14,5 C 1,6 km/h (1 Bft) 95,83 %
11.05.2018 11:09 14,6 C 18,9 C 79 % 1018,2 hPa 0,0 l/m 1,9 km/h (1 Bft) NO 34 0 min 0,000 mm 2,2 UV-I 361 W/m 11,0 C 14,6 C 4,8 km/h (1 Bft) 91,49 %
11.05.2018 11:10 14,6 C 18,9 C 81 % 1018,2 hPa 0,0 l/m 4,3 km/h (1 Bft) N-NW 345 0 min 0,000 mm 2,3 UV-I 398 W/m 11,4 C 14,6 C 6,4 km/h (2 Bft) 91,30 %
11.05.2018 11:11 14,6 C 18,9 C 80 % 1018,3 hPa 0,0 l/m 3,6 km/h (1 Bft) N-NW 346 0 min 0,000 mm 2,2 UV-I 384 W/m 11,2 C 14,6 C 4,8 km/h (1 Bft) 91,67 %
11.05.2018 11:12 14,6 C 18,9 C 79 % 1018,3 hPa 0,0 l/m 2,0 km/h (1 Bft) N-NW 347 0 min 0,000 mm 2,2 UV-I 384 W/m 11,0 C 14,6 C 3,2 km/h (1 Bft) 100,00 %
11.05.2018 11:13 14,6 C 18,9 C 80 % 1018,3 hPa 0,0 l/m 1,6 km/h (1 Bft) N-NW 338 0 min 0,000 mm 2,2 UV-I 343 W/m 11,2 C 14,6 C 4,8 km/h (1 Bft) 91,67 %
11.05.2018 11:14 14,6 C 18,9 C 79 % 1018,3 hPa 0,0 l/m 3,3 km/h (1 Bft) W-NW 302 0 min 0,000 mm 2,2 UV-I 336 W/m 11,0 C 14,6 C 4,8 km/h (1 Bft) 100,00 %
11.05.2018 11:15 14,6 C 18,9 C 79 % 1018,3 hPa 0,0 l/m 3,0 km/h (1 Bft) W-NW 302 0 min 0,000 mm 2,2 UV-I 323 W/m 11,0 C 14,6 C 4,8 km/h (1 Bft) 91,67 %
11.05.2018 11:16 14,6 C 18,9 C 79 % 1018,2 hPa 0,0 l/m 3,7 km/h (1 Bft) NW 322 0 min 0,000 mm 2,1 UV-I 312 W/m 11,0 C 14,6 C 4,8 km/h (1 Bft) 100,00 %
11.05.2018 11:17 14,6 C 18,9 C 79 % 1018,2 hPa 0,0 l/m 3,2 km/h (1 Bft) N-NW 341 0 min 0,000 mm 2,1 UV-I 308 W/m 11,0 C 14,6 C 4,8 km/h (1 Bft) 95,65 %
11.05.2018 11:18 14,6 C 18,9 C 79 % 1018,3 hPa 0,0 l/m 1,3 km/h (1 Bft) N-NW 340 0 min 0,000 mm 2,2 UV-I 317 W/m 11,0 C 14,6 C 1,6 km/h (1 Bft) 100,00 %
11.05.2018 11:19 14,5 C 18,9 C 79 % 1018,3 hPa 0,0 l/m 2,3 km/h (1 Bft) N-NW 340 0 min 0,000 mm 2,2 UV-I 332 W/m 10,9 C 14,5 C 3,2 km/h (1 Bft) 91,30 %
11.05.2018 11:20 14,7 C 18,9 C 81 % 1018,2 hPa 0,0 l/m 4,0 km/h (1 Bft) N-NW 342 0 min 0,000 mm 2,2 UV-I 330 W/m 11,5 C 14,7 C 6,4 km/h (2 Bft) 100,00 %
11.05.2018 11:21 14,8 C 18,9 C 82 % 1018,3 hPa 0,0 l/m 5,2 km/h (1 Bft) NO 37 0 min 0,000 mm 2,2 UV-I 316 W/m 11,8 C 14,8 C 8,0 km/h (2 Bft) 92,31 %
11.05.2018 11:22 14,8 C 18,9 C 81 % 1018,3 hPa 0,0 l/m 5,2 km/h (1 Bft) N-NW 348 0 min 0,000 mm 2,1 UV-I 304 W/m 11,6 C 14,8 C 6,4 km/h (2 Bft) 91,67 %
11.05.2018 11:23 14,8 C 18,9 C 80 % 1018,2 hPa 0,0 l/m 4,7 km/h (1 Bft) N 349 0 min 0,000 mm 2,2 UV-I 312 W/m 11,4 C 14,8 C 6,4 km/h (2 Bft) 95,65 %
11.05.2018 11:24 14,8 C 18,9 C 79 % 1018,3 hPa 0,0 l/m 4,7 km/h (1 Bft) NW 315 0 min 0,000 mm 2,3 UV-I 332 W/m 11,2 C 14,8 C 6,4 km/h (2 Bft) 92,59 %
11.05.2018 11:25 14,8 C 18,9 C 79 % 1018,3 hPa 0,0 l/m 3,5 km/h (1 Bft) N-NW 327 0 min 0,000 mm 2,3 UV-I 340 W/m 11,2 C 14,8 C 4,8 km/h (1 Bft) 100,00 %
11.05.2018 11:26 14,8 C 18,9 C 79 % 1018,3 hPa 0,0 l/m 4,4 km/h (1 Bft) N-NO 20 0 min 0,000 mm 2,3 UV-I 352 W/m 11,2 C 14,8 C 6,4 km/h (2 Bft) 91,67 %
11.05.2018 11:27 14,8 C 18,9 C 80 % 1018,3 hPa 0,0 l/m 5,3 km/h (1 Bft) N-NO 19 0 min 0,000 mm 2,4 UV-I 366 W/m 11,4 C 14,8 C 6,4 km/h (2 Bft) 86,96 %
11.05.2018 11:28 14,8 C 18,9 C 80 % 1018,3 hPa 0,0 l/m 4,9 km/h (1 Bft) N-NO 30 0 min 0,000 mm 2,4 UV-I 381 W/m 11,4 C 14,8 C 6,4 km/h (2 Bft) 95,83 %
11.05.2018 11:29 14,8 C 18,9 C 80 % 1018,3 hPa 0,0 l/m 4,5 km/h (1 Bft) NO 49 0 min 0,000 mm 2,5 UV-I 391 W/m 11,4 C 14,8 C 4,8 km/h (1 Bft) 95,65 %
11.05.2018 11:30 14,8 C 18,9 C 80 % 1018,3 hPa 0,0 l/m 2,3 km/h (1 Bft) NO 48 0 min 0,000 mm 2,5 UV-I 397 W/m 11,4 C 14,8 C 3,2 km/h (1 Bft) 95,83 %
11.05.2018 11:31 14,8 C 18,9 C 79 % 1018,3 hPa 0,0 l/m 0,5 km/h (0 Bft) NO 48 0 min 0,000 mm 2,5 UV-I 401 W/m 11,2 C 14,8 C 1,6 km/h (1 Bft) 91,30 %
11.05.2018 11:32 14,7 C 18,9 C 78 % 1018,3 hPa 0,0 l/m 0,9 km/h (0 Bft) NO 48 0 min 0,000 mm 2,7 UV-I 410 W/m 10,9 C 14,7 C 1,6 km/h (1 Bft) 100,00 %
11.05.2018 11:33 14,7 C 18,9 C 78 % 1018,3 hPa 0,0 l/m 1,4 km/h (1 Bft) NO 48 0 min 0,000 mm 3,2 UV-I 410 W/m 10,9 C 14,7 C 1,6 km/h (1 Bft) 100,00 %
11.05.2018 11:34 14,7 C 18,9 C 79 % 1018,3 hPa 0,0 l/m 0,9 km/h (0 Bft) NO 48 1 min 0,000 mm 3,0 UV-I 476 W/m 11,1 C 14,7 C 1,6 km/h (1 Bft) 96,67 %
11.05.2018 11:35 14,8 C 18,9 C 79 % 1018,3 hPa 0,0 l/m 0,9 km/h (0 Bft) NO 53 1 min 0,000 mm 3,2 UV-I 501 W/m 11,2 C 14,8 C 3,2 km/h (1 Bft) 95,83 %
11.05.2018 11:36 14,8 C 18,9 C 79 % 1018,3 hPa 0,0 l/m 0,8 km/h (0 Bft) NO 53 1 min 0,000 mm 3,1 UV-I 504 W/m 11,2 C 14,8 C 3,2 km/h (1 Bft) 100,00 %
11.05.2018 11:37 14,9 C 18,9 C 78 % 1018,2 hPa 0,0 l/m 0,7 km/h (0 Bft) NO 53 1 min 0,000 mm 3,1 UV-I 540 W/m 11,1 C 14,9 C 1,6 km/h (1 Bft) 91,67 %
11.05.2018 11:38 14,9 C 18,9 C 77 % 1018,2 hPa 0,0 l/m 3,0 km/h (1 Bft) NO 52 1 min 0,000 mm 3,5 UV-I 540 W/m 10,9 C 14,9 C 4,8 km/h (1 Bft) 100,00 %
11.05.2018 11:39 15,0 C 18,9 C 78 % 1018,2 hPa 0,0 l/m 2,4 km/h (1 Bft) NO 52 1 min 0,000 mm 3,2 UV-I 589 W/m 11,2 C 15,0 C 3,2 km/h (1 Bft) 95,83 %
11.05.2018 11:40 15,2 C 18,9 C 79 % 1018,2 hPa 0,0 l/m 3,1 km/h (1 Bft) NO 52 1 min 0,000 mm 3,7 UV-I 633 W/m 11,6 C 15,2 C 3,2 km/h (1 Bft) 96,15 %
11.05.2018 11:41 15,2 C 18,9 C 78 % 1018,2 hPa 0,0 l/m 3,2 km/h (1 Bft) NO 52 1 min 0,000 mm 3,7 UV-I 633 W/m 11,4 C 15,2 C 4,8 km/h (1 Bft) 95,83 %
11.05.2018 11:42 15,2 C 18,9 C 77 % 1018,2 hPa 0,0 l/m 2,5 km/h (1 Bft) NO 52 1 min 0,000 mm 3,4 UV-I 603 W/m 11,2 C 15,2 C 3,2 km/h (1 Bft) 95,65 %
11.05.2018 11:43 15,2 C 18,9 C 78 % 1018,2 hPa 0,0 l/m 1,5 km/h (1 Bft) NO 52 1 min 0,000 mm 3,9 UV-I 603 W/m 11,4 C 15,2 C 3,2 km/h (1 Bft) 100,00 %
11.05.2018 11:44 15,4 C 18,9 C 79 % 1018,2 hPa 0,0 l/m 2,2 km/h (1 Bft) S-SO 154 1 min 0,000 mm 4,5 UV-I 603 W/m 11,8 C 15,4 C 4,8 km/h (1 Bft) 100,00 %
11.05.2018 11:45 15,5 C 18,9 C 78 % 1018,1 hPa 0,0 l/m 3,2 km/h (1 Bft) S-SO 159 1 min 0,000 mm 4,3 UV-I 603 W/m 11,7 C 15,5 C 6,4 km/h (2 Bft) 95,83 %
11.05.2018 11:46 15,7 C 18,9 C 77 % 1018,1 hPa 0,0 l/m 3,4 km/h (1 Bft) S 174 1 min 0,000 mm 4,1 UV-I 772 W/m 11,7 C 15,7 C 9,7 km/h (2 Bft) 91,30 %
11.05.2018 11:47 15,7 C 18,9 C 76 % 1018,1 hPa 0,0 l/m 6,6 km/h (2 Bft) S 172 1 min 0,000 mm 3,9 UV-I 842 W/m 11,5 C 15,6 C 9,7 km/h (2 Bft) 100,00 %
11.05.2018 11:48 15,6 C 18,9 C 76 % 1018,1 hPa 0,0 l/m 2,7 km/h (1 Bft) S 178 1 min 0,000 mm 3,6 UV-I 810 W/m 11,4 C 15,6 C 6,4 km/h (2 Bft) 95,65 %
11.05.2018 11:49 15,6 C 18,9 C 76 % 1018,1 hPa 0,0 l/m 8,9 km/h (2 Bft) S-SO 147 1 min 0,000 mm 3,3 UV-I 566 W/m 11,4 C 14,3 C 11,3 km/h (2 Bft) 100,00 %
11.05.2018 11:50 15,5 C 18,9 C 76 % 1018,1 hPa 0,0 l/m 4,6 km/h (1 Bft) S 186 1 min 0,000 mm 3,3 UV-I 542 W/m 11,3 C 15,5 C 8,0 km/h (2 Bft) 95,65 %
11.05.2018 11:51 15,5 C 18,9 C 76 % 1018,1 hPa 0,0 l/m 3,5 km/h (1 Bft) S 184 1 min 0,000 mm 3,3 UV-I 544 W/m 11,3 C 15,5 C 4,8 km/h (1 Bft) 100,00 %
11.05.2018 11:52 15,4 C 18,9 C 76 % 1018,1 hPa 0,0 l/m 3,4 km/h (1 Bft) SO 136 1 min 0,000 mm 3,2 UV-I 500 W/m 11,2 C 15,4 C 6,4 km/h (2 Bft) 91,67 %
11.05.2018 11:53 15,4 C 18,9 C 76 % 1018,0 hPa 0,0 l/m 1,3 km/h (1 Bft) SO 136 0 min 0,000 mm 2,9 UV-I 440 W/m 11,2 C 15,4 C 3,2 km/h (1 Bft) 100,00 %
11.05.2018 11:54 15,4 C 18,9 C 76 % 1018,0 hPa 0,0 l/m 2,2 km/h (1 Bft) SW 235 0 min 0,000 mm 2,9 UV-I 414 W/m 11,2 C 15,4 C 4,8 km/h (1 Bft) 92,59 %
11.05.2018 11:55 15,5 C 18,9 C 78 % 1018,0 hPa 0,0 l/m 3,2 km/h (1 Bft) SW 235 0 min 0,000 mm 2,9 UV-I 411 W/m 11,7 C 15,5 C 4,8 km/h (1 Bft) 95,65 %
11.05.2018 11:56 15,6 C 18,9 C 76 % 1018,0 hPa 0,0 l/m 2,3 km/h (1 Bft) SW 235 0 min 0,000 mm 2,8 UV-I 412 W/m 11,4 C 15,6 C 3,2 km/h (1 Bft) 100,00 %
11.05.2018 11:57 15,6 C 18,9 C 76 % 1018,0 hPa 0,0 l/m 2,2 km/h (1 Bft) SW 235 0 min 0,000 mm 2,9 UV-I 414 W/m 11,4 C 15,6 C 3,2 km/h (1 Bft) 95,65 %
11.05.2018 11:58 15,6 C 18,9 C 77 % 1018,0 hPa 0,0 l/m 3,2 km/h (1 Bft) W-SW 241 0 min 0,000 mm 2,8 UV-I 409 W/m 11,6 C 15,6 C 4,8 km/h (1 Bft) 100,00 %
11.05.2018 11:59 15,5 C 18,9 C 75 % 1018,0 hPa 0,0 l/m 1,8 km/h (1 Bft) W-SW 241 0 min 0,000 mm 2,8 UV-I 417 W/m 11,1 C 15,5 C 3,2 km/h (1 Bft) 96,15 %
11.05.2018 12:00 15,4 C 18,9 C 75 % 1018,1 hPa 0,0 l/m 0,9 km/h (0 Bft) W-SW 241 0 min 0,254 mm 2,9 UV-I 418 W/m 11,0 C 15,4 C 1,6 km/h (1 Bft) 100,00 %
11.05.2018 12:01 15,4 C 18,9 C 77 % 1018,0 hPa 0,0 l/m 3,4 km/h (1 Bft) N 5 0 min 0,000 mm 2,8 UV-I 399 W/m 11,4 C 15,4 C 4,8 km/h (1 Bft) 95,65 %
11.05.2018 12:02 15,6 C 18,9 C 78 % 1018,0 hPa 0,0 l/m 1,9 km/h (1 Bft) N 11 0 min 0,000 mm 2,7 UV-I 383 W/m 11,8 C 15,6 C 3,2 km/h (1 Bft) 95,83 %
11.05.2018 12:03 15,7 C 18,9 C 76 % 1018,0 hPa 0,0 l/m 3,7 km/h (1 Bft) O-NO 63 0 min 0,000 mm 2,7 UV-I 373 W/m 11,5 C 15,7 C 6,4 km/h (2 Bft) 95,65 %
11.05.2018 12:04 15,7 C 18,9 C 78 % 1018,0 hPa 0,0 l/m 3,5 km/h (1 Bft) O-NO 62 0 min 0,000 mm 2,6 UV-I 366 W/m 11,9 C 15,7 C 4,8 km/h (1 Bft) 100,00 %
11.05.2018 12:05 15,8 C 18,9 C 78 % 1018,0 hPa 0,0 l/m 3,2 km/h (1 Bft) O-NO 62 0 min 0,000 mm 2,7 UV-I 373 W/m 12,0 C 15,8 C 4,8 km/h (1 Bft) 100,00 %
11.05.2018 12:06 15,8 C 18,9 C 77 % 1018,1 hPa 0,0 l/m 4,2 km/h (1 Bft) O-NO 73 0 min 0,000 mm 2,7 UV-I 383 W/m 11,8 C 15,8 C 8,0 km/h (2 Bft) 95,83 %
11.05.2018 12:07 15,8 C 18,9 C 78 % 1018,0 hPa 0,0 l/m 5,4 km/h (1 Bft) O 79 0 min 0,000 mm 2,7 UV-I 400 W/m 12,0 C 15,8 C 8,0 km/h (2 Bft) 100,00 %
11.05.2018 12:08 15,8 C 18,9 C 77 % 1018,0 hPa 0,0 l/m 6,8 km/h (2 Bft) O-NO 58 0 min 0,000 mm 2,8 UV-I 408 W/m 11,8 C 15,6 C 9,7 km/h (2 Bft) 100,00 %
11.05.2018 12:09 15,8 C 18,9 C 77 % 1018,0 hPa 0,0 l/m 4,8 km/h (1 Bft) O-NO 58 0 min 0,000 mm 2,8 UV-I 405 W/m 11,8 C 15,8 C 6,4 km/h (2 Bft) 95,65 %
11.05.2018 12:10 15,7 C 18,9 C 77 % 1018,0 hPa 0,0 l/m 7,0 km/h (2 Bft) O-NO 63 0 min 0,000 mm 2,7 UV-I 403 W/m 11,7 C 15,4 C 9,7 km/h (2 Bft) 100,00 %
11.05.2018 12:11 15,7 C 18,9 C 79 % 1018,0 hPa 0,0 l/m 6,6 km/h (2 Bft) O-NO 70 0 min 0,000 mm 2,7 UV-I 401 W/m 12,1 C 15,6 C 8,0 km/h (2 Bft) 100,00 %
11.05.2018 12:12 15,7 C 18,9 C 79 % 1018,0 hPa 0,0 l/m 4,6 km/h (1 Bft) O-NO 69 0 min 0,000 mm 2,7 UV-I 403 W/m 12,1 C 15,7 C 6,4 km/h (2 Bft) 100,00 %
11.05.2018 12:13 15,8 C 18,9 C 79 % 1018,0 hPa 0,0 l/m 5,2 km/h (1 Bft) NO 49 0 min 0,000 mm 2,7 UV-I 403 W/m 12,2 C 15,8 C 6,4 km/h (2 Bft) 100,00 %
11.05.2018 12:14 15,8 C 18,9 C 79 % 1018,0 hPa 0,0 l/m 4,2 km/h (1 Bft) NO 49 0 min 0,000 mm 2,7 UV-I 404 W/m 12,2 C 15,8 C 4,8 km/h (1 Bft) 100,00 %
11.05.2018 12:15 15,8 C 18,9 C 79 % 1017,9 hPa 0,0 l/m 3,9 km/h (1 Bft) O-NO 65 0 min 0,000 mm 2,8 UV-I 405 W/m 12,2 C 15,8 C 9,7 km/h (2 Bft) 100,00 %
11.05.2018 12:16 15,9 C 18,9 C 78 % 1018,0 hPa 0,0 l/m 5,4 km/h (1 Bft) O 88 0 min 0,000 mm 2,8 UV-I 410 W/m 12,1 C 15,9 C 11,3 km/h (2 Bft) 95,83 %
11.05.2018 12:17 15,9 C 18,9 C 77 % 1017,9 hPa 0,0 l/m 2,5 km/h (1 Bft) O 87 0 min 0,000 mm 2,8 UV-I 419 W/m 11,9 C 15,9 C 4,8 km/h (1 Bft) 95,83 %
11.05.2018 12:18 15,8 C 18,9 C 77 % 1017,9 hPa 0,0 l/m 4,9 km/h (1 Bft) SO 132 0 min 0,000 mm 2,9 UV-I 432 W/m 11,8 C 15,8 C 6,4 km/h (2 Bft) 100,00 %
11.05.2018 12:19 15,8 C 18,9 C 77 % 1017,9 hPa 0,0 l/m 6,1 km/h (2 Bft) SO 139 0 min 0,000 mm 3,0 UV-I 447 W/m 11,8 C 15,8 C 8,0 km/h (2 Bft) 100,00 %
11.05.2018 12:20 15,9 C 18,9 C 76 % 1017,9 hPa 0,0 l/m 4,1 km/h (1 Bft) SO 131 0 min 0,000 mm 3,0 UV-I 454 W/m 11,7 C 15,9 C 6,4 km/h (2 Bft) 100,00 %
11.05.2018 12:21 15,9 C 18,9 C 76 % 1017,9 hPa 0,0 l/m 3,8 km/h (1 Bft) SO 130 0 min 0,000 mm 3,0 UV-I 460 W/m 11,7 C 15,9 C 4,8 km/h (1 Bft) 100,00 %
11.05.2018 12:22 15,9 C 18,9 C 77 % 1017,9 hPa 0,0 l/m 4,1 km/h (1 Bft) SO 144 0 min 0,000 mm 3,0 UV-I 461 W/m 11,9 C 15,9 C 6,4 km/h (2 Bft) 100,00 %
11.05.2018 12:23 15,9 C 18,9 C 77 % 1017,9 hPa 0,0 l/m 4,6 km/h (1 Bft) SO 146 0 min 0,000 mm 3,0 UV-I 462 W/m 11,9 C 15,9 C 6,4 km/h (2 Bft) 100,00 %
11.05.2018 12:24 16,0 C 18,9 C 77 % 1017,8 hPa 0,0 l/m 5,5 km/h (1 Bft) O-SO 111 1 min 0,000 mm 3,1 UV-I 467 W/m 12,0 C 16,0 C 8,0 km/h (2 Bft) 100,00 %
11.05.2018 12:25 16,0 C 18,9 C 76 % 1017,8 hPa 0,0 l/m 3,8 km/h (1 Bft) O-NO 62 1 min 0,000 mm 3,1 UV-I 476 W/m 11,8 C 16,0 C 8,0 km/h (2 Bft) 100,00 %
11.05.2018 12:26 15,9 C 18,9 C 76 % 1017,8 hPa 0,0 l/m 5,4 km/h (1 Bft) SO 126 1 min 0,000 mm 3,2 UV-I 498 W/m 11,7 C 15,9 C 6,4 km/h (2 Bft) 95,65 %
11.05.2018 12:27 16,0 C 18,9 C 76 % 1017,8 hPa 0,0 l/m 4,3 km/h (1 Bft) SO 126 1 min 0,000 mm 3,2 UV-I 515 W/m 11,8 C 16,0 C 6,4 km/h (2 Bft) 100,00 %
11.05.2018 12:28 16,0 C 18,9 C 76 % 1017,8 hPa 0,0 l/m 3,6 km/h (1 Bft) O-SO 108 1 min 0,000 mm 3,2 UV-I 506 W/m 11,8 C 16,0 C 4,8 km/h (1 Bft) 96,15 %
11.05.2018 12:29 16,0 C 18,9 C 75 % 1017,8 hPa 0,0 l/m 4,1 km/h (1 Bft) O 84 1 min 0,000 mm 3,2 UV-I 502 W/m 11,6 C 16,0 C 6,4 km/h (2 Bft) 95,83 %
11.05.2018 12:30 16,1 C 18,9 C 78 % 1017,8 hPa 0,0 l/m 4,3 km/h (1 Bft) O-SO 113 1 min 0,000 mm 3,2 UV-I 518 W/m 12,3 C 16,1 C 6,4 km/h (2 Bft) 95,65 %
11.05.2018 12:31 16,2 C 18,9 C 78 % 1017,8 hPa 0,0 l/m 3,0 km/h (1 Bft) O 88 1 min 0,000 mm 3,4 UV-I 539 W/m 12,4 C 16,2 C 6,4 km/h (2 Bft) 100,00 %
11.05.2018 12:32 16,3 C 18,9 C 78 % 1017,8 hPa 0,0 l/m 4,0 km/h (1 Bft) O 88 1 min 0,000 mm 3,3 UV-I 538 W/m 12,5 C 16,3 C 4,8 km/h (1 Bft) 95,65 %
11.05.2018 12:33 16,4 C 18,9 C 76 % 1017,8 hPa 0,0 l/m 3,0 km/h (1 Bft) O-NO 72 1 min 0,000 mm 3,3 UV-I 534 W/m 12,2 C 16,4 C 6,4 km/h (2 Bft) 95,83 %
11.05.2018 12:34 16,3 C 18,9 C 76 % 1017,8 hPa 0,0 l/m 4,4 km/h (1 Bft) O-NO 72 1 min 0,000 mm 3,4 UV-I 534 W/m 12,1 C 16,3 C 8,0 km/h (2 Bft) 95,65 %
11.05.2018 12:35 16,3 C 18,9 C 74 % 1017,7 hPa 0,0 l/m 0,9 km/h (0 Bft) O-NO 72 1 min 0,000 mm 3,6 UV-I 534 W/m 11,7 C 16,3 C 3,2 km/h (1 Bft) 95,83 %
11.05.2018 12:36 16,3 C 18,9 C 75 % 1017,8 hPa 0,0 l/m 6,4 km/h (2 Bft) O-NO 76 1 min 0,000 mm 3,4 UV-I 539 W/m 11,9 C 16,3 C 8,0 km/h (2 Bft) 100,00 %
11.05.2018 12:37 16,4 C 18,9 C 78 % 1017,7 hPa 0,0 l/m 5,5 km/h (1 Bft) O-NO 74 1 min 0,000 mm 3,6 UV-I 580 W/m 12,6 C 16,4 C 8,0 km/h (2 Bft) 100,00 %
11.05.2018 12:38 16,5 C 18,9 C 76 % 1017,7 hPa 0,0 l/m 5,6 km/h (1 Bft) O 92 1 min 0,000 mm 4,1 UV-I 612 W/m 12,3 C 16,5 C 8,0 km/h (2 Bft) 100,00 %
11.05.2018 12:39 16,5 C 18,9 C 75 % 1017,7 hPa 0,0 l/m 4,8 km/h (1 Bft) O 97 1 min 0,000 mm 4,6 UV-I 908 W/m 12,1 C 16,5 C 11,3 km/h (2 Bft) 91,30 %
11.05.2018 12:40 16,6 C 18,9 C 76 % 1017,7 hPa 0,0 l/m 7,9 km/h (2 Bft) O-SO 111 1 min 0,000 mm 4,9 UV-I 983 W/m 12,3 C 15,8 C 11,3 km/h (2 Bft) 100,00 %
11.05.2018 12:41 16,7 C 18,9 C 75 % 1017,7 hPa 0,0 l/m 8,6 km/h (2 Bft) O 101 1 min 0,000 mm 4,1 UV-I 976 W/m 12,2 C 15,6 C 12,9 km/h (3 Bft) 100,00 %
11.05.2018 12:42 16,7 C 18,9 C 73 % 1017,6 hPa 0,0 l/m 6,4 km/h (2 Bft) O-NO 73 1 min 0,000 mm 3,5 UV-I 893 W/m 11,8 C 16,7 C 8,0 km/h (2 Bft) 100,00 %
11.05.2018 12:43 16,7 C 18,9 C 75 % 1017,6 hPa 0,0 l/m 4,8 km/h (1 Bft) NO 51 1 min 0,000 mm 4,1 UV-I 563 W/m 12,2 C 16,7 C 6,4 km/h (2 Bft) 100,00 %
11.05.2018 12:44 16,8 C 18,9 C 78 % 1017,6 hPa 0,0 l/m 5,8 km/h (2 Bft) O-NO 71 1 min 0,000 mm 4,9 UV-I 563 W/m 12,9 C 16,8 C 8,0 km/h (2 Bft) 100,00 %
11.05.2018 12:45 16,9 C 18,9 C 76 % 1017,6 hPa 0,0 l/m 2,0 km/h (1 Bft) O-NO 71 1 min 0,000 mm 4,1 UV-I 563 W/m 12,6 C 16,9 C 4,8 km/h (1 Bft) 100,00 %
11.05.2018 12:46 16,8 C 18,9 C 74 % 1017,6 hPa 0,0 l/m 4,2 km/h (1 Bft) O 96 1 min 0,000 mm 3,6 UV-I 561 W/m 12,1 C 16,8 C 9,7 km/h (2 Bft) 100,00 %
11.05.2018 12:47 16,8 C 18,9 C 74 % 1017,6 hPa 0,0 l/m 4,2 km/h (1 Bft) O 97 1 min 0,000 mm 3,5 UV-I 522 W/m 12,1 C 16,8 C 4,8 km/h (1 Bft) 100,00 %
11.05.2018 12:48 16,8 C 18,9 C 74 % 1017,5 hPa 0,0 l/m 4,6 km/h (1 Bft) O-SO 120 1 min 0,000 mm 3,8 UV-I 522 W/m 12,1 C 16,8 C 6,4 km/h (2 Bft) 100,00 %
11.05.2018 12:49 16,7 C 18,9 C 73 % 1017,5 hPa 0,0 l/m 2,9 km/h (1 Bft) S-SO 148 1 min 0,000 mm 5,2 UV-I 844 W/m 11,8 C 16,7 C 4,8 km/h (1 Bft) 100,00 %
11.05.2018 12:50 16,7 C 18,9 C 77 % 1017,6 hPa 0,0 l/m 2,1 km/h (1 Bft) N-NO 23 1 min 0,000 mm 4,3 UV-I 1165 W/m 12,6 C 16,7 C 4,8 km/h (1 Bft) 95,83 %
11.05.2018 12:51 16,8 C 18,9 C 77 % 1017,5 hPa 0,0 l/m 3,5 km/h (1 Bft) NO 36 1 min 0,000 mm 3,7 UV-I 627 W/m 12,7 C 16,8 C 4,8 km/h (1 Bft) 100,00 %
11.05.2018 12:52 16,9 C 18,9 C 76 % 1017,5 hPa 0,0 l/m 3,6 km/h (1 Bft) O-NO 61 1 min 0,000 mm 4,0 UV-I 570 W/m 12,6 C 16,9 C 4,8 km/h (1 Bft) 95,65 %
11.05.2018 12:53 17,0 C 18,9 C 77 % 1017,5 hPa 0,0 l/m 4,2 km/h (1 Bft) O-NO 62 1 min 0,000 mm 5,0 UV-I 570 W/m 12,9 C 17,0 C 6,4 km/h (2 Bft) 100,00 %
11.05.2018 12:54 17,2 C 18,9 C 78 % 1017,5 hPa 0,0 l/m 1,7 km/h (1 Bft) O-NO 63 1 min 0,000 mm 3,6 UV-I 537 W/m 13,3 C 17,2 C 4,8 km/h (1 Bft) 96,15 %
11.05.2018 12:55 17,3 C 18,9 C 75 % 1017,5 hPa 0,0 l/m 2,3 km/h (1 Bft) O-SO 117 1 min 0,000 mm 3,4 UV-I 482 W/m 12,8 C 17,3 C 6,4 km/h (2 Bft) 95,83 %
11.05.2018 12:56 17,2 C 18,9 C 72 % 1017,5 hPa 0,0 l/m 4,6 km/h (1 Bft) O-SO 114 1 min 0,000 mm 3,4 UV-I 482 W/m 12,1 C 17,2 C 6,4 km/h (2 Bft) 100,00 %
11.05.2018 12:57 17,1 C 18,9 C 72 % 1017,4 hPa 0,0 l/m 5,6 km/h (1 Bft) O-NO 69 1 min 0,000 mm 3,4 UV-I 484 W/m 12,0 C 17,1 C 9,7 km/h (2 Bft) 95,83 %
11.05.2018 12:58 17,2 C 18,9 C 75 % 1017,4 hPa 0,0 l/m 8,1 km/h (2 Bft) O-NO 74 0 min 0,000 mm 3,3 UV-I 469 W/m 12,7 C 16,4 C 11,3 km/h (2 Bft) 100,00 %
11.05.2018 12:59 17,1 C 18,9 C 72 % 1017,4 hPa 0,0 l/m 6,0 km/h (2 Bft) O 80 0 min 0,000 mm 3,3 UV-I 459 W/m 12,0 C 17,1 C 8,0 km/h (2 Bft) 95,83 %
11.05.2018 13:00 17,0 C 18,9 C 72 % 1017,4 hPa 0,0 l/m 3,3 km/h (1 Bft) O 79 0 min 0,000 mm 3,3 UV-I 457 W/m 11,9 C 17,0 C 8,0 km/h (2 Bft) 100,00 %
11.05.2018 13:01 17,0 C 18,9 C 74 % 1017,3 hPa 0,0 l/m 6,9 km/h (2 Bft) O-NO 75 1 min 0,305 mm 3,5 UV-I 489 W/m 12,3 C 16,8 C 9,7 km/h (2 Bft) 95,83 %
11.05.2018 13:02 17,1 C 18,9 C 74 % 1017,3 hPa 0,0 l/m 7,1 km/h (2 Bft) O-NO 66 1 min 0,000 mm 3,6 UV-I 557 W/m 12,4 C 16,7 C 8,0 km/h (2 Bft) 100,00 %
11.05.2018 13:03 17,1 C 18,9 C 74 % 1017,3 hPa 0,0 l/m 5,3 km/h (1 Bft) NO 40 1 min 0,000 mm 3,8 UV-I 631 W/m 12,4 C 17,1 C 8,0 km/h (2 Bft) 95,83 %
11.05.2018 13:04 17,2 C 18,9 C 76 % 1017,3 hPa 0,0 l/m 6,6 km/h (2 Bft) NO 37 1 min 0,000 mm 3,9 UV-I 555 W/m 12,9 C 17,1 C 8,0 km/h (2 Bft) 95,65 %
11.05.2018 13:05 17,4 C 18,9 C 78 % 1017,3 hPa 0,0 l/m 6,8 km/h (2 Bft) NO 36 1 min 0,000 mm 3,9 UV-I 555 W/m 13,5 C 17,2 C 8,0 km/h (2 Bft) 100,00 %
11.05.2018 13:06 17,4 C 18,9 C 74 % 1017,3 hPa 0,0 l/m 4,3 km/h (1 Bft) NO 36 1 min 0,000 mm 4,0 UV-I 555 W/m 12,7 C 17,4 C 6,4 km/h (2 Bft) 95,65 %
11.05.2018 13:07 17,3 C 18,9 C 73 % 1017,3 hPa 0,0 l/m 3,1 km/h (1 Bft) NO 36 1 min 0,000 mm 3,8 UV-I 536 W/m 12,4 C 17,3 C 4,8 km/h (1 Bft) 100,00 %
11.05.2018 13:08 17,2 C 18,9 C 72 % 1017,3 hPa 0,0 l/m 4,3 km/h (1 Bft) O-NO 62 1 min 0,000 mm 4,0 UV-I 577 W/m 12,1 C 17,2 C 6,4 km/h (2 Bft) 91,67 %
11.05.2018 13:09 17,3 C 18,9 C 77 % 1017,3 hPa 0,0 l/m 6,8 km/h (2 Bft) NO 50 1 min 0,000 mm 4,4 UV-I 601 W/m 13,2 C 17,1 C 9,7 km/h (2 Bft) 100,00 %
11.05.2018 13:10 17,6 C 18,9 C 78 % 1017,3 hPa 0,0 l/m 6,4 km/h (2 Bft) O 85 1 min 0,000 mm 5,0 UV-I 601 W/m 13,7 C 17,6 C 8,0 km/h (2 Bft) 95,83 %
11.05.2018 13:11 17,6 C 18,9 C 71 % 1017,3 hPa 0,0 l/m 4,2 km/h (1 Bft) O 81 1 min 0,000 mm 5,1 UV-I 601 W/m 12,3 C 17,6 C 6,4 km/h (2 Bft) 100,00 %
11.05.2018 13:12 17,6 C 18,9 C 71 % 1017,2 hPa 0,0 l/m 3,7 km/h (1 Bft) O 82 1 min 0,000 mm 4,8 UV-I 601 W/m 12,3 C 17,6 C 6,4 km/h (2 Bft) 95,83 %
11.05.2018 13:13 17,7 C 18,9 C 72 % 1017,2 hPa 0,0 l/m 4,2 km/h (1 Bft) O 82 1 min 0,000 mm 5,2 UV-I 899 W/m 12,6 C 17,7 C 4,8 km/h (1 Bft) 96,15 %
11.05.2018 13:14 17,6 C 18,9 C 70 % 1017,2 hPa 0,0 l/m 3,3 km/h (1 Bft) O 82 1 min 0,000 mm 5,1 UV-I 1005 W/m 12,1 C 17,6 C 4,8 km/h (1 Bft) 100,00 %
11.05.2018 13:15 17,6 C 18,9 C 70 % 1017,1 hPa 0,0 l/m 3,1 km/h (1 Bft) O 82 1 min 0,000 mm 5,2 UV-I 1012 W/m 12,1 C 17,6 C 4,8 km/h (1 Bft) 91,30 %
11.05.2018 13:16 17,6 C 19,4 C 71 % 1017,1 hPa 0,0 l/m 4,1 km/h (1 Bft) NO 42 1 min 0,000 mm 5,1 UV-I 994 W/m 12,3 C 17,6 C 6,4 km/h (2 Bft) 100,00 %
11.05.2018 13:17 17,7 C 19,4 C 74 % 1017,1 hPa 0,0 l/m 6,2 km/h (2 Bft) N-NO 12 1 min 0,000 mm 5,1 UV-I 974 W/m 13,0 C 17,7 C 11,3 km/h (2 Bft) 95,65 %
11.05.2018 13:18 17,9 C 19,4 C 72 % 1017,1 hPa 0,0 l/m 2,2 km/h (1 Bft) N 11 1 min 0,000 mm 5,1 UV-I 955 W/m 12,8 C 17,9 C 4,8 km/h (1 Bft) 100,00 %
11.05.2018 13:19 17,9 C 19,4 C 70 % 1017,1 hPa 0,0 l/m 3,4 km/h (1 Bft) N 11 1 min 0,000 mm 5,0 UV-I 954 W/m 12,3 C 17,9 C 4,8 km/h (1 Bft) 91,30 %
11.05.2018 13:20 18,1 C 19,4 C 72 % 1017,0 hPa 0,0 l/m 5,6 km/h (1 Bft) NO 41 1 min 0,000 mm 5,0 UV-I 936 W/m 13,0 C 18,1 C 8,0 km/h (2 Bft) 100,00 %
11.05.2018 13:21 18,0 C 19,4 C 69 % 1017,0 hPa 0,0 l/m 1,4 km/h (1 Bft) NO 41 1 min 0,000 mm 4,9 UV-I 913 W/m 12,2 C 18,0 C 3,2 km/h (1 Bft) 100,00 %
11.05.2018 13:22 17,9 C 19,4 C 69 % 1017,1 hPa 0,0 l/m 2,4 km/h (1 Bft) O 96 1 min 0,000 mm 4,9 UV-I 904 W/m 12,1 C 17,9 C 4,8 km/h (1 Bft) 100,00 %
11.05.2018 13:23 17,9 C 19,4 C 70 % 1017,0 hPa 0,0 l/m 3,4 km/h (1 Bft) O-NO 69 1 min 0,000 mm 4,9 UV-I 898 W/m 12,3 C 17,9 C 6,4 km/h (2 Bft) 100,00 %
11.05.2018 13:24 17,9 C 19,4 C 73 % 1017,0 hPa 0,0 l/m 5,1 km/h (1 Bft) N 5 1 min 0,000 mm 4,9 UV-I 895 W/m 13,0 C 17,9 C 8,0 km/h (2 Bft) 95,83 %
11.05.2018 13:25 18,1 C 19,4 C 70 % 1017,0 hPa 0,0 l/m 4,4 km/h (1 Bft) N 5 1 min 0,000 mm 4,9 UV-I 888 W/m 12,5 C 18,1 C 6,4 km/h (2 Bft) 100,00 %
11.05.2018 13:26 18,3 C 19,4 C 72 % 1016,9 hPa 0,0 l/m 3,6 km/h (1 Bft) O-NO 59 1 min 0,000 mm 4,8 UV-I 868 W/m 13,2 C 18,3 C 4,8 km/h (1 Bft) 95,65 %
11.05.2018 13:27 18,6 C 19,4 C 73 % 1016,9 hPa 0,0 l/m 5,4 km/h (1 Bft) N 11 1 min 0,000 mm 4,8 UV-I 859 W/m 13,7 C 18,6 C 8,0 km/h (2 Bft) 100,00 %
11.05.2018 13:28 18,8 C 19,4 C 73 % 1016,9 hPa 0,0 l/m 6,8 km/h (2 Bft) O-SO 113 1 min 0,000 mm 4,9 UV-I 874 W/m 13,9 C 18,6 C 12,9 km/h (3 Bft) 100,00 %
11.05.2018 13:29 18,8 C 19,4 C 69 % 1016,9 hPa 0,0 l/m 6,5 km/h (2 Bft) O 84 1 min 0,000 mm 4,8 UV-I 865 W/m 13,0 C 18,8 C 12,9 km/h (3 Bft) 100,00 %
11.05.2018 13:30 18,8 C 19,4 C 68 % 1016,9 hPa 0,0 l/m 6,3 km/h (2 Bft) NO 53 1 min 0,000 mm 4,8 UV-I 864 W/m 12,8 C 18,8 C 11,3 km/h (2 Bft) 100,00 %
11.05.2018 13:31 18,9 C 19,4 C 71 % 1016,9 hPa 0,0 l/m 8,4 km/h (2 Bft) NO 44 1 min 0,000 mm 4,8 UV-I 868 W/m 13,5 C 18,0 C 12,9 km/h (3 Bft) 100,00 %
11.05.2018 13:32 19,1 C 19,4 C 70 % 1016,9 hPa 0,0 l/m 8,2 km/h (2 Bft) NO 52 1 min 0,000 mm 4,8 UV-I 867 W/m 13,5 C 18,3 C 12,9 km/h (3 Bft) 100,00 %
11.05.2018 13:33 19,3 C 19,4 C 70 % 1016,9 hPa 0,0 l/m 9,7 km/h (2 Bft) NO 53 1 min 0,000 mm 4,7 UV-I 858 W/m 13,7 C 18,0 C 14,5 km/h (3 Bft) 100,00 %
11.05.2018 13:34 19,3 C 19,4 C 66 % 1016,9 hPa 0,0 l/m 7,6 km/h (2 Bft) O 91 1 min 0,000 mm 4,8 UV-I 858 W/m 12,8 C 18,8 C 9,7 km/h (2 Bft) 96,15 %
11.05.2018 13:35 19,3 C 19,4 C 68 % 1016,8 hPa 0,0 l/m 6,7 km/h (2 Bft) NO 44 1 min 0,000 mm 4,8 UV-I 862 W/m 13,2 C 19,2 C 9,7 km/h (2 Bft) 100,00 %
11.05.2018 13:36 19,2 C 19,4 C 66 % 1016,8 hPa 0,0 l/m 3,9 km/h (1 Bft) N-NO 15 1 min 0,000 mm 4,7 UV-I 848 W/m 12,7 C 19,2 C 6,4 km/h (2 Bft) 100,00 %
11.05.2018 13:37 19,1 C 19,4 C 61 % 1016,8 hPa 0,0 l/m 4,8 km/h (1 Bft) O 83 1 min 0,000 mm 4,6 UV-I 837 W/m 11,4 C 19,1 C 6,4 km/h (2 Bft) 100,00 %
11.05.2018 13:38 18,9 C 19,4 C 63 % 1016,8 hPa 0,0 l/m 2,7 km/h (1 Bft) O 93 1 min 0,000 mm 4,7 UV-I 832 W/m 11,7 C 18,9 C 4,8 km/h (1 Bft) 95,65 %
11.05.2018 13:39 18,8 C 19,4 C 64 % 1016,8 hPa 0,0 l/m 4,1 km/h (1 Bft) O 92 1 min 0,000 mm 4,7 UV-I 846 W/m 11,8 C 18,8 C 9,7 km/h (2 Bft) 100,00 %
11.05.2018 13:40 18,9 C 19,4 C 68 % 1016,7 hPa 0,0 l/m 8,0 km/h (2 Bft) O-NO 60 1 min 0,000 mm 4,7 UV-I 844 W/m 12,9 C 18,2 C 11,3 km/h (2 Bft) 100,00 %
11.05.2018 13:41 19,1 C 19,4 C 66 % 1016,7 hPa 0,0 l/m 9,6 km/h (2 Bft) O-NO 76 1 min 0,000 mm 4,6 UV-I 835 W/m 12,6 C 17,8 C 12,9 km/h (3 Bft) 100,00 %
11.05.2018 13:42 19,2 C 19,4 C 70 % 1016,7 hPa 0,0 l/m 10,7 km/h (2 Bft) O-NO 68 1 min 0,000 mm 4,6 UV-I 833 W/m 13,6 C 17,5 C 14,5 km/h (3 Bft) 95,65 %
11.05.2018 13:43 19,2 C 19,4 C 65 % 1016,7 hPa 0,0 l/m 11,3 km/h (2 Bft) NO 42 1 min 0,000 mm 4,6 UV-I 837 W/m 12,5 C 17,3 C 14,5 km/h (3 Bft) 100,00 %
11.05.2018 13:44 19,1 C 19,4 C 67 % 1016,7 hPa 0,0 l/m 9,8 km/h (2 Bft) NO 38 1 min 0,000 mm 4,6 UV-I 834 W/m 12,8 C 17,7 C 14,5 km/h (3 Bft) 100,00 %
11.05.2018 13:45 19,1 C 19,4 C 66 % 1016,7 hPa 0,0 l/m 9,0 km/h (2 Bft) N-NO 21 1 min 0,000 mm 4,6 UV-I 831 W/m 12,6 C 18,0 C 11,3 km/h (2 Bft) 100,00 %
11.05.2018 13:46 19,1 C 19,4 C 65 % 1016,7 hPa 0,0 l/m 9,7 km/h (2 Bft) N-NO 29 1 min 0,000 mm 4,6 UV-I 836 W/m 12,4 C 17,8 C 12,9 km/h (3 Bft) 100,00 %
11.05.2018 13:47 19,1 C 19,4 C 69 % 1016,6 hPa 0,0 l/m 9,4 km/h (2 Bft) N-NO 31 1 min 0,000 mm 4,6 UV-I 833 W/m 13,3 C 17,9 C 14,5 km/h (3 Bft) 100,00 %
11.05.2018 13:48 19,2 C 19,4 C 66 % 1016,6 hPa 0,0 l/m 9,8 km/h (2 Bft) NO 46 1 min 0,000 mm 4,5 UV-I 824 W/m 12,7 C 17,8 C 14,5 km/h (3 Bft) 100,00 %
11.05.2018 13:49 19,2 C 19,4 C 65 % 1016,6 hPa 0,0 l/m 8,0 km/h (2 Bft) O-NO 69 1 min 0,000 mm 4,6 UV-I 828 W/m 12,5 C 18,5 C 11,3 km/h (2 Bft) 100,00 %
11.05.2018 13:50 19,3 C 19,4 C 65 % 1016,6 hPa 0,0 l/m 11,4 km/h (2 Bft) O-NO 64 1 min 0,000 mm 4,6 UV-I 835 W/m 12,6 C 17,4 C 14,5 km/h (3 Bft) 100,00 %
11.05.2018 13:51 19,3 C 19,4 C 64 % 1016,6 hPa 0,0 l/m 14,3 km/h (3 Bft) O-NO 64 1 min 0,000 mm 4,6 UV-I 840 W/m 12,3 C 16,6 C 19,3 km/h (3 Bft) 100,00 %
11.05.2018 13:52 19,4 C 19,4 C 64 % 1016,6 hPa 0,0 l/m 11,9 km/h (2 Bft) NO 50 1 min 0,000 mm 4,6 UV-I 837 W/m 12,4 C 17,4 C 17,7 km/h (3 Bft) 100,00 %
11.05.2018 13:53 19,5 C 19,4 C 66 % 1016,6 hPa 0,0 l/m 10,8 km/h (2 Bft) O-NO 58 1 min 0,000 mm 4,6 UV-I 838 W/m 13,0 C 17,8 C 14,5 km/h (3 Bft) 100,00 %
11.05.2018 13:54 19,5 C 19,4 C 64 % 1016,6 hPa 0,0 l/m 12,1 km/h (2 Bft) O-NO 69 1 min 0,000 mm 4,6 UV-I 834 W/m 12,5 C 17,4 C 14,5 km/h (3 Bft) 100,00 %
11.05.2018 13:55 19,4 C 19,4 C 62 % 1016,6 hPa 0,0 l/m 10,7 km/h (2 Bft) O 97 1 min 0,000 mm 4,5 UV-I 826 W/m 11,9 C 17,7 C 14,5 km/h (3 Bft) 100,00 %
11.05.2018 13:56 19,4 C 19,4 C 60 % 1016,6 hPa 0,0 l/m 5,4 km/h (1 Bft) O-SO 106 1 min 0,000 mm 4,5 UV-I 824 W/m 11,4 C 19,4 C 9,7 km/h (2 Bft) 100,00 %
11.05.2018 13:57 19,3 C 19,4 C 60 % 1016,5 hPa 0,0 l/m 4,0 km/h (1 Bft) NO 52 1 min 0,000 mm 4,5 UV-I 824 W/m 11,3 C 19,3 C 6,4 km/h (2 Bft) 100,00 %
11.05.2018 13:58 19,3 C 19,4 C 61 % 1016,5 hPa 0,0 l/m 3,9 km/h (1 Bft) NO 53 1 min 0,000 mm 4,5 UV-I 822 W/m 11,6 C 19,3 C 6,4 km/h (2 Bft) 100,00 %
11.05.2018 13:59 19,2 C 19,4 C 61 % 1016,5 hPa 0,0 l/m 4,5 km/h (1 Bft) N-NO 22 1 min 0,000 mm 4,5 UV-I 823 W/m 11,5 C 19,2 C 6,4 km/h (2 Bft) 100,00 %
11.05.2018 14:00 19,1 C 19,4 C 61 % 1016,5 hPa 0,0 l/m 5,5 km/h (1 Bft) NO 41 1 min 0,000 mm 4,5 UV-I 822 W/m 11,4 C 19,1 C 11,3 km/h (2 Bft) 100,00 %
11.05.2018 14:01 19,3 C 19,4 C 66 % 1016,4 hPa 0,0 l/m 9,0 km/h (2 Bft) NO 34 1 min 0,482 mm 4,5 UV-I 821 W/m 12,8 C 18,2 C 16,1 km/h (3 Bft) 95,65 %
11.05.2018 14:02 19,5 C 19,4 C 66 % 1016,4 hPa 0,0 l/m 11,3 km/h (2 Bft) NO 36 1 min 0,000 mm 4,5 UV-I 823 W/m 13,0 C 17,7 C 19,3 km/h (3 Bft) 100,00 %
11.05.2018 14:03 19,7 C 19,4 C 67 % 1016,4 hPa 0,0 l/m 15,2 km/h (3 Bft) NO 40 1 min 0,000 mm 4,5 UV-I 823 W/m 13,4 C 16,8 C 17,7 km/h (3 Bft) 100,00 %
11.05.2018 14:04 19,7 C 19,4 C 65 % 1016,4 hPa 0,0 l/m 10,7 km/h (2 Bft) N-NO 17 1 min 0,000 mm 4,5 UV-I 822 W/m 12,9 C 18,1 C 14,5 km/h (3 Bft) 100,00 %
11.05.2018 14:05 19,7 C 19,4 C 64 % 1016,4 hPa 0,0 l/m 9,1 km/h (2 Bft) O 79 1 min 0,000 mm 4,5 UV-I 818 W/m 12,7 C 18,6 C 12,9 km/h (3 Bft) 100,00 %
11.05.2018 14:06 19,7 C 19,4 C 61 % 1016,4 hPa 0,0 l/m 9,5 km/h (2 Bft) NO 53 1 min 0,000 mm 4,4 UV-I 816 W/m 12,0 C 18,5 C 14,5 km/h (3 Bft) 95,65 %
11.05.2018 14:07 19,8 C 19,4 C 59 % 1016,4 hPa 0,0 l/m 12,1 km/h (2 Bft) O 88 1 min 0,000 mm 4,4 UV-I 816 W/m 11,6 C 17,8 C 19,3 km/h (3 Bft) 100,00 %
11.05.2018 14:08 19,7 C 19,4 C 57 % 1016,4 hPa 0,0 l/m 11,7 km/h (2 Bft) O-NO 61 1 min 0,000 mm 4,4 UV-I 814 W/m 10,9 C 17,8 C 16,1 km/h (3 Bft) 100,00 %
11.05.2018 14:09 19,7 C 19,4 C 62 % 1016,4 hPa 0,0 l/m 13,6 km/h (3 Bft) O 81 1 min 0,000 mm 4,4 UV-I 812 W/m 12,2 C 17,2 C 17,7 km/h (3 Bft) 100,00 %
11.05.2018 14:10 19,7 C 19,4 C 62 % 1016,4 hPa 0,0 l/m 9,9 km/h (2 Bft) O-NO 63 1 min 0,000 mm 4,4 UV-I 811 W/m 12,2 C 18,3 C 16,1 km/h (3 Bft) 100,00 %
11.05.2018 14:11 19,6 C 19,4 C 62 % 1016,4 hPa 0,0 l/m 6,6 km/h (2 Bft) O-NO 59 1 min 0,000 mm 4,4 UV-I 811 W/m 12,1 C 19,5 C 9,7 km/h (2 Bft) 95,83 %
11.05.2018 14:12 19,6 C 19,4 C 63 % 1016,4 hPa 0,0 l/m 9,3 km/h (2 Bft) NO 45 1 min 0,000 mm 4,4 UV-I 810 W/m 12,4 C 18,4 C 17,7 km/h (3 Bft) 95,65 %
11.05.2018 14:13 19,7 C 19,4 C 63 % 1016,3 hPa 0,0 l/m 15,8 km/h (3 Bft) NO 53 1 min 0,000 mm 4,4 UV-I 812 W/m 12,5 C 16,7 C 19,3 km/h (3 Bft) 100,00 %
11.05.2018 14:14 19,7 C 19,4 C 65 % 1016,4 hPa 0,0 l/m 11,8 km/h (2 Bft) NO 52 1 min 0,000 mm 4,3 UV-I 809 W/m 12,9 C 17,7 C 16,1 km/h (3 Bft) 100,00 %
11.05.2018 14:15 19,7 C 19,4 C 63 % 1016,3 hPa 0,0 l/m 5,3 km/h (1 Bft) N-NO 30 1 min 0,000 mm 4,3 UV-I 804 W/m 12,5 C 19,7 C 8,0 km/h (2 Bft) 100,00 %
11.05.2018 14:16 19,7 C 19,4 C 65 % 1016,3 hPa 0,0 l/m 11,2 km/h (2 Bft) O-NO 59 1 min 0,000 mm 4,3 UV-I 809 W/m 12,9 C 17,9 C 14,5 km/h (3 Bft) 100,00 %
11.05.2018 14:17 19,8 C 19,4 C 66 % 1016,3 hPa 0,0 l/m 6,2 km/h (2 Bft) NO 37 1 min 0,000 mm 4,3 UV-I 811 W/m 13,3 C 19,8 C 9,7 km/h (2 Bft) 100,00 %
11.05.2018 14:18 19,8 C 19,4 C 64 % 1016,3 hPa 0,0 l/m 6,2 km/h (2 Bft) O 80 1 min 0,000 mm 4,3 UV-I 806 W/m 12,8 C 19,8 C 11,3 km/h (2 Bft) 100,00 %
11.05.2018 14:19 19,9 C 19,4 C 66 % 1016,2 hPa 0,0 l/m 9,0 km/h (2 Bft) O 86 1 min 0,000 mm 4,3 UV-I 802 W/m 13,4 C 18,9 C 12,9 km/h (3 Bft) 100,00 %
11.05.2018 14:20 19,9 C 19,4 C 61 % 1016,2 hPa 0,0 l/m 9,2 km/h (2 Bft) O-NO 63 1 min 0,000 mm 4,3 UV-I 801 W/m 12,2 C 18,8 C 12,9 km/h (3 Bft) 100,00 %
11.05.2018 14:21 19,9 C 19,4 C 62 % 1016,2 hPa 0,0 l/m 7,2 km/h (2 Bft) O 97 1 min 0,000 mm 4,2 UV-I 794 W/m 12,4 C 19,6 C 9,7 km/h (2 Bft) 100,00 %
11.05.2018 14:23 19,9 C 19,4 C 61 % 1016,2 hPa 0,0 l/m 11,1 km/h (2 Bft) O-SO 108 2 min 0,000 mm 4,2 UV-I 795 W/m 12,2 C 18,2 C 16,1 km/h (3 Bft) 100,00 %
11.05.2018 14:24 19,9 C 19,4 C 59 % 1016,2 hPa 0,0 l/m 6,8 km/h (2 Bft) O-SO 117 1 min 0,000 mm 4,2 UV-I 796 W/m 11,6 C 19,7 C 12,9 km/h (3 Bft) 100,00 %
11.05.2018 14:25 19,9 C 19,4 C 60 % 1016,1 hPa 0,0 l/m 12,2 km/h (2 Bft) O-NO 63 1 min 0,000 mm 4,2 UV-I 794 W/m 11,9 C 17,9 C 16,1 km/h (3 Bft) 100,00 %
11.05.2018 14:26 19,9 C 19,4 C 62 % 1016,1 hPa 0,0 l/m 7,4 km/h (2 Bft) NO 55 1 min 0,000 mm 4,2 UV-I 790 W/m 12,4 C 19,5 C 12,9 km/h (3 Bft) 100,00 %
11.05.2018 14:27 20,1 C 19,4 C 62 % 1016,1 hPa 0,0 l/m 8,4 km/h (2 Bft) O-NO 57 1 min 0,000 mm 4,2 UV-I 795 W/m 12,6 C 19,3 C 11,3 km/h (2 Bft) 100,00 %
11.05.2018 14:28 20,2 C 19,4 C 65 % 1016,1 hPa 0,0 l/m 9,3 km/h (2 Bft) N-NO 13 1 min 0,000 mm 4,2 UV-I 792 W/m 13,4 C 19,1 C 11,3 km/h (2 Bft) 100,00 %
11.05.2018 14:29 20,3 C 19,4 C 65 % 1016,0 hPa 0,0 l/m 10,1 km/h (2 Bft) NO 44 1 min 0,000 mm 4,2 UV-I 789 W/m 13,5 C 18,9 C 12,9 km/h (3 Bft) 100,00 %
11.05.2018 14:30 20,3 C 19,4 C 60 % 1016,1 hPa 0,0 l/m 9,5 km/h (2 Bft) N-NO 32 1 min 0,000 mm 4,2 UV-I 789 W/m 12,3 C 19,1 C 14,5 km/h (3 Bft) 100,00 %
11.05.2018 14:31 20,2 C 19,4 C 62 % 1015,9 hPa 0,0 l/m 18,0 km/h (3 Bft) O-SO 110 1 min 0,000 mm 4,1 UV-I 786 W/m 12,7 C 16,8 C 25,7 km/h (4 Bft) 100,00 %
11.05.2018 14:32 20,3 C 19,4 C 62 % 1015,9 hPa 0,0 l/m 11,9 km/h (2 Bft) O-NO 61 1 min 0,000 mm 4,1 UV-I 785 W/m 12,8 C 18,4 C 17,7 km/h (3 Bft) 100,00 %
11.05.2018 14:33 20,4 C 19,4 C 66 % 1015,9 hPa 0,0 l/m 10,3 km/h (2 Bft) NO 55 1 min 0,000 mm 4,1 UV-I 777 W/m 13,8 C 19,0 C 16,1 km/h (3 Bft) 100,00 %
11.05.2018 14:34 20,4 C 19,4 C 63 % 1015,9 hPa 0,0 l/m 14,5 km/h (3 Bft) O-NO 61 1 min 0,000 mm 4,1 UV-I 784 W/m 13,1 C 17,9 C 19,3 km/h (3 Bft) 100,00 %
11.05.2018 14:35 20,4 C 19,4 C 63 % 1015,9 hPa 0,0 l/m 12,7 km/h (3 Bft) O-NO 67 1 min 0,000 mm 4,1 UV-I 782 W/m 13,1 C 18,3 C 16,1 km/h (3 Bft) 95,65 %
11.05.2018 14:36 20,5 C 19,4 C 63 % 1015,9 hPa 0,0 l/m 11,7 km/h (2 Bft) O-NO 77 1 min 0,000 mm 4,1 UV-I 777 W/m 13,2 C 18,7 C 16,1 km/h (3 Bft) 100,00 %
11.05.2018 14:37 20,6 C 19,4 C 62 % 1015,8 hPa 0,0 l/m 14,2 km/h (3 Bft) O-NO 68 1 min 0,000 mm 4,0 UV-I 771 W/m 13,1 C 18,2 C 19,3 km/h (3 Bft) 100,00 %
11.05.2018 14:38 20,6 C 19,4 C 62 % 1015,8 hPa 0,0 l/m 13,2 km/h (3 Bft) O-NO 59 1 min 0,000 mm 4,0 UV-I 772 W/m 13,1 C 18,4 C 17,7 km/h (3 Bft) 100,00 %
11.05.2018 14:39 20,6 C 19,4 C 61 % 1015,8 hPa 0,0 l/m 10,4 km/h (2 Bft) NO 56 1 min 0,000 mm 4,0 UV-I 780 W/m 12,8 C 19,2 C 14,5 km/h (3 Bft) 100,00 %
11.05.2018 14:40 20,5 C 19,4 C 61 % 1015,8 hPa 0,0 l/m 13,8 km/h (3 Bft) O-NO 58 1 min 0,000 mm 4,0 UV-I 777 W/m 12,7 C 18,1 C 17,7 km/h (3 Bft) 91,30 %
11.05.2018 14:41 20,4 C 19,4 C 62 % 1015,8 hPa 0,0 l/m 7,2 km/h (2 Bft) NO 50 1 min 0,000 mm 4,0 UV-I 774 W/m 12,9 C 20,1 C 9,7 km/h (2 Bft) 95,83 %
11.05.2018 14:42 20,4 C 19,4 C 66 % 1015,8 hPa 0,0 l/m 12,7 km/h (3 Bft) O 93 1 min 0,000 mm 4,0 UV-I 774 W/m 13,8 C 18,3 C 19,3 km/h (3 Bft) 100,00 %
11.05.2018 14:43 20,4 C 19,4 C 64 % 1015,7 hPa 0,0 l/m 15,1 km/h (3 Bft) O-NO 69 1 min 0,000 mm 4,0 UV-I 768 W/m 13,4 C 17,7 C 19,3 km/h (3 Bft) 95,83 %
11.05.2018 14:44 20,5 C 19,4 C 63 % 1015,8 hPa 0,0 l/m 12,4 km/h (3 Bft) N-NO 30 1 min 0,000 mm 3,9 UV-I 764 W/m 13,2 C 18,5 C 16,1 km/h (3 Bft) 100,00 %
11.05.2018 14:45 20,4 C 19,4 C 64 % 1015,7 hPa 0,0 l/m 13,0 km/h (3 Bft) N-NO 13 1 min 0,000 mm 3,9 UV-I 767 W/m 13,4 C 18,2 C 16,1 km/h (3 Bft) 95,83 %
11.05.2018 14:46 20,3 C 19,4 C 63 % 1015,7 hPa 0,0 l/m 10,0 km/h (2 Bft) N-NO 33 1 min 0,000 mm 3,9 UV-I 770 W/m 13,0 C 19,0 C 14,5 km/h (3 Bft) 100,00 %
11.05.2018 14:47 20,3 C 19,4 C 63 % 1015,7 hPa 0,0 l/m 9,1 km/h (2 Bft) NO 45 1 min 0,000 mm 3,9 UV-I 769 W/m 13,0 C 19,3 C 14,5 km/h (3 Bft) 95,83 %
11.05.2018 14:48 20,3 C 20,0 C 63 % 1015,7 hPa 0,0 l/m 14,6 km/h (3 Bft) O 85 1 min 0,000 mm 3,9 UV-I 761 W/m 13,0 C 17,7 C 19,3 km/h (3 Bft) 100,00 %
11.05.2018 14:49 20,4 C 20,0 C 60 % 1015,7 hPa 0,0 l/m 9,7 km/h (2 Bft) O-NO 76 1 min 0,000 mm 3,9 UV-I 761 W/m 12,4 C 19,2 C 14,5 km/h (3 Bft) 95,83 %
11.05.2018 14:50 20,6 C 20,0 C 61 % 1015,7 hPa 0,0 l/m 11,1 km/h (2 Bft) O 94 1 min 0,000 mm 3,9 UV-I 759 W/m 12,8 C 19,0 C 16,1 km/h (3 Bft) 91,30 %
11.05.2018 14:51 20,7 C 20,0 C 60 % 1015,7 hPa 0,0 l/m 14,2 km/h (3 Bft) O-SO 109 1 min 0,000 mm 3,9 UV-I 762 W/m 12,7 C 18,3 C 17,7 km/h (3 Bft) 100,00 %
11.05.2018 14:52 20,7 C 20,0 C 58 % 1015,7 hPa 0,0 l/m 9,6 km/h (2 Bft) O-NO 76 1 min 0,000 mm 3,9 UV-I 762 W/m 12,1 C 19,5 C 12,9 km/h (3 Bft) 95,65 %
11.05.2018 14:53 20,7 C 20,0 C 60 % 1015,6 hPa 0,0 l/m 6,1 km/h (2 Bft) O-NO 62 1 min 0,000 mm 3,9 UV-I 760 W/m 12,7 C 20,7 C 14,5 km/h (3 Bft) 100,00 %
11.05.2018 14:54 20,7 C 20,0 C 63 % 1015,6 hPa 0,0 l/m 13,5 km/h (3 Bft) N-NO 30 1 min 0,000 mm 3,9 UV-I 759 W/m 13,4 C 18,5 C 17,7 km/h (3 Bft) 91,30 %
11.05.2018 14:55 20,8 C 20,0 C 65 % 1015,6 hPa 0,0 l/m 14,8 km/h (3 Bft) NO 42 1 min 0,000 mm 3,8 UV-I 756 W/m 14,0 C 18,3 C 17,7 km/h (3 Bft) 100,00 %
11.05.2018 14:56 20,8 C 20,0 C 62 % 1015,6 hPa 0,0 l/m 11,9 km/h (2 Bft) NO 39 1 min 0,000 mm 3,8 UV-I 754 W/m 13,2 C 19,0 C 16,1 km/h (3 Bft) 95,65 %
11.05.2018 14:57 20,7 C 20,0 C 60 % 1015,6 hPa 0,0 l/m 13,5 km/h (3 Bft) NO 34 1 min 0,000 mm 3,8 UV-I 755 W/m 12,7 C 18,5 C 16,1 km/h (3 Bft) 95,83 %
11.05.2018 14:58 20,7 C 20,0 C 62 % 1015,6 hPa 0,0 l/m 12,9 km/h (3 Bft) O 87 1 min 0,000 mm 3,8 UV-I 754 W/m 13,2 C 18,6 C 16,1 km/h (3 Bft) 100,00 %
11.05.2018 14:59 20,7 C 20,0 C 59 % 1015,6 hPa 0,0 l/m 11,9 km/h (2 Bft) O-NO 59 1 min 0,000 mm 3,7 UV-I 746 W/m 12,4 C 18,9 C 17,7 km/h (3 Bft) 96,30 %
11.05.2018 15:00 20,6 C 20,0 C 57 % 1015,6 hPa 0,0 l/m 3,0 km/h (1 Bft) O-NO 61 1 min 0,508 mm 3,7 UV-I 741 W/m 11,8 C 20,6 C 9,7 km/h (2 Bft) 100,00 %
11.05.2018 15:01 20,5 C 20,0 C 59 % 1015,5 hPa 0,0 l/m 7,1 km/h (2 Bft) NO 51 1 min 0,000 mm 3,7 UV-I 738 W/m 12,2 C 20,2 C 9,7 km/h (2 Bft) 95,83 %
11.05.2018 15:02 20,6 C 20,0 C 62 % 1015,4 hPa 0,0 l/m 7,2 km/h (2 Bft) NO 46 1 min 0,000 mm 3,7 UV-I 743 W/m 13,1 C 20,3 C 11,3 km/h (2 Bft) 95,65 %
11.05.2018 15:03 20,7 C 20,0 C 60 % 1015,4 hPa 0,0 l/m 6,9 km/h (2 Bft) O-NO 61 1 min 0,000 mm 3,7 UV-I 738 W/m 12,7 C 20,5 C 9,7 km/h (2 Bft) 95,83 %
11.05.2018 15:04 20,8 C 20,0 C 63 % 1015,4 hPa 0,0 l/m 5,5 km/h (1 Bft) N-NO 27 1 min 0,000 mm 3,7 UV-I 736 W/m 13,5 C 20,8 C 8,0 km/h (2 Bft) 100,00 %
11.05.2018 15:05 20,9 C 20,0 C 63 % 1015,4 hPa 0,0 l/m 5,9 km/h (2 Bft) NO 52 1 min 0,000 mm 3,7 UV-I 733 W/m 13,6 C 20,9 C 8,0 km/h (2 Bft) 96,15 %
11.05.2018 15:06 21,0 C 20,0 C 64 % 1015,4 hPa 0,0 l/m 9,5 km/h (2 Bft) N-NO 32 1 min 0,000 mm 3,6 UV-I 729 W/m 13,9 C 19,9 C 14,5 km/h (3 Bft) 96,30 %
11.05.2018 15:07 21,1 C 20,0 C 62 % 1015,3 hPa 0,0 l/m 15,2 km/h (3 Bft) N-NO 23 1 min 0,000 mm 3,6 UV-I 729 W/m 13,5 C 18,5 C 19,3 km/h (3 Bft) 95,65 %
11.05.2018 15:08 21,2 C 20,0 C 63 % 1015,3 hPa 0,0 l/m 11,5 km/h (2 Bft) O-NO 58 1 min 0,000 mm 3,6 UV-I 727 W/m 13,9 C 19,5 C 17,7 km/h (3 Bft) 95,83 %
11.05.2018 15:09 21,3 C 20,0 C 62 % 1015,3 hPa 0,0 l/m 11,1 km/h (2 Bft) O 95 1 min 0,000 mm 3,6 UV-I 725 W/m 13,7 C 19,8 C 17,7 km/h (3 Bft) 95,65 %
11.05.2018 15:10 21,3 C 20,0 C 58 % 1015,3 hPa 0,0 l/m 9,0 km/h (2 Bft) O-NO 70 1 min 0,000 mm 3,6 UV-I 728 W/m 12,7 C 20,4 C 12,9 km/h (3 Bft) 100,00 %
11.05.2018 15:11 21,3 C 20,0 C 57 % 1015,4 hPa 0,0 l/m 7,8 km/h (2 Bft) O-NO 63 1 min 0,000 mm 3,6 UV-I 730 W/m 12,4 C 20,8 C 14,5 km/h (3 Bft) 100,00 %
11.05.2018 15:12 21,3 C 20,0 C 60 % 1015,3 hPa 0,0 l/m 10,4 km/h (2 Bft) NO 41 1 min 0,000 mm 3,6 UV-I 729 W/m 13,2 C 20,0 C 14,5 km/h (3 Bft) 100,00 %
11.05.2018 15:13 21,3 C 20,0 C 60 % 1015,3 hPa 0,0 l/m 11,9 km/h (2 Bft) NO 48 1 min 0,000 mm 3,5 UV-I 724 W/m 13,2 C 19,6 C 14,5 km/h (3 Bft) 91,30 %
11.05.2018 15:14 21,1 C 20,0 C 60 % 1015,3 hPa 0,0 l/m 11,1 km/h (2 Bft) NO 37 1 min 0,000 mm 3,5 UV-I 721 W/m 13,0 C 19,5 C 14,5 km/h (3 Bft) 100,00 %
11.05.2018 15:15 20,9 C 20,0 C 61 % 1015,3 hPa 0,0 l/m 8,0 km/h (2 Bft) N-NO 21 1 min 0,000 mm 3,5 UV-I 715 W/m 13,1 C 20,3 C 12,9 km/h (3 Bft) 100,00 %
11.05.2018 15:16 20,9 C 20,0 C 62 % 1015,3 hPa 0,0 l/m 7,7 km/h (2 Bft) N-NO 31 1 min 0,000 mm 3,4 UV-I 716 W/m 13,3 C 20,4 C 11,3 km/h (2 Bft) 100,00 %
11.05.2018 15:17 20,9 C 20,0 C 62 % 1015,3 hPa 0,0 l/m 13,7 km/h (3 Bft) O-NO 69 1 min 0,000 mm 3,4 UV-I 712 W/m 13,3 C 18,6 C 19,3 km/h (3 Bft) 95,65 %
11.05.2018 15:18 21,0 C 20,0 C 60 % 1015,3 hPa 0,0 l/m 9,5 km/h (2 Bft) NO 49 1 min 0,000 mm 3,4 UV-I 712 W/m 12,9 C 19,9 C 12,9 km/h (3 Bft) 96,30 %
11.05.2018 15:19 21,1 C 20,0 C 61 % 1015,3 hPa 0,0 l/m 8,0 km/h (2 Bft) O-NO 68 1 min 0,000 mm 3,4 UV-I 706 W/m 13,3 C 20,5 C 12,9 km/h (3 Bft) 100,00 %
11.05.2018 15:20 21,1 C 20,0 C 61 % 1015,2 hPa 0,0 l/m 9,7 km/h (2 Bft) O-NO 77 1 min 0,000 mm 3,4 UV-I 702 W/m 13,3 C 19,9 C 14,5 km/h (3 Bft) 100,00 %
11.05.2018 15:21 21,1 C 20,0 C 60 % 1015,2 hPa 0,0 l/m 17,5 km/h (3 Bft) O 97 1 min 0,000 mm 3,4 UV-I 705 W/m 13,0 C 18,1 C 25,7 km/h (4 Bft) 95,83 %
11.05.2018 15:22 21,2 C 20,0 C 57 % 1015,2 hPa 0,0 l/m 15,2 km/h (3 Bft) O 86 1 min 0,000 mm 3,3 UV-I 702 W/m 12,3 C 18,7 C 20,9 km/h (4 Bft) 100,00 %
11.05.2018 15:23 21,1 C 20,0 C 57 % 1015,2 hPa 0,0 l/m 13,2 km/h (3 Bft) O 100 1 min 0,000 mm 3,3 UV-I 700 W/m 12,2 C 19,0 C 17,7 km/h (3 Bft) 100,00 %
11.05.2018 15:24 21,1 C 20,0 C 57 % 1015,2 hPa 0,0 l/m 15,3 km/h (3 Bft) O 90 1 min 0,000 mm 3,3 UV-I 698 W/m 12,2 C 18,5 C 17,7 km/h (3 Bft) 100,00 %
11.05.2018 15:25 21,1 C 20,0 C 56 % 1015,2 hPa 0,0 l/m 12,7 km/h (3 Bft) O 89 1 min 0,000 mm 3,3 UV-I 701 W/m 12,0 C 19,1 C 16,1 km/h (3 Bft) 100,00 %
11.05.2018 15:26 21,1 C 20,0 C 57 % 1015,2 hPa 0,0 l/m 13,0 km/h (3 Bft) O 80 1 min 0,000 mm 3,3 UV-I 702 W/m 12,2 C 19,0 C 16,1 km/h (3 Bft) 100,00 %
11.05.2018 15:27 21,0 C 20,0 C 58 % 1015,2 hPa 0,0 l/m 8,5 km/h (2 Bft) O 80 1 min 0,000 mm 3,3 UV-I 699 W/m 12,4 C 20,2 C 12,9 km/h (3 Bft) 100,00 %
11.05.2018 15:28 20,9 C 20,0 C 57 % 1015,1 hPa 0,0 l/m 8,9 km/h (2 Bft) O-NO 67 1 min 0,000 mm 3,2 UV-I 697 W/m 12,1 C 20,0 C 14,5 km/h (3 Bft) 100,00 %
11.05.2018 15:29 20,9 C 20,0 C 60 % 1015,1 hPa 0,0 l/m 11,0 km/h (2 Bft) O 93 1 min 0,000 mm 3,2 UV-I 698 W/m 12,8 C 19,3 C 17,7 km/h (3 Bft) 100,00 %
11.05.2018 15:30 21,0 C 20,0 C 59 % 1015,0 hPa 0,0 l/m 11,3 km/h (2 Bft) O-SO 103 1 min 0,000 mm 3,2 UV-I 696 W/m 12,7 C 19,4 C 16,1 km/h (3 Bft) 100,00 %
11.05.2018 15:31 21,1 C 20,0 C 58 % 1015,1 hPa 0,0 l/m 8,1 km/h (2 Bft) O 86 1 min 0,000 mm 3,2 UV-I 691 W/m 12,5 C 20,5 C 14,5 km/h (3 Bft) 100,00 %
11.05.2018 15:32 21,1 C 20,0 C 58 % 1015,0 hPa 0,0 l/m 13,2 km/h (3 Bft) O-NO 62 1 min 0,000 mm 3,2 UV-I 689 W/m 12,5 C 19,0 C 19,3 km/h (3 Bft) 100,00 %
11.05.2018 15:33 21,1 C 20,0 C 59 % 1015,0 hPa 0,0 l/m 15,4 km/h (3 Bft) O-NO 70 1 min 0,000 mm 3,2 UV-I 688 W/m 12,8 C 18,5 C 20,9 km/h (4 Bft) 100,00 %
11.05.2018 15:34 21,2 C 20,0 C 58 % 1015,0 hPa 0,0 l/m 21,1 km/h (4 Bft) NO 37 1 min 0,000 mm 3,1 UV-I 683 W/m 12,6 C 17,6 C 25,7 km/h (4 Bft) 96,15 %
11.05.2018 15:35 21,2 C 20,0 C 60 % 1015,0 hPa 0,0 l/m 14,0 km/h (3 Bft) O 82 1 min 0,000 mm 3,1 UV-I 680 W/m 13,1 C 18,9 C 19,3 km/h (3 Bft) 100,00 %
11.05.2018 15:36 21,3 C 20,0 C 58 % 1015,0 hPa 0,0 l/m 13,3 km/h (3 Bft) NO 54 1 min 0,000 mm 3,1 UV-I 675 W/m 12,7 C 19,2 C 17,7 km/h (3 Bft) 100,00 %
11.05.2018 15:37 21,3 C 20,0 C 61 % 1015,0 hPa 0,0 l/m 15,0 km/h (3 Bft) O-NO 63 1 min 0,000 mm 3,1 UV-I 673 W/m 13,5 C 18,8 C 20,9 km/h (4 Bft) 100,00 %
11.05.2018 15:38 21,4 C 20,0 C 58 % 1015,0 hPa 0,0 l/m 12,5 km/h (3 Bft) O-NO 64 1 min 0,000 mm 3,1 UV-I 678 W/m 12,8 C 19,5 C 17,7 km/h (3 Bft) 100,00 %
11.05.2018 15:39 21,6 C 20,0 C 59 % 1015,0 hPa 0,0 l/m 15,0 km/h (3 Bft) O-NO 65 1 min 0,000 mm 3,1 UV-I 673 W/m 13,2 C 19,2 C 17,7 km/h (3 Bft) 91,30 %
11.05.2018 15:40 21,6 C 20,0 C 56 % 1015,0 hPa 0,0 l/m 7,0 km/h (2 Bft) NO 49 1 min 0,000 mm 3,0 UV-I 666 W/m 12,4 C 21,4 C 11,3 km/h (2 Bft) 100,00 %
11.05.2018 15:41 21,5 C 20,0 C 59 % 1014,9 hPa 0,0 l/m 6,6 km/h (2 Bft) O-NO 59 1 min 0,000 mm 3,0 UV-I 664 W/m 13,1 C 21,4 C 11,3 km/h (2 Bft) 95,65 %
11.05.2018 15:42 21,5 C 20,0 C 57 % 1014,9 hPa 0,0 l/m 15,2 km/h (3 Bft) NO 49 1 min 0,000 mm 3,0 UV-I 666 W/m 12,6 C 19,0 C 19,3 km/h (3 Bft) 95,83 %
11.05.2018 15:43 21,4 C 20,0 C 57 % 1014,9 hPa 0,0 l/m 14,3 km/h (3 Bft) O-NO 71 1 min 0,000 mm 3,0 UV-I 666 W/m 12,5 C 19,1 C 19,3 km/h (3 Bft) 91,30 %
11.05.2018 15:44 21,3 C 20,0 C 57 % 1014,9 hPa 0,0 l/m 13,9 km/h (3 Bft) O 84 1 min 0,000 mm 3,0 UV-I 664 W/m 12,4 C 19,1 C 19,3 km/h (3 Bft) 100,00 %
11.05.2018 15:45 21,3 C 20,0 C 57 % 1014,9 hPa 0,0 l/m 15,6 km/h (3 Bft) O 88 1 min 0,000 mm 3,0 UV-I 663 W/m 12,4 C 18,7 C 19,3 km/h (3 Bft) 95,65 %
11.05.2018 15:46 21,3 C 20,0 C 61 % 1014,8 hPa 0,0 l/m 7,4 km/h (2 Bft) O-NO 62 1 min 0,000 mm 2,9 UV-I 660 W/m 13,5 C 20,9 C 14,5 km/h (3 Bft) 100,00 %
11.05.2018 15:47 21,5 C 20,0 C 61 % 1014,9 hPa 0,0 l/m 9,7 km/h (2 Bft) O-SO 111 1 min 0,000 mm 2,9 UV-I 657 W/m 13,7 C 20,4 C 16,1 km/h (3 Bft) 96,15 %
11.05.2018 15:48 21,6 C 20,0 C 57 % 1014,8 hPa 0,0 l/m 15,2 km/h (3 Bft) O-SO 107 1 min 0,000 mm 2,9 UV-I 659 W/m 12,7 C 19,1 C 24,1 km/h (4 Bft) 100,00 %
11.05.2018 15:49 21,6 C 20,0 C 57 % 1014,8 hPa 0,0 l/m 10,0 km/h (2 Bft) O-NO 63 1 min 0,000 mm 2,9 UV-I 656 W/m 12,7 C 20,4 C 14,5 km/h (3 Bft) 100,00 %
11.05.2018 15:50 21,6 C 20,0 C 59 % 1014,8 hPa 0,0 l/m 11,2 km/h (2 Bft) NO 41 1 min 0,000 mm 2,9 UV-I 654 W/m 13,2 C 20,1 C 16,1 km/h (3 Bft) 100,00 %
11.05.2018 15:51 21,7 C 20,0 C 58 % 1014,9 hPa 0,0 l/m 12,7 km/h (3 Bft) O-NO 67 1 min 0,000 mm 2,9 UV-I 653 W/m 13,1 C 19,8 C 16,1 km/h (3 Bft) 100,00 %
11.05.2018 15:52 21,6 C 20,0 C 61 % 1014,8 hPa 0,0 l/m 10,7 km/h (2 Bft) O 98 1 min 0,000 mm 2,8 UV-I 651 W/m 13,7 C 20,2 C 16,1 km/h (3 Bft) 100,00 %
11.05.2018 15:53 21,6 C 20,0 C 58 % 1014,8 hPa 0,0 l/m 12,7 km/h (3 Bft) O 98 1 min 0,000 mm 2,8 UV-I 647 W/m 13,0 C 19,7 C 17,7 km/h (3 Bft) 100,00 %
11.05.2018 15:54 21,6 C 20,0 C 58 % 1014,8 hPa 0,0 l/m 8,6 km/h (2 Bft) O-NO 63 1 min 0,000 mm 2,8 UV-I 644 W/m 13,0 C 20,8 C 14,5 km/h (3 Bft) 100,00 %
11.05.2018 15:55 21,6 C 20,0 C 59 % 1014,8 hPa 0,0 l/m 11,2 km/h (2 Bft) O-NO 65 1 min 0,000 mm 2,8 UV-I 642 W/m 13,2 C 20,1 C 14,5 km/h (3 Bft) 100,00 %
11.05.2018 15:56 21,7 C 20,0 C 59 % 1014,8 hPa 0,0 l/m 6,3 km/h (2 Bft) O-NO 61 1 min 0,000 mm 2,8 UV-I 642 W/m 13,3 C 21,7 C 12,9 km/h (3 Bft) 95,83 %
11.05.2018 15:57 21,7 C 20,0 C 60 % 1014,7 hPa 0,0 l/m 12,1 km/h (2 Bft) NO 54 1 min 0,000 mm 2,8 UV-I 641 W/m 13,6 C 20,0 C 17,7 km/h (3 Bft) 100,00 %
11.05.2018 15:58 21,8 C 20,0 C 60 % 1014,6 hPa 0,0 l/m 11,9 km/h (2 Bft) NO 49 1 min 0,000 mm 2,7 UV-I 639 W/m 13,7 C 20,1 C 19,3 km/h (3 Bft) 100,00 %
11.05.2018 15:59 21,7 C 20,0 C 60 % 1014,7 hPa 0,0 l/m 18,6 km/h (3 Bft) N-NO 32 1 min 0,000 mm 2,7 UV-I 638 W/m 13,6 C 18,6 C 22,5 km/h (4 Bft) 100,00 %
11.05.2018 16:00 21,7 C 20,0 C 61 % 1014,7 hPa 0,0 l/m 19,1 km/h (3 Bft) NO 56 1 min 0,000 mm 2,7 UV-I 634 W/m 13,8 C 18,5 C 22,5 km/h (4 Bft) 100,00 %
11.05.2018 16:01 21,7 C 20,0 C 58 % 1014,7 hPa 0,0 l/m 12,2 km/h (2 Bft) O-NO 59 1 min 0,483 mm 2,7 UV-I 629 W/m 13,1 C 19,9 C 17,7 km/h (3 Bft) 100,00 %
11.05.2018 16:02 21,7 C 20,0 C 60 % 1014,7 hPa 0,0 l/m 11,9 km/h (2 Bft) O-NO 57 1 min 0,000 mm 2,6 UV-I 625 W/m 13,6 C 20,0 C 16,1 km/h (3 Bft) 100,00 %
11.05.2018 16:03 21,7 C 20,0 C 59 % 1014,7 hPa 0,0 l/m 10,8 km/h (2 Bft) O 80 1 min 0,000 mm 2,6 UV-I 623 W/m 13,3 C 20,3 C 16,1 km/h (3 Bft) 100,00 %
11.05.2018 16:04 21,8 C 20,0 C 58 % 1014,7 hPa 0,0 l/m 17,9 km/h (3 Bft) NO 52 1 min 0,000 mm 2,6 UV-I 621 W/m 13,2 C 18,9 C 22,5 km/h (4 Bft) 92,31 %
11.05.2018 16:05 21,8 C 20,0 C 58 % 1014,7 hPa 0,0 l/m 18,7 km/h (3 Bft) N-NO 32 1 min 0,000 mm 2,6 UV-I 615 W/m 13,2 C 18,7 C 25,7 km/h (4 Bft) 100,00 %
11.05.2018 16:06 21,8 C 20,0 C 59 % 1014,7 hPa 0,0 l/m 16,4 km/h (3 Bft) O-NO 57 1 min 0,000 mm 2,5 UV-I 612 W/m 13,4 C 19,2 C 19,3 km/h (3 Bft) 100,00 %
11.05.2018 16:07 21,7 C 20,0 C 59 % 1014,7 hPa 0,0 l/m 14,6 km/h (3 Bft) O-NO 59 1 min 0,000 mm 2,5 UV-I 604 W/m 13,3 C 19,4 C 20,9 km/h (4 Bft) 100,00 %
11.05.2018 16:08 21,7 C 20,0 C 59 % 1014,6 hPa 0,0 l/m 13,4 km/h (3 Bft) O-NO 57 1 min 0,000 mm 2,5 UV-I 601 W/m 13,3 C 19,7 C 17,7 km/h (3 Bft) 95,65 %
11.05.2018 16:09 21,6 C 20,0 C 58 % 1014,6 hPa 0,0 l/m 12,5 km/h (3 Bft) NO 34 1 min 0,000 mm 2,5 UV-I 592 W/m 13,0 C 19,7 C 16,1 km/h (3 Bft) 100,00 %
11.05.2018 16:10 21,7 C 20,0 C 60 % 1014,6 hPa 0,0 l/m 14,8 km/h (3 Bft) NO 51 1 min 0,000 mm 2,4 UV-I 596 W/m 13,6 C 19,4 C 20,9 km/h (4 Bft) 100,00 %
11.05.2018 16:11 21,7 C 20,0 C 59 % 1014,5 hPa 0,0 l/m 17,1 km/h (3 Bft) NO 37 1 min 0,000 mm 2,4 UV-I 598 W/m 13,3 C 18,9 C 22,5 km/h (4 Bft) 100,00 %
11.05.2018 16:12 21,7 C 20,0 C 61 % 1014,5 hPa 0,0 l/m 15,4 km/h (3 Bft) NO 40 1 min 0,000 mm 2,4 UV-I 591 W/m 13,8 C 19,2 C 20,9 km/h (4 Bft) 91,30 %
11.05.2018 16:13 21,7 C 20,0 C 60 % 1014,5 hPa 0,0 l/m 13,9 km/h (3 Bft) O-NO 59 1 min 0,000 mm 2,4 UV-I 583 W/m 13,6 C 19,5 C 16,1 km/h (3 Bft) 92,59 %
11.05.2018 16:14 21,7 C 20,0 C 61 % 1014,5 hPa 0,0 l/m 11,4 km/h (2 Bft) NO 56 1 min 0,000 mm 2,3 UV-I 581 W/m 13,8 C 20,1 C 16,1 km/h (3 Bft) 100,00 %
11.05.2018 16:15 21,7 C 20,0 C 58 % 1014,5 hPa 0,0 l/m 16,5 km/h (3 Bft) O-NO 71 1 min 0,000 mm 2,3 UV-I 583 W/m 13,1 C 19,0 C 20,9 km/h (4 Bft) 100,00 %
11.05.2018 16:16 21,7 C 20,0 C 58 % 1014,5 hPa 0,0 l/m 17,1 km/h (3 Bft) O-NO 61 1 min 0,000 mm 2,3 UV-I 584 W/m 13,1 C 18,9 C 22,5 km/h (4 Bft) 100,00 %
11.05.2018 16:17 21,7 C 20,0 C 57 % 1014,5 hPa 0,0 l/m 12,3 km/h (3 Bft) O 87 1 min 0,000 mm 2,3 UV-I 583 W/m 12,8 C 19,9 C 16,1 km/h (3 Bft) 100,00 %
11.05.2018 16:18 21,7 C 20,0 C 57 % 1014,5 hPa 0,0 l/m 16,0 km/h (3 Bft) O-SO 107 1 min 0,000 mm 2,3 UV-I 578 W/m 12,8 C 19,1 C 22,5 km/h (4 Bft) 100,00 %
11.05.2018 16:19 21,7 C 20,0 C 56 % 1014,5 hPa 0,0 l/m 14,5 km/h (3 Bft) O-SO 107 1 min 0,000 mm 2,3 UV-I 576 W/m 12,5 C 19,4 C 20,9 km/h (4 Bft) 100,00 %
11.05.2018 16:20 21,7 C 20,0 C 56 % 1014,5 hPa 0,0 l/m 15,4 km/h (3 Bft) O-NO 69 1 min 0,000 mm 2,2 UV-I 573 W/m 12,5 C 19,2 C 24,1 km/h (4 Bft) 95,65 %
11.05.2018 16:21 21,7 C 20,0 C 57 % 1014,5 hPa 0,0 l/m 15,7 km/h (3 Bft) O-NO 78 1 min 0,000 mm 2,2 UV-I 571 W/m 12,8 C 19,2 C 20,9 km/h (4 Bft) 83,33 %
11.05.2018 16:22 21,7 C 20,0 C 56 % 1014,4 hPa 0,0 l/m 12,1 km/h (2 Bft) O 98 1 min 0,000 mm 2,2 UV-I 576 W/m 12,5 C 20,0 C 19,3 km/h (3 Bft) 100,00 %
11.05.2018 16:23 21,7 C 20,0 C 56 % 1014,4 hPa 0,0 l/m 14,1 km/h (3 Bft) O-SO 105 1 min 0,000 mm 2,2 UV-I 575 W/m 12,5 C 19,5 C 17,7 km/h (3 Bft) 100,00 %
11.05.2018 16:24 21,7 C 20,0 C 57 % 1014,4 hPa 0,0 l/m 13,6 km/h (3 Bft) O-SO 103 1 min 0,000 mm 2,2 UV-I 573 W/m 12,8 C 19,6 C 16,1 km/h (3 Bft) 100,00 %
11.05.2018 16:25 21,8 C 20,0 C 57 % 1014,4 hPa 0,0 l/m 15,0 km/h (3 Bft) O-NO 71 1 min 0,000 mm 2,2 UV-I 572 W/m 12,9 C 19,4 C 17,7 km/h (3 Bft) 100,00 %
11.05.2018 16:26 21,8 C 20,0 C 57 % 1014,4 hPa 0,0 l/m 13,6 km/h (3 Bft) O-SO 105 1 min 0,000 mm 2,2 UV-I 570 W/m 12,9 C 19,7 C 19,3 km/h (3 Bft) 100,00 %
11.05.2018 16:27 21,8 C 20,0 C 56 % 1014,4 hPa 0,0 l/m 13,7 km/h (3 Bft) O 97 1 min 0,000 mm 2,2 UV-I 567 W/m 12,6 C 19,7 C 17,7 km/h (3 Bft) 100,00 %
11.05.2018 16:28 21,8 C 20,0 C 56 % 1014,3 hPa 0,0 l/m 15,7 km/h (3 Bft) O-SO 109 1 min 0,000 mm 2,2 UV-I 564 W/m 12,6 C 19,3 C 17,7 km/h (3 Bft) 100,00 %
11.05.2018 16:29 21,7 C 20,0 C 56 % 1014,4 hPa 0,0 l/m 7,9 km/h (2 Bft) O 88 1 min 0,000 mm 2,1 UV-I 559 W/m 12,5 C 21,2 C 12,9 km/h (3 Bft) 100,00 %
11.05.2018 16:30 21,7 C 20,0 C 56 % 1014,3 hPa 0,0 l/m 8,7 km/h (2 Bft) O 83 1 min 0,000 mm 2,1 UV-I 557 W/m 12,5 C 20,9 C 14,5 km/h (3 Bft) 96,30 %
11.05.2018 16:31 21,8 C 20,0 C 58 % 1014,3 hPa 0,0 l/m 12,8 km/h (3 Bft) O 90 1 min 0,000 mm 2,1 UV-I 556 W/m 13,2 C 19,9 C 19,3 km/h (3 Bft) 100,00 %
11.05.2018 16:32 21,8 C 20,0 C 58 % 1014,3 hPa 0,0 l/m 16,0 km/h (3 Bft) O-NO 62 1 min 0,000 mm 2,1 UV-I 554 W/m 13,2 C 19,2 C 20,9 km/h (4 Bft) 95,83 %
11.05.2018 16:33 21,8 C 20,0 C 57 % 1014,2 hPa 0,0 l/m 16,1 km/h (3 Bft) NO 54 1 min 0,000 mm 2,1 UV-I 550 W/m 12,9 C 19,2 C 20,9 km/h (4 Bft) 100,00 %
11.05.2018 16:34 21,7 C 20,0 C 58 % 1014,2 hPa 0,0 l/m 13,1 km/h (3 Bft) O-NO 59 1 min 0,000 mm 2,0 UV-I 547 W/m 13,1 C 19,7 C 19,3 km/h (3 Bft) 91,67 %
11.05.2018 16:35 21,7 C 20,0 C 58 % 1014,2 hPa 0,0 l/m 14,6 km/h (3 Bft) NO 42 1 min 0,000 mm 2,0 UV-I 548 W/m 13,1 C 19,4 C 19,3 km/h (3 Bft) 95,65 %
11.05.2018 16:36 21,8 C 20,0 C 57 % 1014,2 hPa 0,0 l/m 15,1 km/h (3 Bft) O-NO 63 1 min 0,000 mm 2,0 UV-I 546 W/m 12,9 C 19,4 C 20,9 km/h (4 Bft) 91,67 %
11.05.2018 16:37 21,8 C 20,0 C 56 % 1014,2 hPa 0,0 l/m 17,4 km/h (3 Bft) O 85 1 min 0,000 mm 2,0 UV-I 537 W/m 12,6 C 19,0 C 24,1 km/h (4 Bft) 96,15 %
11.05.2018 16:38 21,8 C 20,0 C 55 % 1014,2 hPa 0,0 l/m 14,1 km/h (3 Bft) O-NO 76 1 min 0,000 mm 2,0 UV-I 530 W/m 12,4 C 19,6 C 19,3 km/h (3 Bft) 91,67 %
11.05.2018 16:39 21,8 C 20,0 C 56 % 1014,2 hPa 0,0 l/m 8,6 km/h (2 Bft) O 99 1 min 0,000 mm 1,9 UV-I 526 W/m 12,6 C 21,0 C 12,9 km/h (3 Bft) 95,83 %
11.05.2018 16:40 21,8 C 20,0 C 58 % 1014,2 hPa 0,0 l/m 7,4 km/h (2 Bft) O-NO 71 1 min 0,000 mm 1,9 UV-I 527 W/m 13,2 C 21,4 C 9,7 km/h (2 Bft) 95,65 %
11.05.2018 16:41 21,9 C 20,0 C 58 % 1014,2 hPa 0,0 l/m 14,3 km/h (3 Bft) O 100 1 min 0,000 mm 1,9 UV-I 531 W/m 13,3 C 19,7 C 19,3 km/h (3 Bft) 95,83 %
11.05.2018 16:42 22,0 C 20,0 C 56 % 1014,2 hPa 0,0 l/m 17,2 km/h (3 Bft) O-NO 63 1 min 0,000 mm 1,9 UV-I 530 W/m 12,8 C 19,3 C 22,5 km/h (4 Bft) 91,30 %
11.05.2018 16:43 22,0 C 20,0 C 55 % 1014,2 hPa 0,0 l/m 18,6 km/h (3 Bft) O-NO 67 1 min 0,000 mm 1,9 UV-I 528 W/m 12,5 C 19,0 C 22,5 km/h (4 Bft) 91,67 %
11.05.2018 16:44 22,0 C 20,0 C 57 % 1014,1 hPa 0,0 l/m 13,3 km/h (3 Bft) O 86 1 min 0,000 mm 1,9 UV-I 525 W/m 13,1 C 20,0 C 17,7 km/h (3 Bft) 100,00 %
11.05.2018 16:45 21,9 C 20,0 C 55 % 1014,2 hPa 0,0 l/m 9,8 km/h (2 Bft) O-NO 67 1 min 0,000 mm 1,9 UV-I 526 W/m 12,4 C 20,8 C 16,1 km/h (3 Bft) 87,50 %
11.05.2018 16:46 21,9 C 20,0 C 54 % 1014,1 hPa 0,0 l/m 13,8 km/h (3 Bft) N-NO 30 1 min 0,000 mm 1,9 UV-I 524 W/m 12,2 C 19,8 C 17,7 km/h (3 Bft) 100,00 %
11.05.2018 16:47 21,9 C 20,0 C 57 % 1014,1 hPa 0,0 l/m 16,9 km/h (3 Bft) NO 34 1 min 0,000 mm 1,8 UV-I 523 W/m 13,0 C 19,2 C 20,9 km/h (4 Bft) 91,67 %
11.05.2018 16:48 22,0 C 20,0 C 60 % 1014,2 hPa 0,0 l/m 20,2 km/h (4 Bft) O-NO 70 1 min 0,000 mm 1,8 UV-I 518 W/m 13,9 C 18,8 C 24,1 km/h (4 Bft) 100,00 %
11.05.2018 16:49 21,9 C 20,0 C 57 % 1014,1 hPa 0,0 l/m 13,5 km/h (3 Bft) O-NO 64 1 min 0,000 mm 1,8 UV-I 515 W/m 13,0 C 19,9 C 19,3 km/h (3 Bft) 91,67 %
11.05.2018 16:50 22,0 C 20,0 C 57 % 1014,2 hPa 0,0 l/m 17,0 km/h (3 Bft) N-NO 26 1 min 0,000 mm 1,8 UV-I 512 W/m 13,1 C 19,3 C 19,3 km/h (3 Bft) 91,67 %
11.05.2018 16:51 22,1 C 20,0 C 58 % 1014,1 hPa 0,0 l/m 17,7 km/h (3 Bft) NO 54 1 min 0,000 mm 1,7 UV-I 505 W/m 13,4 C 19,3 C 20,9 km/h (4 Bft) 95,65 %
11.05.2018 16:52 22,1 C 20,0 C 57 % 1014,2 hPa 0,0 l/m 10,7 km/h (2 Bft) O-SO 115 1 min 0,000 mm 1,7 UV-I 501 W/m 13,2 C 20,8 C 17,7 km/h (3 Bft) 91,67 %
11.05.2018 16:53 22,1 C 20,0 C 55 % 1014,1 hPa 0,0 l/m 3,8 km/h (1 Bft) NO 43 1 min 0,000 mm 1,7 UV-I 497 W/m 12,6 C 22,1 C 8,0 km/h (2 Bft) 100,00 %
11.05.2018 16:54 22,0 C 20,0 C 55 % 1014,1 hPa 0,0 l/m 7,3 km/h (2 Bft) O 83 1 min 0,000 mm 1,7 UV-I 495 W/m 12,5 C 21,7 C 14,5 km/h (3 Bft) 91,67 %
11.05.2018 16:55 22,1 C 20,0 C 55 % 1014,1 hPa 0,0 l/m 7,6 km/h (2 Bft) O-NO 59 1 min 0,000 mm 1,7 UV-I 495 W/m 12,6 C 21,7 C 14,5 km/h (3 Bft) 100,00 %
11.05.2018 16:56 22,2 C 20,0 C 55 % 1014,1 hPa 0,0 l/m 14,4 km/h (3 Bft) O 91 1 min 0,000 mm 1,7 UV-I 497 W/m 12,7 C 20,0 C 17,7 km/h (3 Bft) 88,89 %
11.05.2018 16:57 22,2 C 20,0 C 55 % 1014,0 hPa 0,0 l/m 11,1 km/h (2 Bft) NO 53 1 min 0,000 mm 1,7 UV-I 497 W/m 12,7 C 20,8 C 14,5 km/h (3 Bft) 95,65 %
11.05.2018 16:58 22,2 C 20,0 C 58 % 1014,0 hPa 0,0 l/m 15,0 km/h (3 Bft) NO 56 1 min 0,000 mm 1,6 UV-I 492 W/m 13,5 C 19,9 C 24,1 km/h (4 Bft) 95,83 %
11.05.2018 16:59 22,3 C 20,0 C 58 % 1014,0 hPa 0,0 l/m 12,2 km/h (2 Bft) O 92 1 min 0,000 mm 1,6 UV-I 488 W/m 13,6 C 20,6 C 20,9 km/h (4 Bft) 86,96 %
11.05.2018 17:00 22,3 C 20,0 C 56 % 1013,9 hPa 0,0 l/m 11,4 km/h (2 Bft) O 94 1 min 0,000 mm 1,6 UV-I 485 W/m 13,1 C 20,8 C 14,5 km/h (3 Bft) 100,00 %
11.05.2018 17:01 22,3 C 20,0 C 55 % 1013,9 hPa 0,0 l/m 9,1 km/h (2 Bft) NO 51 1 min 0,406 mm 1,6 UV-I 484 W/m 12,8 C 21,4 C 14,5 km/h (3 Bft) 91,30 %
11.05.2018 17:02 22,4 C 20,0 C 55 % 1014,0 hPa 0,0 l/m 14,8 km/h (3 Bft) O 100 1 min 0,000 mm 1,6 UV-I 482 W/m 12,9 C 20,2 C 17,7 km/h (3 Bft) 100,00 %
11.05.2018 17:03 22,4 C 20,0 C 54 % 1013,9 hPa 0,0 l/m 15,1 km/h (3 Bft) O 98 1 min 0,000 mm 1,6 UV-I 480 W/m 12,6 C 20,1 C 19,3 km/h (3 Bft) 96,15 %
11.05.2018 17:04 22,4 C 20,0 C 54 % 1013,9 hPa 0,0 l/m 15,3 km/h (3 Bft) O 79 1 min 0,000 mm 1,5 UV-I 475 W/m 12,6 C 20,1 C 19,3 km/h (3 Bft) 100,00 %
11.05.2018 17:05 22,4 C 20,0 C 53 % 1013,9 hPa 0,0 l/m 12,9 km/h (3 Bft) O-NO 73 1 min 0,000 mm 1,5 UV-I 470 W/m 12,3 C 20,6 C 16,1 km/h (3 Bft) 95,65 %
11.05.2018 17:06 22,4 C 20,6 C 54 % 1013,9 hPa 0,0 l/m 12,5 km/h (3 Bft) O 88 1 min 0,000 mm 1,5 UV-I 468 W/m 12,6 C 20,7 C 17,7 km/h (3 Bft) 100,00 %
11.05.2018 17:07 22,4 C 20,6 C 56 % 1013,9 hPa 0,0 l/m 12,9 km/h (3 Bft) O 97 1 min 0,000 mm 1,5 UV-I 466 W/m 13,2 C 20,6 C 24,1 km/h (4 Bft) 91,30 %
11.05.2018 17:08 22,4 C 20,0 C 53 % 1013,9 hPa 0,0 l/m 17,7 km/h (3 Bft) O 90 1 min 0,000 mm 1,5 UV-I 462 W/m 12,3 C 19,7 C 20,9 km/h (4 Bft) 93,33 %
11.05.2018 17:09 22,3 C 20,0 C 53 % 1013,9 hPa 0,0 l/m 15,4 km/h (3 Bft) O 91 1 min 0,000 mm 1,5 UV-I 458 W/m 12,2 C 20,0 C 24,1 km/h (4 Bft) 95,83 %
11.05.2018 17:10 22,3 C 20,6 C 53 % 1013,9 hPa 0,0 l/m 18,4 km/h (3 Bft) O 93 1 min 0,000 mm 1,4 UV-I 457 W/m 12,2 C 19,4 C 24,1 km/h (4 Bft) 100,00 %
11.05.2018 17:11 22,2 C 20,6 C 53 % 1013,8 hPa 0,0 l/m 15,5 km/h (3 Bft) O-SO 109 1 min 0,000 mm 1,4 UV-I 454 W/m 12,2 C 19,8 C 17,7 km/h (3 Bft) 91,67 %
11.05.2018 17:12 22,3 C 20,6 C 54 % 1013,8 hPa 0,0 l/m 13,6 km/h (3 Bft) O-NO 69 1 min 0,000 mm 1,4 UV-I 451 W/m 12,5 C 20,3 C 19,3 km/h (3 Bft) 91,30 %
11.05.2018 17:13 22,3 C 20,6 C 54 % 1013,8 hPa 0,0 l/m 9,7 km/h (2 Bft) O 87 1 min 0,000 mm 1,4 UV-I 449 W/m 12,5 C 21,3 C 16,1 km/h (3 Bft) 100,00 %
11.05.2018 17:14 22,3 C 20,6 C 55 % 1013,8 hPa 0,0 l/m 11,7 km/h (2 Bft) NO 53 1 min 0,000 mm 1,4 UV-I 447 W/m 12,8 C 20,7 C 16,1 km/h (3 Bft) 95,65 %
11.05.2018 17:15 22,3 C 20,6 C 56 % 1013,8 hPa 0,0 l/m 13,8 km/h (3 Bft) NO 39 1 min 0,000 mm 1,4 UV-I 443 W/m 13,1 C 20,3 C 19,3 km/h (3 Bft) 100,00 %
11.05.2018 17:16 22,3 C 20,6 C 57 % 1013,8 hPa 0,0 l/m 12,4 km/h (3 Bft) O-NO 66 1 min 0,000 mm 1,3 UV-I 441 W/m 13,4 C 20,6 C 17,7 km/h (3 Bft) 95,65 %
11.05.2018 17:17 22,3 C 20,6 C 55 % 1013,8 hPa 0,0 l/m 13,5 km/h (3 Bft) O 94 1 min 0,000 mm 1,3 UV-I 438 W/m 12,8 C 20,3 C 19,3 km/h (3 Bft) 95,83 %
11.05.2018 17:18 22,3 C 20,6 C 55 % 1013,7 hPa 0,0 l/m 16,2 km/h (3 Bft) O-NO 69 1 min 0,000 mm 1,3 UV-I 436 W/m 12,8 C 19,8 C 22,5 km/h (4 Bft) 96,15 %
11.05.2018 17:19 22,3 C 20,6 C 54 % 1013,8 hPa 0,0 l/m 14,6 km/h (3 Bft) O-NO 61 1 min 0,000 mm 1,3 UV-I 435 W/m 12,5 C 20,1 C 16,1 km/h (3 Bft) 95,83 %
11.05.2018 17:20 22,3 C 20,6 C 54 % 1013,8 hPa 0,0 l/m 16,4 km/h (3 Bft) O-NO 78 1 min 0,000 mm 1,3 UV-I 432 W/m 12,5 C 19,8 C 20,9 km/h (4 Bft) 100,00 %
11.05.2018 17:21 22,3 C 20,6 C 54 % 1013,8 hPa 0,0 l/m 14,3 km/h (3 Bft) O 84 1 min 0,000 mm 1,3 UV-I 429 W/m 12,5 C 20,2 C 17,7 km/h (3 Bft) 96,30 %
11.05.2018 17:22 22,3 C 20,6 C 54 % 1013,8 hPa 0,0 l/m 14,1 km/h (3 Bft) O 86 1 min 0,000 mm 1,3 UV-I 424 W/m 12,5 C 20,2 C 17,7 km/h (3 Bft) 100,00 %
11.05.2018 17:23 22,3 C 20,6 C 54 % 1013,7 hPa 0,0 l/m 17,8 km/h (3 Bft) O-SO 103 1 min 0,000 mm 1,3 UV-I 421 W/m 12,5 C 19,5 C 22,5 km/h (4 Bft) 94,44 %
11.05.2018 17:24 22,3 C 20,6 C 53 % 1013,7 hPa 0,0 l/m 15,6 km/h (3 Bft) O-NO 69 1 min 0,000 mm 1,3 UV-I 419 W/m 12,2 C 19,9 C 19,3 km/h (3 Bft) 100,00 %
11.05.2018 17:25 22,3 C 20,6 C 53 % 1013,7 hPa 0,0 l/m 14,2 km/h (3 Bft) O-NO 64 1 min 0,000 mm 1,2 UV-I 417 W/m 12,2 C 20,2 C 17,7 km/h (3 Bft) 91,67 %
11.05.2018 17:26 22,2 C 20,6 C 53 % 1013,7 hPa 0,0 l/m 14,3 km/h (3 Bft) NO 46 1 min 0,000 mm 1,2 UV-I 416 W/m 12,2 C 20,1 C 19,3 km/h (3 Bft) 100,00 %
11.05.2018 17:27 22,2 C 20,6 C 53 % 1013,7 hPa 0,0 l/m 15,6 km/h (3 Bft) O 81 1 min 0,000 mm 1,2 UV-I 415 W/m 12,2 C 19,8 C 19,3 km/h (3 Bft) 95,83 %
11.05.2018 17:28 22,2 C 20,6 C 53 % 1013,7 hPa 0,0 l/m 15,9 km/h (3 Bft) O-NO 73 1 min 0,000 mm 1,2 UV-I 408 W/m 12,2 C 19,7 C 19,3 km/h (3 Bft) 100,00 %
11.05.2018 17:29 22,1 C 20,6 C 53 % 1013,7 hPa 0,0 l/m 13,6 km/h (3 Bft) O-SO 109 1 min 0,000 mm 1,2 UV-I 405 W/m 12,1 C 20,1 C 17,7 km/h (3 Bft) 95,83 %
11.05.2018 17:30 22,2 C 20,6 C 54 % 1013,7 hPa 0,0 l/m 13,0 km/h (3 Bft) O-NO 77 1 min 0,000 mm 1,2 UV-I 403 W/m 12,4 C 20,3 C 19,3 km/h (3 Bft) 96,15 %
11.05.2018 17:31 22,2 C 20,6 C 54 % 1013,7 hPa 0,0 l/m 11,9 km/h (2 Bft) O 92 1 min 0,000 mm 1,2 UV-I 402 W/m 12,4 C 20,6 C 16,1 km/h (3 Bft) 95,83 %
11.05.2018 17:33 22,2 C 20,6 C 53 % 1013,6 hPa 0,0 l/m 13,4 km/h (3 Bft) O 100 2 min 0,000 mm 1,1 UV-I 398 W/m 12,2 C 20,2 C 19,3 km/h (3 Bft) 98,11 %
11.05.2018 17:34 22,3 C 20,6 C 54 % 1013,6 hPa 0,0 l/m 10,9 km/h (2 Bft) O-SO 102 1 min 0,000 mm 1,1 UV-I 392 W/m 12,5 C 20,9 C 14,5 km/h (3 Bft) 94,44 %
11.05.2018 17:35 22,3 C 20,6 C 54 % 1013,6 hPa 0,0 l/m 11,9 km/h (2 Bft) O-SO 112 1 min 0,000 mm 1,1 UV-I 389 W/m 12,5 C 20,7 C 17,7 km/h (3 Bft) 100,00 %
11.05.2018 17:36 22,3 C 20,6 C 55 % 1013,6 hPa 0,0 l/m 13,4 km/h (3 Bft) O 98 1 min 0,000 mm 1,1 UV-I 385 W/m 12,8 C 20,4 C 17,7 km/h (3 Bft) 95,83 %
11.05.2018 17:37 22,3 C 20,6 C 54 % 1013,6 hPa 0,0 l/m 15,3 km/h (3 Bft) O-NO 74 1 min 0,000 mm 1,1 UV-I 382 W/m 12,5 C 20,0 C 19,3 km/h (3 Bft) 100,00 %
11.05.2018 17:38 22,4 C 20,6 C 54 % 1013,6 hPa 0,0 l/m 14,7 km/h (3 Bft) O-NO 77 1 min 0,000 mm 1,0 UV-I 379 W/m 12,6 C 20,2 C 17,7 km/h (3 Bft) 95,83 %
11.05.2018 17:39 22,4 C 20,6 C 54 % 1013,6 hPa 0,0 l/m 13,2 km/h (3 Bft) O-NO 72 1 min 0,000 mm 1,0 UV-I 376 W/m 12,6 C 20,5 C 17,7 km/h (3 Bft) 100,00 %
11.05.2018 17:40 22,4 C 20,6 C 55 % 1013,6 hPa 0,0 l/m 14,7 km/h (3 Bft) O-NO 65 1 min 0,000 mm 1,0 UV-I 373 W/m 12,9 C 20,2 C 19,3 km/h (3 Bft) 95,83 %
11.05.2018 17:41 22,3 C 20,6 C 54 % 1013,6 hPa 0,0 l/m 11,5 km/h (2 Bft) NO 38 1 min 0,000 mm 1,0 UV-I 370 W/m 12,5 C 20,8 C 16,1 km/h (3 Bft) 100,00 %
11.05.2018 17:42 22,2 C 20,6 C 55 % 1013,6 hPa 0,0 l/m 11,8 km/h (2 Bft) NO 49 1 min 0,000 mm 1,0 UV-I 365 W/m 12,7 C 20,6 C 14,5 km/h (3 Bft) 95,83 %
11.05.2018 17:43 22,2 C 20,6 C 55 % 1013,6 hPa 0,0 l/m 12,6 km/h (3 Bft) O-NO 72 1 min 0,000 mm 1,0 UV-I 363 W/m 12,7 C 20,4 C 14,5 km/h (3 Bft) 100,00 %
11.05.2018 17:44 22,2 C 20,6 C 55 % 1013,6 hPa 0,0 l/m 13,5 km/h (3 Bft) O 84 1 min 0,000 mm 1,0 UV-I 360 W/m 12,7 C 20,2 C 17,7 km/h (3 Bft) 95,83 %
11.05.2018 17:45 22,3 C 20,6 C 54 % 1013,6 hPa 0,0 l/m 14,2 km/h (3 Bft) O 85 1 min 0,000 mm 1,0 UV-I 359 W/m 12,5 C 20,2 C 19,3 km/h (3 Bft) 95,65 %
11.05.2018 17:46 22,2 C 20,6 C 53 % 1013,6 hPa 0,0 l/m 15,6 km/h (3 Bft) O-NO 72 1 min 0,000 mm 0,9 UV-I 357 W/m 12,2 C 19,8 C 19,3 km/h (3 Bft) 100,00 %
11.05.2018 17:47 22,2 C 20,6 C 53 % 1013,6 hPa 0,0 l/m 13,0 km/h (3 Bft) O-SO 105 1 min 0,000 mm 0,9 UV-I 356 W/m 12,2 C 20,3 C 17,7 km/h (3 Bft) 95,83 %
11.05.2018 17:48 22,2 C 20,6 C 53 % 1013,6 hPa 0,0 l/m 15,7 km/h (3 Bft) O-NO 61 1 min 0,000 mm 0,9 UV-I 354 W/m 12,2 C 19,8 C 20,9 km/h (4 Bft) 100,00 %
11.05.2018 17:49 22,2 C 20,6 C 54 % 1013,6 hPa 0,0 l/m 16,7 km/h (3 Bft) O-NO 76 1 min 0,000 mm 0,9 UV-I 353 W/m 12,4 C 19,6 C 20,9 km/h (4 Bft) 91,67 %
11.05.2018 17:50 22,2 C 20,6 C 53 % 1013,6 hPa 0,0 l/m 13,7 km/h (3 Bft) O-NO 78 1 min 0,000 mm 0,9 UV-I 351 W/m 12,2 C 20,2 C 19,3 km/h (3 Bft) 100,00 %
11.05.2018 17:51 22,2 C 20,6 C 53 % 1013,5 hPa 0,0 l/m 15,5 km/h (3 Bft) O-NO 67 1 min 0,000 mm 0,9 UV-I 348 W/m 12,2 C 19,8 C 19,3 km/h (3 Bft) 91,67 %
11.05.2018 17:52 22,2 C 20,6 C 53 % 1013,6 hPa 0,0 l/m 14,6 km/h (3 Bft) NO 53 1 min 0,000 mm 0,9 UV-I 346 W/m 12,2 C 20,0 C 19,3 km/h (3 Bft) 91,30 %
11.05.2018 17:53 22,1 C 20,6 C 53 % 1013,6 hPa 0,0 l/m 11,2 km/h (2 Bft) O 92 1 min 0,000 mm 0,9 UV-I 343 W/m 12,1 C 20,6 C 16,1 km/h (3 Bft) 100,00 %
11.05.2018 17:54 22,1 C 20,6 C 54 % 1013,6 hPa 0,0 l/m 11,3 km/h (2 Bft) NO 51 1 min 0,000 mm 0,9 UV-I 340 W/m 12,3 C 20,6 C 16,1 km/h (3 Bft) 91,30 %
11.05.2018 17:55 22,1 C 20,6 C 56 % 1013,5 hPa 0,0 l/m 16,2 km/h (3 Bft) NO 49 1 min 0,000 mm 0,8 UV-I 337 W/m 12,9 C 19,6 C 19,3 km/h (3 Bft) 100,00 %
11.05.2018 17:56 22,1 C 20,6 C 56 % 1013,5 hPa 0,0 l/m 12,2 km/h (2 Bft) NO 54 1 min 0,000 mm 0,8 UV-I 333 W/m 12,9 C 20,4 C 17,7 km/h (3 Bft) 100,00 %
11.05.2018 17:57 22,2 C 20,6 C 55 % 1013,5 hPa 0,0 l/m 10,8 km/h (2 Bft) O-NO 75 1 min 0,000 mm 0,8 UV-I 330 W/m 12,7 C 20,9 C 14,5 km/h (3 Bft) 93,33 %
11.05.2018 17:58 22,2 C 20,6 C 55 % 1013,6 hPa 0,0 l/m 15,5 km/h (3 Bft) O 94 1 min 0,000 mm 0,8 UV-I 328 W/m 12,7 C 19,8 C 20,9 km/h (4 Bft) 95,65 %
11.05.2018 17:59 22,2 C 20,6 C 53 % 1013,6 hPa 0,0 l/m 19,1 km/h (3 Bft) O 90 1 min 0,000 mm 0,8 UV-I 325 W/m 12,2 C 19,2 C 24,1 km/h (4 Bft) 100,00 %
11.05.2018 18:00 22,2 C 20,6 C 54 % 1013,5 hPa 0,0 l/m 15,8 km/h (3 Bft) O-SO 113 1 min 0,000 mm 0,8 UV-I 322 W/m 12,4 C 19,8 C 20,9 km/h (4 Bft) 97,79 %
11.05.2018 18:02 22,2 C 20,6 C 54 % 1013,6 hPa 0,0 l/m 16,7 km/h (3 Bft) O-SO 119 2 min 0,331 mm 0,8 UV-I 317 W/m 12,4 C 19,6 C 20,9 km/h (4 Bft) 98,61 %
11.05.2018 18:03 22,2 C 20,6 C 54 % 1013,5 hPa 0,0 l/m 13,7 km/h (3 Bft) O 92 1 min 0,000 mm 0,7 UV-I 311 W/m 12,4 C 20,2 C 17,7 km/h (3 Bft) 100,00 %
11.05.2018 18:04 22,2 C 20,6 C 54 % 1013,5 hPa 0,0 l/m 13,1 km/h (3 Bft) O-NO 65 1 min 0,000 mm 0,7 UV-I 309 W/m 12,4 C 20,3 C 16,1 km/h (3 Bft) 100,00 %
11.05.2018 18:05 22,2 C 20,6 C 54 % 1013,6 hPa 0,0 l/m 12,8 km/h (3 Bft) O 80 1 min 0,000 mm 0,7 UV-I 308 W/m 12,4 C 20,4 C 16,1 km/h (3 Bft) 97,14 %
11.05.2018 18:06 22,2 C 20,6 C 54 % 1013,5 hPa 0,0 l/m 16,4 km/h (3 Bft) O-NO 71 1 min 0,000 mm 0,7 UV-I 304 W/m 12,4 C 19,6 C 20,9 km/h (4 Bft) 100,00 %
11.05.2018 18:07 22,2 C 20,6 C 54 % 1013,6 hPa 0,0 l/m 12,0 km/h (2 Bft) O 85 1 min 0,000 mm 0,7 UV-I 301 W/m 12,4 C 20,6 C 19,3 km/h (3 Bft) 100,00 %
11.05.2018 18:08 22,2 C 20,6 C 55 % 1013,5 hPa 0,0 l/m 10,8 km/h (2 Bft) O-NO 57 1 min 0,000 mm 0,7 UV-I 297 W/m 12,7 C 20,9 C 14,5 km/h (3 Bft) 100,00 %
11.05.2018 18:09 22,2 C 20,6 C 55 % 1013,5 hPa 0,0 l/m 11,4 km/h (2 Bft) NO 51 1 min 0,000 mm 0,7 UV-I 294 W/m 12,7 C 20,7 C 17,7 km/h (3 Bft) 100,00 %
11.05.2018 18:10 22,2 C 20,6 C 56 % 1013,5 hPa 0,0 l/m 15,5 km/h (3 Bft) NO 42 1 min 0,000 mm 0,7 UV-I 291 W/m 13,0 C 19,8 C 20,9 km/h (4 Bft) 100,00 %
11.05.2018 18:11 22,2 C 20,6 C 56 % 1013,5 hPa 0,0 l/m 17,1 km/h (3 Bft) O 100 1 min 0,000 mm 0,7 UV-I 288 W/m 13,0 C 19,5 C 22,5 km/h (4 Bft) 100,00 %
11.05.2018 18:12 22,2 C 20,6 C 54 % 1013,6 hPa 0,0 l/m 15,6 km/h (3 Bft) O 84 1 min 0,000 mm 0,7 UV-I 287 W/m 12,4 C 19,8 C 17,7 km/h (3 Bft) 100,00 %
11.05.2018 18:13 22,2 C 20,6 C 54 % 1013,5 hPa 0,0 l/m 16,1 km/h (3 Bft) O-NO 78 1 min 0,000 mm 0,6 UV-I 285 W/m 12,4 C 19,7 C 19,3 km/h (3 Bft) 95,65 %
11.05.2018 18:14 22,2 C 20,6 C 54 % 1013,5 hPa 0,0 l/m 12,1 km/h (2 Bft) O-NO 67 1 min 0,000 mm 0,6 UV-I 283 W/m 12,4 C 20,5 C 16,1 km/h (3 Bft) 100,00 %
11.05.2018 18:15 22,2 C 20,6 C 53 % 1013,5 hPa 0,0 l/m 9,6 km/h (2 Bft) O-SO 111 1 min 0,000 mm 0,6 UV-I 280 W/m 12,2 C 21,2 C 12,9 km/h (3 Bft) 100,00 %
11.05.2018 18:16 22,2 C 20,6 C 53 % 1013,5 hPa 0,0 l/m 14,6 km/h (3 Bft) O 93 1 min 0,000 mm 0,6 UV-I 277 W/m 12,2 C 20,0 C 19,3 km/h (3 Bft) 95,83 %
11.05.2018 18:17 22,2 C 20,6 C 54 % 1013,5 hPa 0,0 l/m 15,4 km/h (3 Bft) O 89 1 min 0,000 mm 0,6 UV-I 276 W/m 12,4 C 19,8 C 24,1 km/h (4 Bft) 96,15 %
11.05.2018 18:18 22,2 C 20,6 C 53 % 1013,5 hPa 0,0 l/m 15,9 km/h (3 Bft) O 93 1 min 0,000 mm 0,6 UV-I 273 W/m 12,2 C 19,7 C 20,9 km/h (4 Bft) 100,00 %
11.05.2018 18:19 22,1 C 20,6 C 53 % 1013,4 hPa 0,0 l/m 13,2 km/h (3 Bft) O 97 1 min 0,000 mm 0,6 UV-I 271 W/m 12,1 C 20,2 C 17,7 km/h (3 Bft) 100,00 %
11.05.2018 18:20 22,2 C 20,6 C 53 % 1013,4 hPa 0,0 l/m 13,2 km/h (3 Bft) O 89 1 min 0,000 mm 0,6 UV-I 269 W/m 12,2 C 20,3 C 17,7 km/h (3 Bft) 100,00 %
11.05.2018 18:21 22,2 C 20,6 C 54 % 1013,4 hPa 0,0 l/m 11,3 km/h (2 Bft) O 82 1 min 0,000 mm 0,6 UV-I 265 W/m 12,4 C 20,7 C 14,5 km/h (3 Bft) 95,83 %
11.05.2018 18:22 22,2 C 20,6 C 54 % 1013,4 hPa 0,0 l/m 10,9 km/h (2 Bft) O-NO 73 1 min 0,000 mm 0,6 UV-I 261 W/m 12,4 C 20,8 C 14,5 km/h (3 Bft) 100,00 %
11.05.2018 18:23 22,2 C 20,6 C 55 % 1013,4 hPa 0,0 l/m 11,7 km/h (2 Bft) O 84 1 min 0,000 mm 0,5 UV-I 259 W/m 12,7 C 20,6 C 17,7 km/h (3 Bft) 100,00 %
11.05.2018 18:24 22,2 C 20,6 C 54 % 1013,4 hPa 0,0 l/m 8,1 km/h (2 Bft) O 93 1 min 0,000 mm 0,5 UV-I 256 W/m 12,4 C 21,6 C 11,3 km/h (2 Bft) 96,15 %
11.05.2018 18:25 22,2 C 20,6 C 55 % 1013,4 hPa 0,0 l/m 11,5 km/h (2 Bft) O 88 1 min 0,000 mm 0,5 UV-I 253 W/m 12,7 C 20,7 C 14,5 km/h (3 Bft) 95,83 %
11.05.2018 18:26 22,3 C 20,6 C 54 % 1013,4 hPa 0,0 l/m 9,3 km/h (2 Bft) NO 56 1 min 0,000 mm 0,5 UV-I 250 W/m 12,5 C 21,4 C 16,1 km/h (3 Bft) 100,00 %
11.05.2018 18:27 22,2 C 20,6 C 55 % 1013,4 hPa 0,0 l/m 14,1 km/h (3 Bft) O 84 1 min 0,000 mm 0,5 UV-I 248 W/m 12,7 C 20,1 C 17,7 km/h (3 Bft) 95,83 %
11.05.2018 18:28 22,2 C 20,6 C 54 % 1013,4 hPa 0,0 l/m 12,3 km/h (3 Bft) O-NO 63 1 min 0,000 mm 0,5 UV-I 245 W/m 12,4 C 20,5 C 16,1 km/h (3 Bft) 96,15 %
11.05.2018 18:29 22,2 C 20,6 C 54 % 1013,4 hPa 0,0 l/m 8,8 km/h (2 Bft) O-NO 74 1 min 0,000 mm 0,5 UV-I 243 W/m 12,4 C 21,4 C 14,5 km/h (3 Bft) 96,30 %
11.05.2018 18:30 22,2 C 20,6 C 54 % 1013,4 hPa 0,0 l/m 14,8 km/h (3 Bft) O 98 1 min 0,000 mm 0,5 UV-I 240 W/m 12,4 C 20,0 C 19,3 km/h (3 Bft) 100,00 %
11.05.2018 18:31 22,2 C 20,6 C 53 % 1013,4 hPa 0,0 l/m 13,6 km/h (3 Bft) O 96 1 min 0,000 mm 0,5 UV-I 237 W/m 12,2 C 20,2 C 17,7 km/h (3 Bft) 95,83 %
11.05.2018 18:32 22,2 C 20,6 C 54 % 1013,4 hPa 0,0 l/m 13,9 km/h (3 Bft) O-SO 107 1 min 0,000 mm 0,5 UV-I 236 W/m 12,4 C 20,1 C 16,1 km/h (3 Bft) 95,65 %
11.05.2018 18:33 22,2 C 20,6 C 53 % 1013,4 hPa 0,0 l/m 15,8 km/h (3 Bft) O 88 1 min 0,000 mm 0,5 UV-I 233 W/m 12,2 C 19,8 C 17,7 km/h (3 Bft) 100,00 %
11.05.2018 18:34 22,1 C 20,6 C 53 % 1013,4 hPa 0,0 l/m 15,5 km/h (3 Bft) O 98 1 min 0,000 mm 0,4 UV-I 231 W/m 12,1 C 19,7 C 20,9 km/h (4 Bft) 95,65 %
11.05.2018 18:35 22,1 C 20,6 C 53 % 1013,4 hPa 0,0 l/m 14,5 km/h (3 Bft) O 84 1 min 0,000 mm 0,0 UV-I 228 W/m 12,1 C 19,9 C 19,3 km/h (3 Bft) 97,81 %
11.05.2018 18:36 22,1 C 20,6 C 54 % 1013,4 hPa 0,0 l/m 12,8 km/h (3 Bft) O 84 1 min 0,000 mm 0,0 UV-I 226 W/m 12,3 C 20,3 C 16,1 km/h (3 Bft) 97,56 %
11.05.2018 18:38 22,1 C 20,6 C 52 % 1013,4 hPa 0,0 l/m 14,1 km/h (3 Bft) O 89 2 min 0,000 mm 0,0 UV-I 221 W/m 11,8 C 20,0 C 19,3 km/h (3 Bft) 97,87 %
11.05.2018 18:39 22,1 C 20,6 C 53 % 1013,4 hPa 0,0 l/m 9,6 km/h (2 Bft) O-SO 119 1 min 0,000 mm 0,0 UV-I 217 W/m 12,1 C 21,1 C 12,9 km/h (3 Bft) 100,00 %
11.05.2018 18:40 22,1 C 20,6 C 53 % 1013,4 hPa 0,0 l/m 11,1 km/h (2 Bft) O-SO 107 1 min 0,000 mm 0,0 UV-I 215 W/m 12,1 C 20,7 C 14,5 km/h (3 Bft) 95,65 %
11.05.2018 18:41 22,2 C 20,6 C 53 % 1013,4 hPa 0,0 l/m 14,7 km/h (3 Bft) O 100 1 min 0,000 mm 0,0 UV-I 212 W/m 12,2 C 20,0 C 19,3 km/h (3 Bft) 100,00 %
11.05.2018 18:42 22,2 C 20,6 C 53 % 1013,3 hPa 0,0 l/m 13,7 km/h (3 Bft) O 92 1 min 0,000 mm 0,0 UV-I 210 W/m 12,2 C 20,2 C 16,1 km/h (3 Bft) 95,65 %
11.05.2018 18:43 22,2 C 20,6 C 53 % 1013,4 hPa 0,0 l/m 12,7 km/h (3 Bft) O-NO 66 1 min 0,000 mm 0,0 UV-I 207 W/m 12,2 C 20,4 C 17,7 km/h (3 Bft) 96,30 %
11.05.2018 18:44 22,1 C 20,6 C 53 % 1013,3 hPa 0,0 l/m 14,8 km/h (3 Bft) O-NO 73 1 min 0,000 mm 0,0 UV-I 205 W/m 12,1 C 19,8 C 20,9 km/h (4 Bft) 100,00 %
11.05.2018 18:45 22,1 C 20,6 C 53 % 1013,4 hPa 0,0 l/m 16,0 km/h (3 Bft) O-NO 66 1 min 0,000 mm 0,0 UV-I 201 W/m 12,1 C 19,6 C 22,5 km/h (4 Bft) 95,83 %
11.05.2018 18:46 22,1 C 20,6 C 53 % 1013,4 hPa 0,0 l/m 17,1 km/h (3 Bft) O 94 1 min 0,000 mm 0,0 UV-I 199 W/m 12,1 C 19,4 C 19,3 km/h (3 Bft) 100,00 %
11.05.2018 18:47 22,1 C 20,6 C 53 % 1013,4 hPa 0,0 l/m 15,8 km/h (3 Bft) O-NO 76 1 min 0,000 mm 0,0 UV-I 197 W/m 12,1 C 19,6 C 17,7 km/h (3 Bft) 95,65 %
11.05.2018 18:48 22,1 C 20,6 C 52 % 1013,4 hPa 0,0 l/m 19,1 km/h (3 Bft) O-SO 102 1 min 0,000 mm 0,0 UV-I 194 W/m 11,8 C 19,1 C 24,1 km/h (4 Bft) 100,00 %
11.05.2018 18:49 22,0 C 20,6 C 53 % 1013,4 hPa 0,0 l/m 13,8 km/h (3 Bft) O-NO 69 1 min 0,000 mm 0,0 UV-I 192 W/m 12,0 C 19,9 C 19,3 km/h (3 Bft) 96,15 %
11.05.2018 18:50 22,0 C 20,6 C 52 % 1013,4 hPa 0,0 l/m 15,5 km/h (3 Bft) O-SO 102 1 min 0,000 mm 0,0 UV-I 190 W/m 11,7 C 19,6 C 19,3 km/h (3 Bft) 95,83 %
11.05.2018 18:51 21,9 C 20,0 C 52 % 1013,4 hPa 0,0 l/m 19,6 km/h (3 Bft) O-SO 115 1 min 0,000 mm 0,0 UV-I 187 W/m 11,6 C 18,7 C 24,1 km/h (4 Bft) 100,00 %
11.05.2018 18:52 21,9 C 20,0 C 52 % 1013,5 hPa 0,0 l/m 16,8 km/h (3 Bft) O 84 1 min 0,000 mm 0,0 UV-I 184 W/m 11,6 C 19,2 C 22,5 km/h (4 Bft) 91,67 %
11.05.2018 18:53 21,9 C 20,0 C 52 % 1013,4 hPa 0,0 l/m 13,6 km/h (3 Bft) O 82 1 min 0,000 mm 0,0 UV-I 182 W/m 11,6 C 19,8 C 19,3 km/h (3 Bft) 100,00 %
11.05.2018 18:54 21,9 C 20,0 C 53 % 1013,5 hPa 0,0 l/m 15,5 km/h (3 Bft) O 82 1 min 0,000 mm 0,0 UV-I 179 W/m 11,9 C 19,5 C 19,3 km/h (3 Bft) 95,83 %
11.05.2018 18:55 21,8 C 20,0 C 53 % 1013,5 hPa 0,0 l/m 13,3 km/h (3 Bft) O 88 1 min 0,000 mm 0,0 UV-I 176 W/m 11,8 C 19,8 C 16,1 km/h (3 Bft) 100,00 %
11.05.2018 18:56 21,8 C 20,0 C 53 % 1013,5 hPa 0,0 l/m 13,5 km/h (3 Bft) O 79 1 min 0,000 mm 0,0 UV-I 174 W/m 11,8 C 19,8 C 19,3 km/h (3 Bft) 100,00 %
11.05.2018 18:57 21,8 C 20,0 C 53 % 1013,5 hPa 0,0 l/m 10,7 km/h (2 Bft) O 99 1 min 0,000 mm 0,0 UV-I 172 W/m 11,8 C 20,4 C 16,1 km/h (3 Bft) 95,65 %
11.05.2018 18:58 21,8 C 20,0 C 53 % 1013,5 hPa 0,0 l/m 13,5 km/h (3 Bft) O 88 1 min 0,000 mm 0,0 UV-I 169 W/m 11,8 C 19,8 C 17,7 km/h (3 Bft) 100,00 %
11.05.2018 18:59 21,8 C 20,0 C 53 % 1013,5 hPa 0,0 l/m 14,9 km/h (3 Bft) O 82 1 min 0,000 mm 0,0 UV-I 166 W/m 11,8 C 19,5 C 20,9 km/h (4 Bft) 100,00 %
11.05.2018 19:00 21,8 C 20,0 C 52 % 1013,5 hPa 0,0 l/m 17,2 km/h (3 Bft) O-NO 65 1 min 0,000 mm 0,0 UV-I 163 W/m 11,5 C 19,0 C 20,9 km/h (4 Bft) 95,83 %
11.05.2018 19:01 21,8 C 20,0 C 52 % 1013,5 hPa 0,0 l/m 16,4 km/h (3 Bft) O-NO 60 1 min 0,228 mm 0,0 UV-I 162 W/m 11,5 C 19,2 C 22,5 km/h (4 Bft) 100,00 %
11.05.2018 19:02 21,8 C 20,0 C 52 % 1013,5 hPa 0,0 l/m 15,0 km/h (3 Bft) O-NO 74 1 min 0,000 mm 0,0 UV-I 160 W/m 11,5 C 19,4 C 22,5 km/h (4 Bft) 100,00 %
11.05.2018 19:03 21,8 C 20,0 C 53 % 1013,5 hPa 0,0 l/m 15,9 km/h (3 Bft) O 89 1 min 0,000 mm 0,0 UV-I 157 W/m 11,8 C 19,3 C 22,5 km/h (4 Bft) 100,00 %
11.05.2018 19:04 21,7 C 20,0 C 53 % 1013,5 hPa 0,0 l/m 14,7 km/h (3 Bft) O 84 1 min 0,000 mm 0,0 UV-I 154 W/m 11,7 C 19,4 C 17,7 km/h (3 Bft) 95,65 %
11.05.2018 19:05 21,8 C 20,0 C 53 % 1013,5 hPa 0,0 l/m 13,9 km/h (3 Bft) O 82 1 min 0,000 mm 0,0 UV-I 152 W/m 11,8 C 19,7 C 17,7 km/h (3 Bft) 91,67 %
11.05.2018 19:06 21,7 C 20,0 C 53 % 1013,5 hPa 0,0 l/m 12,5 km/h (3 Bft) O 101 1 min 0,000 mm 0,0 UV-I 149 W/m 11,7 C 19,9 C 16,1 km/h (3 Bft) 100,00 %
11.05.2018 19:07 21,7 C 20,0 C 53 % 1013,5 hPa 0,0 l/m 20,0 km/h (4 Bft) O 101 1 min 0,000 mm 0,0 UV-I 146 W/m 11,7 C 18,4 C 24,1 km/h (4 Bft) 100,00 %
11.05.2018 19:08 21,7 C 20,0 C 52 % 1013,5 hPa 0,0 l/m 15,8 km/h (3 Bft) O 98 1 min 0,000 mm 0,0 UV-I 144 W/m 11,4 C 19,1 C 19,3 km/h (3 Bft) 100,00 %
11.05.2018 19:09 21,7 C 20,0 C 53 % 1013,5 hPa 0,0 l/m 15,4 km/h (3 Bft) O 81 1 min 0,000 mm 0,0 UV-I 142 W/m 11,7 C 19,2 C 20,9 km/h (4 Bft) 100,00 %
11.05.2018 19:10 21,7 C 20,0 C 52 % 1013,5 hPa 0,0 l/m 14,5 km/h (3 Bft) O-SO 108 1 min 0,000 mm 0,0 UV-I 140 W/m 11,4 C 19,4 C 17,7 km/h (3 Bft) 100,00 %
11.05.2018 19:11 21,7 C 20,0 C 53 % 1013,5 hPa 0,0 l/m 10,5 km/h (2 Bft) O-NO 71 1 min 0,000 mm 0,0 UV-I 138 W/m 11,7 C 20,4 C 16,1 km/h (3 Bft) 100,00 %
11.05.2018 19:12 21,7 C 20,0 C 53 % 1013,5 hPa 0,0 l/m 12,0 km/h (2 Bft) O 96 1 min 0,000 mm 0,0 UV-I 135 W/m 11,7 C 20,0 C 14,5 km/h (3 Bft) 100,00 %
11.05.2018 19:13 21,7 C 20,0 C 53 % 1013,6 hPa 0,0 l/m 11,2 km/h (2 Bft) O-SO 109 1 min 0,000 mm 0,0 UV-I 134 W/m 11,7 C 20,2 C 16,1 km/h (3 Bft) 100,00 %
11.05.2018 19:14 21,7 C 20,0 C 54 % 1013,5 hPa 0,0 l/m 12,1 km/h (2 Bft) O 80 1 min 0,000 mm 0,0 UV-I 131 W/m 12,0 C 20,0 C 16,1 km/h (3 Bft) 100,00 %
11.05.2018 19:15 21,6 C 20,0 C 53 % 1013,6 hPa 0,0 l/m 13,1 km/h (3 Bft) O 94 1 min 0,000 mm 0,0 UV-I 129 W/m 11,6 C 19,6 C 16,1 km/h (3 Bft) 100,00 %
11.05.2018 19:16 21,6 C 20,0 C 53 % 1013,6 hPa 0,0 l/m 14,9 km/h (3 Bft) O 80 1 min 0,000 mm 0,0 UV-I 128 W/m 11,6 C 19,2 C 24,1 km/h (4 Bft) 100,00 %
11.05.2018 19:17 21,6 C 20,0 C 53 % 1013,6 hPa 0,0 l/m 14,9 km/h (3 Bft) O 85 1 min 0,000 mm 0,0 UV-I 127 W/m 11,6 C 19,2 C 17,7 km/h (3 Bft) 100,00 %
11.05.2018 19:18 21,6 C 20,0 C 54 % 1013,6 hPa 0,0 l/m 11,8 km/h (2 Bft) O-NO 75 1 min 0,000 mm 0,0 UV-I 125 W/m 11,9 C 19,9 C 16,1 km/h (3 Bft) 100,00 %
11.05.2018 19:19 21,6 C 20,6 C 54 % 1013,6 hPa 0,0 l/m 12,6 km/h (3 Bft) O-NO 68 1 min 0,000 mm 0,0 UV-I 123 W/m 11,9 C 19,7 C 14,5 km/h (3 Bft) 100,00 %
11.05.2018 19:20 21,5 C 20,0 C 54 % 1013,6 hPa 0,0 l/m 9,9 km/h (2 Bft) O 79 1 min 0,000 mm 0,0 UV-I 121 W/m 11,8 C 20,3 C 14,5 km/h (3 Bft) 100,00 %
11.05.2018 19:21 21,4 C 20,0 C 55 % 1013,7 hPa 0,0 l/m 9,6 km/h (2 Bft) O 88 1 min 0,000 mm 0,0 UV-I 121 W/m 12,0 C 20,3 C 14,5 km/h (3 Bft) 96,15 %
11.05.2018 19:22 21,4 C 20,0 C 55 % 1013,7 hPa 0,0 l/m 10,3 km/h (2 Bft) O 96 1 min 0,000 mm 0,0 UV-I 119 W/m 12,0 C 20,1 C 14,5 km/h (3 Bft) 100,00 %
11.05.2018 19:23 21,4 C 20,0 C 55 % 1013,7 hPa 0,0 l/m 8,8 km/h (2 Bft) O-SO 119 1 min 0,000 mm 0,0 UV-I 118 W/m 12,0 C 20,6 C 11,3 km/h (2 Bft) 100,00 %
11.05.2018 19:24 21,4 C 20,0 C 55 % 1013,7 hPa 0,0 l/m 11,9 km/h (2 Bft) O-SO 104 1 min 0,000 mm 0,0 UV-I 114 W/m 12,0 C 19,7 C 16,1 km/h (3 Bft) 100,00 %
11.05.2018 19:25 21,4 C 20,0 C 54 % 1013,7 hPa 0,0 l/m 8,6 km/h (2 Bft) O 98 1 min 0,000 mm 0,0 UV-I 114 W/m 11,7 C 20,6 C 12,9 km/h (3 Bft) 95,65 %
11.05.2018 19:26 21,3 C 20,0 C 54 % 1013,7 hPa 0,0 l/m 14,7 km/h (3 Bft) O 84 1 min 0,000 mm 0,0 UV-I 112 W/m 11,6 C 18,9 C 19,3 km/h (3 Bft) 100,00 %
11.05.2018 19:28 21,3 C 20,0 C 55 % 1013,7 hPa 0,0 l/m 10,9 km/h (2 Bft) O 93 2 min 0,000 mm 0,0 UV-I 109 W/m 11,9 C 19,8 C 17,7 km/h (3 Bft) 100,00 %
11.05.2018 19:29 21,3 C 20,0 C 55 % 1013,7 hPa 0,0 l/m 8,7 km/h (2 Bft) O 94 1 min 0,000 mm 0,0 UV-I 107 W/m 11,9 C 20,5 C 11,3 km/h (2 Bft) 95,65 %
11.05.2018 19:30 21,3 C 20,0 C 55 % 1013,7 hPa 0,0 l/m 9,1 km/h (2 Bft) NO 51 1 min 0,000 mm 0,0 UV-I 105 W/m 11,9 C 20,4 C 12,9 km/h (3 Bft) 95,83 %
11.05.2018 19:31 21,3 C 20,0 C 54 % 1013,7 hPa 0,0 l/m 10,1 km/h (2 Bft) O 85 1 min 0,000 mm 0,0 UV-I 105 W/m 11,6 C 20,0 C 14,5 km/h (3 Bft) 100,00 %
11.05.2018 19:32 21,3 C 20,0 C 54 % 1013,7 hPa 0,0 l/m 12,4 km/h (3 Bft) O 98 1 min 0,000 mm 0,0 UV-I 105 W/m 11,6 C 19,4 C 19,3 km/h (3 Bft) 100,00 %
11.05.2018 19:33 21,2 C 20,0 C 54 % 1013,7 hPa 0,0 l/m 13,7 km/h (3 Bft) O 95 1 min 0,000 mm 0,0 UV-I 103 W/m 11,5 C 19,0 C 19,3 km/h (3 Bft) 95,83 %
11.05.2018 19:34 21,2 C 20,0 C 54 % 1013,7 hPa 0,0 l/m 12,0 km/h (2 Bft) O 89 1 min 0,000 mm 0,0 UV-I 101 W/m 11,5 C 19,4 C 14,5 km/h (3 Bft) 100,00 %
11.05.2018 19:35 21,2 C 20,0 C 54 % 1013,7 hPa 0,0 l/m 11,2 km/h (2 Bft) SO 126 1 min 0,000 mm 0,0 UV-I 100 W/m 11,5 C 19,6 C 16,1 km/h (3 Bft) 100,00 %
11.05.2018 19:36 21,2 C 20,0 C 55 % 1013,7 hPa 0,0 l/m 11,8 km/h (2 Bft) O-SO 106 1 min 0,000 mm 0,0 UV-I 98 W/m 11,8 C 19,5 C 16,1 km/h (3 Bft) 95,83 %
11.05.2018 19:37 21,2 C 20,0 C 54 % 1013,7 hPa 0,0 l/m 12,1 km/h (2 Bft) O-NO 71 1 min 0,000 mm 0,0 UV-I 95 W/m 11,5 C 19,4 C 16,1 km/h (3 Bft) 100,00 %
11.05.2018 19:38 21,1 C 20,0 C 54 % 1013,7 hPa 0,0 l/m 8,7 km/h (2 Bft) O 93 1 min 0,000 mm 0,0 UV-I 92 W/m 11,4 C 20,3 C 11,3 km/h (2 Bft) 100,00 %
11.05.2018 19:39 21,1 C 20,0 C 55 % 1013,7 hPa 0,0 l/m 10,7 km/h (2 Bft) O 79 1 min 0,000 mm 0,0 UV-I 90 W/m 11,7 C 19,7 C 14,5 km/h (3 Bft) 96,15 %
11.05.2018 19:40 21,1 C 20,0 C 55 % 1013,7 hPa 0,0 l/m 7,2 km/h (2 Bft) O 90 1 min 0,000 mm 0,0 UV-I 89 W/m 11,7 C 20,8 C 11,3 km/h (2 Bft) 100,00 %
11.05.2018 19:41 21,0 C 20,0 C 55 % 1013,7 hPa 0,0 l/m 6,8 km/h (2 Bft) O 84 1 min 0,000 mm 0,0 UV-I 85 W/m 11,6 C 20,9 C 11,3 km/h (2 Bft) 100,00 %
11.05.2018 19:42 21,0 C 20,0 C 55 % 1013,7 hPa 0,0 l/m 9,9 km/h (2 Bft) O 98 1 min 0,000 mm 0,0 UV-I 83 W/m 11,6 C 19,8 C 12,9 km/h (3 Bft) 100,00 %
11.05.2018 19:43 21,0 C 20,0 C 55 % 1013,7 hPa 0,0 l/m 11,0 km/h (2 Bft) O 90 1 min 0,000 mm 0,0 UV-I 80 W/m 11,6 C 19,5 C 16,1 km/h (3 Bft) 100,00 %
11.05.2018 19:44 20,9 C 20,0 C 55 % 1013,7 hPa 0,0 l/m 12,9 km/h (3 Bft) O 88 1 min 0,000 mm 0,0 UV-I 79 W/m 11,5 C 18,8 C 16,1 km/h (3 Bft) 100,00 %
11.05.2018 19:45 20,9 C 20,0 C 55 % 1013,7 hPa 0,0 l/m 13,5 km/h (3 Bft) O-NO 74 1 min 0,000 mm 0,0 UV-I 78 W/m 11,5 C 18,7 C 17,7 km/h (3 Bft) 100,00 %
11.05.2018 19:46 20,9 C 20,0 C 55 % 1013,8 hPa 0,0 l/m 11,9 km/h (2 Bft) O 91 1 min 0,000 mm 0,0 UV-I 76 W/m 11,5 C 19,1 C 16,1 km/h (3 Bft) 100,00 %
11.05.2018 19:47 20,9 C 20,0 C 55 % 1013,7 hPa 0,0 l/m 12,4 km/h (3 Bft) O 79 1 min 0,000 mm 0,0 UV-I 76 W/m 11,5 C 19,0 C 20,9 km/h (4 Bft) 100,00 %
11.05.2018 19:48 20,9 C 20,0 C 55 % 1013,7 hPa 0,0 l/m 13,2 km/h (3 Bft) O 93 1 min 0,000 mm 0,0 UV-I 74 W/m 11,5 C 18,8 C 17,7 km/h (3 Bft) 100,00 %
11.05.2018 19:49 20,9 C 20,0 C 55 % 1013,8 hPa 0,0 l/m 14,6 km/h (3 Bft) O 95 1 min 0,000 mm 0,0 UV-I 72 W/m 11,5 C 18,4 C 20,9 km/h (4 Bft) 100,00 %
11.05.2018 19:50 20,9 C 20,0 C 55 % 1013,8 hPa 0,0 l/m 14,9 km/h (3 Bft) O-SO 109 1 min 0,000 mm 0,0 UV-I 71 W/m 11,5 C 18,4 C 19,3 km/h (3 Bft) 100,00 %
11.05.2018 19:51 20,9 C 20,0 C 55 % 1013,8 hPa 0,0 l/m 16,1 km/h (3 Bft) O 96 1 min 0,000 mm 0,0 UV-I 70 W/m 11,5 C 18,1 C 24,1 km/h (4 Bft) 100,00 %
11.05.2018 19:52 20,9 C 20,0 C 55 % 1013,8 hPa 0,0 l/m 12,7 km/h (3 Bft) O-SO 104 1 min 0,000 mm 0,0 UV-I 69 W/m 11,5 C 18,9 C 17,7 km/h (3 Bft) 100,00 %
11.05.2018 19:53 20,8 C 20,0 C 55 % 1013,8 hPa 0,0 l/m 13,7 km/h (3 Bft) O 95 1 min 0,000 mm 0,0 UV-I 67 W/m 11,4 C 18,5 C 19,3 km/h (3 Bft) 95,83 %
11.05.2018 19:54 20,8 C 20,0 C 55 % 1013,8 hPa 0,0 l/m 14,4 km/h (3 Bft) O 101 1 min 0,000 mm 0,0 UV-I 65 W/m 11,4 C 18,4 C 20,9 km/h (4 Bft) 100,00 %
11.05.2018 19:55 20,8 C 20,0 C 55 % 1013,8 hPa 0,0 l/m 13,7 km/h (3 Bft) O 90 1 min 0,000 mm 0,0 UV-I 63 W/m 11,4 C 18,5 C 17,7 km/h (3 Bft) 100,00 %
11.05.2018 19:56 20,8 C 20,0 C 55 % 1013,8 hPa 0,0 l/m 12,0 km/h (2 Bft) O 79 1 min 0,000 mm 0,0 UV-I 62 W/m 11,4 C 19,0 C 17,7 km/h (3 Bft) 95,65 %
11.05.2018 19:57 20,7 C 20,0 C 56 % 1013,8 hPa 0,0 l/m 12,3 km/h (3 Bft) O 85 1 min 0,000 mm 0,0 UV-I 60 W/m 11,6 C 18,8 C 17,7 km/h (3 Bft) 100,00 %
11.05.2018 19:58 20,7 C 20,0 C 55 % 1013,9 hPa 0,0 l/m 14,3 km/h (3 Bft) O-SO 103 1 min 0,000 mm 0,0 UV-I 57 W/m 11,3 C 18,3 C 17,7 km/h (3 Bft) 95,65 %
11.05.2018 19:59 20,6 C 20,0 C 56 % 1013,8 hPa 0,0 l/m 12,2 km/h (2 Bft) O-SO 110 1 min 0,000 mm 0,0 UV-I 54 W/m 11,5 C 18,7 C 17,7 km/h (3 Bft) 100,00 %
11.05.2018 20:00 20,6 C 20,0 C 56 % 1013,8 hPa 0,0 l/m 13,8 km/h (3 Bft) O 98 1 min 0,000 mm 0,0 UV-I 54 W/m 11,5 C 18,3 C 17,7 km/h (3 Bft) 95,65 %
11.05.2018 20:01 20,6 C 20,0 C 56 % 1013,9 hPa 0,0 l/m 12,0 km/h (2 Bft) O 100 1 min 0,153 mm 0,0 UV-I 52 W/m 11,5 C 18,7 C 16,1 km/h (3 Bft) 100,00 %
11.05.2018 20:02 20,6 C 20,0 C 56 % 1013,8 hPa 0,0 l/m 11,2 km/h (2 Bft) O 98 1 min 0,000 mm 0,0 UV-I 50 W/m 11,5 C 18,9 C 16,1 km/h (3 Bft) 100,00 %
11.05.2018 20:03 20,6 C 20,0 C 55 % 1013,8 hPa 0,0 l/m 15,0 km/h (3 Bft) O-SO 108 1 min 0,000 mm 0,0 UV-I 47 W/m 11,2 C 18,0 C 25,7 km/h (4 Bft) 100,00 %
11.05.2018 20:04 20,6 C 20,0 C 55 % 1013,8 hPa 0,0 l/m 13,9 km/h (3 Bft) O 99 1 min 0,000 mm 0,0 UV-I 41 W/m 11,2 C 18,2 C 19,3 km/h (3 Bft) 100,00 %
11.05.2018 20:05 20,6 C 20,0 C 55 % 1013,8 hPa 0,0 l/m 10,2 km/h (2 Bft) O-SO 111 1 min 0,000 mm 0,0 UV-I 34 W/m 11,2 C 19,2 C 16,1 km/h (3 Bft) 95,65 %
11.05.2018 20:06 20,6 C 20,0 C 56 % 1013,8 hPa 0,0 l/m 10,5 km/h (2 Bft) O 90 1 min 0,000 mm 0,0 UV-I 30 W/m 11,5 C 19,1 C 14,5 km/h (3 Bft) 100,00 %
11.05.2018 20:08 20,4 C 20,0 C 56 % 1013,8 hPa 0,0 l/m 12,7 km/h (3 Bft) O-NO 66 2 min 0,000 mm 0,0 UV-I 27 W/m 11,3 C 18,3 C 20,9 km/h (4 Bft) 100,00 %
11.05.2018 20:09 20,4 C 20,0 C 57 % 1013,8 hPa 0,0 l/m 10,4 km/h (2 Bft) O-NO 69 1 min 0,000 mm 0,0 UV-I 26 W/m 11,6 C 19,0 C 16,1 km/h (3 Bft) 95,65 %
11.05.2018 20:10 20,3 C 20,0 C 57 % 1013,8 hPa 0,0 l/m 11,1 km/h (2 Bft) O 88 1 min 0,000 mm 0,0 UV-I 25 W/m 11,5 C 18,6 C 12,9 km/h (3 Bft) 100,00 %
11.05.2018 20:11 20,2 C 20,0 C 57 % 1013,8 hPa 0,0 l/m 11,1 km/h (2 Bft) O 94 1 min 0,000 mm 0,0 UV-I 23 W/m 11,4 C 18,5 C 16,1 km/h (3 Bft) 100,00 %
11.05.2018 20:12 20,2 C 20,0 C 57 % 1013,9 hPa 0,0 l/m 12,7 km/h (3 Bft) O-NO 67 1 min 0,000 mm 0,0 UV-I 23 W/m 11,4 C 18,1 C 16,1 km/h (3 Bft) 100,00 %
11.05.2018 20:13 20,1 C 20,0 C 57 % 1013,8 hPa 0,0 l/m 9,8 km/h (2 Bft) O-SO 105 1 min 0,000 mm 0,0 UV-I 21 W/m 11,3 C 18,8 C 14,5 km/h (3 Bft) 100,00 %
11.05.2018 20:14 20,1 C 20,0 C 57 % 1013,8 hPa 0,0 l/m 10,6 km/h (2 Bft) O-SO 106 1 min 0,000 mm 0,0 UV-I 21 W/m 11,3 C 18,6 C 14,5 km/h (3 Bft) 100,00 %
11.05.2018 20:15 20,1 C 20,0 C 57 % 1013,9 hPa 0,0 l/m 10,7 km/h (2 Bft) O-SO 103 1 min 0,000 mm 0,0 UV-I 21 W/m 11,3 C 18,5 C 14,5 km/h (3 Bft) 95,65 %
11.05.2018 20:16 20,1 C 20,0 C 57 % 1013,8 hPa 0,0 l/m 9,7 km/h (2 Bft) O 92 1 min 0,000 mm 0,0 UV-I 19 W/m 11,3 C 18,8 C 14,5 km/h (3 Bft) 100,00 %
11.05.2018 20:17 20,1 C 20,0 C 57 % 1013,8 hPa 0,0 l/m 12,6 km/h (3 Bft) O 101 1 min 0,000 mm 0,0 UV-I 19 W/m 11,3 C 18,0 C 16,1 km/h (3 Bft) 100,00 %
11.05.2018 20:18 20,1 C 20,0 C 57 % 1013,8 hPa 0,0 l/m 7,5 km/h (2 Bft) O 97 1 min 0,000 mm 0,0 UV-I 18 W/m 11,3 C 19,7 C 11,3 km/h (2 Bft) 100,00 %
11.05.2018 20:19 20,0 C 20,0 C 57 % 1013,9 hPa 0,0 l/m 9,7 km/h (2 Bft) O 83 1 min 0,000 mm 0,0 UV-I 17 W/m 11,2 C 18,7 C 14,5 km/h (3 Bft) 100,00 %
11.05.2018 20:20 20,0 C 20,0 C 58 % 1013,8 hPa 0,0 l/m 7,3 km/h (2 Bft) O-NO 74 0 min 0,000 mm 0,0 UV-I 16 W/m 11,5 C 19,6 C 11,3 km/h (2 Bft) 96,15 %
11.05.2018 20:21 19,9 C 20,0 C 58 % 1013,9 hPa 0,0 l/m 6,8 km/h (2 Bft) O-NO 66 0 min 0,000 mm 0,0 UV-I 15 W/m 11,4 C 19,7 C 9,7 km/h (2 Bft) 100,00 %
11.05.2018 20:22 19,9 C 20,0 C 59 % 1013,9 hPa 0,0 l/m 6,9 km/h (2 Bft) O-NO 65 0 min 0,000 mm 0,0 UV-I 14 W/m 11,6 C 19,7 C 11,3 km/h (2 Bft) 95,65 %
11.05.2018 20:23 19,8 C 20,0 C 59 % 1013,9 hPa 0,0 l/m 6,2 km/h (2 Bft) O 88 0 min 0,000 mm 0,0 UV-I 14 W/m 11,6 C 19,8 C 12,9 km/h (3 Bft) 100,00 %
11.05.2018 20:24 19,8 C 20,0 C 59 % 1013,9 hPa 0,0 l/m 6,4 km/h (2 Bft) O-NO 73 0 min 0,000 mm 0,0 UV-I 14 W/m 11,6 C 19,8 C 11,3 km/h (2 Bft) 92,86 %
11.05.2018 20:25 19,7 C 20,0 C 59 % 1013,9 hPa 0,0 l/m 9,7 km/h (2 Bft) O 80 0 min 0,000 mm 0,0 UV-I 12 W/m 11,5 C 18,4 C 14,5 km/h (3 Bft) 95,83 %
11.05.2018 20:26 19,7 C 20,0 C 59 % 1013,8 hPa 0,0 l/m 8,6 km/h (2 Bft) O-NO 68 0 min 0,000 mm 0,0 UV-I 12 W/m 11,5 C 18,8 C 12,9 km/h (3 Bft) 95,65 %
11.05.2018 20:27 19,7 C 20,0 C 59 % 1013,8 hPa 0,0 l/m 8,5 km/h (2 Bft) O 92 0 min 0,000 mm 0,0 UV-I 11 W/m 11,5 C 18,8 C 12,9 km/h (3 Bft) 95,83 %
11.05.2018 20:28 19,7 C 20,0 C 59 % 1013,8 hPa 0,0 l/m 8,9 km/h (2 Bft) O-NO 64 0 min 0,000 mm 0,0 UV-I 11 W/m 11,5 C 18,7 C 14,5 km/h (3 Bft) 100,00 %
11.05.2018 20:29 19,7 C 20,0 C 59 % 1013,8 hPa 0,0 l/m 9,7 km/h (2 Bft) O 82 0 min 0,000 mm 0,0 UV-I 11 W/m 11,5 C 18,4 C 14,5 km/h (3 Bft) 95,83 %
11.05.2018 20:30 19,7 C 20,0 C 58 % 1013,8 hPa 0,0 l/m 9,2 km/h (2 Bft) O-NO 58 0 min 0,000 mm 0,0 UV-I 11 W/m 11,2 C 18,6 C 12,9 km/h (3 Bft) 100,00 %
11.05.2018 20:31 19,7 C 20,0 C 59 % 1013,9 hPa 0,0 l/m 7,9 km/h (2 Bft) O-NO 76 0 min 0,000 mm 0,0 UV-I 9 W/m 11,5 C 19,1 C 9,7 km/h (2 Bft) 95,83 %
11.05.2018 20:32 19,6 C 20,0 C 59 % 1013,8 hPa 0,0 l/m 7,8 km/h (2 Bft) O 79 0 min 0,000 mm 0,0 UV-I 9 W/m 11,4 C 19,0 C 12,9 km/h (3 Bft) 91,30 %
11.05.2018 20:33 19,5 C 20,0 C 59 % 1013,9 hPa 0,0 l/m 7,0 km/h (2 Bft) O 80 0 min 0,000 mm 0,0 UV-I 9 W/m 11,3 C 19,2 C 12,9 km/h (3 Bft) 95,83 %
11.05.2018 20:34 19,4 C 20,0 C 60 % 1013,9 hPa 0,0 l/m 6,5 km/h (2 Bft) O-NO 74 0 min 0,000 mm 0,0 UV-I 7 W/m 11,4 C 19,4 C 11,3 km/h (2 Bft) 100,00 %
11.05.2018 20:35 19,4 C 20,0 C 60 % 1013,8 hPa 0,0 l/m 8,2 km/h (2 Bft) O-NO 77 0 min 0,000 mm 0,0 UV-I 7 W/m 11,4 C 18,6 C 12,9 km/h (3 Bft) 96,30 %
11.05.2018 20:36 19,3 C 20,0 C 60 % 1013,9 hPa 0,0 l/m 7,3 km/h (2 Bft) O 94 0 min 0,000 mm 0,0 UV-I 7 W/m 11,3 C 18,9 C 11,3 km/h (2 Bft) 95,65 %
11.05.2018 20:37 19,3 C 20,0 C 60 % 1013,9 hPa 0,0 l/m 5,9 km/h (2 Bft) O 84 0 min 0,000 mm 0,0 UV-I 7 W/m 11,3 C 19,3 C 6,4 km/h (2 Bft) 95,83 %
11.05.2018 20:38 19,2 C 20,0 C 60 % 1013,9 hPa 0,0 l/m 6,4 km/h (2 Bft) O-NO 75 0 min 0,000 mm 0,0 UV-I 7 W/m 11,2 C 19,2 C 8,0 km/h (2 Bft) 95,83 %
11.05.2018 20:39 19,2 C 20,0 C 60 % 1013,9 hPa 0,0 l/m 6,3 km/h (2 Bft) O 80 0 min 0,000 mm 0,0 UV-I 7 W/m 11,2 C 19,2 C 11,3 km/h (2 Bft) 95,65 %
11.05.2018 20:40 19,1 C 20,0 C 60 % 1013,9 hPa 0,0 l/m 5,4 km/h (1 Bft) O-NO 69 0 min 0,000 mm 0,0 UV-I 5 W/m 11,1 C 19,1 C 9,7 km/h (2 Bft) 95,83 %
11.05.2018 20:41 19,1 C 20,0 C 61 % 1013,9 hPa 0,0 l/m 6,4 km/h (2 Bft) O 90 0 min 0,000 mm 0,0 UV-I 5 W/m 11,4 C 19,1 C 9,7 km/h (2 Bft) 96,15 %
11.05.2018 20:42 19,1 C 20,0 C 61 % 1013,9 hPa 0,0 l/m 6,0 km/h (2 Bft) O 90 0 min 0,000 mm 0,0 UV-I 5 W/m 11,4 C 19,1 C 9,7 km/h (2 Bft) 100,00 %
11.05.2018 20:43 19,0 C 20,0 C 61 % 1013,9 hPa 0,0 l/m 7,3 km/h (2 Bft) O 80 0 min 0,000 mm 0,0 UV-I 5 W/m 11,3 C 18,6 C 11,3 km/h (2 Bft) 100,00 %
11.05.2018 20:44 19,0 C 20,0 C 61 % 1013,9 hPa 0,0 l/m 8,2 km/h (2 Bft) O 82 0 min 0,000 mm 0,0 UV-I 5 W/m 11,3 C 18,2 C 11,3 km/h (2 Bft) 95,83 %
11.05.2018 20:45 19,0 C 20,0 C 61 % 1013,9 hPa 0,0 l/m 6,5 km/h (2 Bft) O 83 0 min 0,000 mm 0,0 UV-I 5 W/m 11,3 C 19,0 C 8,0 km/h (2 Bft) 96,15 %
11.05.2018 20:46 18,9 C 20,0 C 61 % 1014,0 hPa 0,0 l/m 7,4 km/h (2 Bft) O 95 0 min 0,000 mm 0,0 UV-I 5 W/m 11,2 C 18,5 C 9,7 km/h (2 Bft) 100,00 %
11.05.2018 20:47 18,9 C 20,0 C 62 % 1014,0 hPa 0,0 l/m 5,8 km/h (2 Bft) O 94 0 min 0,000 mm 0,0 UV-I 5 W/m 11,5 C 18,9 C 6,4 km/h (2 Bft) 95,65 %
11.05.2018 20:48 18,9 C 20,0 C 62 % 1013,9 hPa 0,0 l/m 5,9 km/h (2 Bft) O-SO 106 0 min 0,000 mm 0,0 UV-I 3 W/m 11,5 C 18,9 C 9,7 km/h (2 Bft) 100,00 %
11.05.2018 20:49 18,8 C 20,0 C 62 % 1013,9 hPa 0,0 l/m 6,6 km/h (2 Bft) O 88 0 min 0,000 mm 0,0 UV-I 0 W/m 11,4 C 18,7 C 11,3 km/h (2 Bft) 95,65 %
11.05.2018 20:50 18,8 C 20,0 C 62 % 1013,9 hPa 0,0 l/m 5,6 km/h (1 Bft) O 80 0 min 0,000 mm 0,0 UV-I 0 W/m 11,4 C 18,8 C 9,7 km/h (2 Bft) 100,00 %
11.05.2018 20:51 18,8 C 20,0 C 62 % 1014,0 hPa 0,0 l/m 5,0 km/h (1 Bft) O 80 0 min 0,000 mm 0,0 UV-I 0 W/m 11,4 C 18,8 C 6,4 km/h (2 Bft) 95,65 %
11.05.2018 20:52 18,7 C 20,0 C 63 % 1014,0 hPa 0,0 l/m 7,0 km/h (2 Bft) O 100 0 min 0,000 mm 0,0 UV-I 0 W/m 11,5 C 18,4 C 9,7 km/h (2 Bft) 95,83 %
11.05.2018 20:53 18,6 C 20,0 C 63 % 1013,9 hPa 0,0 l/m 7,8 km/h (2 Bft) O 95 0 min 0,000 mm 0,0 UV-I 0 W/m 11,4 C 18,0 C 14,5 km/h (3 Bft) 100,00 %
11.05.2018 20:54 18,6 C 20,0 C 63 % 1014,0 hPa 0,0 l/m 6,8 km/h (2 Bft) O 95 0 min 0,000 mm 0,0 UV-I 0 W/m 11,4 C 18,4 C 9,7 km/h (2 Bft) 100,00 %
11.05.2018 20:55 18,6 C 20,0 C 63 % 1014,0 hPa 0,0 l/m 6,4 km/h (2 Bft) O 90 0 min 0,000 mm 0,0 UV-I 0 W/m 11,4 C 18,6 C 11,3 km/h (2 Bft) 100,00 %
11.05.2018 20:56 18,6 C 20,0 C 63 % 1014,0 hPa 0,0 l/m 5,9 km/h (2 Bft) O-NO 69 0 min 0,000 mm 0,0 UV-I 0 W/m 11,4 C 18,6 C 8,0 km/h (2 Bft) 100,00 %
11.05.2018 20:57 18,6 C 20,0 C 63 % 1014,0 hPa 0,0 l/m 6,2 km/h (2 Bft) O 93 0 min 0,000 mm 0,0 UV-I 0 W/m 11,4 C 18,6 C 8,0 km/h (2 Bft) 100,00 %
11.05.2018 20:58 18,5 C 20,0 C 64 % 1014,0 hPa 0,0 l/m 6,5 km/h (2 Bft) O 100 0 min 0,000 mm 0,0 UV-I 0 W/m 11,6 C 18,5 C 9,7 km/h (2 Bft) 100,00 %
11.05.2018 20:59 18,5 C 20,0 C 64 % 1014,0 hPa 0,0 l/m 6,6 km/h (2 Bft) O 90 0 min 0,000 mm 0,0 UV-I 0 W/m 11,6 C 18,4 C 11,3 km/h (2 Bft) 100,00 %
11.05.2018 21:00 18,5 C 20,0 C 64 % 1014,1 hPa 0,0 l/m 6,8 km/h (2 Bft) O 101 0 min 0,000 mm 0,0 UV-I 0 W/m 11,6 C 18,3 C 11,3 km/h (2 Bft) 100,00 %
11.05.2018 21:01 18,5 C 20,0 C 64 % 1014,1 hPa 0,0 l/m 5,2 km/h (1 Bft) O-NO 77 0 min 0,050 mm 0,0 UV-I 0 W/m 11,6 C 18,5 C 6,4 km/h (2 Bft) 95,83 %
11.05.2018 21:02 18,4 C 20,0 C 64 % 1014,1 hPa 0,0 l/m 6,4 km/h (2 Bft) O 98 0 min 0,000 mm 0,0 UV-I 0 W/m 11,5 C 18,4 C 9,7 km/h (2 Bft) 91,30 %
11.05.2018 21:03 18,4 C 20,0 C 64 % 1014,2 hPa 0,0 l/m 6,2 km/h (2 Bft) O-NO 76 0 min 0,000 mm 0,0 UV-I 0 W/m 11,5 C 18,4 C 9,7 km/h (2 Bft) 95,83 %
11.05.2018 21:04 18,4 C 20,0 C 64 % 1014,2 hPa 0,0 l/m 6,1 km/h (2 Bft) O 90 0 min 0,000 mm 0,0 UV-I 0 W/m 11,5 C 18,4 C 8,0 km/h (2 Bft) 100,00 %
11.05.2018 21:05 18,4 C 20,0 C 64 % 1014,2 hPa 0,0 l/m 4,8 km/h (1 Bft) O 96 0 min 0,000 mm 0,0 UV-I 0 W/m 11,5 C 18,4 C 6,4 km/h (2 Bft) 100,00 %
11.05.2018 21:06 18,4 C 20,0 C 64 % 1014,2 hPa 0,0 l/m 5,4 km/h (1 Bft) O-NO 59 0 min 0,000 mm 0,0 UV-I 0 W/m 11,5 C 18,4 C 9,7 km/h (2 Bft) 100,00 %
11.05.2018 21:07 18,4 C 20,0 C 64 % 1014,2 hPa 0,0 l/m 5,3 km/h (1 Bft) O-NO 63 0 min 0,000 mm 0,0 UV-I 0 W/m 11,5 C 18,4 C 8,0 km/h (2 Bft) 100,00 %
11.05.2018 21:08 18,3 C 20,0 C 64 % 1014,2 hPa 0,0 l/m 4,6 km/h (1 Bft) NO 56 0 min 0,000 mm 0,0 UV-I 0 W/m 11,4 C 18,3 C 4,8 km/h (1 Bft) 100,00 %
11.05.2018 21:09 18,3 C 20,0 C 65 % 1014,2 hPa 0,0 l/m 4,9 km/h (1 Bft) O 79 0 min 0,000 mm 0,0 UV-I 0 W/m 11,6 C 18,3 C 8,0 km/h (2 Bft) 100,00 %
11.05.2018 21:10 18,3 C 20,0 C 65 % 1014,2 hPa 0,0 l/m 5,6 km/h (1 Bft) O 80 0 min 0,000 mm 0,0 UV-I 0 W/m 11,6 C 18,3 C 8,0 km/h (2 Bft) 100,00 %
11.05.2018 21:11 18,2 C 20,0 C 65 % 1014,2 hPa 0,0 l/m 6,1 km/h (2 Bft) O 89 0 min 0,000 mm 0,0 UV-I 0 W/m 11,5 C 18,2 C 11,3 km/h (2 Bft) 96,30 %
11.05.2018 21:12 18,2 C 20,0 C 65 % 1014,2 hPa 0,0 l/m 4,6 km/h (1 Bft) O 85 0 min 0,000 mm 0,0 UV-I 0 W/m 11,5 C 18,2 C 6,4 km/h (2 Bft) 95,65 %
11.05.2018 21:13 18,1 C 20,0 C 66 % 1014,2 hPa 0,0 l/m 4,4 km/h (1 Bft) O-NO 74 0 min 0,000 mm 0,0 UV-I 0 W/m 11,6 C 18,1 C 6,4 km/h (2 Bft) 100,00 %
11.05.2018 21:14 18,1 C 20,0 C 66 % 1014,2 hPa 0,0 l/m 4,2 km/h (1 Bft) O 79 0 min 0,000 mm 0,0 UV-I 0 W/m 11,6 C 18,1 C 6,4 km/h (2 Bft) 95,65 %
11.05.2018 21:15 18,1 C 20,0 C 66 % 1014,2 hPa 0,0 l/m 6,4 km/h (2 Bft) O 84 0 min 0,000 mm 0,0 UV-I 0 W/m 11,6 C 18,1 C 8,0 km/h (2 Bft) 100,00 %
11.05.2018 21:16 18,0 C 20,0 C 66 % 1014,2 hPa 0,0 l/m 5,9 km/h (2 Bft) O 84 0 min 0,000 mm 0,0 UV-I 0 W/m 11,6 C 18,0 C 8,0 km/h (2 Bft) 96,15 %
11.05.2018 21:17 18,0 C 20,0 C 66 % 1014,3 hPa 0,0 l/m 4,7 km/h (1 Bft) O 81 0 min 0,000 mm 0,0 UV-I 0 W/m 11,6 C 18,0 C 8,0 km/h (2 Bft) 95,83 %
11.05.2018 21:18 18,0 C 20,0 C 66 % 1014,2 hPa 0,0 l/m 5,8 km/h (2 Bft) O-NO 75 0 min 0,000 mm 0,0 UV-I 0 W/m 11,6 C 18,0 C 8,0 km/h (2 Bft) 100,00 %
11.05.2018 21:19 18,0 C 20,0 C 66 % 1014,3 hPa 0,0 l/m 5,4 km/h (1 Bft) O-NO 70 0 min 0,000 mm 0,0 UV-I 0 W/m 11,6 C 18,0 C 8,0 km/h (2 Bft) 91,30 %
11.05.2018 21:20 17,9 C 20,0 C 66 % 1014,3 hPa 0,0 l/m 4,2 km/h (1 Bft) O-NO 67 0 min 0,000 mm 0,0 UV-I 0 W/m 11,5 C 17,9 C 6,4 km/h (2 Bft) 100,00 %
11.05.2018 21:21 17,9 C 20,0 C 66 % 1014,3 hPa 0,0 l/m 4,3 km/h (1 Bft) O-NO 78 0 min 0,000 mm 0,0 UV-I 0 W/m 11,5 C 17,9 C 6,4 km/h (2 Bft) 92,86 %
11.05.2018 21:22 17,9 C 20,0 C 66 % 1014,3 hPa 0,0 l/m 5,3 km/h (1 Bft) O-NO 57 0 min 0,000 mm 0,0 UV-I 0 W/m 11,5 C 17,9 C 6,4 km/h (2 Bft) 100,00 %
11.05.2018 21:23 17,8 C 20,0 C 66 % 1014,3 hPa 0,0 l/m 5,0 km/h (1 Bft) O-NO 68 0 min 0,000 mm 0,0 UV-I 0 W/m 11,4 C 17,8 C 6,4 km/h (2 Bft) 91,30 %
11.05.2018 21:24 17,8 C 20,0 C 66 % 1014,3 hPa 0,0 l/m 4,4 km/h (1 Bft) O 82 0 min 0,000 mm 0,0 UV-I 0 W/m 11,4 C 17,8 C 4,8 km/h (1 Bft) 100,00 %
11.05.2018 21:25 17,8 C 20,0 C 67 % 1014,3 hPa 0,0 l/m 5,7 km/h (1 Bft) O 81 0 min 0,000 mm 0,0 UV-I 0 W/m 11,6 C 17,8 C 8,0 km/h (2 Bft) 91,30 %
11.05.2018 21:26 17,7 C 20,0 C 67 % 1014,3 hPa 0,0 l/m 7,2 km/h (2 Bft) O-NO 61 0 min 0,000 mm 0,0 UV-I 0 W/m 11,5 C 17,3 C 9,7 km/h (2 Bft) 100,00 %
11.05.2018 21:27 17,7 C 20,0 C 67 % 1014,3 hPa 0,0 l/m 6,1 km/h (2 Bft) O 81 0 min 0,000 mm 0,0 UV-I 0 W/m 11,5 C 17,7 C 11,3 km/h (2 Bft) 95,65 %
11.05.2018 21:28 17,7 C 20,0 C 67 % 1014,3 hPa 0,0 l/m 6,8 km/h (2 Bft) O 88 0 min 0,000 mm 0,0 UV-I 0 W/m 11,5 C 17,5 C 11,3 km/h (2 Bft) 95,83 %
11.05.2018 21:29 17,7 C 20,0 C 67 % 1014,3 hPa 0,0 l/m 6,4 km/h (2 Bft) O-NO 75 0 min 0,000 mm 0,0 UV-I 0 W/m 11,5 C 17,7 C 8,0 km/h (2 Bft) 100,00 %
11.05.2018 21:30 17,7 C 20,0 C 67 % 1014,3 hPa 0,0 l/m 7,4 km/h (2 Bft) O-NO 78 0 min 0,000 mm 0,0 UV-I 0 W/m 11,5 C 17,2 C 11,3 km/h (2 Bft) 95,83 %
11.05.2018 21:31 17,6 C 20,0 C 67 % 1014,3 hPa 0,0 l/m 6,8 km/h (2 Bft) O-NO 64 0 min 0,000 mm 0,0 UV-I 0 W/m 11,4 C 17,4 C 9,7 km/h (2 Bft) 100,00 %
11.05.2018 21:32 17,6 C 20,0 C 67 % 1014,3 hPa 0,0 l/m 6,1 km/h (2 Bft) O 90 0 min 0,000 mm 0,0 UV-I 0 W/m 11,4 C 17,6 C 8,0 km/h (2 Bft) 95,83 %
11.05.2018 21:33 17,6 C 20,0 C 68 % 1014,3 hPa 0,0 l/m 4,8 km/h (1 Bft) O 88 0 min 0,000 mm 0,0 UV-I 0 W/m 11,6 C 17,6 C 6,4 km/h (2 Bft) 100,00 %
11.05.2018 21:34 17,6 C 20,0 C 68 % 1014,3 hPa 0,0 l/m 3,1 km/h (1 Bft) O 94 0 min 0,000 mm 0,0 UV-I 0 W/m 11,6 C 17,6 C 4,8 km/h (1 Bft) 96,15 %
11.05.2018 21:35 17,5 C 20,0 C 68 % 1014,3 hPa 0,0 l/m 4,4 km/h (1 Bft) O-NO 67 0 min 0,000 mm 0,0 UV-I 0 W/m 11,5 C 17,5 C 6,4 km/h (2 Bft) 100,00 %
11.05.2018 21:36 17,5 C 20,0 C 68 % 1014,3 hPa 0,0 l/m 4,0 km/h (1 Bft) O-NO 78 0 min 0,000 mm 0,0 UV-I 0 W/m 11,5 C 17,5 C 6,4 km/h (2 Bft) 91,30 %
11.05.2018 21:37 17,4 C 20,0 C 68 % 1014,3 hPa 0,0 l/m 3,8 km/h (1 Bft) O-NO 68 0 min 0,000 mm 0,0 UV-I 0 W/m 11,4 C 17,4 C 4,8 km/h (1 Bft) 95,83 %
11.05.2018 21:38 17,5 C 20,0 C 68 % 1014,3 hPa 0,0 l/m 3,4 km/h (1 Bft) O 94 0 min 0,000 mm 0,0 UV-I 0 W/m 11,5 C 17,5 C 4,8 km/h (1 Bft) 91,30 %
11.05.2018 21:39 17,5 C 20,0 C 68 % 1014,3 hPa 0,0 l/m 4,2 km/h (1 Bft) O-NO 65 0 min 0,000 mm 0,0 UV-I 0 W/m 11,5 C 17,5 C 6,4 km/h (2 Bft) 95,83 %
11.05.2018 21:40 17,5 C 20,0 C 68 % 1014,3 hPa 0,0 l/m 3,6 km/h (1 Bft) O-NO 69 0 min 0,000 mm 0,0 UV-I 0 W/m 11,5 C 17,5 C 4,8 km/h (1 Bft) 100,00 %
11.05.2018 21:41 17,4 C 20,0 C 68 % 1014,4 hPa 0,0 l/m 2,7 km/h (1 Bft) O 88 0 min 0,000 mm 0,0 UV-I 0 W/m 11,4 C 17,4 C 4,8 km/h (1 Bft) 91,67 %
11.05.2018 21:42 17,4 C 20,0 C 68 % 1014,3 hPa 0,0 l/m 2,8 km/h (1 Bft) O 89 0 min 0,000 mm 0,0 UV-I 0 W/m 11,4 C 17,4 C 3,2 km/h (1 Bft) 90,91 %
11.05.2018 21:43 17,4 C 20,0 C 68 % 1014,3 hPa 0,0 l/m 4,7 km/h (1 Bft) O-SO 104 0 min 0,000 mm 0,0 UV-I 0 W/m 11,4 C 17,4 C 9,7 km/h (2 Bft) 96,30 %
11.05.2018 21:44 17,4 C 20,0 C 68 % 1014,4 hPa 0,0 l/m 6,0 km/h (2 Bft) O-NO 60 0 min 0,000 mm 0,0 UV-I 0 W/m 11,4 C 17,4 C 8,0 km/h (2 Bft) 100,00 %
11.05.2018 21:45 17,4 C 20,0 C 68 % 1014,4 hPa 0,0 l/m 6,1 km/h (2 Bft) O-NO 68 0 min 0,000 mm 0,0 UV-I 0 W/m 11,4 C 17,4 C 9,7 km/h (2 Bft) 95,83 %
11.05.2018 21:46 17,4 C 20,0 C 68 % 1014,4 hPa 0,0 l/m 5,8 km/h (2 Bft) O-NO 76 0 min 0,000 mm 0,0 UV-I 0 W/m 11,4 C 17,4 C 8,0 km/h (2 Bft) 100,00 %
11.05.2018 21:47 17,5 C 20,0 C 68 % 1014,3 hPa 0,0 l/m 4,4 km/h (1 Bft) O-NO 78 0 min 0,000 mm 0,0 UV-I 0 W/m 11,5 C 17,5 C 6,4 km/h (2 Bft) 95,83 %
11.05.2018 21:48 17,5 C 20,0 C 68 % 1014,4 hPa 0,0 l/m 4,4 km/h (1 Bft) O-NO 71 0 min 0,000 mm 0,0 UV-I 0 W/m 11,5 C 17,5 C 4,8 km/h (1 Bft) 100,00 %
11.05.2018 21:49 17,4 C 20,0 C 68 % 1014,4 hPa 0,0 l/m 5,0 km/h (1 Bft) O 80 0 min 0,000 mm 0,0 UV-I 0 W/m 11,4 C 17,4 C 6,4 km/h (2 Bft) 96,30 %
11.05.2018 21:50 17,4 C 20,0 C 68 % 1014,4 hPa 0,0 l/m 3,4 km/h (1 Bft) O-NO 76 0 min 0,000 mm 0,0 UV-I 0 W/m 11,4 C 17,4 C 4,8 km/h (1 Bft) 95,65 %
11.05.2018 21:51 17,3 C 20,0 C 68 % 1014,3 hPa 0,0 l/m 6,2 km/h (2 Bft) O-NO 69 0 min 0,000 mm 0,0 UV-I 0 W/m 11,3 C 17,3 C 8,0 km/h (2 Bft) 95,83 %
11.05.2018 21:52 17,2 C 20,0 C 69 % 1014,4 hPa 0,0 l/m 6,4 km/h (2 Bft) O-NO 57 0 min 0,000 mm 0,0 UV-I 0 W/m 11,5 C 17,2 C 9,7 km/h (2 Bft) 91,30 %
11.05.2018 21:53 17,2 C 20,0 C 69 % 1014,3 hPa 0,0 l/m 6,6 km/h (2 Bft) O-NO 63 0 min 0,000 mm 0,0 UV-I 0 W/m 11,5 C 17,1 C 8,0 km/h (2 Bft) 100,00 %
11.05.2018 21:54 17,1 C 20,0 C 70 % 1014,4 hPa 0,0 l/m 5,7 km/h (1 Bft) O-NO 62 0 min 0,000 mm 0,0 UV-I 0 W/m 11,6 C 17,1 C 8,0 km/h (2 Bft) 95,83 %
11.05.2018 21:55 17,0 C 20,0 C 70 % 1014,4 hPa 0,0 l/m 4,7 km/h (1 Bft) O-NO 64 0 min 0,000 mm 0,0 UV-I 0 W/m 11,5 C 17,0 C 6,4 km/h (2 Bft) 100,00 %
11.05.2018 21:56 16,9 C 20,0 C 70 % 1014,4 hPa 0,0 l/m 4,7 km/h (1 Bft) NO 46 0 min 0,000 mm 0,0 UV-I 0 W/m 11,4 C 16,9 C 6,4 km/h (2 Bft) 93,33 %
11.05.2018 21:57 16,9 C 20,0 C 70 % 1014,4 hPa 0,0 l/m 5,0 km/h (1 Bft) NO 36 0 min 0,000 mm 0,0 UV-I 0 W/m 11,4 C 16,9 C 8,0 km/h (2 Bft) 100,00 %
11.05.2018 21:58 16,9 C 20,0 C 70 % 1014,4 hPa 0,0 l/m 4,1 km/h (1 Bft) NO 51 0 min 0,000 mm 0,0 UV-I 0 W/m 11,4 C 16,9 C 6,4 km/h (2 Bft) 91,67 %
11.05.2018 21:59 16,9 C 20,0 C 70 % 1014,4 hPa 0,0 l/m 4,5 km/h (1 Bft) NO 42 0 min 0,000 mm 0,0 UV-I 0 W/m 11,4 C 16,9 C 6,4 km/h (2 Bft) 100,00 %
11.05.2018 22:00 16,9 C 20,0 C 70 % 1014,4 hPa 0,0 l/m 5,0 km/h (1 Bft) O-NO 74 0 min 0,000 mm 0,0 UV-I 0 W/m 11,4 C 16,9 C 6,4 km/h (2 Bft) 95,83 %
11.05.2018 22:01 17,0 C 20,0 C 70 % 1014,4 hPa 0,0 l/m 4,8 km/h (1 Bft) O-NO 63 0 min 0,026 mm 0,0 UV-I 0 W/m 11,5 C 17,0 C 6,4 km/h (2 Bft) 100,00 %
11.05.2018 22:02 16,9 C 20,0 C 70 % 1014,4 hPa 0,0 l/m 5,0 km/h (1 Bft) O-NO 74 0 min 0,000 mm 0,0 UV-I 0 W/m 11,4 C 16,9 C 6,4 km/h (2 Bft) 95,83 %
11.05.2018 22:03 16,9 C 20,0 C 70 % 1014,4 hPa 0,0 l/m 5,2 km/h (1 Bft) O-NO 63 0 min 0,000 mm 0,0 UV-I 0 W/m 11,4 C 16,9 C 8,0 km/h (2 Bft) 95,65 %
11.05.2018 22:04 16,9 C 20,0 C 70 % 1014,4 hPa 0,0 l/m 5,7 km/h (1 Bft) O-NO 78 0 min 0,000 mm 0,0 UV-I 0 W/m 11,4 C 16,9 C 8,0 km/h (2 Bft) 100,00 %
11.05.2018 22:05 16,9 C 20,0 C 70 % 1014,4 hPa 0,0 l/m 5,9 km/h (2 Bft) O 86 0 min 0,000 mm 0,0 UV-I 0 W/m 11,4 C 16,9 C 6,4 km/h (2 Bft) 95,65 %
11.05.2018 22:06 17,0 C 20,0 C 70 % 1014,4 hPa 0,0 l/m 5,2 km/h (1 Bft) O 90 0 min 0,000 mm 0,0 UV-I 0 W/m 11,5 C 17,0 C 8,0 km/h (2 Bft) 95,83 %
11.05.2018 22:07 17,0 C 20,0 C 69 % 1014,4 hPa 0,0 l/m 6,7 km/h (2 Bft) O-NO 74 0 min 0,000 mm 0,0 UV-I 0 W/m 11,3 C 16,9 C 8,0 km/h (2 Bft) 95,65 %
11.05.2018 22:08 17,1 C 20,0 C 69 % 1014,4 hPa 0,0 l/m 4,5 km/h (1 Bft) O 88 0 min 0,000 mm 0,0 UV-I 0 W/m 11,4 C 17,1 C 6,4 km/h (2 Bft) 95,83 %
11.05.2018 22:09 17,1 C 20,0 C 69 % 1014,4 hPa 0,0 l/m 4,9 km/h (1 Bft) O 96 0 min 0,000 mm 0,0 UV-I 0 W/m 11,4 C 17,1 C 6,4 km/h (2 Bft) 95,83 %
11.05.2018 22:10 17,1 C 20,0 C 69 % 1014,4 hPa 0,0 l/m 4,8 km/h (1 Bft) O 89 0 min 0,000 mm 0,0 UV-I 0 W/m 11,4 C 17,1 C 6,4 km/h (2 Bft) 96,15 %
11.05.2018 22:11 17,1 C 20,0 C 69 % 1014,4 hPa 0,0 l/m 4,9 km/h (1 Bft) O-SO 104 0 min 0,000 mm 0,0 UV-I 0 W/m 11,4 C 17,1 C 6,4 km/h (2 Bft) 95,83 %
11.05.2018 22:12 17,0 C 20,0 C 70 % 1014,4 hPa 0,0 l/m 6,4 km/h (2 Bft) O-SO 114 0 min 0,000 mm 0,0 UV-I 0 W/m 11,5 C 17,0 C 9,7 km/h (2 Bft) 95,65 %
11.05.2018 22:13 16,9 C 20,0 C 70 % 1014,4 hPa 0,0 l/m 4,2 km/h (1 Bft) O-SO 102 0 min 0,000 mm 0,0 UV-I 0 W/m 11,4 C 16,9 C 6,4 km/h (2 Bft) 100,00 %
11.05.2018 22:14 16,9 C 20,0 C 70 % 1014,4 hPa 0,0 l/m 3,4 km/h (1 Bft) O-SO 102 0 min 0,000 mm 0,0 UV-I 0 W/m 11,4 C 16,9 C 4,8 km/h (1 Bft) 91,30 %
11.05.2018 22:15 17,0 C 20,0 C 70 % 1014,4 hPa 0,0 l/m 2,8 km/h (1 Bft) O-SO 110 0 min 0,000 mm 0,0 UV-I 0 W/m 11,5 C 17,0 C 4,8 km/h (1 Bft) 100,00 %
11.05.2018 22:16 17,1 C 20,0 C 70 % 1014,5 hPa 0,0 l/m 3,4 km/h (1 Bft) O-SO 111 0 min 0,000 mm 0,0 UV-I 0 W/m 11,6 C 17,1 C 4,8 km/h (1 Bft) 100,00 %
11.05.2018 22:17 17,1 C 20,0 C 69 % 1014,4 hPa 0,0 l/m 4,1 km/h (1 Bft) O 101 0 min 0,000 mm 0,0 UV-I 0 W/m 11,4 C 17,1 C 6,4 km/h (2 Bft) 100,00 %
11.05.2018 22:18 17,1 C 20,0 C 69 % 1014,4 hPa 0,0 l/m 3,4 km/h (1 Bft) O 101 0 min 0,000 mm 0,0 UV-I 0 W/m 11,4 C 17,1 C 4,8 km/h (1 Bft) 91,30 %
11.05.2018 22:19 17,1 C 20,0 C 69 % 1014,5 hPa 0,0 l/m 3,2 km/h (1 Bft) O-SO 103 0 min 0,000 mm 0,0 UV-I 0 W/m 11,4 C 17,1 C 4,8 km/h (1 Bft) 100,00 %
11.05.2018 22:20 17,1 C 20,0 C 69 % 1014,5 hPa 0,0 l/m 4,0 km/h (1 Bft) O-SO 104 0 min 0,000 mm 0,0 UV-I 0 W/m 11,4 C 17,1 C 4,8 km/h (1 Bft) 95,65 %
11.05.2018 22:21 17,1 C 20,0 C 69 % 1014,5 hPa 0,0 l/m 3,0 km/h (1 Bft) O-SO 103 0 min 0,000 mm 0,0 UV-I 0 W/m 11,4 C 17,1 C 4,8 km/h (1 Bft) 100,00 %
11.05.2018 22:22 17,1 C 20,0 C 69 % 1014,5 hPa 0,0 l/m 3,3 km/h (1 Bft) O-SO 103 0 min 0,000 mm 0,0 UV-I 0 W/m 11,4 C 17,1 C 4,8 km/h (1 Bft) 95,65 %
11.05.2018 22:23 17,1 C 20,0 C 69 % 1014,5 hPa 0,0 l/m 3,0 km/h (1 Bft) O-SO 103 0 min 0,000 mm 0,0 UV-I 0 W/m 11,4 C 17,1 C 3,2 km/h (1 Bft) 100,00 %
11.05.2018 22:24 17,0 C 20,0 C 69 % 1014,5 hPa 0,0 l/m 3,0 km/h (1 Bft) O-SO 103 0 min 0,000 mm 0,0 UV-I 0 W/m 11,3 C 17,0 C 3,2 km/h (1 Bft) 96,15 %
11.05.2018 22:25 16,9 C 20,0 C 70 % 1014,5 hPa 0,0 l/m 2,7 km/h (1 Bft) O-SO 103 0 min 0,000 mm 0,0 UV-I 0 W/m 11,4 C 16,9 C 4,8 km/h (1 Bft) 91,67 %
11.05.2018 22:26 16,9 C 20,0 C 70 % 1014,5 hPa 0,0 l/m 3,0 km/h (1 Bft) O 101 0 min 0,000 mm 0,0 UV-I 0 W/m 11,4 C 16,9 C 4,8 km/h (1 Bft) 100,00 %
11.05.2018 22:27 16,8 C 20,0 C 70 % 1014,5 hPa 0,0 l/m 3,1 km/h (1 Bft) O 101 0 min 0,000 mm 0,0 UV-I 0 W/m 11,3 C 16,8 C 4,8 km/h (1 Bft) 95,83 %
11.05.2018 22:28 16,8 C 20,0 C 70 % 1014,5 hPa 0,0 l/m 3,8 km/h (1 Bft) O-NO 69 0 min 0,000 mm 0,0 UV-I 0 W/m 11,3 C 16,8 C 4,8 km/h (1 Bft) 95,65 %
11.05.2018 22:29 16,8 C 20,0 C 70 % 1014,5 hPa 0,0 l/m 4,0 km/h (1 Bft) O-NO 71 0 min 0,000 mm 0,0 UV-I 0 W/m 11,3 C 16,8 C 4,8 km/h (1 Bft) 95,83 %
11.05.2018 22:30 16,9 C 20,0 C 70 % 1014,5 hPa 0,0 l/m 3,0 km/h (1 Bft) O-NO 70 0 min 0,000 mm 0,0 UV-I 0 W/m 11,4 C 16,9 C 3,2 km/h (1 Bft) 100,00 %
11.05.2018 22:31 16,8 C 20,0 C 70 % 1014,5 hPa 0,0 l/m 4,5 km/h (1 Bft) O-NO 65 0 min 0,000 mm 0,0 UV-I 0 W/m 11,3 C 16,8 C 6,4 km/h (2 Bft) 95,83 %
11.05.2018 22:32 16,8 C 20,0 C 70 % 1014,5 hPa 0,0 l/m 4,0 km/h (1 Bft) O 81 0 min 0,000 mm 0,0 UV-I 0 W/m 11,3 C 16,8 C 6,4 km/h (2 Bft) 95,65 %
11.05.2018 22:33 16,8 C 20,0 C 70 % 1014,5 hPa 0,0 l/m 3,3 km/h (1 Bft) O 80 0 min 0,000 mm 0,0 UV-I 0 W/m 11,3 C 16,8 C 6,4 km/h (2 Bft) 91,67 %
11.05.2018 22:34 16,7 C 20,0 C 71 % 1014,6 hPa 0,0 l/m 3,3 km/h (1 Bft) O 82 0 min 0,000 mm 0,0 UV-I 0 W/m 11,4 C 16,7 C 4,8 km/h (1 Bft) 95,83 %
11.05.2018 22:35 16,7 C 20,0 C 71 % 1014,5 hPa 0,0 l/m 1,9 km/h (1 Bft) O 82 0 min 0,000 mm 0,0 UV-I 0 W/m 11,4 C 16,7 C 3,2 km/h (1 Bft) 95,65 %
11.05.2018 22:36 16,6 C 20,0 C 71 % 1014,5 hPa 0,0 l/m 1,3 km/h (1 Bft) O 82 0 min 0,000 mm 0,0 UV-I 0 W/m 11,3 C 16,6 C 1,6 km/h (1 Bft) 100,00 %
11.05.2018 22:37 16,6 C 20,0 C 71 % 1014,6 hPa 0,0 l/m 0,9 km/h (0 Bft) O 82 0 min 0,000 mm 0,0 UV-I 0 W/m 11,3 C 16,6 C 1,6 km/h (1 Bft) 95,65 %
11.05.2018 22:38 16,6 C 20,0 C 71 % 1014,5 hPa 0,0 l/m 2,5 km/h (1 Bft) O 82 0 min 0,000 mm 0,0 UV-I 0 W/m 11,3 C 16,6 C 3,2 km/h (1 Bft) 100,00 %
11.05.2018 22:39 16,6 C 20,0 C 71 % 1014,5 hPa 0,0 l/m 2,5 km/h (1 Bft) O 82 0 min 0,000 mm 0,0 UV-I 0 W/m 11,3 C 16,6 C 3,2 km/h (1 Bft) 95,65 %
11.05.2018 22:40 16,6 C 20,0 C 71 % 1014,5 hPa 0,0 l/m 2,9 km/h (1 Bft) O 82 0 min 0,000 mm 0,0 UV-I 0 W/m 11,3 C 16,6 C 4,8 km/h (1 Bft) 95,83 %
11.05.2018 22:41 16,6 C 20,0 C 71 % 1014,5 hPa 0,0 l/m 2,1 km/h (1 Bft) O 81 0 min 0,000 mm 0,0 UV-I 0 W/m 11,3 C 16,6 C 3,2 km/h (1 Bft) 95,65 %
11.05.2018 22:42 16,7 C 20,0 C 71 % 1014,5 hPa 0,0 l/m 1,5 km/h (1 Bft) O 81 0 min 0,000 mm 0,0 UV-I 0 W/m 11,4 C 16,7 C 3,2 km/h (1 Bft) 95,83 %
11.05.2018 22:43 16,7 C 20,0 C 71 % 1014,5 hPa 0,0 l/m 1,8 km/h (1 Bft) O 81 0 min 0,000 mm 0,0 UV-I 0 W/m 11,4 C 16,7 C 3,2 km/h (1 Bft) 95,65 %
11.05.2018 22:44 16,7 C 20,0 C 71 % 1014,5 hPa 0,0 l/m 2,2 km/h (1 Bft) O 81 0 min 0,000 mm 0,0 UV-I 0 W/m 11,4 C 16,7 C 3,2 km/h (1 Bft) 95,83 %
11.05.2018 22:45 16,6 C 20,0 C 71 % 1014,5 hPa 0,0 l/m 2,7 km/h (1 Bft) O 82 0 min 0,000 mm 0,0 UV-I 0 W/m 11,3 C 16,6 C 3,2 km/h (1 Bft) 100,00 %
11.05.2018 22:46 16,6 C 20,0 C 71 % 1014,5 hPa 0,0 l/m 2,7 km/h (1 Bft) O 81 0 min 0,000 mm 0,0 UV-I 0 W/m 11,3 C 16,6 C 3,2 km/h (1 Bft) 96,15 %
11.05.2018 22:47 16,6 C 20,0 C 71 % 1014,5 hPa 0,0 l/m 2,3 km/h (1 Bft) O 82 0 min 0,000 mm 0,0 UV-I 0 W/m 11,3 C 16,6 C 3,2 km/h (1 Bft) 95,83 %
11.05.2018 22:48 16,6 C 20,0 C 71 % 1014,5 hPa 0,0 l/m 2,7 km/h (1 Bft) O 81 0 min 0,000 mm 0,0 UV-I 0 W/m 11,3 C 16,6 C 3,2 km/h (1 Bft) 100,00 %
11.05.2018 22:49 16,6 C 20,0 C 71 % 1014,5 hPa 0,0 l/m 1,7 km/h (1 Bft) O 82 0 min 0,000 mm 0,0 UV-I 0 W/m 11,3 C 16,6 C 3,2 km/h (1 Bft) 95,83 %
11.05.2018 22:50 16,6 C 20,0 C 71 % 1014,5 hPa 0,0 l/m 1,5 km/h (1 Bft) O 82 0 min 0,000 mm 0,0 UV-I 0 W/m 11,3 C 16,6 C 3,2 km/h (1 Bft) 100,00 %
11.05.2018 22:51 16,5 C 20,0 C 71 % 1014,5 hPa 0,0 l/m 1,5 km/h (1 Bft) O 82 0 min 0,000 mm 0,0 UV-I 0 W/m 11,2 C 16,5 C 3,2 km/h (1 Bft) 95,83 %
11.05.2018 22:52 16,5 C 20,0 C 71 % 1014,5 hPa 0,0 l/m 0,5 km/h (0 Bft) O 82 0 min 0,000 mm 0,0 UV-I 0 W/m 11,2 C 16,5 C 1,6 km/h (1 Bft) 95,65 %
11.05.2018 22:53 16,5 C 20,0 C 71 % 1014,5 hPa 0,0 l/m 1,6 km/h (1 Bft) O 81 0 min 0,000 mm 0,0 UV-I 0 W/m 11,2 C 16,5 C 3,2 km/h (1 Bft) 100,00 %
11.05.2018 22:54 16,5 C 20,0 C 71 % 1014,5 hPa 0,0 l/m 2,7 km/h (1 Bft) O 81 0 min 0,000 mm 0,0 UV-I 0 W/m 11,2 C 16,5 C 3,2 km/h (1 Bft) 100,00 %
11.05.2018 22:55 16,5 C 20,0 C 71 % 1014,5 hPa 0,0 l/m 1,3 km/h (1 Bft) O 81 0 min 0,000 mm 0,0 UV-I 0 W/m 11,2 C 16,5 C 3,2 km/h (1 Bft) 100,00 %
11.05.2018 22:56 16,5 C 20,0 C 71 % 1014,5 hPa 0,0 l/m 3,0 km/h (1 Bft) O 81 0 min 0,000 mm 0,0 UV-I 0 W/m 11,2 C 16,5 C 4,8 km/h (1 Bft) 100,00 %
11.05.2018 22:57 16,5 C 20,0 C 71 % 1014,5 hPa 0,0 l/m 2,7 km/h (1 Bft) O 81 0 min 0,000 mm 0,0 UV-I 0 W/m 11,2 C 16,5 C 4,8 km/h (1 Bft) 100,00 %
11.05.2018 22:58 16,5 C 20,0 C 71 % 1014,5 hPa 0,0 l/m 2,8 km/h (1 Bft) O-NO 76 0 min 0,000 mm 0,0 UV-I 0 W/m 11,2 C 16,5 C 4,8 km/h (1 Bft) 91,30 %
11.05.2018 22:59 16,5 C 20,0 C 72 % 1014,5 hPa 0,0 l/m 3,4 km/h (1 Bft) O-NO 77 0 min 0,000 mm 0,0 UV-I 0 W/m 11,4 C 16,5 C 4,8 km/h (1 Bft) 100,00 %
11.05.2018 23:00 16,4 C 20,0 C 71 % 1014,5 hPa 0,0 l/m 3,2 km/h (1 Bft) O-NO 77 0 min 0,000 mm 0,0 UV-I 0 W/m 11,1 C 16,4 C 4,8 km/h (1 Bft) 100,00 %
11.05.2018 23:01 16,4 C 20,0 C 72 % 1014,5 hPa 0,0 l/m 3,6 km/h (1 Bft) O 84 0 min 0,025 mm 0,0 UV-I 0 W/m 11,3 C 16,4 C 4,8 km/h (1 Bft) 100,00 %
11.05.2018 23:02 16,4 C 20,0 C 72 % 1014,5 hPa 0,0 l/m 3,9 km/h (1 Bft) O 84 0 min 0,000 mm 0,0 UV-I 0 W/m 11,3 C 16,4 C 6,4 km/h (2 Bft) 100,00 %
11.05.2018 23:03 16,3 C 20,0 C 72 % 1014,5 hPa 0,0 l/m 3,8 km/h (1 Bft) O 87 0 min 0,000 mm 0,0 UV-I 0 W/m 11,2 C 16,3 C 4,8 km/h (1 Bft) 100,00 %
11.05.2018 23:04 16,3 C 20,0 C 72 % 1014,5 hPa 0,0 l/m 4,0 km/h (1 Bft) O 95 0 min 0,000 mm 0,0 UV-I 0 W/m 11,2 C 16,3 C 4,8 km/h (1 Bft) 95,65 %
11.05.2018 23:05 16,3 C 20,0 C 72 % 1014,5 hPa 0,0 l/m 3,9 km/h (1 Bft) O 98 0 min 0,000 mm 0,0 UV-I 0 W/m 11,2 C 16,3 C 6,4 km/h (2 Bft) 100,00 %
11.05.2018 23:06 16,4 C 20,0 C 72 % 1014,5 hPa 0,0 l/m 3,7 km/h (1 Bft) O 92 0 min 0,000 mm 0,0 UV-I 0 W/m 11,3 C 16,4 C 4,8 km/h (1 Bft) 100,00 %
11.05.2018 23:07 16,4 C 20,0 C 72 % 1014,5 hPa 0,0 l/m 3,8 km/h (1 Bft) O 92 0 min 0,000 mm 0,0 UV-I 0 W/m 11,3 C 16,4 C 4,8 km/h (1 Bft) 100,00 %
11.05.2018 23:08 16,4 C 20,0 C 72 % 1014,5 hPa 0,0 l/m 3,5 km/h (1 Bft) O 92 0 min 0,000 mm 0,0 UV-I 0 W/m 11,3 C 16,4 C 4,8 km/h (1 Bft) 100,00 %
11.05.2018 23:09 16,4 C 20,0 C 72 % 1014,5 hPa 0,0 l/m 4,4 km/h (1 Bft) O-NO 71 0 min 0,000 mm 0,0 UV-I 0 W/m 11,3 C 16,4 C 6,4 km/h (2 Bft) 100,00 %
11.05.2018 23:10 16,4 C 20,0 C 72 % 1014,5 hPa 0,0 l/m 4,2 km/h (1 Bft) O-NO 67 0 min 0,000 mm 0,0 UV-I 0 W/m 11,3 C 16,4 C 4,8 km/h (1 Bft) 95,83 %
11.05.2018 23:11 16,3 C 20,0 C 72 % 1014,5 hPa 0,0 l/m 3,9 km/h (1 Bft) O-NO 67 0 min 0,000 mm 0,0 UV-I 0 W/m 11,2 C 16,3 C 4,8 km/h (1 Bft) 100,00 %
11.05.2018 23:12 16,3 C 20,0 C 72 % 1014,5 hPa 0,0 l/m 3,4 km/h (1 Bft) O-NO 66 0 min 0,000 mm 0,0 UV-I 0 W/m 11,2 C 16,3 C 4,8 km/h (1 Bft) 100,00 %
11.05.2018 23:13 16,3 C 20,0 C 72 % 1014,5 hPa 0,0 l/m 3,4 km/h (1 Bft) O-NO 66 0 min 0,000 mm 0,0 UV-I 0 W/m 11,2 C 16,3 C 4,8 km/h (1 Bft) 100,00 %
11.05.2018 23:14 16,3 C 20,0 C 72 % 1014,5 hPa 0,0 l/m 3,2 km/h (1 Bft) O-NO 66 0 min 0,000 mm 0,0 UV-I 0 W/m 11,2 C 16,3 C 4,8 km/h (1 Bft) 100,00 %
11.05.2018 23:15 16,2 C 20,0 C 72 % 1014,5 hPa 0,0 l/m 3,2 km/h (1 Bft) O-NO 62 0 min 0,000 mm 0,0 UV-I 0 W/m 11,1 C 16,2 C 3,2 km/h (1 Bft) 100,00 %
11.05.2018 23:16 16,2 C 20,0 C 72 % 1014,5 hPa 0,0 l/m 2,1 km/h (1 Bft) O-NO 62 0 min 0,000 mm 0,0 UV-I 0 W/m 11,1 C 16,2 C 3,2 km/h (1 Bft) 100,00 %
11.05.2018 23:17 16,2 C 20,0 C 73 % 1014,4 hPa 0,0 l/m 1,9 km/h (1 Bft) O-NO 62 0 min 0,000 mm 0,0 UV-I 0 W/m 11,4 C 16,2 C 3,2 km/h (1 Bft) 100,00 %
11.05.2018 23:18 16,2 C 20,0 C 73 % 1014,5 hPa 0,0 l/m 0,9 km/h (0 Bft) O-NO 62 0 min 0,000 mm 0,0 UV-I 0 W/m 11,4 C 16,2 C 1,6 km/h (1 Bft) 100,00 %
11.05.2018 23:19 16,2 C 20,0 C 73 % 1014,4 hPa 0,0 l/m 0,4 km/h (0 Bft) O-NO 62 0 min 0,000 mm 0,0 UV-I 0 W/m 11,4 C 16,2 C 1,6 km/h (1 Bft) 100,00 %
11.05.2018 23:20 16,1 C 20,0 C 73 % 1014,4 hPa 0,0 l/m 0,5 km/h (0 Bft) O-NO 62 0 min 0,000 mm 0,0 UV-I 0 W/m 11,3 C 16,1 C 1,6 km/h (1 Bft) 100,00 %
11.05.2018 23:21 16,1 C 20,0 C 73 % 1014,4 hPa 0,0 l/m 1,8 km/h (1 Bft) O-NO 62 0 min 0,000 mm 0,0 UV-I 0 W/m 11,3 C 16,1 C 3,2 km/h (1 Bft) 95,65 %
11.05.2018 23:22 16,1 C 20,0 C 73 % 1014,4 hPa 0,0 l/m 2,4 km/h (1 Bft) O-NO 62 0 min 0,000 mm 0,0 UV-I 0 W/m 11,3 C 16,1 C 3,2 km/h (1 Bft) 100,00 %
11.05.2018 23:23 16,2 C 20,0 C 73 % 1014,5 hPa 0,0 l/m 1,8 km/h (1 Bft) O-NO 62 0 min 0,000 mm 0,0 UV-I 0 W/m 11,4 C 16,2 C 3,2 km/h (1 Bft) 91,30 %
11.05.2018 23:24 16,2 C 20,0 C 73 % 1014,5 hPa 0,0 l/m 1,1 km/h (1 Bft) O-NO 62 0 min 0,000 mm 0,0 UV-I 0 W/m 11,4 C 16,2 C 3,2 km/h (1 Bft) 100,00 %
11.05.2018 23:25 16,2 C 20,0 C 73 % 1014,4 hPa 0,0 l/m 1,3 km/h (1 Bft) O-NO 62 0 min 0,000 mm 0,0 UV-I 0 W/m 11,4 C 16,2 C 3,2 km/h (1 Bft) 100,00 %
11.05.2018 23:26 16,2 C 20,0 C 73 % 1014,4 hPa 0,0 l/m 1,3 km/h (1 Bft) O-NO 62 0 min 0,000 mm 0,0 UV-I 0 W/m 11,4 C 16,2 C 1,6 km/h (1 Bft) 100,00 %
11.05.2018 23:27 16,2 C 20,0 C 73 % 1014,4 hPa 0,0 l/m 2,1 km/h (1 Bft) O-NO 62 0 min 0,000 mm 0,0 UV-I 0 W/m 11,4 C 16,2 C 3,2 km/h (1 Bft) 100,00 %
11.05.2018 23:28 16,1 C 20,0 C 73 % 1014,4 hPa 0,0 l/m 1,9 km/h (1 Bft) O-NO 62 0 min 0,000 mm 0,0 UV-I 0 W/m 11,3 C 16,1 C 3,2 km/h (1 Bft) 100,00 %
11.05.2018 23:29 16,1 C 20,0 C 73 % 1014,5 hPa 0,0 l/m 1,0 km/h (0 Bft) O-NO 62 0 min 0,000 mm 0,0 UV-I 0 W/m 11,3 C 16,1 C 1,6 km/h (1 Bft) 100,00 %
11.05.2018 23:30 16,1 C 20,0 C 73 % 1014,4 hPa 0,0 l/m 1,7 km/h (1 Bft) O-NO 62 0 min 0,000 mm 0,0 UV-I 0 W/m 11,3 C 16,1 C 3,2 km/h (1 Bft) 100,00 %
11.05.2018 23:31 16,1 C 20,0 C 73 % 1014,5 hPa 0,0 l/m 2,0 km/h (1 Bft) O-NO 62 0 min 0,000 mm 0,0 UV-I 0 W/m 11,3 C 16,1 C 3,2 km/h (1 Bft) 100,00 %
11.05.2018 23:32 16,1 C 20,0 C 73 % 1014,4 hPa 0,0 l/m 1,1 km/h (1 Bft) O-NO 62 0 min 0,000 mm 0,0 UV-I 0 W/m 11,3 C 16,1 C 3,2 km/h (1 Bft) 100,00 %
11.05.2018 23:33 16,1 C 20,0 C 73 % 1014,4 hPa 0,0 l/m 0,1 km/h (0 Bft) O-NO 62 0 min 0,000 mm 0,0 UV-I 0 W/m 11,3 C 16,1 C 1,6 km/h (1 Bft) 100,00 %
11.05.2018 23:34 16,1 C 20,0 C 73 % 1014,4 hPa 0,0 l/m 0,9 km/h (0 Bft) O-NO 62 0 min 0,000 mm 0,0 UV-I 0 W/m 11,3 C 16,1 C 1,6 km/h (1 Bft) 95,65 %
11.05.2018 23:35 16,1 C 20,0 C 73 % 1014,4 hPa 0,0 l/m 1,5 km/h (1 Bft) O-NO 62 0 min 0,000 mm 0,0 UV-I 0 W/m 11,3 C 16,1 C 3,2 km/h (1 Bft) 100,00 %
11.05.2018 23:36 16,1 C 20,0 C 73 % 1014,4 hPa 0,0 l/m 1,6 km/h (1 Bft) O-NO 62 0 min 0,000 mm 0,0 UV-I 0 W/m 11,3 C 16,1 C 3,2 km/h (1 Bft) 100,00 %
11.05.2018 23:37 16,0 C 20,0 C 73 % 1014,4 hPa 0,0 l/m 1,9 km/h (1 Bft) O-NO 62 0 min 0,000 mm 0,0 UV-I 0 W/m 11,2 C 16,0 C 3,2 km/h (1 Bft) 91,67 %
11.05.2018 23:38 15,9 C 20,0 C 73 % 1014,5 hPa 0,0 l/m 2,8 km/h (1 Bft) O-NO 62 0 min 0,000 mm 0,0 UV-I 0 W/m 11,1 C 15,9 C 3,2 km/h (1 Bft) 100,00 %
11.05.2018 23:39 15,9 C 20,0 C 74 % 1014,5 hPa 0,0 l/m 2,9 km/h (1 Bft) O-NO 62 0 min 0,000 mm 0,0 UV-I 0 W/m 11,3 C 15,9 C 3,2 km/h (1 Bft) 100,00 %
11.05.2018 23:40 15,8 C 20,0 C 74 % 1014,5 hPa 0,0 l/m 3,5 km/h (1 Bft) O-NO 62 0 min 0,000 mm 0,0 UV-I 0 W/m 11,2 C 15,8 C 4,8 km/h (1 Bft) 95,83 %
11.05.2018 23:41 15,8 C 20,0 C 74 % 1014,5 hPa 0,0 l/m 3,4 km/h (1 Bft) O-NO 62 0 min 0,000 mm 0,0 UV-I 0 W/m 11,2 C 15,8 C 4,8 km/h (1 Bft) 100,00 %
11.05.2018 23:42 15,8 C 20,0 C 74 % 1014,5 hPa 0,0 l/m 4,5 km/h (1 Bft) O-NO 61 0 min 0,000 mm 0,0 UV-I 0 W/m 11,2 C 15,8 C 4,8 km/h (1 Bft) 100,00 %
11.05.2018 23:43 15,8 C 20,0 C 74 % 1014,5 hPa 0,0 l/m 3,6 km/h (1 Bft) O-NO 62 0 min 0,000 mm 0,0 UV-I 0 W/m 11,2 C 15,8 C 4,8 km/h (1 Bft) 100,00 %
11.05.2018 23:44 15,8 C 20,0 C 74 % 1014,5 hPa 0,0 l/m 3,2 km/h (1 Bft) O-NO 62 0 min 0,000 mm 0,0 UV-I 0 W/m 11,2 C 15,8 C 3,2 km/h (1 Bft) 100,00 %
11.05.2018 23:45 15,8 C 20,0 C 74 % 1014,5 hPa 0,0 l/m 2,6 km/h (1 Bft) O-NO 62 0 min 0,000 mm 0,0 UV-I 0 W/m 11,2 C 15,8 C 3,2 km/h (1 Bft) 100,00 %
11.05.2018 23:46 15,8 C 20,0 C 74 % 1014,5 hPa 0,0 l/m 1,1 km/h (1 Bft) O-NO 62 0 min 0,000 mm 0,0 UV-I 0 W/m 11,2 C 15,8 C 3,2 km/h (1 Bft) 100,00 %
11.05.2018 23:48 15,8 C 20,0 C 74 % 1014,5 hPa 0,0 l/m 1,8 km/h (1 Bft) O-NO 62 0 min 0,000 mm 0,0 UV-I 0 W/m 11,2 C 15,8 C 3,2 km/h (1 Bft) 97,87 %
11.05.2018 23:49 15,8 C 20,0 C 74 % 1014,5 hPa 0,0 l/m 2,5 km/h (1 Bft) O-NO 62 0 min 0,000 mm 0,0 UV-I 0 W/m 11,2 C 15,8 C 3,2 km/h (1 Bft) 100,00 %
11.05.2018 23:50 15,7 C 20,0 C 75 % 1014,5 hPa 0,0 l/m 1,5 km/h (1 Bft) O-NO 62 0 min 0,000 mm 0,0 UV-I 0 W/m 11,3 C 15,7 C 3,2 km/h (1 Bft) 100,00 %
11.05.2018 23:51 15,6 C 20,0 C 75 % 1014,5 hPa 0,0 l/m 1,8 km/h (1 Bft) O-NO 62 0 min 0,000 mm 0,0 UV-I 0 W/m 11,2 C 15,6 C 3,2 km/h (1 Bft) 91,30 %
11.05.2018 23:53 15,5 C 20,0 C 75 % 1014,4 hPa 0,0 l/m 1,6 km/h (1 Bft) O-NO 62 0 min 0,000 mm 0,0 UV-I 0 W/m 11,1 C 15,5 C 3,2 km/h (1 Bft) 100,00 %
11.05.2018 23:54 15,5 C 20,0 C 75 % 1014,4 hPa 0,0 l/m 1,2 km/h (1 Bft) O-NO 62 0 min 0,000 mm 0,0 UV-I 0 W/m 11,1 C 15,5 C 1,6 km/h (1 Bft) 100,00 %
11.05.2018 23:55 15,6 C 20,0 C 75 % 1014,5 hPa 0,0 l/m 1,6 km/h (1 Bft) O-NO 62 0 min 0,000 mm 0,0 UV-I 0 W/m 11,2 C 15,6 C 1,6 km/h (1 Bft) 100,00 %
11.05.2018 23:56 15,6 C 20,0 C 75 % 1014,5 hPa 0,0 l/m 1,5 km/h (1 Bft) O-NO 62 0 min 0,000 mm 0,0 UV-I 0 W/m 11,2 C 15,6 C 3,2 km/h (1 Bft) 100,00 %
11.05.2018 23:57 15,6 C 20,0 C 75 % 1014,6 hPa 0,0 l/m 1,9 km/h (1 Bft) O-NO 62 0 min 0,000 mm 0,0 UV-I 0 W/m 11,2 C 15,6 C 3,2 km/h (1 Bft) 95,65 %
11.05.2018 23:58 15,6 C 20,0 C 75 % 1014,6 hPa 0,0 l/m 1,9 km/h (1 Bft) O-NO 62 0 min 0,000 mm 0,0 UV-I 0 W/m 11,2 C 15,6 C 3,2 km/h (1 Bft) 100,00 %
_ Min-Zeit 07:40 02:39 18:38 18:42 - 10:21 - - - - - - 06:29 04:34 10:21 16:21
Minimum _ 11,8 C 18,9 C 52 % 1013,3 hPa - 0,0 km/h (0 Bft) - - - - - - 9,7 C 6,4 C 0,0 km/h (0 Bft) 83,33 %
_ Max-Zeit 17:08 17:06 00:59 08:39 00:00 03:32 - - 14:23 15:00 12:49 12:50 14:55 16:53 03:32 00:00
Maximum _ 22,5 C 20,6 C 88 % 1019,0 hPa 0,0 l/m 23,5 km/h
W-SW (4 Bft)
- - 2 min 0,508 mm 5,2 UV-I 1165 W/m 14,0 C 22,1 C 32,2 km/h
W-SW (5 Bft)
100,00 %
Durchschnitt _ 16,5 C 19,5 C 74 % 1016,1 hPa #0,0 l/m 9,6 km/h (2 Bft) W-SW - #8:46 h #3,886 mm 2,5 UV-I 355 W/m 11,5 C 14,8 C 13,6 km/h (3 Bft) 97,84 %